<?xml version="1.0" encoding="UTF-8" standalone="no" ?>
<gpx xmlns="http://www.topografix.com/GPX/1/1" xmlns:xsi="http://www.w3.org/2001/XMLSchema-instance" xsi:schemaLocation="http://www.topografix.com/GPX/1/1 http://www.topografix.com/GPX/1/1/gpx.xsd" version="1.1" creator="VisuGPX - https://www.visugpx.com">
  <metadata>
    <name>gravel100</name>
  </metadata>
  <trk>
    <name><![CDATA[Manque 18kil. Le gps n’a pas redémarré 🙄. ]]></name>
    <extensions>
      <line xmlns="http://www.topografix.com/GPX/gpx_style/0/2">
        <color>FFFF00</color>
        <width>4</width>
      </line>
    </extensions>
    <trkseg>
      <trkpt lat="47.31705" lon="-0.58632">
        <ele>103.4</ele>
        <time>2021-07-04T08:26:10Z</time>
      </trkpt>
      <trkpt lat="47.3172" lon="-0.58627">
        <ele>103.6</ele>
        <time>2021-07-04T08:26:16Z</time>
      </trkpt>
      <trkpt lat="47.31727" lon="-0.58625">
        <ele>103.4</ele>
        <time>2021-07-04T08:26:18Z</time>
      </trkpt>
      <trkpt lat="47.3173" lon="-0.58624">
        <ele>98.8</ele>
        <time>2021-07-04T08:26:19Z</time>
      </trkpt>
      <trkpt lat="47.31733" lon="-0.58623">
        <ele>100.8</ele>
        <time>2021-07-04T08:26:20Z</time>
      </trkpt>
      <trkpt lat="47.31737" lon="-0.58622">
        <ele>104.2</ele>
        <time>2021-07-04T08:26:21Z</time>
      </trkpt>
      <trkpt lat="47.3174" lon="-0.58621">
        <ele>106.2</ele>
        <time>2021-07-04T08:26:22Z</time>
      </trkpt>
      <trkpt lat="47.31743" lon="-0.58619">
        <ele>104.4</ele>
        <time>2021-07-04T08:26:23Z</time>
      </trkpt>
      <trkpt lat="47.31747" lon="-0.58618">
        <ele>103.8</ele>
        <time>2021-07-04T08:26:24Z</time>
      </trkpt>
      <trkpt lat="47.31756" lon="-0.58614">
        <ele>103.4</ele>
        <time>2021-07-04T08:26:26Z</time>
      </trkpt>
      <trkpt lat="47.3176" lon="-0.58612">
        <ele>103.2</ele>
        <time>2021-07-04T08:26:27Z</time>
      </trkpt>
      <trkpt lat="47.31765" lon="-0.58609">
        <ele>103.2</ele>
        <time>2021-07-04T08:26:28Z</time>
      </trkpt>
      <trkpt lat="47.31769" lon="-0.58606">
        <ele>103</ele>
        <time>2021-07-04T08:26:29Z</time>
      </trkpt>
      <trkpt lat="47.31773" lon="-0.58603">
        <ele>102.8</ele>
        <time>2021-07-04T08:26:30Z</time>
      </trkpt>
      <trkpt lat="47.31778" lon="-0.58596">
        <ele>103</ele>
        <time>2021-07-04T08:26:32Z</time>
      </trkpt>
      <trkpt lat="47.31781" lon="-0.58593">
        <ele>103</ele>
        <time>2021-07-04T08:26:33Z</time>
      </trkpt>
      <trkpt lat="47.31784" lon="-0.58591">
        <ele>103.2</ele>
        <time>2021-07-04T08:26:34Z</time>
      </trkpt>
      <trkpt lat="47.31788" lon="-0.58591">
        <ele>103</ele>
        <time>2021-07-04T08:26:35Z</time>
      </trkpt>
      <trkpt lat="47.31791" lon="-0.58593">
        <ele>102.8</ele>
        <time>2021-07-04T08:26:36Z</time>
      </trkpt>
      <trkpt lat="47.318" lon="-0.58598">
        <ele>102</ele>
        <time>2021-07-04T08:26:38Z</time>
      </trkpt>
      <trkpt lat="47.31805" lon="-0.58599">
        <ele>102</ele>
        <time>2021-07-04T08:26:39Z</time>
      </trkpt>
      <trkpt lat="47.31809" lon="-0.58598">
        <ele>101.8</ele>
        <time>2021-07-04T08:26:40Z</time>
      </trkpt>
      <trkpt lat="47.31816" lon="-0.58594">
        <ele>102</ele>
        <time>2021-07-04T08:26:42Z</time>
      </trkpt>
      <trkpt lat="47.31823" lon="-0.58591">
        <ele>103</ele>
        <time>2021-07-04T08:26:44Z</time>
      </trkpt>
      <trkpt lat="47.3183" lon="-0.58587">
        <ele>102.6</ele>
        <time>2021-07-04T08:26:46Z</time>
      </trkpt>
      <trkpt lat="47.31833" lon="-0.58585">
        <ele>101</ele>
        <time>2021-07-04T08:26:47Z</time>
      </trkpt>
      <trkpt lat="47.31837" lon="-0.58584">
        <ele>101.2</ele>
        <time>2021-07-04T08:26:48Z</time>
      </trkpt>
      <trkpt lat="47.31846" lon="-0.58581">
        <ele>101.2</ele>
        <time>2021-07-04T08:26:50Z</time>
      </trkpt>
      <trkpt lat="47.31853" lon="-0.58578">
        <ele>100.8</ele>
        <time>2021-07-04T08:26:52Z</time>
      </trkpt>
      <trkpt lat="47.31858" lon="-0.58576">
        <ele>100.4</ele>
        <time>2021-07-04T08:26:53Z</time>
      </trkpt>
      <trkpt lat="47.31863" lon="-0.58574">
        <ele>100.4</ele>
        <time>2021-07-04T08:26:54Z</time>
      </trkpt>
      <trkpt lat="47.31873" lon="-0.58571">
        <ele>99.8</ele>
        <time>2021-07-04T08:26:56Z</time>
      </trkpt>
      <trkpt lat="47.31886" lon="-0.58565">
        <ele>98.8</ele>
        <time>2021-07-04T08:26:58Z</time>
      </trkpt>
      <trkpt lat="47.31891" lon="-0.58562">
        <ele>98.2</ele>
        <time>2021-07-04T08:26:59Z</time>
      </trkpt>
      <trkpt lat="47.31896" lon="-0.5856">
        <ele>97.8</ele>
        <time>2021-07-04T08:27:00Z</time>
      </trkpt>
      <trkpt lat="47.31908" lon="-0.58555">
        <ele>97.2</ele>
        <time>2021-07-04T08:27:02Z</time>
      </trkpt>
      <trkpt lat="47.31921" lon="-0.58551">
        <ele>96.6</ele>
        <time>2021-07-04T08:27:04Z</time>
      </trkpt>
      <trkpt lat="47.31935" lon="-0.58547">
        <ele>96.8</ele>
        <time>2021-07-04T08:27:06Z</time>
      </trkpt>
      <trkpt lat="47.31948" lon="-0.58543">
        <ele>96</ele>
        <time>2021-07-04T08:27:08Z</time>
      </trkpt>
      <trkpt lat="47.31961" lon="-0.58539">
        <ele>94.8</ele>
        <time>2021-07-04T08:27:10Z</time>
      </trkpt>
      <trkpt lat="47.31975" lon="-0.58534">
        <ele>94</ele>
        <time>2021-07-04T08:27:12Z</time>
      </trkpt>
      <trkpt lat="47.31991" lon="-0.5853">
        <ele>94.2</ele>
        <time>2021-07-04T08:27:14Z</time>
      </trkpt>
      <trkpt lat="47.31999" lon="-0.58528">
        <ele>93.6</ele>
        <time>2021-07-04T08:27:15Z</time>
      </trkpt>
      <trkpt lat="47.32007" lon="-0.58525">
        <ele>93.4</ele>
        <time>2021-07-04T08:27:16Z</time>
      </trkpt>
      <trkpt lat="47.32024" lon="-0.58521">
        <ele>93</ele>
        <time>2021-07-04T08:27:18Z</time>
      </trkpt>
      <trkpt lat="47.3204" lon="-0.58517">
        <ele>92.8</ele>
        <time>2021-07-04T08:27:20Z</time>
      </trkpt>
      <trkpt lat="47.32056" lon="-0.58512">
        <ele>92.6</ele>
        <time>2021-07-04T08:27:22Z</time>
      </trkpt>
      <trkpt lat="47.32064" lon="-0.5851">
        <ele>92.6</ele>
        <time>2021-07-04T08:27:23Z</time>
      </trkpt>
      <trkpt lat="47.32071" lon="-0.58507">
        <ele>92</ele>
        <time>2021-07-04T08:27:24Z</time>
      </trkpt>
      <trkpt lat="47.32077" lon="-0.58505">
        <ele>91.6</ele>
        <time>2021-07-04T08:27:25Z</time>
      </trkpt>
      <trkpt lat="47.32085" lon="-0.58502">
        <ele>91.4</ele>
        <time>2021-07-04T08:27:26Z</time>
      </trkpt>
      <trkpt lat="47.32099" lon="-0.58498">
        <ele>91.6</ele>
        <time>2021-07-04T08:27:28Z</time>
      </trkpt>
      <trkpt lat="47.32113" lon="-0.58493">
        <ele>90.6</ele>
        <time>2021-07-04T08:27:30Z</time>
      </trkpt>
      <trkpt lat="47.32126" lon="-0.58489">
        <ele>90.6</ele>
        <time>2021-07-04T08:27:32Z</time>
      </trkpt>
      <trkpt lat="47.32133" lon="-0.58487">
        <ele>90.4</ele>
        <time>2021-07-04T08:27:33Z</time>
      </trkpt>
      <trkpt lat="47.3214" lon="-0.58485">
        <ele>90</ele>
        <time>2021-07-04T08:27:34Z</time>
      </trkpt>
      <trkpt lat="47.32152" lon="-0.58481">
        <ele>90</ele>
        <time>2021-07-04T08:27:36Z</time>
      </trkpt>
      <trkpt lat="47.32165" lon="-0.58476">
        <ele>89.8</ele>
        <time>2021-07-04T08:27:38Z</time>
      </trkpt>
      <trkpt lat="47.32171" lon="-0.58473">
        <ele>89.4</ele>
        <time>2021-07-04T08:27:39Z</time>
      </trkpt>
      <trkpt lat="47.32176" lon="-0.58471">
        <ele>89.6</ele>
        <time>2021-07-04T08:27:40Z</time>
      </trkpt>
      <trkpt lat="47.32189" lon="-0.58465">
        <ele>89.2</ele>
        <time>2021-07-04T08:27:42Z</time>
      </trkpt>
      <trkpt lat="47.32202" lon="-0.5846">
        <ele>88.2</ele>
        <time>2021-07-04T08:27:44Z</time>
      </trkpt>
      <trkpt lat="47.32208" lon="-0.58458">
        <ele>88.2</ele>
        <time>2021-07-04T08:27:45Z</time>
      </trkpt>
      <trkpt lat="47.32214" lon="-0.58456">
        <ele>88.2</ele>
        <time>2021-07-04T08:27:46Z</time>
      </trkpt>
      <trkpt lat="47.32227" lon="-0.58451">
        <ele>87.6</ele>
        <time>2021-07-04T08:27:48Z</time>
      </trkpt>
      <trkpt lat="47.32239" lon="-0.58447">
        <ele>88.2</ele>
        <time>2021-07-04T08:27:50Z</time>
      </trkpt>
      <trkpt lat="47.32246" lon="-0.58445">
        <ele>88</ele>
        <time>2021-07-04T08:27:51Z</time>
      </trkpt>
      <trkpt lat="47.32253" lon="-0.58442">
        <ele>87.6</ele>
        <time>2021-07-04T08:27:52Z</time>
      </trkpt>
      <trkpt lat="47.32267" lon="-0.58438">
        <ele>87.2</ele>
        <time>2021-07-04T08:27:54Z</time>
      </trkpt>
      <trkpt lat="47.32282" lon="-0.58433">
        <ele>86.8</ele>
        <time>2021-07-04T08:27:56Z</time>
      </trkpt>
      <trkpt lat="47.32296" lon="-0.58429">
        <ele>86.2</ele>
        <time>2021-07-04T08:27:58Z</time>
      </trkpt>
      <trkpt lat="47.32311" lon="-0.58426">
        <ele>85.6</ele>
        <time>2021-07-04T08:28:00Z</time>
      </trkpt>
      <trkpt lat="47.32318" lon="-0.58423">
        <ele>85.2</ele>
        <time>2021-07-04T08:28:01Z</time>
      </trkpt>
      <trkpt lat="47.32326" lon="-0.5842">
        <ele>85.4</ele>
        <time>2021-07-04T08:28:02Z</time>
      </trkpt>
      <trkpt lat="47.32333" lon="-0.58418">
        <ele>85.2</ele>
        <time>2021-07-04T08:28:03Z</time>
      </trkpt>
      <trkpt lat="47.32341" lon="-0.58415">
        <ele>85</ele>
        <time>2021-07-04T08:28:04Z</time>
      </trkpt>
      <trkpt lat="47.32355" lon="-0.58411">
        <ele>84.8</ele>
        <time>2021-07-04T08:28:06Z</time>
      </trkpt>
      <trkpt lat="47.32361" lon="-0.58408">
        <ele>84.8</ele>
        <time>2021-07-04T08:28:07Z</time>
      </trkpt>
      <trkpt lat="47.32368" lon="-0.58405">
        <ele>84.8</ele>
        <time>2021-07-04T08:28:08Z</time>
      </trkpt>
      <trkpt lat="47.3238" lon="-0.58401">
        <ele>85</ele>
        <time>2021-07-04T08:28:10Z</time>
      </trkpt>
      <trkpt lat="47.32392" lon="-0.58398">
        <ele>85.2</ele>
        <time>2021-07-04T08:28:12Z</time>
      </trkpt>
      <trkpt lat="47.32398" lon="-0.58395">
        <ele>85.2</ele>
        <time>2021-07-04T08:28:13Z</time>
      </trkpt>
      <trkpt lat="47.32403" lon="-0.58394">
        <ele>85.2</ele>
        <time>2021-07-04T08:28:14Z</time>
      </trkpt>
      <trkpt lat="47.32414" lon="-0.58389">
        <ele>85</ele>
        <time>2021-07-04T08:28:16Z</time>
      </trkpt>
      <trkpt lat="47.32425" lon="-0.58383">
        <ele>85</ele>
        <time>2021-07-04T08:28:18Z</time>
      </trkpt>
      <trkpt lat="47.32437" lon="-0.58378">
        <ele>85.4</ele>
        <time>2021-07-04T08:28:20Z</time>
      </trkpt>
      <trkpt lat="47.3245" lon="-0.58374">
        <ele>86</ele>
        <time>2021-07-04T08:28:22Z</time>
      </trkpt>
      <trkpt lat="47.32464" lon="-0.58369">
        <ele>85.8</ele>
        <time>2021-07-04T08:28:24Z</time>
      </trkpt>
      <trkpt lat="47.3248" lon="-0.58366">
        <ele>85.8</ele>
        <time>2021-07-04T08:28:26Z</time>
      </trkpt>
      <trkpt lat="47.32496" lon="-0.58362">
        <ele>85.8</ele>
        <time>2021-07-04T08:28:28Z</time>
      </trkpt>
      <trkpt lat="47.32503" lon="-0.5836">
        <ele>86.2</ele>
        <time>2021-07-04T08:28:29Z</time>
      </trkpt>
      <trkpt lat="47.3251" lon="-0.58359">
        <ele>86.2</ele>
        <time>2021-07-04T08:28:30Z</time>
      </trkpt>
      <trkpt lat="47.32523" lon="-0.58356">
        <ele>86.6</ele>
        <time>2021-07-04T08:28:32Z</time>
      </trkpt>
      <trkpt lat="47.32536" lon="-0.58351">
        <ele>87.2</ele>
        <time>2021-07-04T08:28:34Z</time>
      </trkpt>
      <trkpt lat="47.32542" lon="-0.58348">
        <ele>87.2</ele>
        <time>2021-07-04T08:28:35Z</time>
      </trkpt>
      <trkpt lat="47.32548" lon="-0.58347">
        <ele>87.2</ele>
        <time>2021-07-04T08:28:36Z</time>
      </trkpt>
      <trkpt lat="47.32559" lon="-0.58343">
        <ele>87.4</ele>
        <time>2021-07-04T08:28:38Z</time>
      </trkpt>
      <trkpt lat="47.32571" lon="-0.58339">
        <ele>87.2</ele>
        <time>2021-07-04T08:28:40Z</time>
      </trkpt>
      <trkpt lat="47.32584" lon="-0.58334">
        <ele>87</ele>
        <time>2021-07-04T08:28:42Z</time>
      </trkpt>
      <trkpt lat="47.32598" lon="-0.5833">
        <ele>86.8</ele>
        <time>2021-07-04T08:28:44Z</time>
      </trkpt>
      <trkpt lat="47.32604" lon="-0.58328">
        <ele>86.6</ele>
        <time>2021-07-04T08:28:45Z</time>
      </trkpt>
      <trkpt lat="47.32611" lon="-0.58327">
        <ele>86.4</ele>
        <time>2021-07-04T08:28:46Z</time>
      </trkpt>
      <trkpt lat="47.32617" lon="-0.58325">
        <ele>86.2</ele>
        <time>2021-07-04T08:28:47Z</time>
      </trkpt>
      <trkpt lat="47.32624" lon="-0.58322">
        <ele>85.6</ele>
        <time>2021-07-04T08:28:48Z</time>
      </trkpt>
      <trkpt lat="47.32636" lon="-0.58317">
        <ele>85.8</ele>
        <time>2021-07-04T08:28:50Z</time>
      </trkpt>
      <trkpt lat="47.32642" lon="-0.58314">
        <ele>86.2</ele>
        <time>2021-07-04T08:28:51Z</time>
      </trkpt>
      <trkpt lat="47.32648" lon="-0.58312">
        <ele>86.4</ele>
        <time>2021-07-04T08:28:52Z</time>
      </trkpt>
      <trkpt lat="47.32657" lon="-0.58309">
        <ele>86.6</ele>
        <time>2021-07-04T08:28:54Z</time>
      </trkpt>
      <trkpt lat="47.32662" lon="-0.58307">
        <ele>86.8</ele>
        <time>2021-07-04T08:28:55Z</time>
      </trkpt>
      <trkpt lat="47.32667" lon="-0.58305">
        <ele>86.8</ele>
        <time>2021-07-04T08:28:56Z</time>
      </trkpt>
      <trkpt lat="47.32677" lon="-0.58301">
        <ele>86.2</ele>
        <time>2021-07-04T08:28:58Z</time>
      </trkpt>
      <trkpt lat="47.32687" lon="-0.58297">
        <ele>86.4</ele>
        <time>2021-07-04T08:29:00Z</time>
      </trkpt>
      <trkpt lat="47.32698" lon="-0.58292">
        <ele>86.8</ele>
        <time>2021-07-04T08:29:02Z</time>
      </trkpt>
      <trkpt lat="47.32709" lon="-0.58288">
        <ele>86.4</ele>
        <time>2021-07-04T08:29:04Z</time>
      </trkpt>
      <trkpt lat="47.32719" lon="-0.58284">
        <ele>86.2</ele>
        <time>2021-07-04T08:29:06Z</time>
      </trkpt>
      <trkpt lat="47.32731" lon="-0.58279">
        <ele>86</ele>
        <time>2021-07-04T08:29:08Z</time>
      </trkpt>
      <trkpt lat="47.32744" lon="-0.58275">
        <ele>85.8</ele>
        <time>2021-07-04T08:29:10Z</time>
      </trkpt>
      <trkpt lat="47.3275" lon="-0.58273">
        <ele>85.6</ele>
        <time>2021-07-04T08:29:11Z</time>
      </trkpt>
      <trkpt lat="47.32757" lon="-0.58271">
        <ele>85.6</ele>
        <time>2021-07-04T08:29:12Z</time>
      </trkpt>
      <trkpt lat="47.3277" lon="-0.58267">
        <ele>85.4</ele>
        <time>2021-07-04T08:29:14Z</time>
      </trkpt>
      <trkpt lat="47.32783" lon="-0.58263">
        <ele>85.4</ele>
        <time>2021-07-04T08:29:16Z</time>
      </trkpt>
      <trkpt lat="47.3279" lon="-0.58261">
        <ele>85</ele>
        <time>2021-07-04T08:29:17Z</time>
      </trkpt>
      <trkpt lat="47.32796" lon="-0.58259">
        <ele>85</ele>
        <time>2021-07-04T08:29:18Z</time>
      </trkpt>
      <trkpt lat="47.3281" lon="-0.58253">
        <ele>84.6</ele>
        <time>2021-07-04T08:29:20Z</time>
      </trkpt>
      <trkpt lat="47.32822" lon="-0.58249">
        <ele>84.8</ele>
        <time>2021-07-04T08:29:22Z</time>
      </trkpt>
      <trkpt lat="47.32828" lon="-0.58246">
        <ele>86</ele>
        <time>2021-07-04T08:29:24Z</time>
      </trkpt>
      <trkpt lat="47.32829" lon="-0.58247">
        <ele>86.4</ele>
        <time>2021-07-04T08:29:25Z</time>
      </trkpt>
      <trkpt lat="47.32828" lon="-0.58247">
        <ele>86.6</ele>
        <time>2021-07-04T08:29:26Z</time>
      </trkpt>
      <trkpt lat="47.32841" lon="-0.58239">
        <ele>87</ele>
        <time>2021-07-04T08:31:02Z</time>
      </trkpt>
      <trkpt lat="47.32842" lon="-0.58236">
        <ele>87</ele>
        <time>2021-07-04T08:31:03Z</time>
      </trkpt>
      <trkpt lat="47.32843" lon="-0.58232">
        <ele>87</ele>
        <time>2021-07-04T08:31:04Z</time>
      </trkpt>
      <trkpt lat="47.32841" lon="-0.58223">
        <ele>86.8</ele>
        <time>2021-07-04T08:31:06Z</time>
      </trkpt>
      <trkpt lat="47.32839" lon="-0.58212">
        <ele>85.8</ele>
        <time>2021-07-04T08:31:08Z</time>
      </trkpt>
      <trkpt lat="47.32838" lon="-0.58201">
        <ele>85</ele>
        <time>2021-07-04T08:31:10Z</time>
      </trkpt>
      <trkpt lat="47.32837" lon="-0.58189">
        <ele>84</ele>
        <time>2021-07-04T08:31:12Z</time>
      </trkpt>
      <trkpt lat="47.32836" lon="-0.58182">
        <ele>84.2</ele>
        <time>2021-07-04T08:31:13Z</time>
      </trkpt>
      <trkpt lat="47.32835" lon="-0.58175">
        <ele>84.2</ele>
        <time>2021-07-04T08:31:14Z</time>
      </trkpt>
      <trkpt lat="47.32832" lon="-0.58157">
        <ele>83.6</ele>
        <time>2021-07-04T08:31:16Z</time>
      </trkpt>
      <trkpt lat="47.32827" lon="-0.58138">
        <ele>83.6</ele>
        <time>2021-07-04T08:31:18Z</time>
      </trkpt>
      <trkpt lat="47.32825" lon="-0.5813">
        <ele>83.4</ele>
        <time>2021-07-04T08:31:19Z</time>
      </trkpt>
      <trkpt lat="47.32823" lon="-0.5812">
        <ele>83.2</ele>
        <time>2021-07-04T08:31:20Z</time>
      </trkpt>
      <trkpt lat="47.32819" lon="-0.58101">
        <ele>82.6</ele>
        <time>2021-07-04T08:31:22Z</time>
      </trkpt>
      <trkpt lat="47.32818" lon="-0.58092">
        <ele>82.2</ele>
        <time>2021-07-04T08:31:23Z</time>
      </trkpt>
      <trkpt lat="47.32816" lon="-0.58083">
        <ele>81.8</ele>
        <time>2021-07-04T08:31:24Z</time>
      </trkpt>
      <trkpt lat="47.32813" lon="-0.58064">
        <ele>81.6</ele>
        <time>2021-07-04T08:31:26Z</time>
      </trkpt>
      <trkpt lat="47.32811" lon="-0.58054">
        <ele>81</ele>
        <time>2021-07-04T08:31:27Z</time>
      </trkpt>
      <trkpt lat="47.3281" lon="-0.58044">
        <ele>80.8</ele>
        <time>2021-07-04T08:31:28Z</time>
      </trkpt>
      <trkpt lat="47.32808" lon="-0.58024">
        <ele>80</ele>
        <time>2021-07-04T08:31:30Z</time>
      </trkpt>
      <trkpt lat="47.32807" lon="-0.58004">
        <ele>79</ele>
        <time>2021-07-04T08:31:32Z</time>
      </trkpt>
      <trkpt lat="47.32808" lon="-0.57994">
        <ele>78.6</ele>
        <time>2021-07-04T08:31:33Z</time>
      </trkpt>
      <trkpt lat="47.32809" lon="-0.57983">
        <ele>78</ele>
        <time>2021-07-04T08:31:34Z</time>
      </trkpt>
      <trkpt lat="47.32809" lon="-0.57972">
        <ele>77.6</ele>
        <time>2021-07-04T08:31:35Z</time>
      </trkpt>
      <trkpt lat="47.32811" lon="-0.5796">
        <ele>77.2</ele>
        <time>2021-07-04T08:31:36Z</time>
      </trkpt>
      <trkpt lat="47.32812" lon="-0.57948">
        <ele>76.8</ele>
        <time>2021-07-04T08:31:37Z</time>
      </trkpt>
      <trkpt lat="47.32813" lon="-0.57937">
        <ele>76</ele>
        <time>2021-07-04T08:31:38Z</time>
      </trkpt>
      <trkpt lat="47.32816" lon="-0.57915">
        <ele>75.4</ele>
        <time>2021-07-04T08:31:40Z</time>
      </trkpt>
      <trkpt lat="47.32818" lon="-0.57893">
        <ele>75</ele>
        <time>2021-07-04T08:31:42Z</time>
      </trkpt>
      <trkpt lat="47.32821" lon="-0.5787">
        <ele>75</ele>
        <time>2021-07-04T08:31:44Z</time>
      </trkpt>
      <trkpt lat="47.32822" lon="-0.5786">
        <ele>74.8</ele>
        <time>2021-07-04T08:31:45Z</time>
      </trkpt>
      <trkpt lat="47.32823" lon="-0.57849">
        <ele>74.2</ele>
        <time>2021-07-04T08:31:46Z</time>
      </trkpt>
      <trkpt lat="47.32829" lon="-0.57831">
        <ele>73.6</ele>
        <time>2021-07-04T08:31:48Z</time>
      </trkpt>
      <trkpt lat="47.32833" lon="-0.57823">
        <ele>73.8</ele>
        <time>2021-07-04T08:31:49Z</time>
      </trkpt>
      <trkpt lat="47.32837" lon="-0.57814">
        <ele>74</ele>
        <time>2021-07-04T08:31:50Z</time>
      </trkpt>
      <trkpt lat="47.32845" lon="-0.57799">
        <ele>74.2</ele>
        <time>2021-07-04T08:31:52Z</time>
      </trkpt>
      <trkpt lat="47.32849" lon="-0.57791">
        <ele>74</ele>
        <time>2021-07-04T08:31:53Z</time>
      </trkpt>
      <trkpt lat="47.32852" lon="-0.57783">
        <ele>73.8</ele>
        <time>2021-07-04T08:31:54Z</time>
      </trkpt>
      <trkpt lat="47.3286" lon="-0.57767">
        <ele>73.8</ele>
        <time>2021-07-04T08:31:56Z</time>
      </trkpt>
      <trkpt lat="47.32867" lon="-0.57751">
        <ele>74</ele>
        <time>2021-07-04T08:31:58Z</time>
      </trkpt>
      <trkpt lat="47.32873" lon="-0.57735">
        <ele>74</ele>
        <time>2021-07-04T08:32:00Z</time>
      </trkpt>
      <trkpt lat="47.32875" lon="-0.57727">
        <ele>74</ele>
        <time>2021-07-04T08:32:01Z</time>
      </trkpt>
      <trkpt lat="47.32876" lon="-0.57718">
        <ele>74.2</ele>
        <time>2021-07-04T08:32:02Z</time>
      </trkpt>
      <trkpt lat="47.32874" lon="-0.57709">
        <ele>74.4</ele>
        <time>2021-07-04T08:32:03Z</time>
      </trkpt>
      <trkpt lat="47.3287" lon="-0.57703">
        <ele>74.8</ele>
        <time>2021-07-04T08:32:04Z</time>
      </trkpt>
      <trkpt lat="47.32862" lon="-0.57694">
        <ele>75.6</ele>
        <time>2021-07-04T08:32:06Z</time>
      </trkpt>
      <trkpt lat="47.32858" lon="-0.5769">
        <ele>75.8</ele>
        <time>2021-07-04T08:32:07Z</time>
      </trkpt>
      <trkpt lat="47.32854" lon="-0.57686">
        <ele>76.4</ele>
        <time>2021-07-04T08:32:08Z</time>
      </trkpt>
      <trkpt lat="47.32845" lon="-0.57678">
        <ele>77.2</ele>
        <time>2021-07-04T08:32:10Z</time>
      </trkpt>
      <trkpt lat="47.32841" lon="-0.57674">
        <ele>77.2</ele>
        <time>2021-07-04T08:32:11Z</time>
      </trkpt>
      <trkpt lat="47.32837" lon="-0.5767">
        <ele>77.2</ele>
        <time>2021-07-04T08:32:12Z</time>
      </trkpt>
      <trkpt lat="47.32829" lon="-0.57662">
        <ele>77.6</ele>
        <time>2021-07-04T08:32:14Z</time>
      </trkpt>
      <trkpt lat="47.32821" lon="-0.57651">
        <ele>78</ele>
        <time>2021-07-04T08:32:16Z</time>
      </trkpt>
      <trkpt lat="47.32818" lon="-0.57645">
        <ele>78.2</ele>
        <time>2021-07-04T08:32:17Z</time>
      </trkpt>
      <trkpt lat="47.32816" lon="-0.57639">
        <ele>78.4</ele>
        <time>2021-07-04T08:32:18Z</time>
      </trkpt>
      <trkpt lat="47.32813" lon="-0.57624">
        <ele>78</ele>
        <time>2021-07-04T08:32:20Z</time>
      </trkpt>
      <trkpt lat="47.32813" lon="-0.57608">
        <ele>77.6</ele>
        <time>2021-07-04T08:32:22Z</time>
      </trkpt>
      <trkpt lat="47.32811" lon="-0.5759">
        <ele>77.2</ele>
        <time>2021-07-04T08:32:24Z</time>
      </trkpt>
      <trkpt lat="47.3281" lon="-0.57582">
        <ele>76.8</ele>
        <time>2021-07-04T08:32:25Z</time>
      </trkpt>
      <trkpt lat="47.32809" lon="-0.57573">
        <ele>76.8</ele>
        <time>2021-07-04T08:32:26Z</time>
      </trkpt>
      <trkpt lat="47.32805" lon="-0.57555">
        <ele>77</ele>
        <time>2021-07-04T08:32:28Z</time>
      </trkpt>
      <trkpt lat="47.32802" lon="-0.57538">
        <ele>76.2</ele>
        <time>2021-07-04T08:32:30Z</time>
      </trkpt>
      <trkpt lat="47.32799" lon="-0.57521">
        <ele>76.6</ele>
        <time>2021-07-04T08:32:32Z</time>
      </trkpt>
      <trkpt lat="47.32795" lon="-0.57504">
        <ele>77</ele>
        <time>2021-07-04T08:32:34Z</time>
      </trkpt>
      <trkpt lat="47.32791" lon="-0.57488">
        <ele>77.4</ele>
        <time>2021-07-04T08:32:36Z</time>
      </trkpt>
      <trkpt lat="47.32788" lon="-0.57474">
        <ele>77.8</ele>
        <time>2021-07-04T08:32:38Z</time>
      </trkpt>
      <trkpt lat="47.32786" lon="-0.57467">
        <ele>77.8</ele>
        <time>2021-07-04T08:32:39Z</time>
      </trkpt>
      <trkpt lat="47.32786" lon="-0.57459">
        <ele>78</ele>
        <time>2021-07-04T08:32:40Z</time>
      </trkpt>
      <trkpt lat="47.32783" lon="-0.57446">
        <ele>79.2</ele>
        <time>2021-07-04T08:32:42Z</time>
      </trkpt>
      <trkpt lat="47.32782" lon="-0.57432">
        <ele>80.8</ele>
        <time>2021-07-04T08:32:44Z</time>
      </trkpt>
      <trkpt lat="47.32781" lon="-0.57419">
        <ele>81</ele>
        <time>2021-07-04T08:32:46Z</time>
      </trkpt>
      <trkpt lat="47.32779" lon="-0.57405">
        <ele>81.8</ele>
        <time>2021-07-04T08:32:48Z</time>
      </trkpt>
      <trkpt lat="47.32779" lon="-0.57398">
        <ele>82.4</ele>
        <time>2021-07-04T08:32:49Z</time>
      </trkpt>
      <trkpt lat="47.32779" lon="-0.57392">
        <ele>82.2</ele>
        <time>2021-07-04T08:32:50Z</time>
      </trkpt>
      <trkpt lat="47.32777" lon="-0.5738">
        <ele>82.6</ele>
        <time>2021-07-04T08:32:52Z</time>
      </trkpt>
      <trkpt lat="47.32777" lon="-0.57375">
        <ele>83.2</ele>
        <time>2021-07-04T08:32:53Z</time>
      </trkpt>
      <trkpt lat="47.32775" lon="-0.57369">
        <ele>83.4</ele>
        <time>2021-07-04T08:32:54Z</time>
      </trkpt>
      <trkpt lat="47.32774" lon="-0.57364">
        <ele>83.4</ele>
        <time>2021-07-04T08:32:55Z</time>
      </trkpt>
      <trkpt lat="47.32771" lon="-0.57361">
        <ele>83.6</ele>
        <time>2021-07-04T08:32:56Z</time>
      </trkpt>
      <trkpt lat="47.32766" lon="-0.57356">
        <ele>84.2</ele>
        <time>2021-07-04T08:32:58Z</time>
      </trkpt>
      <trkpt lat="47.32762" lon="-0.57355">
        <ele>84.2</ele>
        <time>2021-07-04T08:32:59Z</time>
      </trkpt>
      <trkpt lat="47.32758" lon="-0.57352">
        <ele>84.2</ele>
        <time>2021-07-04T08:33:00Z</time>
      </trkpt>
      <trkpt lat="47.32751" lon="-0.57348">
        <ele>84.4</ele>
        <time>2021-07-04T08:33:02Z</time>
      </trkpt>
      <trkpt lat="47.32743" lon="-0.57345">
        <ele>84.6</ele>
        <time>2021-07-04T08:33:04Z</time>
      </trkpt>
      <trkpt lat="47.32735" lon="-0.57342">
        <ele>84.6</ele>
        <time>2021-07-04T08:33:06Z</time>
      </trkpt>
      <trkpt lat="47.32727" lon="-0.57339">
        <ele>85.4</ele>
        <time>2021-07-04T08:33:08Z</time>
      </trkpt>
      <trkpt lat="47.32718" lon="-0.57335">
        <ele>85.6</ele>
        <time>2021-07-04T08:33:10Z</time>
      </trkpt>
      <trkpt lat="47.32709" lon="-0.5733">
        <ele>85.6</ele>
        <time>2021-07-04T08:33:12Z</time>
      </trkpt>
      <trkpt lat="47.32705" lon="-0.57328">
        <ele>85.8</ele>
        <time>2021-07-04T08:33:13Z</time>
      </trkpt>
      <trkpt lat="47.32701" lon="-0.57326">
        <ele>85.6</ele>
        <time>2021-07-04T08:33:14Z</time>
      </trkpt>
      <trkpt lat="47.32697" lon="-0.57323">
        <ele>86</ele>
        <time>2021-07-04T08:33:15Z</time>
      </trkpt>
      <trkpt lat="47.32693" lon="-0.5732">
        <ele>86</ele>
        <time>2021-07-04T08:33:16Z</time>
      </trkpt>
      <trkpt lat="47.3269" lon="-0.57316">
        <ele>86.4</ele>
        <time>2021-07-04T08:33:17Z</time>
      </trkpt>
      <trkpt lat="47.32686" lon="-0.57312">
        <ele>86.6</ele>
        <time>2021-07-04T08:33:18Z</time>
      </trkpt>
      <trkpt lat="47.32683" lon="-0.57306">
        <ele>87</ele>
        <time>2021-07-04T08:33:19Z</time>
      </trkpt>
      <trkpt lat="47.3268" lon="-0.57301">
        <ele>87</ele>
        <time>2021-07-04T08:33:20Z</time>
      </trkpt>
      <trkpt lat="47.32676" lon="-0.5729">
        <ele>87.4</ele>
        <time>2021-07-04T08:33:22Z</time>
      </trkpt>
      <trkpt lat="47.32674" lon="-0.57284">
        <ele>87.6</ele>
        <time>2021-07-04T08:33:23Z</time>
      </trkpt>
      <trkpt lat="47.32671" lon="-0.57279">
        <ele>87.4</ele>
        <time>2021-07-04T08:33:24Z</time>
      </trkpt>
      <trkpt lat="47.32666" lon="-0.57268">
        <ele>87.6</ele>
        <time>2021-07-04T08:33:26Z</time>
      </trkpt>
      <trkpt lat="47.32662" lon="-0.57257">
        <ele>88</ele>
        <time>2021-07-04T08:33:28Z</time>
      </trkpt>
      <trkpt lat="47.3266" lon="-0.57252">
        <ele>88</ele>
        <time>2021-07-04T08:33:29Z</time>
      </trkpt>
      <trkpt lat="47.32657" lon="-0.57247">
        <ele>88.2</ele>
        <time>2021-07-04T08:33:30Z</time>
      </trkpt>
      <trkpt lat="47.32653" lon="-0.57236">
        <ele>88.2</ele>
        <time>2021-07-04T08:33:32Z</time>
      </trkpt>
      <trkpt lat="47.32649" lon="-0.57226">
        <ele>88.4</ele>
        <time>2021-07-04T08:33:34Z</time>
      </trkpt>
      <trkpt lat="47.32644" lon="-0.57215">
        <ele>88.6</ele>
        <time>2021-07-04T08:33:36Z</time>
      </trkpt>
      <trkpt lat="47.32642" lon="-0.5721">
        <ele>88.6</ele>
        <time>2021-07-04T08:33:37Z</time>
      </trkpt>
      <trkpt lat="47.3264" lon="-0.57204">
        <ele>88.6</ele>
        <time>2021-07-04T08:33:38Z</time>
      </trkpt>
      <trkpt lat="47.32638" lon="-0.57199">
        <ele>88.8</ele>
        <time>2021-07-04T08:33:39Z</time>
      </trkpt>
      <trkpt lat="47.32635" lon="-0.57193">
        <ele>88.8</ele>
        <time>2021-07-04T08:33:40Z</time>
      </trkpt>
      <trkpt lat="47.32631" lon="-0.57181">
        <ele>89</ele>
        <time>2021-07-04T08:33:42Z</time>
      </trkpt>
      <trkpt lat="47.32626" lon="-0.57169">
        <ele>89.2</ele>
        <time>2021-07-04T08:33:44Z</time>
      </trkpt>
      <trkpt lat="47.32624" lon="-0.57162">
        <ele>89.4</ele>
        <time>2021-07-04T08:33:45Z</time>
      </trkpt>
      <trkpt lat="47.32622" lon="-0.57156">
        <ele>89.4</ele>
        <time>2021-07-04T08:33:46Z</time>
      </trkpt>
      <trkpt lat="47.3262" lon="-0.57141">
        <ele>89.2</ele>
        <time>2021-07-04T08:33:48Z</time>
      </trkpt>
      <trkpt lat="47.32619" lon="-0.57133">
        <ele>89.2</ele>
        <time>2021-07-04T08:33:49Z</time>
      </trkpt>
      <trkpt lat="47.32618" lon="-0.57126">
        <ele>88.8</ele>
        <time>2021-07-04T08:33:50Z</time>
      </trkpt>
      <trkpt lat="47.32616" lon="-0.57111">
        <ele>88.6</ele>
        <time>2021-07-04T08:33:52Z</time>
      </trkpt>
      <trkpt lat="47.32614" lon="-0.57103">
        <ele>88.6</ele>
        <time>2021-07-04T08:33:53Z</time>
      </trkpt>
      <trkpt lat="47.32613" lon="-0.57096">
        <ele>88.4</ele>
        <time>2021-07-04T08:33:54Z</time>
      </trkpt>
      <trkpt lat="47.32611" lon="-0.57088">
        <ele>88.4</ele>
        <time>2021-07-04T08:33:55Z</time>
      </trkpt>
      <trkpt lat="47.32609" lon="-0.57081">
        <ele>88.2</ele>
        <time>2021-07-04T08:33:56Z</time>
      </trkpt>
      <trkpt lat="47.32605" lon="-0.57066">
        <ele>87.8</ele>
        <time>2021-07-04T08:33:58Z</time>
      </trkpt>
      <trkpt lat="47.32602" lon="-0.57059">
        <ele>87.8</ele>
        <time>2021-07-04T08:33:59Z</time>
      </trkpt>
      <trkpt lat="47.326" lon="-0.57053">
        <ele>87.6</ele>
        <time>2021-07-04T08:34:00Z</time>
      </trkpt>
      <trkpt lat="47.32596" lon="-0.57045">
        <ele>87.8</ele>
        <time>2021-07-04T08:34:02Z</time>
      </trkpt>
      <trkpt lat="47.32593" lon="-0.57045">
        <ele>87.8</ele>
        <time>2021-07-04T08:34:03Z</time>
      </trkpt>
      <trkpt lat="47.3259" lon="-0.57046">
        <ele>88</ele>
        <time>2021-07-04T08:34:04Z</time>
      </trkpt>
      <trkpt lat="47.32587" lon="-0.57047">
        <ele>87.8</ele>
        <time>2021-07-04T08:34:05Z</time>
      </trkpt>
      <trkpt lat="47.32585" lon="-0.57051">
        <ele>87.8</ele>
        <time>2021-07-04T08:34:06Z</time>
      </trkpt>
      <trkpt lat="47.32577" lon="-0.5705">
        <ele>87.8</ele>
        <time>2021-07-04T08:34:08Z</time>
      </trkpt>
      <trkpt lat="47.32568" lon="-0.57049">
        <ele>87.4</ele>
        <time>2021-07-04T08:34:10Z</time>
      </trkpt>
      <trkpt lat="47.3256" lon="-0.57052">
        <ele>87.6</ele>
        <time>2021-07-04T08:34:12Z</time>
      </trkpt>
      <trkpt lat="47.32555" lon="-0.57054">
        <ele>88</ele>
        <time>2021-07-04T08:34:13Z</time>
      </trkpt>
      <trkpt lat="47.32551" lon="-0.57056">
        <ele>88.2</ele>
        <time>2021-07-04T08:34:14Z</time>
      </trkpt>
      <trkpt lat="47.32543" lon="-0.57061">
        <ele>88.8</ele>
        <time>2021-07-04T08:34:16Z</time>
      </trkpt>
      <trkpt lat="47.32535" lon="-0.57065">
        <ele>88.6</ele>
        <time>2021-07-04T08:34:18Z</time>
      </trkpt>
      <trkpt lat="47.32531" lon="-0.57067">
        <ele>88.6</ele>
        <time>2021-07-04T08:34:19Z</time>
      </trkpt>
      <trkpt lat="47.32526" lon="-0.57069">
        <ele>88.6</ele>
        <time>2021-07-04T08:34:20Z</time>
      </trkpt>
      <trkpt lat="47.32518" lon="-0.57075">
        <ele>88.8</ele>
        <time>2021-07-04T08:34:22Z</time>
      </trkpt>
      <trkpt lat="47.32509" lon="-0.57079">
        <ele>89.2</ele>
        <time>2021-07-04T08:34:24Z</time>
      </trkpt>
      <trkpt lat="47.32501" lon="-0.57083">
        <ele>89.6</ele>
        <time>2021-07-04T08:34:26Z</time>
      </trkpt>
      <trkpt lat="47.32492" lon="-0.57089">
        <ele>89.6</ele>
        <time>2021-07-04T08:34:28Z</time>
      </trkpt>
      <trkpt lat="47.32483" lon="-0.57094">
        <ele>89.6</ele>
        <time>2021-07-04T08:34:30Z</time>
      </trkpt>
      <trkpt lat="47.32474" lon="-0.57099">
        <ele>89.4</ele>
        <time>2021-07-04T08:34:32Z</time>
      </trkpt>
      <trkpt lat="47.32465" lon="-0.57105">
        <ele>89.6</ele>
        <time>2021-07-04T08:34:34Z</time>
      </trkpt>
      <trkpt lat="47.32456" lon="-0.5711">
        <ele>89.8</ele>
        <time>2021-07-04T08:34:36Z</time>
      </trkpt>
      <trkpt lat="47.32446" lon="-0.57114">
        <ele>89.6</ele>
        <time>2021-07-04T08:34:38Z</time>
      </trkpt>
      <trkpt lat="47.32435" lon="-0.57117">
        <ele>89.6</ele>
        <time>2021-07-04T08:34:40Z</time>
      </trkpt>
      <trkpt lat="47.32433" lon="-0.57116">
        <ele>89.6</ele>
        <time>2021-07-04T08:34:41Z</time>
      </trkpt>
      <trkpt lat="47.32427" lon="-0.57116">
        <ele>89.8</ele>
        <time>2021-07-04T08:34:42Z</time>
      </trkpt>
      <trkpt lat="47.32418" lon="-0.57114">
        <ele>89.4</ele>
        <time>2021-07-04T08:34:44Z</time>
      </trkpt>
      <trkpt lat="47.32412" lon="-0.57113">
        <ele>89.4</ele>
        <time>2021-07-04T08:34:45Z</time>
      </trkpt>
      <trkpt lat="47.32407" lon="-0.5711">
        <ele>89.2</ele>
        <time>2021-07-04T08:34:46Z</time>
      </trkpt>
      <trkpt lat="47.32395" lon="-0.57106">
        <ele>88.8</ele>
        <time>2021-07-04T08:34:48Z</time>
      </trkpt>
      <trkpt lat="47.32383" lon="-0.571">
        <ele>88.2</ele>
        <time>2021-07-04T08:34:50Z</time>
      </trkpt>
      <trkpt lat="47.32378" lon="-0.57095">
        <ele>87.6</ele>
        <time>2021-07-04T08:34:51Z</time>
      </trkpt>
      <trkpt lat="47.32373" lon="-0.57089">
        <ele>87.4</ele>
        <time>2021-07-04T08:34:52Z</time>
      </trkpt>
      <trkpt lat="47.32367" lon="-0.57084">
        <ele>87.4</ele>
        <time>2021-07-04T08:34:53Z</time>
      </trkpt>
      <trkpt lat="47.32362" lon="-0.5708">
        <ele>87.4</ele>
        <time>2021-07-04T08:34:54Z</time>
      </trkpt>
      <trkpt lat="47.32351" lon="-0.57071">
        <ele>87.6</ele>
        <time>2021-07-04T08:34:56Z</time>
      </trkpt>
      <trkpt lat="47.32342" lon="-0.57061">
        <ele>87.4</ele>
        <time>2021-07-04T08:34:58Z</time>
      </trkpt>
      <trkpt lat="47.32336" lon="-0.57057">
        <ele>87.6</ele>
        <time>2021-07-04T08:34:59Z</time>
      </trkpt>
      <trkpt lat="47.32331" lon="-0.57053">
        <ele>88</ele>
        <time>2021-07-04T08:35:00Z</time>
      </trkpt>
      <trkpt lat="47.32321" lon="-0.57044">
        <ele>88.2</ele>
        <time>2021-07-04T08:35:02Z</time>
      </trkpt>
      <trkpt lat="47.3231" lon="-0.57035">
        <ele>88</ele>
        <time>2021-07-04T08:35:04Z</time>
      </trkpt>
      <trkpt lat="47.323" lon="-0.57025">
        <ele>88</ele>
        <time>2021-07-04T08:35:06Z</time>
      </trkpt>
      <trkpt lat="47.3229" lon="-0.57015">
        <ele>88.2</ele>
        <time>2021-07-04T08:35:08Z</time>
      </trkpt>
      <trkpt lat="47.32281" lon="-0.57004">
        <ele>88.2</ele>
        <time>2021-07-04T08:35:10Z</time>
      </trkpt>
      <trkpt lat="47.32275" lon="-0.57">
        <ele>88</ele>
        <time>2021-07-04T08:35:11Z</time>
      </trkpt>
      <trkpt lat="47.3227" lon="-0.56995">
        <ele>87.6</ele>
        <time>2021-07-04T08:35:12Z</time>
      </trkpt>
      <trkpt lat="47.32259" lon="-0.56985">
        <ele>87.2</ele>
        <time>2021-07-04T08:35:14Z</time>
      </trkpt>
      <trkpt lat="47.32249" lon="-0.56976">
        <ele>87.6</ele>
        <time>2021-07-04T08:35:16Z</time>
      </trkpt>
      <trkpt lat="47.3224" lon="-0.56967">
        <ele>87.6</ele>
        <time>2021-07-04T08:35:18Z</time>
      </trkpt>
      <trkpt lat="47.3223" lon="-0.56958">
        <ele>87.4</ele>
        <time>2021-07-04T08:35:20Z</time>
      </trkpt>
      <trkpt lat="47.32219" lon="-0.5695">
        <ele>87</ele>
        <time>2021-07-04T08:35:22Z</time>
      </trkpt>
      <trkpt lat="47.32213" lon="-0.56947">
        <ele>86.8</ele>
        <time>2021-07-04T08:35:23Z</time>
      </trkpt>
      <trkpt lat="47.32207" lon="-0.56945">
        <ele>86.2</ele>
        <time>2021-07-04T08:35:24Z</time>
      </trkpt>
      <trkpt lat="47.32195" lon="-0.56936">
        <ele>85.4</ele>
        <time>2021-07-04T08:35:26Z</time>
      </trkpt>
      <trkpt lat="47.3219" lon="-0.56932">
        <ele>85.4</ele>
        <time>2021-07-04T08:35:27Z</time>
      </trkpt>
      <trkpt lat="47.32185" lon="-0.56927">
        <ele>85.8</ele>
        <time>2021-07-04T08:35:28Z</time>
      </trkpt>
      <trkpt lat="47.32177" lon="-0.56918">
        <ele>86</ele>
        <time>2021-07-04T08:35:30Z</time>
      </trkpt>
      <trkpt lat="47.32173" lon="-0.56914">
        <ele>85.8</ele>
        <time>2021-07-04T08:35:31Z</time>
      </trkpt>
      <trkpt lat="47.32168" lon="-0.56911">
        <ele>86.2</ele>
        <time>2021-07-04T08:35:32Z</time>
      </trkpt>
      <trkpt lat="47.32164" lon="-0.56907">
        <ele>86.4</ele>
        <time>2021-07-04T08:35:33Z</time>
      </trkpt>
      <trkpt lat="47.32161" lon="-0.56902">
        <ele>86.4</ele>
        <time>2021-07-04T08:35:34Z</time>
      </trkpt>
      <trkpt lat="47.32154" lon="-0.56895">
        <ele>87</ele>
        <time>2021-07-04T08:35:36Z</time>
      </trkpt>
      <trkpt lat="47.3215" lon="-0.56892">
        <ele>87.2</ele>
        <time>2021-07-04T08:35:37Z</time>
      </trkpt>
      <trkpt lat="47.32147" lon="-0.56891">
        <ele>87.4</ele>
        <time>2021-07-04T08:35:38Z</time>
      </trkpt>
      <trkpt lat="47.3214" lon="-0.56886">
        <ele>87.8</ele>
        <time>2021-07-04T08:35:40Z</time>
      </trkpt>
      <trkpt lat="47.32133" lon="-0.56882">
        <ele>88.2</ele>
        <time>2021-07-04T08:35:42Z</time>
      </trkpt>
      <trkpt lat="47.32129" lon="-0.56878">
        <ele>88.4</ele>
        <time>2021-07-04T08:35:43Z</time>
      </trkpt>
      <trkpt lat="47.32125" lon="-0.56874">
        <ele>88.6</ele>
        <time>2021-07-04T08:35:44Z</time>
      </trkpt>
      <trkpt lat="47.32117" lon="-0.56866">
        <ele>88.8</ele>
        <time>2021-07-04T08:35:46Z</time>
      </trkpt>
      <trkpt lat="47.32114" lon="-0.56863">
        <ele>89.2</ele>
        <time>2021-07-04T08:35:47Z</time>
      </trkpt>
      <trkpt lat="47.3211" lon="-0.56858">
        <ele>89.6</ele>
        <time>2021-07-04T08:35:48Z</time>
      </trkpt>
      <trkpt lat="47.32102" lon="-0.5685">
        <ele>90.4</ele>
        <time>2021-07-04T08:35:50Z</time>
      </trkpt>
      <trkpt lat="47.32098" lon="-0.56847">
        <ele>90.6</ele>
        <time>2021-07-04T08:35:51Z</time>
      </trkpt>
      <trkpt lat="47.32094" lon="-0.56844">
        <ele>91.2</ele>
        <time>2021-07-04T08:35:52Z</time>
      </trkpt>
      <trkpt lat="47.32086" lon="-0.56838">
        <ele>91.8</ele>
        <time>2021-07-04T08:35:54Z</time>
      </trkpt>
      <trkpt lat="47.32079" lon="-0.56831">
        <ele>92.2</ele>
        <time>2021-07-04T08:35:56Z</time>
      </trkpt>
      <trkpt lat="47.32074" lon="-0.56825">
        <ele>93</ele>
        <time>2021-07-04T08:35:58Z</time>
      </trkpt>
      <trkpt lat="47.32071" lon="-0.56823">
        <ele>93.2</ele>
        <time>2021-07-04T08:35:59Z</time>
      </trkpt>
      <trkpt lat="47.32068" lon="-0.5682">
        <ele>93.4</ele>
        <time>2021-07-04T08:36:00Z</time>
      </trkpt>
      <trkpt lat="47.32061" lon="-0.56814">
        <ele>93.8</ele>
        <time>2021-07-04T08:36:02Z</time>
      </trkpt>
      <trkpt lat="47.32058" lon="-0.56811">
        <ele>94</ele>
        <time>2021-07-04T08:36:03Z</time>
      </trkpt>
      <trkpt lat="47.32055" lon="-0.56807">
        <ele>94.4</ele>
        <time>2021-07-04T08:36:04Z</time>
      </trkpt>
      <trkpt lat="47.32049" lon="-0.56799">
        <ele>94.8</ele>
        <time>2021-07-04T08:36:06Z</time>
      </trkpt>
      <trkpt lat="47.32044" lon="-0.56793">
        <ele>95.2</ele>
        <time>2021-07-04T08:36:08Z</time>
      </trkpt>
      <trkpt lat="47.3204" lon="-0.56788">
        <ele>95.8</ele>
        <time>2021-07-04T08:36:10Z</time>
      </trkpt>
      <trkpt lat="47.32038" lon="-0.56784">
        <ele>96</ele>
        <time>2021-07-04T08:36:11Z</time>
      </trkpt>
      <trkpt lat="47.32037" lon="-0.56781">
        <ele>96.2</ele>
        <time>2021-07-04T08:36:12Z</time>
      </trkpt>
      <trkpt lat="47.32037" lon="-0.56775">
        <ele>96.4</ele>
        <time>2021-07-04T08:36:14Z</time>
      </trkpt>
      <trkpt lat="47.32038" lon="-0.56769">
        <ele>96.2</ele>
        <time>2021-07-04T08:36:16Z</time>
      </trkpt>
      <trkpt lat="47.32039" lon="-0.56762">
        <ele>96.2</ele>
        <time>2021-07-04T08:36:18Z</time>
      </trkpt>
      <trkpt lat="47.32039" lon="-0.56755">
        <ele>96</ele>
        <time>2021-07-04T08:36:20Z</time>
      </trkpt>
      <trkpt lat="47.3204" lon="-0.56751">
        <ele>96.2</ele>
        <time>2021-07-04T08:36:21Z</time>
      </trkpt>
      <trkpt lat="47.32041" lon="-0.56747">
        <ele>96.2</ele>
        <time>2021-07-04T08:36:22Z</time>
      </trkpt>
      <trkpt lat="47.32045" lon="-0.56738">
        <ele>96</ele>
        <time>2021-07-04T08:36:24Z</time>
      </trkpt>
      <trkpt lat="47.32048" lon="-0.56735">
        <ele>96</ele>
        <time>2021-07-04T08:36:25Z</time>
      </trkpt>
      <trkpt lat="47.3205" lon="-0.56731">
        <ele>95.8</ele>
        <time>2021-07-04T08:36:26Z</time>
      </trkpt>
      <trkpt lat="47.32053" lon="-0.56723">
        <ele>95.6</ele>
        <time>2021-07-04T08:36:28Z</time>
      </trkpt>
      <trkpt lat="47.32055" lon="-0.56719">
        <ele>95.4</ele>
        <time>2021-07-04T08:36:29Z</time>
      </trkpt>
      <trkpt lat="47.32057" lon="-0.56717">
        <ele>95.4</ele>
        <time>2021-07-04T08:36:30Z</time>
      </trkpt>
      <trkpt lat="47.32059" lon="-0.56714">
        <ele>95.2</ele>
        <time>2021-07-04T08:36:31Z</time>
      </trkpt>
      <trkpt lat="47.32059" lon="-0.5671">
        <ele>95.4</ele>
        <time>2021-07-04T08:36:32Z</time>
      </trkpt>
      <trkpt lat="47.32063" lon="-0.56703">
        <ele>95.2</ele>
        <time>2021-07-04T08:36:34Z</time>
      </trkpt>
      <trkpt lat="47.32065" lon="-0.56699">
        <ele>95</ele>
        <time>2021-07-04T08:36:35Z</time>
      </trkpt>
      <trkpt lat="47.32066" lon="-0.56696">
        <ele>95</ele>
        <time>2021-07-04T08:36:36Z</time>
      </trkpt>
      <trkpt lat="47.32069" lon="-0.56687">
        <ele>95</ele>
        <time>2021-07-04T08:36:38Z</time>
      </trkpt>
      <trkpt lat="47.3207" lon="-0.56684">
        <ele>95</ele>
        <time>2021-07-04T08:36:39Z</time>
      </trkpt>
      <trkpt lat="47.32072" lon="-0.56681">
        <ele>95</ele>
        <time>2021-07-04T08:36:40Z</time>
      </trkpt>
      <trkpt lat="47.32078" lon="-0.56674">
        <ele>95.4</ele>
        <time>2021-07-04T08:36:42Z</time>
      </trkpt>
      <trkpt lat="47.32078" lon="-0.56659">
        <ele>95.4</ele>
        <time>2021-07-04T08:36:44Z</time>
      </trkpt>
      <trkpt lat="47.32077" lon="-0.56637">
        <ele>95.2</ele>
        <time>2021-07-04T08:36:46Z</time>
      </trkpt>
      <trkpt lat="47.32075" lon="-0.56619">
        <ele>95.6</ele>
        <time>2021-07-04T08:36:48Z</time>
      </trkpt>
      <trkpt lat="47.32073" lon="-0.5661">
        <ele>96</ele>
        <time>2021-07-04T08:36:49Z</time>
      </trkpt>
      <trkpt lat="47.3207" lon="-0.56591">
        <ele>96.2</ele>
        <time>2021-07-04T08:36:50Z</time>
      </trkpt>
      <trkpt lat="47.32067" lon="-0.56571">
        <ele>95.4</ele>
        <time>2021-07-04T08:37:09Z</time>
      </trkpt>
      <trkpt lat="47.32065" lon="-0.56551">
        <ele>95</ele>
        <time>2021-07-04T08:37:11Z</time>
      </trkpt>
      <trkpt lat="47.32064" lon="-0.56531">
        <ele>94.8</ele>
        <time>2021-07-04T08:37:13Z</time>
      </trkpt>
      <trkpt lat="47.32064" lon="-0.56519">
        <ele>95.2</ele>
        <time>2021-07-04T08:37:14Z</time>
      </trkpt>
      <trkpt lat="47.32064" lon="-0.56508">
        <ele>95.4</ele>
        <time>2021-07-04T08:37:15Z</time>
      </trkpt>
      <trkpt lat="47.32065" lon="-0.56489">
        <ele>95</ele>
        <time>2021-07-04T08:37:17Z</time>
      </trkpt>
      <trkpt lat="47.32067" lon="-0.56473">
        <ele>94.8</ele>
        <time>2021-07-04T08:37:19Z</time>
      </trkpt>
      <trkpt lat="47.32067" lon="-0.56466">
        <ele>94.6</ele>
        <time>2021-07-04T08:37:20Z</time>
      </trkpt>
      <trkpt lat="47.32068" lon="-0.5646">
        <ele>94.6</ele>
        <time>2021-07-04T08:37:21Z</time>
      </trkpt>
      <trkpt lat="47.32067" lon="-0.56447">
        <ele>94.6</ele>
        <time>2021-07-04T08:37:23Z</time>
      </trkpt>
      <trkpt lat="47.32068" lon="-0.56441">
        <ele>95.2</ele>
        <time>2021-07-04T08:37:25Z</time>
      </trkpt>
      <trkpt lat="47.32069" lon="-0.56438">
        <ele>95.2</ele>
        <time>2021-07-04T08:37:26Z</time>
      </trkpt>
      <trkpt lat="47.32069" lon="-0.56434">
        <ele>95.2</ele>
        <time>2021-07-04T08:37:27Z</time>
      </trkpt>
      <trkpt lat="47.32069" lon="-0.56422">
        <ele>94.6</ele>
        <time>2021-07-04T08:37:29Z</time>
      </trkpt>
      <trkpt lat="47.3207" lon="-0.56415">
        <ele>94.2</ele>
        <time>2021-07-04T08:37:30Z</time>
      </trkpt>
      <trkpt lat="47.32069" lon="-0.56407">
        <ele>93.8</ele>
        <time>2021-07-04T08:37:31Z</time>
      </trkpt>
      <trkpt lat="47.3207" lon="-0.56398">
        <ele>93</ele>
        <time>2021-07-04T08:37:32Z</time>
      </trkpt>
      <trkpt lat="47.32071" lon="-0.56388">
        <ele>92.4</ele>
        <time>2021-07-04T08:37:33Z</time>
      </trkpt>
      <trkpt lat="47.32071" lon="-0.56378">
        <ele>92.2</ele>
        <time>2021-07-04T08:37:34Z</time>
      </trkpt>
      <trkpt lat="47.32071" lon="-0.56369">
        <ele>91.6</ele>
        <time>2021-07-04T08:37:35Z</time>
      </trkpt>
      <trkpt lat="47.32072" lon="-0.56349">
        <ele>90.4</ele>
        <time>2021-07-04T08:37:37Z</time>
      </trkpt>
      <trkpt lat="47.32073" lon="-0.56338">
        <ele>89.8</ele>
        <time>2021-07-04T08:37:38Z</time>
      </trkpt>
      <trkpt lat="47.32074" lon="-0.56327">
        <ele>89.2</ele>
        <time>2021-07-04T08:37:39Z</time>
      </trkpt>
      <trkpt lat="47.32074" lon="-0.56308">
        <ele>88.6</ele>
        <time>2021-07-04T08:37:41Z</time>
      </trkpt>
      <trkpt lat="47.32076" lon="-0.56288">
        <ele>88</ele>
        <time>2021-07-04T08:37:43Z</time>
      </trkpt>
      <trkpt lat="47.32078" lon="-0.5627">
        <ele>88.2</ele>
        <time>2021-07-04T08:37:45Z</time>
      </trkpt>
      <trkpt lat="47.3208" lon="-0.56252">
        <ele>87.8</ele>
        <time>2021-07-04T08:37:47Z</time>
      </trkpt>
      <trkpt lat="47.3208" lon="-0.56243">
        <ele>87.8</ele>
        <time>2021-07-04T08:37:48Z</time>
      </trkpt>
      <trkpt lat="47.32081" lon="-0.56234">
        <ele>87.8</ele>
        <time>2021-07-04T08:37:49Z</time>
      </trkpt>
      <trkpt lat="47.32083" lon="-0.56216">
        <ele>88</ele>
        <time>2021-07-04T08:37:51Z</time>
      </trkpt>
      <trkpt lat="47.32084" lon="-0.56201">
        <ele>88.2</ele>
        <time>2021-07-04T08:37:53Z</time>
      </trkpt>
      <trkpt lat="47.32086" lon="-0.56195">
        <ele>88.2</ele>
        <time>2021-07-04T08:37:54Z</time>
      </trkpt>
      <trkpt lat="47.32087" lon="-0.5619">
        <ele>88.4</ele>
        <time>2021-07-04T08:37:55Z</time>
      </trkpt>
      <trkpt lat="47.32087" lon="-0.56188">
        <ele>89.6</ele>
        <time>2021-07-04T08:37:56Z</time>
      </trkpt>
      <trkpt lat="47.32086" lon="-0.5619">
        <ele>89.8</ele>
        <time>2021-07-04T08:37:57Z</time>
      </trkpt>
      <trkpt lat="47.3209" lon="-0.56169">
        <ele>89.6</ele>
        <time>2021-07-04T08:38:04Z</time>
      </trkpt>
      <trkpt lat="47.32091" lon="-0.56163">
        <ele>89.8</ele>
        <time>2021-07-04T08:38:06Z</time>
      </trkpt>
      <trkpt lat="47.32092" lon="-0.56153">
        <ele>89.4</ele>
        <time>2021-07-04T08:38:10Z</time>
      </trkpt>
      <trkpt lat="47.32093" lon="-0.56149">
        <ele>89.4</ele>
        <time>2021-07-04T08:38:11Z</time>
      </trkpt>
      <trkpt lat="47.32094" lon="-0.56146">
        <ele>89.2</ele>
        <time>2021-07-04T08:38:12Z</time>
      </trkpt>
      <trkpt lat="47.32097" lon="-0.56142">
        <ele>89.4</ele>
        <time>2021-07-04T08:38:14Z</time>
      </trkpt>
      <trkpt lat="47.321" lon="-0.56136">
        <ele>89.6</ele>
        <time>2021-07-04T08:38:16Z</time>
      </trkpt>
      <trkpt lat="47.32104" lon="-0.56131">
        <ele>89.2</ele>
        <time>2021-07-04T08:38:18Z</time>
      </trkpt>
      <trkpt lat="47.32107" lon="-0.56125">
        <ele>89.6</ele>
        <time>2021-07-04T08:38:20Z</time>
      </trkpt>
      <trkpt lat="47.32112" lon="-0.56117">
        <ele>89.4</ele>
        <time>2021-07-04T08:38:22Z</time>
      </trkpt>
      <trkpt lat="47.32116" lon="-0.56109">
        <ele>89.6</ele>
        <time>2021-07-04T08:38:24Z</time>
      </trkpt>
      <trkpt lat="47.32118" lon="-0.56105">
        <ele>89.6</ele>
        <time>2021-07-04T08:38:25Z</time>
      </trkpt>
      <trkpt lat="47.32121" lon="-0.56101">
        <ele>89.6</ele>
        <time>2021-07-04T08:38:26Z</time>
      </trkpt>
      <trkpt lat="47.32125" lon="-0.56094">
        <ele>89.6</ele>
        <time>2021-07-04T08:38:28Z</time>
      </trkpt>
      <trkpt lat="47.32128" lon="-0.5608">
        <ele>89.6</ele>
        <time>2021-07-04T08:38:30Z</time>
      </trkpt>
      <trkpt lat="47.32131" lon="-0.56071">
        <ele>89.4</ele>
        <time>2021-07-04T08:38:32Z</time>
      </trkpt>
      <trkpt lat="47.32134" lon="-0.56063">
        <ele>89.6</ele>
        <time>2021-07-04T08:38:34Z</time>
      </trkpt>
      <trkpt lat="47.32137" lon="-0.56056">
        <ele>89.8</ele>
        <time>2021-07-04T08:38:36Z</time>
      </trkpt>
      <trkpt lat="47.32141" lon="-0.56043">
        <ele>90</ele>
        <time>2021-07-04T08:38:38Z</time>
      </trkpt>
      <trkpt lat="47.32142" lon="-0.56037">
        <ele>90</ele>
        <time>2021-07-04T08:38:39Z</time>
      </trkpt>
      <trkpt lat="47.32143" lon="-0.56029">
        <ele>90.2</ele>
        <time>2021-07-04T08:38:40Z</time>
      </trkpt>
      <trkpt lat="47.32144" lon="-0.56015">
        <ele>90.4</ele>
        <time>2021-07-04T08:38:42Z</time>
      </trkpt>
      <trkpt lat="47.32145" lon="-0.56">
        <ele>90.8</ele>
        <time>2021-07-04T08:38:44Z</time>
      </trkpt>
      <trkpt lat="47.32145" lon="-0.55988">
        <ele>90.8</ele>
        <time>2021-07-04T08:38:46Z</time>
      </trkpt>
      <trkpt lat="47.32145" lon="-0.55974">
        <ele>90.6</ele>
        <time>2021-07-04T08:38:48Z</time>
      </trkpt>
      <trkpt lat="47.32144" lon="-0.55958">
        <ele>90.2</ele>
        <time>2021-07-04T08:38:50Z</time>
      </trkpt>
      <trkpt lat="47.32143" lon="-0.55943">
        <ele>89.8</ele>
        <time>2021-07-04T08:38:52Z</time>
      </trkpt>
      <trkpt lat="47.32143" lon="-0.55928">
        <ele>89.8</ele>
        <time>2021-07-04T08:38:54Z</time>
      </trkpt>
      <trkpt lat="47.3214" lon="-0.55906">
        <ele>89.6</ele>
        <time>2021-07-04T08:38:56Z</time>
      </trkpt>
      <trkpt lat="47.32136" lon="-0.5588">
        <ele>89.4</ele>
        <time>2021-07-04T08:38:58Z</time>
      </trkpt>
      <trkpt lat="47.32133" lon="-0.55854">
        <ele>88.8</ele>
        <time>2021-07-04T08:39:00Z</time>
      </trkpt>
      <trkpt lat="47.32131" lon="-0.55842">
        <ele>88.6</ele>
        <time>2021-07-04T08:39:01Z</time>
      </trkpt>
      <trkpt lat="47.32129" lon="-0.55831">
        <ele>88.4</ele>
        <time>2021-07-04T08:39:02Z</time>
      </trkpt>
      <trkpt lat="47.32128" lon="-0.55821">
        <ele>88.4</ele>
        <time>2021-07-04T08:39:03Z</time>
      </trkpt>
      <trkpt lat="47.32128" lon="-0.55813">
        <ele>88.2</ele>
        <time>2021-07-04T08:39:04Z</time>
      </trkpt>
      <trkpt lat="47.32127" lon="-0.55795">
        <ele>88.2</ele>
        <time>2021-07-04T08:39:06Z</time>
      </trkpt>
      <trkpt lat="47.32129" lon="-0.55783">
        <ele>87.4</ele>
        <time>2021-07-04T08:39:08Z</time>
      </trkpt>
      <trkpt lat="47.32129" lon="-0.55773">
        <ele>87</ele>
        <time>2021-07-04T08:39:09Z</time>
      </trkpt>
      <trkpt lat="47.3213" lon="-0.55764">
        <ele>87</ele>
        <time>2021-07-04T08:39:10Z</time>
      </trkpt>
      <trkpt lat="47.32128" lon="-0.55744">
        <ele>86.6</ele>
        <time>2021-07-04T08:39:12Z</time>
      </trkpt>
      <trkpt lat="47.32129" lon="-0.55741">
        <ele>85.8</ele>
        <time>2021-07-04T08:39:13Z</time>
      </trkpt>
      <trkpt lat="47.3213" lon="-0.55738">
        <ele>85.6</ele>
        <time>2021-07-04T08:39:14Z</time>
      </trkpt>
      <trkpt lat="47.32132" lon="-0.55725">
        <ele>85.4</ele>
        <time>2021-07-04T08:39:16Z</time>
      </trkpt>
      <trkpt lat="47.32136" lon="-0.55712">
        <ele>85</ele>
        <time>2021-07-04T08:39:18Z</time>
      </trkpt>
      <trkpt lat="47.32137" lon="-0.55705">
        <ele>85</ele>
        <time>2021-07-04T08:39:19Z</time>
      </trkpt>
      <trkpt lat="47.32137" lon="-0.55695">
        <ele>84.8</ele>
        <time>2021-07-04T08:39:20Z</time>
      </trkpt>
      <trkpt lat="47.32136" lon="-0.55677">
        <ele>85</ele>
        <time>2021-07-04T08:39:22Z</time>
      </trkpt>
      <trkpt lat="47.32135" lon="-0.55663">
        <ele>85.4</ele>
        <time>2021-07-04T08:39:24Z</time>
      </trkpt>
      <trkpt lat="47.32135" lon="-0.55649">
        <ele>84.8</ele>
        <time>2021-07-04T08:39:26Z</time>
      </trkpt>
      <trkpt lat="47.32136" lon="-0.55635">
        <ele>84.8</ele>
        <time>2021-07-04T08:39:28Z</time>
      </trkpt>
      <trkpt lat="47.32104" lon="-0.55552">
        <ele>84.8</ele>
        <time>2021-07-04T08:39:29Z</time>
      </trkpt>
      <trkpt lat="47.32072" lon="-0.55469">
        <ele>85.2</ele>
        <time>2021-07-04T08:39:30Z</time>
      </trkpt>
      <trkpt lat="47.32071" lon="-0.5546">
        <ele>85.4</ele>
        <time>2021-07-04T08:39:31Z</time>
      </trkpt>
      <trkpt lat="47.3207" lon="-0.55452">
        <ele>85.6</ele>
        <time>2021-07-04T08:39:32Z</time>
      </trkpt>
      <trkpt lat="47.32071" lon="-0.55438">
        <ele>85.4</ele>
        <time>2021-07-04T08:39:34Z</time>
      </trkpt>
      <trkpt lat="47.32071" lon="-0.55424">
        <ele>85.8</ele>
        <time>2021-07-04T08:39:36Z</time>
      </trkpt>
      <trkpt lat="47.3207" lon="-0.55409">
        <ele>86</ele>
        <time>2021-07-04T08:39:38Z</time>
      </trkpt>
      <trkpt lat="47.32069" lon="-0.55393">
        <ele>86.2</ele>
        <time>2021-07-04T08:39:40Z</time>
      </trkpt>
      <trkpt lat="47.3207" lon="-0.55378">
        <ele>86.2</ele>
        <time>2021-07-04T08:39:42Z</time>
      </trkpt>
      <trkpt lat="47.3207" lon="-0.5537">
        <ele>86.4</ele>
        <time>2021-07-04T08:39:43Z</time>
      </trkpt>
      <trkpt lat="47.3207" lon="-0.55364">
        <ele>86.8</ele>
        <time>2021-07-04T08:39:44Z</time>
      </trkpt>
      <trkpt lat="47.3207" lon="-0.55357">
        <ele>87.2</ele>
        <time>2021-07-04T08:39:45Z</time>
      </trkpt>
      <trkpt lat="47.32069" lon="-0.5535">
        <ele>87.6</ele>
        <time>2021-07-04T08:39:46Z</time>
      </trkpt>
      <trkpt lat="47.32069" lon="-0.55336">
        <ele>88.2</ele>
        <time>2021-07-04T08:39:48Z</time>
      </trkpt>
      <trkpt lat="47.32069" lon="-0.55329">
        <ele>88.2</ele>
        <time>2021-07-04T08:39:49Z</time>
      </trkpt>
      <trkpt lat="47.32069" lon="-0.55323">
        <ele>88.6</ele>
        <time>2021-07-04T08:39:50Z</time>
      </trkpt>
      <trkpt lat="47.32069" lon="-0.55316">
        <ele>89.2</ele>
        <time>2021-07-04T08:39:51Z</time>
      </trkpt>
      <trkpt lat="47.32069" lon="-0.5531">
        <ele>89.6</ele>
        <time>2021-07-04T08:39:52Z</time>
      </trkpt>
      <trkpt lat="47.32069" lon="-0.55296">
        <ele>89.8</ele>
        <time>2021-07-04T08:39:54Z</time>
      </trkpt>
      <trkpt lat="47.32068" lon="-0.55282">
        <ele>90</ele>
        <time>2021-07-04T08:39:56Z</time>
      </trkpt>
      <trkpt lat="47.32068" lon="-0.55274">
        <ele>90.2</ele>
        <time>2021-07-04T08:39:57Z</time>
      </trkpt>
      <trkpt lat="47.32067" lon="-0.55267">
        <ele>90.2</ele>
        <time>2021-07-04T08:39:58Z</time>
      </trkpt>
      <trkpt lat="47.32067" lon="-0.5526">
        <ele>90.8</ele>
        <time>2021-07-04T08:39:59Z</time>
      </trkpt>
      <trkpt lat="47.32066" lon="-0.55253">
        <ele>91</ele>
        <time>2021-07-04T08:40:00Z</time>
      </trkpt>
      <trkpt lat="47.32065" lon="-0.55239">
        <ele>91</ele>
        <time>2021-07-04T08:40:02Z</time>
      </trkpt>
      <trkpt lat="47.32065" lon="-0.55232">
        <ele>91.2</ele>
        <time>2021-07-04T08:40:03Z</time>
      </trkpt>
      <trkpt lat="47.32065" lon="-0.55226">
        <ele>91</ele>
        <time>2021-07-04T08:40:04Z</time>
      </trkpt>
      <trkpt lat="47.32065" lon="-0.55211">
        <ele>91.2</ele>
        <time>2021-07-04T08:40:06Z</time>
      </trkpt>
      <trkpt lat="47.32065" lon="-0.55197">
        <ele>91.4</ele>
        <time>2021-07-04T08:40:08Z</time>
      </trkpt>
      <trkpt lat="47.32065" lon="-0.55183">
        <ele>91.8</ele>
        <time>2021-07-04T08:40:10Z</time>
      </trkpt>
      <trkpt lat="47.32066" lon="-0.55169">
        <ele>92</ele>
        <time>2021-07-04T08:40:12Z</time>
      </trkpt>
      <trkpt lat="47.32066" lon="-0.55155">
        <ele>92.2</ele>
        <time>2021-07-04T08:40:14Z</time>
      </trkpt>
      <trkpt lat="47.32066" lon="-0.55142">
        <ele>92.6</ele>
        <time>2021-07-04T08:40:16Z</time>
      </trkpt>
      <trkpt lat="47.32066" lon="-0.55135">
        <ele>93</ele>
        <time>2021-07-04T08:40:17Z</time>
      </trkpt>
      <trkpt lat="47.32065" lon="-0.55129">
        <ele>93</ele>
        <time>2021-07-04T08:40:18Z</time>
      </trkpt>
      <trkpt lat="47.32065" lon="-0.55115">
        <ele>93.2</ele>
        <time>2021-07-04T08:40:20Z</time>
      </trkpt>
      <trkpt lat="47.32066" lon="-0.55102">
        <ele>93.4</ele>
        <time>2021-07-04T08:40:22Z</time>
      </trkpt>
      <trkpt lat="47.32065" lon="-0.55095">
        <ele>93.6</ele>
        <time>2021-07-04T08:40:23Z</time>
      </trkpt>
      <trkpt lat="47.32065" lon="-0.55088">
        <ele>93.8</ele>
        <time>2021-07-04T08:40:24Z</time>
      </trkpt>
      <trkpt lat="47.32066" lon="-0.55081">
        <ele>94.2</ele>
        <time>2021-07-04T08:40:25Z</time>
      </trkpt>
      <trkpt lat="47.32067" lon="-0.55075">
        <ele>94.2</ele>
        <time>2021-07-04T08:40:26Z</time>
      </trkpt>
      <trkpt lat="47.32066" lon="-0.55067">
        <ele>94.4</ele>
        <time>2021-07-04T08:40:27Z</time>
      </trkpt>
      <trkpt lat="47.32065" lon="-0.55061">
        <ele>94.2</ele>
        <time>2021-07-04T08:40:28Z</time>
      </trkpt>
      <trkpt lat="47.32065" lon="-0.55054">
        <ele>94.4</ele>
        <time>2021-07-04T08:40:29Z</time>
      </trkpt>
      <trkpt lat="47.32064" lon="-0.55048">
        <ele>94.4</ele>
        <time>2021-07-04T08:40:30Z</time>
      </trkpt>
      <trkpt lat="47.32063" lon="-0.55035">
        <ele>94.8</ele>
        <time>2021-07-04T08:40:32Z</time>
      </trkpt>
      <trkpt lat="47.32062" lon="-0.55021">
        <ele>94.8</ele>
        <time>2021-07-04T08:40:34Z</time>
      </trkpt>
      <trkpt lat="47.32062" lon="-0.55013">
        <ele>95</ele>
        <time>2021-07-04T08:40:35Z</time>
      </trkpt>
      <trkpt lat="47.32063" lon="-0.55007">
        <ele>95.2</ele>
        <time>2021-07-04T08:40:36Z</time>
      </trkpt>
      <trkpt lat="47.32062" lon="-0.54999">
        <ele>95.2</ele>
        <time>2021-07-04T08:40:37Z</time>
      </trkpt>
      <trkpt lat="47.32063" lon="-0.54992">
        <ele>95.4</ele>
        <time>2021-07-04T08:40:38Z</time>
      </trkpt>
      <trkpt lat="47.32064" lon="-0.54978">
        <ele>95.6</ele>
        <time>2021-07-04T08:40:40Z</time>
      </trkpt>
      <trkpt lat="47.32065" lon="-0.54965">
        <ele>95.4</ele>
        <time>2021-07-04T08:40:42Z</time>
      </trkpt>
      <trkpt lat="47.32068" lon="-0.54955">
        <ele>95.6</ele>
        <time>2021-07-04T08:40:44Z</time>
      </trkpt>
      <trkpt lat="47.32069" lon="-0.54949">
        <ele>95.8</ele>
        <time>2021-07-04T08:40:45Z</time>
      </trkpt>
      <trkpt lat="47.3207" lon="-0.54944">
        <ele>96</ele>
        <time>2021-07-04T08:40:46Z</time>
      </trkpt>
      <trkpt lat="47.3207" lon="-0.54935">
        <ele>95.8</ele>
        <time>2021-07-04T08:40:48Z</time>
      </trkpt>
      <trkpt lat="47.32069" lon="-0.54922">
        <ele>95.8</ele>
        <time>2021-07-04T08:40:50Z</time>
      </trkpt>
      <trkpt lat="47.32069" lon="-0.54915">
        <ele>96</ele>
        <time>2021-07-04T08:40:51Z</time>
      </trkpt>
      <trkpt lat="47.3207" lon="-0.54907">
        <ele>96</ele>
        <time>2021-07-04T08:40:52Z</time>
      </trkpt>
      <trkpt lat="47.3207" lon="-0.54892">
        <ele>95.6</ele>
        <time>2021-07-04T08:40:54Z</time>
      </trkpt>
      <trkpt lat="47.3207" lon="-0.54877">
        <ele>95</ele>
        <time>2021-07-04T08:40:56Z</time>
      </trkpt>
      <trkpt lat="47.32072" lon="-0.54861">
        <ele>94.6</ele>
        <time>2021-07-04T08:40:58Z</time>
      </trkpt>
      <trkpt lat="47.32073" lon="-0.54853">
        <ele>95</ele>
        <time>2021-07-04T08:40:59Z</time>
      </trkpt>
      <trkpt lat="47.32074" lon="-0.54845">
        <ele>94.8</ele>
        <time>2021-07-04T08:41:00Z</time>
      </trkpt>
      <trkpt lat="47.32075" lon="-0.54829">
        <ele>94.4</ele>
        <time>2021-07-04T08:41:02Z</time>
      </trkpt>
      <trkpt lat="47.32075" lon="-0.54814">
        <ele>94</ele>
        <time>2021-07-04T08:41:04Z</time>
      </trkpt>
      <trkpt lat="47.32076" lon="-0.54807">
        <ele>94</ele>
        <time>2021-07-04T08:41:05Z</time>
      </trkpt>
      <trkpt lat="47.32076" lon="-0.548">
        <ele>94</ele>
        <time>2021-07-04T08:41:06Z</time>
      </trkpt>
      <trkpt lat="47.32077" lon="-0.54794">
        <ele>93.8</ele>
        <time>2021-07-04T08:41:07Z</time>
      </trkpt>
      <trkpt lat="47.32077" lon="-0.54785">
        <ele>93.6</ele>
        <time>2021-07-04T08:41:08Z</time>
      </trkpt>
      <trkpt lat="47.32076" lon="-0.54771">
        <ele>92.6</ele>
        <time>2021-07-04T08:41:10Z</time>
      </trkpt>
      <trkpt lat="47.32076" lon="-0.54762">
        <ele>92.4</ele>
        <time>2021-07-04T08:41:11Z</time>
      </trkpt>
      <trkpt lat="47.32077" lon="-0.54753">
        <ele>92.2</ele>
        <time>2021-07-04T08:41:12Z</time>
      </trkpt>
      <trkpt lat="47.32078" lon="-0.54735">
        <ele>91.6</ele>
        <time>2021-07-04T08:41:14Z</time>
      </trkpt>
      <trkpt lat="47.32079" lon="-0.54718">
        <ele>91.2</ele>
        <time>2021-07-04T08:41:16Z</time>
      </trkpt>
      <trkpt lat="47.3208" lon="-0.54701">
        <ele>90.8</ele>
        <time>2021-07-04T08:41:18Z</time>
      </trkpt>
      <trkpt lat="47.3208" lon="-0.54685">
        <ele>90.6</ele>
        <time>2021-07-04T08:41:20Z</time>
      </trkpt>
      <trkpt lat="47.32082" lon="-0.54668">
        <ele>90.2</ele>
        <time>2021-07-04T08:41:22Z</time>
      </trkpt>
      <trkpt lat="47.32084" lon="-0.5466">
        <ele>89.8</ele>
        <time>2021-07-04T08:41:23Z</time>
      </trkpt>
      <trkpt lat="47.32086" lon="-0.54652">
        <ele>89.6</ele>
        <time>2021-07-04T08:41:24Z</time>
      </trkpt>
      <trkpt lat="47.32086" lon="-0.54643">
        <ele>89</ele>
        <time>2021-07-04T08:41:25Z</time>
      </trkpt>
      <trkpt lat="47.32087" lon="-0.54634">
        <ele>88.6</ele>
        <time>2021-07-04T08:41:26Z</time>
      </trkpt>
      <trkpt lat="47.3209" lon="-0.54617">
        <ele>88.2</ele>
        <time>2021-07-04T08:41:28Z</time>
      </trkpt>
      <trkpt lat="47.32092" lon="-0.5461">
        <ele>88.8</ele>
        <time>2021-07-04T08:41:30Z</time>
      </trkpt>
      <trkpt lat="47.32089" lon="-0.54605">
        <ele>89.6</ele>
        <time>2021-07-04T08:41:32Z</time>
      </trkpt>
      <trkpt lat="47.3209" lon="-0.54599">
        <ele>89.6</ele>
        <time>2021-07-04T08:41:34Z</time>
      </trkpt>
      <trkpt lat="47.32094" lon="-0.54585">
        <ele>89.2</ele>
        <time>2021-07-04T08:41:58Z</time>
      </trkpt>
      <trkpt lat="47.32095" lon="-0.54568">
        <ele>88.2</ele>
        <time>2021-07-04T08:42:00Z</time>
      </trkpt>
      <trkpt lat="47.32097" lon="-0.5455">
        <ele>87.8</ele>
        <time>2021-07-04T08:42:02Z</time>
      </trkpt>
      <trkpt lat="47.32098" lon="-0.54533">
        <ele>87.6</ele>
        <time>2021-07-04T08:42:04Z</time>
      </trkpt>
      <trkpt lat="47.321" lon="-0.54525">
        <ele>87.4</ele>
        <time>2021-07-04T08:42:05Z</time>
      </trkpt>
      <trkpt lat="47.321" lon="-0.54516">
        <ele>87.2</ele>
        <time>2021-07-04T08:42:06Z</time>
      </trkpt>
      <trkpt lat="47.321" lon="-0.54503">
        <ele>87.2</ele>
        <time>2021-07-04T08:42:08Z</time>
      </trkpt>
      <trkpt lat="47.321" lon="-0.54497">
        <ele>86.6</ele>
        <time>2021-07-04T08:42:09Z</time>
      </trkpt>
      <trkpt lat="47.321" lon="-0.5449">
        <ele>86.4</ele>
        <time>2021-07-04T08:42:10Z</time>
      </trkpt>
      <trkpt lat="47.32098" lon="-0.5448">
        <ele>86.4</ele>
        <time>2021-07-04T08:42:12Z</time>
      </trkpt>
      <trkpt lat="47.321" lon="-0.54469">
        <ele>86.4</ele>
        <time>2021-07-04T08:42:14Z</time>
      </trkpt>
      <trkpt lat="47.32101" lon="-0.54463">
        <ele>87</ele>
        <time>2021-07-04T08:42:16Z</time>
      </trkpt>
      <trkpt lat="47.32101" lon="-0.5446">
        <ele>87.4</ele>
        <time>2021-07-04T08:42:17Z</time>
      </trkpt>
      <trkpt lat="47.32101" lon="-0.54455">
        <ele>87.4</ele>
        <time>2021-07-04T08:42:18Z</time>
      </trkpt>
      <trkpt lat="47.32102" lon="-0.54442">
        <ele>87</ele>
        <time>2021-07-04T08:42:20Z</time>
      </trkpt>
      <trkpt lat="47.32103" lon="-0.54435">
        <ele>87</ele>
        <time>2021-07-04T08:42:21Z</time>
      </trkpt>
      <trkpt lat="47.32104" lon="-0.54429">
        <ele>86.8</ele>
        <time>2021-07-04T08:42:22Z</time>
      </trkpt>
      <trkpt lat="47.32105" lon="-0.54417">
        <ele>86.8</ele>
        <time>2021-07-04T08:42:24Z</time>
      </trkpt>
      <trkpt lat="47.32106" lon="-0.54403">
        <ele>86.8</ele>
        <time>2021-07-04T08:42:26Z</time>
      </trkpt>
      <trkpt lat="47.32105" lon="-0.54396">
        <ele>86.8</ele>
        <time>2021-07-04T08:42:27Z</time>
      </trkpt>
      <trkpt lat="47.32106" lon="-0.5439">
        <ele>87</ele>
        <time>2021-07-04T08:42:28Z</time>
      </trkpt>
      <trkpt lat="47.32106" lon="-0.54377">
        <ele>87</ele>
        <time>2021-07-04T08:42:30Z</time>
      </trkpt>
      <trkpt lat="47.32108" lon="-0.54372">
        <ele>87</ele>
        <time>2021-07-04T08:42:31Z</time>
      </trkpt>
      <trkpt lat="47.32108" lon="-0.54366">
        <ele>87.4</ele>
        <time>2021-07-04T08:42:32Z</time>
      </trkpt>
      <trkpt lat="47.32111" lon="-0.54355">
        <ele>87.4</ele>
        <time>2021-07-04T08:42:34Z</time>
      </trkpt>
      <trkpt lat="47.32112" lon="-0.54352">
        <ele>87.4</ele>
        <time>2021-07-04T08:42:35Z</time>
      </trkpt>
      <trkpt lat="47.32111" lon="-0.5435">
        <ele>87.6</ele>
        <time>2021-07-04T08:42:36Z</time>
      </trkpt>
      <trkpt lat="47.32111" lon="-0.54345">
        <ele>87.6</ele>
        <time>2021-07-04T08:42:38Z</time>
      </trkpt>
      <trkpt lat="47.32111" lon="-0.54343">
        <ele>87.6</ele>
        <time>2021-07-04T08:42:39Z</time>
      </trkpt>
      <trkpt lat="47.3211" lon="-0.54339">
        <ele>87.8</ele>
        <time>2021-07-04T08:42:40Z</time>
      </trkpt>
      <trkpt lat="47.3211" lon="-0.54331">
        <ele>87.4</ele>
        <time>2021-07-04T08:42:42Z</time>
      </trkpt>
      <trkpt lat="47.3211" lon="-0.54326">
        <ele>87.4</ele>
        <time>2021-07-04T08:42:43Z</time>
      </trkpt>
      <trkpt lat="47.32109" lon="-0.54322">
        <ele>87.6</ele>
        <time>2021-07-04T08:42:44Z</time>
      </trkpt>
      <trkpt lat="47.32109" lon="-0.54314">
        <ele>87.8</ele>
        <time>2021-07-04T08:42:46Z</time>
      </trkpt>
      <trkpt lat="47.32108" lon="-0.54305">
        <ele>88</ele>
        <time>2021-07-04T08:42:48Z</time>
      </trkpt>
      <trkpt lat="47.32108" lon="-0.54295">
        <ele>88.2</ele>
        <time>2021-07-04T08:42:50Z</time>
      </trkpt>
      <trkpt lat="47.32108" lon="-0.54287">
        <ele>88.6</ele>
        <time>2021-07-04T08:42:52Z</time>
      </trkpt>
      <trkpt lat="47.32107" lon="-0.54278">
        <ele>89</ele>
        <time>2021-07-04T08:42:54Z</time>
      </trkpt>
      <trkpt lat="47.32107" lon="-0.54273">
        <ele>89.2</ele>
        <time>2021-07-04T08:42:55Z</time>
      </trkpt>
      <trkpt lat="47.32107" lon="-0.54267">
        <ele>89.2</ele>
        <time>2021-07-04T08:42:56Z</time>
      </trkpt>
      <trkpt lat="47.32111" lon="-0.54252">
        <ele>89.4</ele>
        <time>2021-07-04T08:42:58Z</time>
      </trkpt>
      <trkpt lat="47.32113" lon="-0.54239">
        <ele>90</ele>
        <time>2021-07-04T08:43:00Z</time>
      </trkpt>
      <trkpt lat="47.32114" lon="-0.54228">
        <ele>90.2</ele>
        <time>2021-07-04T08:43:02Z</time>
      </trkpt>
      <trkpt lat="47.32118" lon="-0.54215">
        <ele>90.2</ele>
        <time>2021-07-04T08:43:04Z</time>
      </trkpt>
      <trkpt lat="47.32119" lon="-0.54207">
        <ele>90.2</ele>
        <time>2021-07-04T08:43:05Z</time>
      </trkpt>
      <trkpt lat="47.3212" lon="-0.542">
        <ele>90.2</ele>
        <time>2021-07-04T08:43:06Z</time>
      </trkpt>
      <trkpt lat="47.32122" lon="-0.54186">
        <ele>90.2</ele>
        <time>2021-07-04T08:43:08Z</time>
      </trkpt>
      <trkpt lat="47.32123" lon="-0.54181">
        <ele>90.4</ele>
        <time>2021-07-04T08:43:09Z</time>
      </trkpt>
      <trkpt lat="47.32122" lon="-0.54176">
        <ele>90.6</ele>
        <time>2021-07-04T08:43:10Z</time>
      </trkpt>
      <trkpt lat="47.32122" lon="-0.54167">
        <ele>91</ele>
        <time>2021-07-04T08:43:12Z</time>
      </trkpt>
      <trkpt lat="47.32121" lon="-0.54157">
        <ele>91</ele>
        <time>2021-07-04T08:43:14Z</time>
      </trkpt>
      <trkpt lat="47.3212" lon="-0.54152">
        <ele>91</ele>
        <time>2021-07-04T08:43:15Z</time>
      </trkpt>
      <trkpt lat="47.3212" lon="-0.54147">
        <ele>90.8</ele>
        <time>2021-07-04T08:43:16Z</time>
      </trkpt>
      <trkpt lat="47.32121" lon="-0.54136">
        <ele>91</ele>
        <time>2021-07-04T08:43:18Z</time>
      </trkpt>
      <trkpt lat="47.32121" lon="-0.54126">
        <ele>91.4</ele>
        <time>2021-07-04T08:43:20Z</time>
      </trkpt>
      <trkpt lat="47.32121" lon="-0.54114">
        <ele>91.2</ele>
        <time>2021-07-04T08:43:22Z</time>
      </trkpt>
      <trkpt lat="47.32122" lon="-0.54101">
        <ele>91.4</ele>
        <time>2021-07-04T08:43:24Z</time>
      </trkpt>
      <trkpt lat="47.32123" lon="-0.5409">
        <ele>91.4</ele>
        <time>2021-07-04T08:43:26Z</time>
      </trkpt>
      <trkpt lat="47.32124" lon="-0.54084">
        <ele>91.6</ele>
        <time>2021-07-04T08:43:27Z</time>
      </trkpt>
      <trkpt lat="47.32124" lon="-0.54078">
        <ele>91.4</ele>
        <time>2021-07-04T08:43:28Z</time>
      </trkpt>
      <trkpt lat="47.32125" lon="-0.54065">
        <ele>91.4</ele>
        <time>2021-07-04T08:43:30Z</time>
      </trkpt>
      <trkpt lat="47.32126" lon="-0.54059">
        <ele>91.4</ele>
        <time>2021-07-04T08:43:31Z</time>
      </trkpt>
      <trkpt lat="47.32126" lon="-0.54052">
        <ele>91.4</ele>
        <time>2021-07-04T08:43:32Z</time>
      </trkpt>
      <trkpt lat="47.32125" lon="-0.54039">
        <ele>91.4</ele>
        <time>2021-07-04T08:43:34Z</time>
      </trkpt>
      <trkpt lat="47.32125" lon="-0.54026">
        <ele>91.8</ele>
        <time>2021-07-04T08:43:36Z</time>
      </trkpt>
      <trkpt lat="47.32126" lon="-0.5402">
        <ele>92.2</ele>
        <time>2021-07-04T08:43:37Z</time>
      </trkpt>
      <trkpt lat="47.32127" lon="-0.54012">
        <ele>92.2</ele>
        <time>2021-07-04T08:43:38Z</time>
      </trkpt>
      <trkpt lat="47.32128" lon="-0.54005">
        <ele>92.6</ele>
        <time>2021-07-04T08:43:39Z</time>
      </trkpt>
      <trkpt lat="47.32129" lon="-0.53998">
        <ele>92.4</ele>
        <time>2021-07-04T08:43:40Z</time>
      </trkpt>
      <trkpt lat="47.3213" lon="-0.53985">
        <ele>92.2</ele>
        <time>2021-07-04T08:43:42Z</time>
      </trkpt>
      <trkpt lat="47.32131" lon="-0.53973">
        <ele>92.4</ele>
        <time>2021-07-04T08:43:44Z</time>
      </trkpt>
      <trkpt lat="47.32133" lon="-0.53963">
        <ele>92.8</ele>
        <time>2021-07-04T08:43:46Z</time>
      </trkpt>
      <trkpt lat="47.32134" lon="-0.5395">
        <ele>92.6</ele>
        <time>2021-07-04T08:43:48Z</time>
      </trkpt>
      <trkpt lat="47.32135" lon="-0.53943">
        <ele>92.6</ele>
        <time>2021-07-04T08:43:49Z</time>
      </trkpt>
      <trkpt lat="47.32136" lon="-0.53936">
        <ele>92.6</ele>
        <time>2021-07-04T08:43:50Z</time>
      </trkpt>
      <trkpt lat="47.32137" lon="-0.5393">
        <ele>92.8</ele>
        <time>2021-07-04T08:43:51Z</time>
      </trkpt>
      <trkpt lat="47.32138" lon="-0.53923">
        <ele>92.8</ele>
        <time>2021-07-04T08:43:52Z</time>
      </trkpt>
      <trkpt lat="47.3214" lon="-0.53908">
        <ele>92.6</ele>
        <time>2021-07-04T08:43:54Z</time>
      </trkpt>
      <trkpt lat="47.32142" lon="-0.53894">
        <ele>92.8</ele>
        <time>2021-07-04T08:43:56Z</time>
      </trkpt>
      <trkpt lat="47.32143" lon="-0.53887">
        <ele>93</ele>
        <time>2021-07-04T08:43:57Z</time>
      </trkpt>
      <trkpt lat="47.32144" lon="-0.5388">
        <ele>93</ele>
        <time>2021-07-04T08:43:58Z</time>
      </trkpt>
      <trkpt lat="47.32145" lon="-0.53872">
        <ele>93.2</ele>
        <time>2021-07-04T08:43:59Z</time>
      </trkpt>
      <trkpt lat="47.32147" lon="-0.53865">
        <ele>93.2</ele>
        <time>2021-07-04T08:44:00Z</time>
      </trkpt>
      <trkpt lat="47.32149" lon="-0.5385">
        <ele>93.4</ele>
        <time>2021-07-04T08:44:02Z</time>
      </trkpt>
      <trkpt lat="47.32152" lon="-0.53836">
        <ele>93.2</ele>
        <time>2021-07-04T08:44:04Z</time>
      </trkpt>
      <trkpt lat="47.32155" lon="-0.53822">
        <ele>93.4</ele>
        <time>2021-07-04T08:44:06Z</time>
      </trkpt>
      <trkpt lat="47.32155" lon="-0.53809">
        <ele>93.8</ele>
        <time>2021-07-04T08:44:08Z</time>
      </trkpt>
      <trkpt lat="47.32157" lon="-0.53797">
        <ele>93.8</ele>
        <time>2021-07-04T08:44:10Z</time>
      </trkpt>
      <trkpt lat="47.32159" lon="-0.53784">
        <ele>94.2</ele>
        <time>2021-07-04T08:44:12Z</time>
      </trkpt>
      <trkpt lat="47.3216" lon="-0.53778">
        <ele>94.4</ele>
        <time>2021-07-04T08:44:13Z</time>
      </trkpt>
      <trkpt lat="47.3216" lon="-0.53771">
        <ele>94.4</ele>
        <time>2021-07-04T08:44:14Z</time>
      </trkpt>
      <trkpt lat="47.32162" lon="-0.53759">
        <ele>94.8</ele>
        <time>2021-07-04T08:44:16Z</time>
      </trkpt>
      <trkpt lat="47.32163" lon="-0.53749">
        <ele>95.2</ele>
        <time>2021-07-04T08:44:18Z</time>
      </trkpt>
      <trkpt lat="47.32165" lon="-0.53737">
        <ele>95.2</ele>
        <time>2021-07-04T08:44:20Z</time>
      </trkpt>
      <trkpt lat="47.32166" lon="-0.53731">
        <ele>95</ele>
        <time>2021-07-04T08:44:21Z</time>
      </trkpt>
      <trkpt lat="47.32167" lon="-0.53725">
        <ele>95</ele>
        <time>2021-07-04T08:44:22Z</time>
      </trkpt>
      <trkpt lat="47.32168" lon="-0.53713">
        <ele>95</ele>
        <time>2021-07-04T08:44:24Z</time>
      </trkpt>
      <trkpt lat="47.32169" lon="-0.53704">
        <ele>94.8</ele>
        <time>2021-07-04T08:44:26Z</time>
      </trkpt>
      <trkpt lat="47.32169" lon="-0.53699">
        <ele>95</ele>
        <time>2021-07-04T08:44:27Z</time>
      </trkpt>
      <trkpt lat="47.32171" lon="-0.53693">
        <ele>95.2</ele>
        <time>2021-07-04T08:44:28Z</time>
      </trkpt>
      <trkpt lat="47.32174" lon="-0.5368">
        <ele>95</ele>
        <time>2021-07-04T08:44:30Z</time>
      </trkpt>
      <trkpt lat="47.32175" lon="-0.53674">
        <ele>95</ele>
        <time>2021-07-04T08:44:31Z</time>
      </trkpt>
      <trkpt lat="47.32178" lon="-0.53668">
        <ele>94.8</ele>
        <time>2021-07-04T08:44:32Z</time>
      </trkpt>
      <trkpt lat="47.32184" lon="-0.53655">
        <ele>94.4</ele>
        <time>2021-07-04T08:44:34Z</time>
      </trkpt>
      <trkpt lat="47.32189" lon="-0.53644">
        <ele>94.4</ele>
        <time>2021-07-04T08:44:36Z</time>
      </trkpt>
      <trkpt lat="47.32192" lon="-0.53638">
        <ele>94.6</ele>
        <time>2021-07-04T08:44:37Z</time>
      </trkpt>
      <trkpt lat="47.32194" lon="-0.53632">
        <ele>94.8</ele>
        <time>2021-07-04T08:44:38Z</time>
      </trkpt>
      <trkpt lat="47.32198" lon="-0.53622">
        <ele>94.8</ele>
        <time>2021-07-04T08:44:40Z</time>
      </trkpt>
      <trkpt lat="47.32202" lon="-0.5361">
        <ele>94.6</ele>
        <time>2021-07-04T08:44:42Z</time>
      </trkpt>
      <trkpt lat="47.32207" lon="-0.53597">
        <ele>95</ele>
        <time>2021-07-04T08:44:44Z</time>
      </trkpt>
      <trkpt lat="47.3221" lon="-0.53588">
        <ele>95.6</ele>
        <time>2021-07-04T08:44:46Z</time>
      </trkpt>
      <trkpt lat="47.32214" lon="-0.53576">
        <ele>95.6</ele>
        <time>2021-07-04T08:44:48Z</time>
      </trkpt>
      <trkpt lat="47.32217" lon="-0.5357">
        <ele>95.4</ele>
        <time>2021-07-04T08:44:49Z</time>
      </trkpt>
      <trkpt lat="47.32219" lon="-0.53564">
        <ele>95.2</ele>
        <time>2021-07-04T08:44:50Z</time>
      </trkpt>
      <trkpt lat="47.32223" lon="-0.5355">
        <ele>95.2</ele>
        <time>2021-07-04T08:44:52Z</time>
      </trkpt>
      <trkpt lat="47.32224" lon="-0.53542">
        <ele>95.4</ele>
        <time>2021-07-04T08:44:53Z</time>
      </trkpt>
      <trkpt lat="47.32226" lon="-0.53533">
        <ele>95.2</ele>
        <time>2021-07-04T08:44:54Z</time>
      </trkpt>
      <trkpt lat="47.32229" lon="-0.53518">
        <ele>95.2</ele>
        <time>2021-07-04T08:44:56Z</time>
      </trkpt>
      <trkpt lat="47.32232" lon="-0.53508">
        <ele>95.4</ele>
        <time>2021-07-04T08:44:58Z</time>
      </trkpt>
      <trkpt lat="47.32233" lon="-0.53505">
        <ele>95.8</ele>
        <time>2021-07-04T08:44:59Z</time>
      </trkpt>
      <trkpt lat="47.32234" lon="-0.53501">
        <ele>96</ele>
        <time>2021-07-04T08:45:00Z</time>
      </trkpt>
      <trkpt lat="47.32235" lon="-0.53491">
        <ele>96</ele>
        <time>2021-07-04T08:45:02Z</time>
      </trkpt>
      <trkpt lat="47.32236" lon="-0.53484">
        <ele>95.8</ele>
        <time>2021-07-04T08:45:03Z</time>
      </trkpt>
      <trkpt lat="47.32238" lon="-0.53477">
        <ele>95.6</ele>
        <time>2021-07-04T08:45:04Z</time>
      </trkpt>
      <trkpt lat="47.32241" lon="-0.53464">
        <ele>95.6</ele>
        <time>2021-07-04T08:45:06Z</time>
      </trkpt>
      <trkpt lat="47.32245" lon="-0.5345">
        <ele>95.6</ele>
        <time>2021-07-04T08:45:08Z</time>
      </trkpt>
      <trkpt lat="47.32247" lon="-0.53442">
        <ele>95.6</ele>
        <time>2021-07-04T08:45:09Z</time>
      </trkpt>
      <trkpt lat="47.3225" lon="-0.53436">
        <ele>95.6</ele>
        <time>2021-07-04T08:45:10Z</time>
      </trkpt>
      <trkpt lat="47.32252" lon="-0.53429">
        <ele>95.6</ele>
        <time>2021-07-04T08:45:11Z</time>
      </trkpt>
      <trkpt lat="47.32254" lon="-0.53422">
        <ele>95.6</ele>
        <time>2021-07-04T08:45:12Z</time>
      </trkpt>
      <trkpt lat="47.32257" lon="-0.53408">
        <ele>95.6</ele>
        <time>2021-07-04T08:45:14Z</time>
      </trkpt>
      <trkpt lat="47.3226" lon="-0.53395">
        <ele>95.6</ele>
        <time>2021-07-04T08:45:16Z</time>
      </trkpt>
      <trkpt lat="47.32263" lon="-0.53388">
        <ele>95.6</ele>
        <time>2021-07-04T08:45:17Z</time>
      </trkpt>
      <trkpt lat="47.32265" lon="-0.53381">
        <ele>95.4</ele>
        <time>2021-07-04T08:45:18Z</time>
      </trkpt>
      <trkpt lat="47.3227" lon="-0.53366">
        <ele>95.6</ele>
        <time>2021-07-04T08:45:20Z</time>
      </trkpt>
      <trkpt lat="47.32275" lon="-0.5335">
        <ele>95.6</ele>
        <time>2021-07-04T08:45:22Z</time>
      </trkpt>
      <trkpt lat="47.32277" lon="-0.53342">
        <ele>95.6</ele>
        <time>2021-07-04T08:45:23Z</time>
      </trkpt>
      <trkpt lat="47.32279" lon="-0.53334">
        <ele>95.6</ele>
        <time>2021-07-04T08:45:24Z</time>
      </trkpt>
      <trkpt lat="47.32281" lon="-0.53325">
        <ele>95.6</ele>
        <time>2021-07-04T08:45:25Z</time>
      </trkpt>
      <trkpt lat="47.32283" lon="-0.53317">
        <ele>95.6</ele>
        <time>2021-07-04T08:45:26Z</time>
      </trkpt>
      <trkpt lat="47.32286" lon="-0.53303">
        <ele>95.8</ele>
        <time>2021-07-04T08:45:28Z</time>
      </trkpt>
      <trkpt lat="47.32288" lon="-0.53292">
        <ele>96.2</ele>
        <time>2021-07-04T08:45:30Z</time>
      </trkpt>
      <trkpt lat="47.32289" lon="-0.53288">
        <ele>96.4</ele>
        <time>2021-07-04T08:45:31Z</time>
      </trkpt>
      <trkpt lat="47.32289" lon="-0.53283">
        <ele>96.2</ele>
        <time>2021-07-04T08:45:32Z</time>
      </trkpt>
      <trkpt lat="47.32291" lon="-0.53278">
        <ele>96</ele>
        <time>2021-07-04T08:45:33Z</time>
      </trkpt>
      <trkpt lat="47.32292" lon="-0.53272">
        <ele>96.2</ele>
        <time>2021-07-04T08:45:34Z</time>
      </trkpt>
      <trkpt lat="47.32295" lon="-0.53262">
        <ele>96.4</ele>
        <time>2021-07-04T08:45:36Z</time>
      </trkpt>
      <trkpt lat="47.32298" lon="-0.53247">
        <ele>95.8</ele>
        <time>2021-07-04T08:45:38Z</time>
      </trkpt>
      <trkpt lat="47.32301" lon="-0.5324">
        <ele>95.6</ele>
        <time>2021-07-04T08:45:39Z</time>
      </trkpt>
      <trkpt lat="47.32303" lon="-0.53232">
        <ele>95.6</ele>
        <time>2021-07-04T08:45:40Z</time>
      </trkpt>
      <trkpt lat="47.32306" lon="-0.53226">
        <ele>95.8</ele>
        <time>2021-07-04T08:45:41Z</time>
      </trkpt>
      <trkpt lat="47.32308" lon="-0.5322">
        <ele>96</ele>
        <time>2021-07-04T08:45:42Z</time>
      </trkpt>
      <trkpt lat="47.3231" lon="-0.53213">
        <ele>96</ele>
        <time>2021-07-04T08:45:43Z</time>
      </trkpt>
      <trkpt lat="47.32312" lon="-0.53207">
        <ele>96</ele>
        <time>2021-07-04T08:45:44Z</time>
      </trkpt>
      <trkpt lat="47.32316" lon="-0.53195">
        <ele>96.2</ele>
        <time>2021-07-04T08:45:46Z</time>
      </trkpt>
      <trkpt lat="47.3232" lon="-0.53185">
        <ele>96.4</ele>
        <time>2021-07-04T08:45:48Z</time>
      </trkpt>
      <trkpt lat="47.32322" lon="-0.53174">
        <ele>96.4</ele>
        <time>2021-07-04T08:45:50Z</time>
      </trkpt>
      <trkpt lat="47.32322" lon="-0.53166">
        <ele>96.4</ele>
        <time>2021-07-04T08:45:52Z</time>
      </trkpt>
      <trkpt lat="47.32323" lon="-0.5316">
        <ele>96.8</ele>
        <time>2021-07-04T08:45:54Z</time>
      </trkpt>
      <trkpt lat="47.32324" lon="-0.53153">
        <ele>96.8</ele>
        <time>2021-07-04T08:45:56Z</time>
      </trkpt>
      <trkpt lat="47.32325" lon="-0.53149">
        <ele>97.2</ele>
        <time>2021-07-04T08:45:57Z</time>
      </trkpt>
      <trkpt lat="47.32326" lon="-0.53145">
        <ele>97</ele>
        <time>2021-07-04T08:45:58Z</time>
      </trkpt>
      <trkpt lat="47.32328" lon="-0.5314">
        <ele>96.8</ele>
        <time>2021-07-04T08:45:59Z</time>
      </trkpt>
      <trkpt lat="47.32328" lon="-0.53135">
        <ele>96.6</ele>
        <time>2021-07-04T08:46:00Z</time>
      </trkpt>
      <trkpt lat="47.32329" lon="-0.53123">
        <ele>96.2</ele>
        <time>2021-07-04T08:46:02Z</time>
      </trkpt>
      <trkpt lat="47.32331" lon="-0.53114">
        <ele>96.2</ele>
        <time>2021-07-04T08:46:03Z</time>
      </trkpt>
      <trkpt lat="47.32333" lon="-0.53107">
        <ele>96</ele>
        <time>2021-07-04T08:46:04Z</time>
      </trkpt>
      <trkpt lat="47.32339" lon="-0.5309">
        <ele>95.8</ele>
        <time>2021-07-04T08:46:06Z</time>
      </trkpt>
      <trkpt lat="47.32341" lon="-0.53081">
        <ele>95.8</ele>
        <time>2021-07-04T08:46:07Z</time>
      </trkpt>
      <trkpt lat="47.32344" lon="-0.53074">
        <ele>95.6</ele>
        <time>2021-07-04T08:46:08Z</time>
      </trkpt>
      <trkpt lat="47.32345" lon="-0.53066">
        <ele>95.4</ele>
        <time>2021-07-04T08:46:09Z</time>
      </trkpt>
      <trkpt lat="47.32347" lon="-0.53059">
        <ele>95.2</ele>
        <time>2021-07-04T08:46:10Z</time>
      </trkpt>
      <trkpt lat="47.32348" lon="-0.53052">
        <ele>95</ele>
        <time>2021-07-04T08:46:11Z</time>
      </trkpt>
      <trkpt lat="47.32349" lon="-0.53045">
        <ele>95</ele>
        <time>2021-07-04T08:46:12Z</time>
      </trkpt>
      <trkpt lat="47.32352" lon="-0.5303">
        <ele>94.8</ele>
        <time>2021-07-04T08:46:14Z</time>
      </trkpt>
      <trkpt lat="47.32356" lon="-0.53016">
        <ele>94.4</ele>
        <time>2021-07-04T08:46:16Z</time>
      </trkpt>
      <trkpt lat="47.32357" lon="-0.53004">
        <ele>94.4</ele>
        <time>2021-07-04T08:46:18Z</time>
      </trkpt>
      <trkpt lat="47.32357" lon="-0.52996">
        <ele>95</ele>
        <time>2021-07-04T08:46:20Z</time>
      </trkpt>
      <trkpt lat="47.32355" lon="-0.52992">
        <ele>95.4</ele>
        <time>2021-07-04T08:46:21Z</time>
      </trkpt>
      <trkpt lat="47.32354" lon="-0.52988">
        <ele>95.2</ele>
        <time>2021-07-04T08:46:22Z</time>
      </trkpt>
      <trkpt lat="47.32353" lon="-0.52978">
        <ele>94.6</ele>
        <time>2021-07-04T08:46:24Z</time>
      </trkpt>
      <trkpt lat="47.32351" lon="-0.52965">
        <ele>94.6</ele>
        <time>2021-07-04T08:46:26Z</time>
      </trkpt>
      <trkpt lat="47.3235" lon="-0.52958">
        <ele>94.4</ele>
        <time>2021-07-04T08:46:27Z</time>
      </trkpt>
      <trkpt lat="47.32349" lon="-0.5295">
        <ele>94.2</ele>
        <time>2021-07-04T08:46:28Z</time>
      </trkpt>
      <trkpt lat="47.32346" lon="-0.52935">
        <ele>93.8</ele>
        <time>2021-07-04T08:46:30Z</time>
      </trkpt>
      <trkpt lat="47.32343" lon="-0.52919">
        <ele>93.4</ele>
        <time>2021-07-04T08:46:32Z</time>
      </trkpt>
      <trkpt lat="47.32342" lon="-0.52911">
        <ele>93</ele>
        <time>2021-07-04T08:46:33Z</time>
      </trkpt>
      <trkpt lat="47.32341" lon="-0.52903">
        <ele>93</ele>
        <time>2021-07-04T08:46:34Z</time>
      </trkpt>
      <trkpt lat="47.32339" lon="-0.52895">
        <ele>93</ele>
        <time>2021-07-04T08:46:35Z</time>
      </trkpt>
      <trkpt lat="47.32338" lon="-0.52888">
        <ele>92.8</ele>
        <time>2021-07-04T08:46:36Z</time>
      </trkpt>
      <trkpt lat="47.32337" lon="-0.5287">
        <ele>92.6</ele>
        <time>2021-07-04T08:46:38Z</time>
      </trkpt>
      <trkpt lat="47.32334" lon="-0.52853">
        <ele>92.4</ele>
        <time>2021-07-04T08:46:40Z</time>
      </trkpt>
      <trkpt lat="47.32331" lon="-0.52838">
        <ele>92.2</ele>
        <time>2021-07-04T08:46:42Z</time>
      </trkpt>
      <trkpt lat="47.32331" lon="-0.52831">
        <ele>92.2</ele>
        <time>2021-07-04T08:46:43Z</time>
      </trkpt>
      <trkpt lat="47.32331" lon="-0.52825">
        <ele>92.6</ele>
        <time>2021-07-04T08:46:44Z</time>
      </trkpt>
      <trkpt lat="47.32331" lon="-0.52817">
        <ele>93.4</ele>
        <time>2021-07-04T08:46:46Z</time>
      </trkpt>
      <trkpt lat="47.32331" lon="-0.52812">
        <ele>93.6</ele>
        <time>2021-07-04T08:46:47Z</time>
      </trkpt>
      <trkpt lat="47.32331" lon="-0.52807">
        <ele>93.6</ele>
        <time>2021-07-04T08:46:48Z</time>
      </trkpt>
      <trkpt lat="47.32332" lon="-0.528">
        <ele>93.6</ele>
        <time>2021-07-04T08:46:50Z</time>
      </trkpt>
      <trkpt lat="47.32334" lon="-0.52793">
        <ele>94</ele>
        <time>2021-07-04T08:46:52Z</time>
      </trkpt>
      <trkpt lat="47.32335" lon="-0.5279">
        <ele>94.2</ele>
        <time>2021-07-04T08:46:53Z</time>
      </trkpt>
      <trkpt lat="47.32335" lon="-0.52786">
        <ele>94.2</ele>
        <time>2021-07-04T08:46:54Z</time>
      </trkpt>
      <trkpt lat="47.32336" lon="-0.5275">
        <ele>94.2</ele>
        <time>2021-07-04T08:47:03Z</time>
      </trkpt>
      <trkpt lat="47.32334" lon="-0.52745">
        <ele>94.4</ele>
        <time>2021-07-04T08:47:05Z</time>
      </trkpt>
      <trkpt lat="47.3233" lon="-0.52718">
        <ele>94.8</ele>
        <time>2021-07-04T08:47:20Z</time>
      </trkpt>
      <trkpt lat="47.32329" lon="-0.52705">
        <ele>94.8</ele>
        <time>2021-07-04T08:47:22Z</time>
      </trkpt>
      <trkpt lat="47.32329" lon="-0.52633">
        <ele>94.6</ele>
        <time>2021-07-04T08:47:52Z</time>
      </trkpt>
      <trkpt lat="47.32332" lon="-0.52623">
        <ele>94.6</ele>
        <time>2021-07-04T08:47:54Z</time>
      </trkpt>
      <trkpt lat="47.32332" lon="-0.52612">
        <ele>94.6</ele>
        <time>2021-07-04T08:47:56Z</time>
      </trkpt>
      <trkpt lat="47.32332" lon="-0.52601">
        <ele>94.4</ele>
        <time>2021-07-04T08:47:58Z</time>
      </trkpt>
      <trkpt lat="47.32331" lon="-0.52595">
        <ele>94.4</ele>
        <time>2021-07-04T08:47:59Z</time>
      </trkpt>
      <trkpt lat="47.32331" lon="-0.52591">
        <ele>94.6</ele>
        <time>2021-07-04T08:48:00Z</time>
      </trkpt>
      <trkpt lat="47.32329" lon="-0.52581">
        <ele>94.8</ele>
        <time>2021-07-04T08:48:02Z</time>
      </trkpt>
      <trkpt lat="47.32327" lon="-0.52569">
        <ele>95</ele>
        <time>2021-07-04T08:48:04Z</time>
      </trkpt>
      <trkpt lat="47.32326" lon="-0.52563">
        <ele>95</ele>
        <time>2021-07-04T08:48:05Z</time>
      </trkpt>
      <trkpt lat="47.32325" lon="-0.52557">
        <ele>95</ele>
        <time>2021-07-04T08:48:06Z</time>
      </trkpt>
      <trkpt lat="47.32324" lon="-0.52551">
        <ele>95</ele>
        <time>2021-07-04T08:48:07Z</time>
      </trkpt>
      <trkpt lat="47.32323" lon="-0.52545">
        <ele>95</ele>
        <time>2021-07-04T08:48:08Z</time>
      </trkpt>
      <trkpt lat="47.32321" lon="-0.52534">
        <ele>95</ele>
        <time>2021-07-04T08:48:10Z</time>
      </trkpt>
      <trkpt lat="47.3232" lon="-0.52523">
        <ele>94.8</ele>
        <time>2021-07-04T08:48:12Z</time>
      </trkpt>
      <trkpt lat="47.32318" lon="-0.52509">
        <ele>94.8</ele>
        <time>2021-07-04T08:48:14Z</time>
      </trkpt>
      <trkpt lat="47.32317" lon="-0.52501">
        <ele>94.8</ele>
        <time>2021-07-04T08:48:15Z</time>
      </trkpt>
      <trkpt lat="47.32315" lon="-0.52494">
        <ele>95</ele>
        <time>2021-07-04T08:48:16Z</time>
      </trkpt>
      <trkpt lat="47.32313" lon="-0.52485">
        <ele>94.8</ele>
        <time>2021-07-04T08:48:17Z</time>
      </trkpt>
      <trkpt lat="47.32312" lon="-0.52477">
        <ele>94.8</ele>
        <time>2021-07-04T08:48:18Z</time>
      </trkpt>
      <trkpt lat="47.32309" lon="-0.52462">
        <ele>94.4</ele>
        <time>2021-07-04T08:48:20Z</time>
      </trkpt>
      <trkpt lat="47.32307" lon="-0.52454">
        <ele>94.4</ele>
        <time>2021-07-04T08:48:21Z</time>
      </trkpt>
      <trkpt lat="47.32305" lon="-0.52447">
        <ele>94.4</ele>
        <time>2021-07-04T08:48:22Z</time>
      </trkpt>
      <trkpt lat="47.32304" lon="-0.52437">
        <ele>94.6</ele>
        <time>2021-07-04T08:48:24Z</time>
      </trkpt>
      <trkpt lat="47.32302" lon="-0.52432">
        <ele>95</ele>
        <time>2021-07-04T08:48:26Z</time>
      </trkpt>
      <trkpt lat="47.32301" lon="-0.5243">
        <ele>95.2</ele>
        <time>2021-07-04T08:48:27Z</time>
      </trkpt>
      <trkpt lat="47.32301" lon="-0.52427">
        <ele>95.4</ele>
        <time>2021-07-04T08:48:28Z</time>
      </trkpt>
      <trkpt lat="47.323" lon="-0.52424">
        <ele>95.4</ele>
        <time>2021-07-04T08:48:29Z</time>
      </trkpt>
      <trkpt lat="47.323" lon="-0.52422">
        <ele>95.2</ele>
        <time>2021-07-04T08:48:30Z</time>
      </trkpt>
      <trkpt lat="47.32299" lon="-0.52417">
        <ele>94.8</ele>
        <time>2021-07-04T08:48:32Z</time>
      </trkpt>
      <trkpt lat="47.32298" lon="-0.52414">
        <ele>94.8</ele>
        <time>2021-07-04T08:48:33Z</time>
      </trkpt>
      <trkpt lat="47.32297" lon="-0.52411">
        <ele>94.8</ele>
        <time>2021-07-04T08:48:34Z</time>
      </trkpt>
      <trkpt lat="47.32296" lon="-0.52407">
        <ele>94.8</ele>
        <time>2021-07-04T08:48:36Z</time>
      </trkpt>
      <trkpt lat="47.32295" lon="-0.52405">
        <ele>94.8</ele>
        <time>2021-07-04T08:48:38Z</time>
      </trkpt>
      <trkpt lat="47.32295" lon="-0.52399">
        <ele>94.8</ele>
        <time>2021-07-04T08:48:40Z</time>
      </trkpt>
      <trkpt lat="47.32297" lon="-0.52393">
        <ele>94.6</ele>
        <time>2021-07-04T08:48:42Z</time>
      </trkpt>
      <trkpt lat="47.32299" lon="-0.52387">
        <ele>94.4</ele>
        <time>2021-07-04T08:48:44Z</time>
      </trkpt>
      <trkpt lat="47.32301" lon="-0.52382">
        <ele>94.4</ele>
        <time>2021-07-04T08:48:46Z</time>
      </trkpt>
      <trkpt lat="47.32304" lon="-0.52377">
        <ele>94.6</ele>
        <time>2021-07-04T08:48:48Z</time>
      </trkpt>
      <trkpt lat="47.32302" lon="-0.52371">
        <ele>95</ele>
        <time>2021-07-04T08:49:07Z</time>
      </trkpt>
      <trkpt lat="47.32301" lon="-0.52371">
        <ele>94.8</ele>
        <time>2021-07-04T08:49:08Z</time>
      </trkpt>
      <trkpt lat="47.32297" lon="-0.52366">
        <ele>94.4</ele>
        <time>2021-07-04T08:49:09Z</time>
      </trkpt>
      <trkpt lat="47.32292" lon="-0.52361">
        <ele>94.4</ele>
        <time>2021-07-04T08:49:10Z</time>
      </trkpt>
      <trkpt lat="47.32286" lon="-0.52354">
        <ele>94</ele>
        <time>2021-07-04T08:49:11Z</time>
      </trkpt>
      <trkpt lat="47.32281" lon="-0.52348">
        <ele>93.8</ele>
        <time>2021-07-04T08:49:12Z</time>
      </trkpt>
      <trkpt lat="47.32276" lon="-0.52343">
        <ele>93.6</ele>
        <time>2021-07-04T08:49:13Z</time>
      </trkpt>
      <trkpt lat="47.3227" lon="-0.52336">
        <ele>93.6</ele>
        <time>2021-07-04T08:49:14Z</time>
      </trkpt>
      <trkpt lat="47.32257" lon="-0.52325">
        <ele>93.2</ele>
        <time>2021-07-04T08:49:16Z</time>
      </trkpt>
      <trkpt lat="47.32251" lon="-0.52319">
        <ele>93.2</ele>
        <time>2021-07-04T08:49:17Z</time>
      </trkpt>
      <trkpt lat="47.32244" lon="-0.52314">
        <ele>93</ele>
        <time>2021-07-04T08:49:18Z</time>
      </trkpt>
      <trkpt lat="47.32231" lon="-0.52303">
        <ele>92.4</ele>
        <time>2021-07-04T08:49:20Z</time>
      </trkpt>
      <trkpt lat="47.32224" lon="-0.52298">
        <ele>92</ele>
        <time>2021-07-04T08:49:21Z</time>
      </trkpt>
      <trkpt lat="47.32217" lon="-0.52293">
        <ele>91.6</ele>
        <time>2021-07-04T08:49:22Z</time>
      </trkpt>
      <trkpt lat="47.32203" lon="-0.52284">
        <ele>91.4</ele>
        <time>2021-07-04T08:49:24Z</time>
      </trkpt>
      <trkpt lat="47.32189" lon="-0.52276">
        <ele>91.4</ele>
        <time>2021-07-04T08:49:26Z</time>
      </trkpt>
      <trkpt lat="47.32182" lon="-0.5227">
        <ele>91.6</ele>
        <time>2021-07-04T08:49:27Z</time>
      </trkpt>
      <trkpt lat="47.32174" lon="-0.52263">
        <ele>91.8</ele>
        <time>2021-07-04T08:49:28Z</time>
      </trkpt>
      <trkpt lat="47.32161" lon="-0.52251">
        <ele>92</ele>
        <time>2021-07-04T08:49:30Z</time>
      </trkpt>
      <trkpt lat="47.32147" lon="-0.52241">
        <ele>92</ele>
        <time>2021-07-04T08:49:32Z</time>
      </trkpt>
      <trkpt lat="47.32133" lon="-0.52231">
        <ele>91.6</ele>
        <time>2021-07-04T08:49:34Z</time>
      </trkpt>
      <trkpt lat="47.32119" lon="-0.52221">
        <ele>91.4</ele>
        <time>2021-07-04T08:49:36Z</time>
      </trkpt>
      <trkpt lat="47.32113" lon="-0.52216">
        <ele>91.4</ele>
        <time>2021-07-04T08:49:37Z</time>
      </trkpt>
      <trkpt lat="47.32106" lon="-0.52212">
        <ele>91.4</ele>
        <time>2021-07-04T08:49:38Z</time>
      </trkpt>
      <trkpt lat="47.32094" lon="-0.52205">
        <ele>90.8</ele>
        <time>2021-07-04T08:49:40Z</time>
      </trkpt>
      <trkpt lat="47.32082" lon="-0.52199">
        <ele>90.4</ele>
        <time>2021-07-04T08:49:42Z</time>
      </trkpt>
      <trkpt lat="47.32072" lon="-0.52193">
        <ele>90.8</ele>
        <time>2021-07-04T08:49:44Z</time>
      </trkpt>
      <trkpt lat="47.32063" lon="-0.5219">
        <ele>91.2</ele>
        <time>2021-07-04T08:49:46Z</time>
      </trkpt>
      <trkpt lat="47.32056" lon="-0.52187">
        <ele>91.4</ele>
        <time>2021-07-04T08:49:48Z</time>
      </trkpt>
      <trkpt lat="47.32049" lon="-0.52183">
        <ele>91.2</ele>
        <time>2021-07-04T08:49:50Z</time>
      </trkpt>
      <trkpt lat="47.32042" lon="-0.5218">
        <ele>91.4</ele>
        <time>2021-07-04T08:49:52Z</time>
      </trkpt>
      <trkpt lat="47.32034" lon="-0.52176">
        <ele>91.4</ele>
        <time>2021-07-04T08:49:54Z</time>
      </trkpt>
      <trkpt lat="47.32025" lon="-0.52173">
        <ele>91</ele>
        <time>2021-07-04T08:49:56Z</time>
      </trkpt>
      <trkpt lat="47.32017" lon="-0.52169">
        <ele>90.6</ele>
        <time>2021-07-04T08:49:58Z</time>
      </trkpt>
      <trkpt lat="47.32008" lon="-0.52166">
        <ele>90.2</ele>
        <time>2021-07-04T08:50:00Z</time>
      </trkpt>
      <trkpt lat="47.32005" lon="-0.52165">
        <ele>90.2</ele>
        <time>2021-07-04T08:50:01Z</time>
      </trkpt>
      <trkpt lat="47.32001" lon="-0.52165">
        <ele>90.4</ele>
        <time>2021-07-04T08:50:02Z</time>
      </trkpt>
      <trkpt lat="47.31992" lon="-0.5216">
        <ele>90.6</ele>
        <time>2021-07-04T08:50:04Z</time>
      </trkpt>
      <trkpt lat="47.31987" lon="-0.52157">
        <ele>90.6</ele>
        <time>2021-07-04T08:50:05Z</time>
      </trkpt>
      <trkpt lat="47.31981" lon="-0.52154">
        <ele>90.8</ele>
        <time>2021-07-04T08:50:06Z</time>
      </trkpt>
      <trkpt lat="47.3197" lon="-0.5215">
        <ele>91</ele>
        <time>2021-07-04T08:50:08Z</time>
      </trkpt>
      <trkpt lat="47.31959" lon="-0.52145">
        <ele>91.2</ele>
        <time>2021-07-04T08:50:10Z</time>
      </trkpt>
      <trkpt lat="47.31954" lon="-0.52143">
        <ele>91.2</ele>
        <time>2021-07-04T08:50:11Z</time>
      </trkpt>
      <trkpt lat="47.31948" lon="-0.5214">
        <ele>91.2</ele>
        <time>2021-07-04T08:50:12Z</time>
      </trkpt>
      <trkpt lat="47.31938" lon="-0.52134">
        <ele>91.2</ele>
        <time>2021-07-04T08:50:14Z</time>
      </trkpt>
      <trkpt lat="47.31927" lon="-0.5213">
        <ele>91.6</ele>
        <time>2021-07-04T08:50:16Z</time>
      </trkpt>
      <trkpt lat="47.31922" lon="-0.52128">
        <ele>91.8</ele>
        <time>2021-07-04T08:50:17Z</time>
      </trkpt>
      <trkpt lat="47.31917" lon="-0.52126">
        <ele>91.8</ele>
        <time>2021-07-04T08:50:18Z</time>
      </trkpt>
      <trkpt lat="47.31912" lon="-0.52124">
        <ele>91.8</ele>
        <time>2021-07-04T08:50:19Z</time>
      </trkpt>
      <trkpt lat="47.31907" lon="-0.52122">
        <ele>92</ele>
        <time>2021-07-04T08:50:20Z</time>
      </trkpt>
      <trkpt lat="47.31902" lon="-0.5212">
        <ele>92.2</ele>
        <time>2021-07-04T08:50:21Z</time>
      </trkpt>
      <trkpt lat="47.31897" lon="-0.52118">
        <ele>92</ele>
        <time>2021-07-04T08:50:22Z</time>
      </trkpt>
      <trkpt lat="47.31886" lon="-0.52115">
        <ele>91.8</ele>
        <time>2021-07-04T08:50:24Z</time>
      </trkpt>
      <trkpt lat="47.31876" lon="-0.52112">
        <ele>92.2</ele>
        <time>2021-07-04T08:50:26Z</time>
      </trkpt>
      <trkpt lat="47.31871" lon="-0.52111">
        <ele>92.4</ele>
        <time>2021-07-04T08:50:27Z</time>
      </trkpt>
      <trkpt lat="47.31867" lon="-0.52109">
        <ele>92.6</ele>
        <time>2021-07-04T08:50:28Z</time>
      </trkpt>
      <trkpt lat="47.31862" lon="-0.52107">
        <ele>92.8</ele>
        <time>2021-07-04T08:50:29Z</time>
      </trkpt>
      <trkpt lat="47.31856" lon="-0.52105">
        <ele>93.2</ele>
        <time>2021-07-04T08:50:30Z</time>
      </trkpt>
      <trkpt lat="47.31846" lon="-0.52098">
        <ele>93.8</ele>
        <time>2021-07-04T08:50:32Z</time>
      </trkpt>
      <trkpt lat="47.31842" lon="-0.52096">
        <ele>94</ele>
        <time>2021-07-04T08:50:33Z</time>
      </trkpt>
      <trkpt lat="47.31838" lon="-0.52093">
        <ele>94.2</ele>
        <time>2021-07-04T08:50:34Z</time>
      </trkpt>
      <trkpt lat="47.31827" lon="-0.52087">
        <ele>94.2</ele>
        <time>2021-07-04T08:50:36Z</time>
      </trkpt>
      <trkpt lat="47.31817" lon="-0.52081">
        <ele>94.4</ele>
        <time>2021-07-04T08:50:38Z</time>
      </trkpt>
      <trkpt lat="47.31807" lon="-0.52075">
        <ele>94.8</ele>
        <time>2021-07-04T08:50:40Z</time>
      </trkpt>
      <trkpt lat="47.31797" lon="-0.52069">
        <ele>94.6</ele>
        <time>2021-07-04T08:50:42Z</time>
      </trkpt>
      <trkpt lat="47.31787" lon="-0.52064">
        <ele>94.6</ele>
        <time>2021-07-04T08:50:44Z</time>
      </trkpt>
      <trkpt lat="47.31778" lon="-0.52057">
        <ele>94.8</ele>
        <time>2021-07-04T08:50:46Z</time>
      </trkpt>
      <trkpt lat="47.31773" lon="-0.52054">
        <ele>95.2</ele>
        <time>2021-07-04T08:50:47Z</time>
      </trkpt>
      <trkpt lat="47.31768" lon="-0.52051">
        <ele>95.8</ele>
        <time>2021-07-04T08:50:48Z</time>
      </trkpt>
      <trkpt lat="47.31758" lon="-0.52044">
        <ele>96.2</ele>
        <time>2021-07-04T08:50:50Z</time>
      </trkpt>
      <trkpt lat="47.31749" lon="-0.52035">
        <ele>95.8</ele>
        <time>2021-07-04T08:50:52Z</time>
      </trkpt>
      <trkpt lat="47.31739" lon="-0.52027">
        <ele>95.4</ele>
        <time>2021-07-04T08:50:54Z</time>
      </trkpt>
      <trkpt lat="47.3173" lon="-0.52019">
        <ele>95.4</ele>
        <time>2021-07-04T08:50:56Z</time>
      </trkpt>
      <trkpt lat="47.3172" lon="-0.52013">
        <ele>95.6</ele>
        <time>2021-07-04T08:50:58Z</time>
      </trkpt>
      <trkpt lat="47.31711" lon="-0.52007">
        <ele>95.6</ele>
        <time>2021-07-04T08:51:00Z</time>
      </trkpt>
      <trkpt lat="47.31702" lon="-0.52003">
        <ele>96</ele>
        <time>2021-07-04T08:51:02Z</time>
      </trkpt>
      <trkpt lat="47.31698" lon="-0.52001">
        <ele>96.4</ele>
        <time>2021-07-04T08:51:03Z</time>
      </trkpt>
      <trkpt lat="47.31693" lon="-0.51997">
        <ele>96.4</ele>
        <time>2021-07-04T08:51:04Z</time>
      </trkpt>
      <trkpt lat="47.31685" lon="-0.51991">
        <ele>96.4</ele>
        <time>2021-07-04T08:51:06Z</time>
      </trkpt>
      <trkpt lat="47.31676" lon="-0.51985">
        <ele>96.2</ele>
        <time>2021-07-04T08:51:08Z</time>
      </trkpt>
      <trkpt lat="47.31671" lon="-0.51982">
        <ele>96</ele>
        <time>2021-07-04T08:51:09Z</time>
      </trkpt>
      <trkpt lat="47.31666" lon="-0.51978">
        <ele>96.2</ele>
        <time>2021-07-04T08:51:10Z</time>
      </trkpt>
      <trkpt lat="47.31659" lon="-0.51971">
        <ele>97</ele>
        <time>2021-07-04T08:51:12Z</time>
      </trkpt>
      <trkpt lat="47.31657" lon="-0.51966">
        <ele>97</ele>
        <time>2021-07-04T08:51:13Z</time>
      </trkpt>
      <trkpt lat="47.31656" lon="-0.51963">
        <ele>96.8</ele>
        <time>2021-07-04T08:51:14Z</time>
      </trkpt>
      <trkpt lat="47.31659" lon="-0.51955">
        <ele>96.8</ele>
        <time>2021-07-04T08:51:16Z</time>
      </trkpt>
      <trkpt lat="47.3166" lon="-0.51945">
        <ele>96.8</ele>
        <time>2021-07-04T08:51:18Z</time>
      </trkpt>
      <trkpt lat="47.31665" lon="-0.51933">
        <ele>96.8</ele>
        <time>2021-07-04T08:51:20Z</time>
      </trkpt>
      <trkpt lat="47.31671" lon="-0.51921">
        <ele>97</ele>
        <time>2021-07-04T08:51:22Z</time>
      </trkpt>
      <trkpt lat="47.31674" lon="-0.51915">
        <ele>97.2</ele>
        <time>2021-07-04T08:51:23Z</time>
      </trkpt>
      <trkpt lat="47.31678" lon="-0.51909">
        <ele>97</ele>
        <time>2021-07-04T08:51:24Z</time>
      </trkpt>
      <trkpt lat="47.31685" lon="-0.51896">
        <ele>96.6</ele>
        <time>2021-07-04T08:51:26Z</time>
      </trkpt>
      <trkpt lat="47.31692" lon="-0.51884">
        <ele>96.6</ele>
        <time>2021-07-04T08:51:28Z</time>
      </trkpt>
      <trkpt lat="47.317" lon="-0.51872">
        <ele>96.6</ele>
        <time>2021-07-04T08:51:30Z</time>
      </trkpt>
      <trkpt lat="47.31709" lon="-0.51859">
        <ele>96.2</ele>
        <time>2021-07-04T08:51:32Z</time>
      </trkpt>
      <trkpt lat="47.31717" lon="-0.51847">
        <ele>95.4</ele>
        <time>2021-07-04T08:51:34Z</time>
      </trkpt>
      <trkpt lat="47.31725" lon="-0.51835">
        <ele>95.6</ele>
        <time>2021-07-04T08:51:36Z</time>
      </trkpt>
      <trkpt lat="47.31733" lon="-0.51824">
        <ele>96.2</ele>
        <time>2021-07-04T08:51:38Z</time>
      </trkpt>
      <trkpt lat="47.31741" lon="-0.51814">
        <ele>96.8</ele>
        <time>2021-07-04T08:51:40Z</time>
      </trkpt>
      <trkpt lat="47.31746" lon="-0.5181">
        <ele>96.8</ele>
        <time>2021-07-04T08:51:41Z</time>
      </trkpt>
      <trkpt lat="47.31751" lon="-0.51806">
        <ele>96.8</ele>
        <time>2021-07-04T08:51:42Z</time>
      </trkpt>
      <trkpt lat="47.3176" lon="-0.51799">
        <ele>97.2</ele>
        <time>2021-07-04T08:51:44Z</time>
      </trkpt>
      <trkpt lat="47.3177" lon="-0.51792">
        <ele>96.8</ele>
        <time>2021-07-04T08:51:46Z</time>
      </trkpt>
      <trkpt lat="47.31776" lon="-0.51788">
        <ele>96.6</ele>
        <time>2021-07-04T08:51:47Z</time>
      </trkpt>
      <trkpt lat="47.31781" lon="-0.51784">
        <ele>96.2</ele>
        <time>2021-07-04T08:51:48Z</time>
      </trkpt>
      <trkpt lat="47.31793" lon="-0.51776">
        <ele>95.4</ele>
        <time>2021-07-04T08:51:50Z</time>
      </trkpt>
      <trkpt lat="47.31798" lon="-0.51772">
        <ele>95</ele>
        <time>2021-07-04T08:51:51Z</time>
      </trkpt>
      <trkpt lat="47.31804" lon="-0.51769">
        <ele>94.6</ele>
        <time>2021-07-04T08:51:52Z</time>
      </trkpt>
      <trkpt lat="47.31816" lon="-0.51763">
        <ele>94.4</ele>
        <time>2021-07-04T08:51:54Z</time>
      </trkpt>
      <trkpt lat="47.31822" lon="-0.51759">
        <ele>94.6</ele>
        <time>2021-07-04T08:51:55Z</time>
      </trkpt>
      <trkpt lat="47.31828" lon="-0.51756">
        <ele>94.6</ele>
        <time>2021-07-04T08:51:56Z</time>
      </trkpt>
      <trkpt lat="47.31841" lon="-0.51748">
        <ele>94.2</ele>
        <time>2021-07-04T08:51:58Z</time>
      </trkpt>
      <trkpt lat="47.31855" lon="-0.5174">
        <ele>94.2</ele>
        <time>2021-07-04T08:52:00Z</time>
      </trkpt>
      <trkpt lat="47.31863" lon="-0.51736">
        <ele>93.8</ele>
        <time>2021-07-04T08:52:01Z</time>
      </trkpt>
      <trkpt lat="47.31869" lon="-0.51732">
        <ele>93.4</ele>
        <time>2021-07-04T08:52:02Z</time>
      </trkpt>
      <trkpt lat="47.31876" lon="-0.51727">
        <ele>93.2</ele>
        <time>2021-07-04T08:52:03Z</time>
      </trkpt>
      <trkpt lat="47.31883" lon="-0.51721">
        <ele>93.2</ele>
        <time>2021-07-04T08:52:04Z</time>
      </trkpt>
      <trkpt lat="47.31888" lon="-0.51713">
        <ele>93.4</ele>
        <time>2021-07-04T08:52:05Z</time>
      </trkpt>
      <trkpt lat="47.31893" lon="-0.51705">
        <ele>93.4</ele>
        <time>2021-07-04T08:52:06Z</time>
      </trkpt>
      <trkpt lat="47.31897" lon="-0.51696">
        <ele>94</ele>
        <time>2021-07-04T08:52:07Z</time>
      </trkpt>
      <trkpt lat="47.319" lon="-0.51687">
        <ele>94</ele>
        <time>2021-07-04T08:52:08Z</time>
      </trkpt>
      <trkpt lat="47.31902" lon="-0.51678">
        <ele>93.8</ele>
        <time>2021-07-04T08:52:09Z</time>
      </trkpt>
      <trkpt lat="47.31904" lon="-0.51668">
        <ele>93.2</ele>
        <time>2021-07-04T08:52:10Z</time>
      </trkpt>
      <trkpt lat="47.31907" lon="-0.51648">
        <ele>93.6</ele>
        <time>2021-07-04T08:52:12Z</time>
      </trkpt>
      <trkpt lat="47.31907" lon="-0.51628">
        <ele>93.6</ele>
        <time>2021-07-04T08:52:14Z</time>
      </trkpt>
      <trkpt lat="47.31906" lon="-0.51619">
        <ele>93.4</ele>
        <time>2021-07-04T08:52:15Z</time>
      </trkpt>
      <trkpt lat="47.31904" lon="-0.51609">
        <ele>93.2</ele>
        <time>2021-07-04T08:52:16Z</time>
      </trkpt>
      <trkpt lat="47.31901" lon="-0.51591">
        <ele>93.4</ele>
        <time>2021-07-04T08:52:18Z</time>
      </trkpt>
      <trkpt lat="47.31897" lon="-0.51573">
        <ele>93.2</ele>
        <time>2021-07-04T08:52:20Z</time>
      </trkpt>
      <trkpt lat="47.31895" lon="-0.51564">
        <ele>92.6</ele>
        <time>2021-07-04T08:52:21Z</time>
      </trkpt>
      <trkpt lat="47.31892" lon="-0.51556">
        <ele>92.6</ele>
        <time>2021-07-04T08:52:22Z</time>
      </trkpt>
      <trkpt lat="47.31888" lon="-0.51538">
        <ele>93</ele>
        <time>2021-07-04T08:52:24Z</time>
      </trkpt>
      <trkpt lat="47.31885" lon="-0.51519">
        <ele>93.6</ele>
        <time>2021-07-04T08:52:26Z</time>
      </trkpt>
      <trkpt lat="47.31882" lon="-0.51501">
        <ele>93.4</ele>
        <time>2021-07-04T08:52:28Z</time>
      </trkpt>
      <trkpt lat="47.3188" lon="-0.51491">
        <ele>93.2</ele>
        <time>2021-07-04T08:52:29Z</time>
      </trkpt>
      <trkpt lat="47.31879" lon="-0.51481">
        <ele>93.2</ele>
        <time>2021-07-04T08:52:30Z</time>
      </trkpt>
      <trkpt lat="47.31877" lon="-0.51461">
        <ele>93.4</ele>
        <time>2021-07-04T08:52:32Z</time>
      </trkpt>
      <trkpt lat="47.31875" lon="-0.51441">
        <ele>93.4</ele>
        <time>2021-07-04T08:52:34Z</time>
      </trkpt>
      <trkpt lat="47.31874" lon="-0.51431">
        <ele>93.2</ele>
        <time>2021-07-04T08:52:35Z</time>
      </trkpt>
      <trkpt lat="47.31873" lon="-0.5142">
        <ele>92.8</ele>
        <time>2021-07-04T08:52:36Z</time>
      </trkpt>
      <trkpt lat="47.31871" lon="-0.51399">
        <ele>92.6</ele>
        <time>2021-07-04T08:52:38Z</time>
      </trkpt>
      <trkpt lat="47.31868" lon="-0.51379">
        <ele>92</ele>
        <time>2021-07-04T08:52:40Z</time>
      </trkpt>
      <trkpt lat="47.31865" lon="-0.51359">
        <ele>92</ele>
        <time>2021-07-04T08:52:42Z</time>
      </trkpt>
      <trkpt lat="47.31865" lon="-0.5135">
        <ele>92.2</ele>
        <time>2021-07-04T08:52:43Z</time>
      </trkpt>
      <trkpt lat="47.31865" lon="-0.5134">
        <ele>92.4</ele>
        <time>2021-07-04T08:52:44Z</time>
      </trkpt>
      <trkpt lat="47.31865" lon="-0.51321">
        <ele>93</ele>
        <time>2021-07-04T08:52:46Z</time>
      </trkpt>
      <trkpt lat="47.31867" lon="-0.51302">
        <ele>93.8</ele>
        <time>2021-07-04T08:52:48Z</time>
      </trkpt>
      <trkpt lat="47.31873" lon="-0.51286">
        <ele>94.4</ele>
        <time>2021-07-04T08:52:50Z</time>
      </trkpt>
      <trkpt lat="47.31878" lon="-0.5128">
        <ele>94.4</ele>
        <time>2021-07-04T08:52:51Z</time>
      </trkpt>
      <trkpt lat="47.31883" lon="-0.51275">
        <ele>94.2</ele>
        <time>2021-07-04T08:52:52Z</time>
      </trkpt>
      <trkpt lat="47.31895" lon="-0.51266">
        <ele>94.2</ele>
        <time>2021-07-04T08:52:54Z</time>
      </trkpt>
      <trkpt lat="47.31907" lon="-0.51258">
        <ele>94.2</ele>
        <time>2021-07-04T08:52:56Z</time>
      </trkpt>
      <trkpt lat="47.31919" lon="-0.51251">
        <ele>94.2</ele>
        <time>2021-07-04T08:52:58Z</time>
      </trkpt>
      <trkpt lat="47.31925" lon="-0.51248">
        <ele>94.2</ele>
        <time>2021-07-04T08:52:59Z</time>
      </trkpt>
      <trkpt lat="47.31932" lon="-0.51246">
        <ele>94.2</ele>
        <time>2021-07-04T08:53:00Z</time>
      </trkpt>
      <trkpt lat="47.31945" lon="-0.51245">
        <ele>94.6</ele>
        <time>2021-07-04T08:53:02Z</time>
      </trkpt>
      <trkpt lat="47.31959" lon="-0.51245">
        <ele>94.2</ele>
        <time>2021-07-04T08:53:04Z</time>
      </trkpt>
      <trkpt lat="47.31974" lon="-0.51243">
        <ele>93</ele>
        <time>2021-07-04T08:53:06Z</time>
      </trkpt>
      <trkpt lat="47.31981" lon="-0.51241">
        <ele>92.4</ele>
        <time>2021-07-04T08:53:07Z</time>
      </trkpt>
      <trkpt lat="47.31988" lon="-0.51237">
        <ele>92.2</ele>
        <time>2021-07-04T08:53:08Z</time>
      </trkpt>
      <trkpt lat="47.32001" lon="-0.51229">
        <ele>92</ele>
        <time>2021-07-04T08:53:10Z</time>
      </trkpt>
      <trkpt lat="47.32014" lon="-0.51222">
        <ele>91.6</ele>
        <time>2021-07-04T08:53:12Z</time>
      </trkpt>
      <trkpt lat="47.32021" lon="-0.51218">
        <ele>91.4</ele>
        <time>2021-07-04T08:53:13Z</time>
      </trkpt>
      <trkpt lat="47.32028" lon="-0.51214">
        <ele>91.2</ele>
        <time>2021-07-04T08:53:14Z</time>
      </trkpt>
      <trkpt lat="47.32034" lon="-0.5121">
        <ele>91.2</ele>
        <time>2021-07-04T08:53:15Z</time>
      </trkpt>
      <trkpt lat="47.3204" lon="-0.51207">
        <ele>90.8</ele>
        <time>2021-07-04T08:53:16Z</time>
      </trkpt>
      <trkpt lat="47.32052" lon="-0.51202">
        <ele>90.8</ele>
        <time>2021-07-04T08:53:18Z</time>
      </trkpt>
      <trkpt lat="47.32057" lon="-0.51201">
        <ele>91.2</ele>
        <time>2021-07-04T08:53:19Z</time>
      </trkpt>
      <trkpt lat="47.32061" lon="-0.512">
        <ele>91.6</ele>
        <time>2021-07-04T08:53:20Z</time>
      </trkpt>
      <trkpt lat="47.32065" lon="-0.51197">
        <ele>91.8</ele>
        <time>2021-07-04T08:53:22Z</time>
      </trkpt>
      <trkpt lat="47.32068" lon="-0.51195">
        <ele>93</ele>
        <time>2021-07-04T08:53:45Z</time>
      </trkpt>
      <trkpt lat="47.32073" lon="-0.51192">
        <ele>91.6</ele>
        <time>2021-07-04T08:53:47Z</time>
      </trkpt>
      <trkpt lat="47.32076" lon="-0.51191">
        <ele>91.4</ele>
        <time>2021-07-04T08:53:48Z</time>
      </trkpt>
      <trkpt lat="47.32079" lon="-0.51189">
        <ele>91</ele>
        <time>2021-07-04T08:53:49Z</time>
      </trkpt>
      <trkpt lat="47.32087" lon="-0.51186">
        <ele>91.2</ele>
        <time>2021-07-04T08:53:51Z</time>
      </trkpt>
      <trkpt lat="47.32096" lon="-0.51183">
        <ele>91</ele>
        <time>2021-07-04T08:53:53Z</time>
      </trkpt>
      <trkpt lat="47.32104" lon="-0.51183">
        <ele>90.8</ele>
        <time>2021-07-04T08:53:55Z</time>
      </trkpt>
      <trkpt lat="47.32112" lon="-0.51185">
        <ele>90.4</ele>
        <time>2021-07-04T08:53:57Z</time>
      </trkpt>
      <trkpt lat="47.32116" lon="-0.51186">
        <ele>90.2</ele>
        <time>2021-07-04T08:53:58Z</time>
      </trkpt>
      <trkpt lat="47.3212" lon="-0.51188">
        <ele>89.8</ele>
        <time>2021-07-04T08:53:59Z</time>
      </trkpt>
      <trkpt lat="47.3213" lon="-0.51193">
        <ele>88.8</ele>
        <time>2021-07-04T08:54:01Z</time>
      </trkpt>
      <trkpt lat="47.32141" lon="-0.51198">
        <ele>88</ele>
        <time>2021-07-04T08:54:03Z</time>
      </trkpt>
      <trkpt lat="47.32146" lon="-0.512">
        <ele>87.6</ele>
        <time>2021-07-04T08:54:04Z</time>
      </trkpt>
      <trkpt lat="47.32151" lon="-0.51201">
        <ele>87.6</ele>
        <time>2021-07-04T08:54:05Z</time>
      </trkpt>
      <trkpt lat="47.32162" lon="-0.51206">
        <ele>87</ele>
        <time>2021-07-04T08:54:07Z</time>
      </trkpt>
      <trkpt lat="47.32172" lon="-0.51212">
        <ele>87</ele>
        <time>2021-07-04T08:54:09Z</time>
      </trkpt>
      <trkpt lat="47.32182" lon="-0.51217">
        <ele>87.2</ele>
        <time>2021-07-04T08:54:11Z</time>
      </trkpt>
      <trkpt lat="47.32191" lon="-0.51222">
        <ele>86.4</ele>
        <time>2021-07-04T08:54:13Z</time>
      </trkpt>
      <trkpt lat="47.32197" lon="-0.51225">
        <ele>86.4</ele>
        <time>2021-07-04T08:54:14Z</time>
      </trkpt>
      <trkpt lat="47.32203" lon="-0.51229">
        <ele>86.4</ele>
        <time>2021-07-04T08:54:15Z</time>
      </trkpt>
      <trkpt lat="47.32213" lon="-0.51236">
        <ele>86.6</ele>
        <time>2021-07-04T08:54:17Z</time>
      </trkpt>
      <trkpt lat="47.32224" lon="-0.51242">
        <ele>86.6</ele>
        <time>2021-07-04T08:54:19Z</time>
      </trkpt>
      <trkpt lat="47.32228" lon="-0.51245">
        <ele>86.4</ele>
        <time>2021-07-04T08:54:20Z</time>
      </trkpt>
      <trkpt lat="47.32233" lon="-0.51248">
        <ele>86</ele>
        <time>2021-07-04T08:54:21Z</time>
      </trkpt>
      <trkpt lat="47.32244" lon="-0.51254">
        <ele>86</ele>
        <time>2021-07-04T08:54:23Z</time>
      </trkpt>
      <trkpt lat="47.32255" lon="-0.51261">
        <ele>85.8</ele>
        <time>2021-07-04T08:54:25Z</time>
      </trkpt>
      <trkpt lat="47.32261" lon="-0.51264">
        <ele>85.2</ele>
        <time>2021-07-04T08:54:26Z</time>
      </trkpt>
      <trkpt lat="47.32267" lon="-0.51266">
        <ele>84.6</ele>
        <time>2021-07-04T08:54:27Z</time>
      </trkpt>
      <trkpt lat="47.32272" lon="-0.5127">
        <ele>84.2</ele>
        <time>2021-07-04T08:54:28Z</time>
      </trkpt>
      <trkpt lat="47.32278" lon="-0.51274">
        <ele>83.8</ele>
        <time>2021-07-04T08:54:29Z</time>
      </trkpt>
      <trkpt lat="47.32288" lon="-0.51281">
        <ele>83.8</ele>
        <time>2021-07-04T08:54:31Z</time>
      </trkpt>
      <trkpt lat="47.32299" lon="-0.51287">
        <ele>84.2</ele>
        <time>2021-07-04T08:54:33Z</time>
      </trkpt>
      <trkpt lat="47.32305" lon="-0.51289">
        <ele>84.4</ele>
        <time>2021-07-04T08:54:34Z</time>
      </trkpt>
      <trkpt lat="47.32311" lon="-0.51289">
        <ele>84.2</ele>
        <time>2021-07-04T08:54:35Z</time>
      </trkpt>
      <trkpt lat="47.32316" lon="-0.51286">
        <ele>84.4</ele>
        <time>2021-07-04T08:54:36Z</time>
      </trkpt>
      <trkpt lat="47.3232" lon="-0.51282">
        <ele>84.2</ele>
        <time>2021-07-04T08:54:37Z</time>
      </trkpt>
      <trkpt lat="47.32325" lon="-0.51277">
        <ele>84.4</ele>
        <time>2021-07-04T08:54:38Z</time>
      </trkpt>
      <trkpt lat="47.3233" lon="-0.51272">
        <ele>84</ele>
        <time>2021-07-04T08:54:39Z</time>
      </trkpt>
      <trkpt lat="47.32334" lon="-0.51267">
        <ele>84</ele>
        <time>2021-07-04T08:54:40Z</time>
      </trkpt>
      <trkpt lat="47.32339" lon="-0.51262">
        <ele>83.8</ele>
        <time>2021-07-04T08:54:41Z</time>
      </trkpt>
      <trkpt lat="47.32349" lon="-0.51253">
        <ele>83.8</ele>
        <time>2021-07-04T08:54:43Z</time>
      </trkpt>
      <trkpt lat="47.3236" lon="-0.51243">
        <ele>84.2</ele>
        <time>2021-07-04T08:54:45Z</time>
      </trkpt>
      <trkpt lat="47.3237" lon="-0.51232">
        <ele>84</ele>
        <time>2021-07-04T08:54:47Z</time>
      </trkpt>
      <trkpt lat="47.32376" lon="-0.51228">
        <ele>83.6</ele>
        <time>2021-07-04T08:54:48Z</time>
      </trkpt>
      <trkpt lat="47.32382" lon="-0.51225">
        <ele>83.8</ele>
        <time>2021-07-04T08:54:49Z</time>
      </trkpt>
      <trkpt lat="47.32392" lon="-0.51221">
        <ele>84.4</ele>
        <time>2021-07-04T08:54:51Z</time>
      </trkpt>
      <trkpt lat="47.32397" lon="-0.51219">
        <ele>84.6</ele>
        <time>2021-07-04T08:54:52Z</time>
      </trkpt>
      <trkpt lat="47.32402" lon="-0.51217">
        <ele>84.6</ele>
        <time>2021-07-04T08:54:53Z</time>
      </trkpt>
      <trkpt lat="47.32412" lon="-0.51214">
        <ele>85.2</ele>
        <time>2021-07-04T08:54:55Z</time>
      </trkpt>
      <trkpt lat="47.32417" lon="-0.51212">
        <ele>85.4</ele>
        <time>2021-07-04T08:54:56Z</time>
      </trkpt>
      <trkpt lat="47.32422" lon="-0.5121">
        <ele>85.6</ele>
        <time>2021-07-04T08:54:57Z</time>
      </trkpt>
      <trkpt lat="47.32432" lon="-0.51206">
        <ele>85.2</ele>
        <time>2021-07-04T08:54:59Z</time>
      </trkpt>
      <trkpt lat="47.32442" lon="-0.51203">
        <ele>85.8</ele>
        <time>2021-07-04T08:55:01Z</time>
      </trkpt>
      <trkpt lat="47.32452" lon="-0.512">
        <ele>85.8</ele>
        <time>2021-07-04T08:55:03Z</time>
      </trkpt>
      <trkpt lat="47.32457" lon="-0.51198">
        <ele>86</ele>
        <time>2021-07-04T08:55:04Z</time>
      </trkpt>
      <trkpt lat="47.32463" lon="-0.51196">
        <ele>86</ele>
        <time>2021-07-04T08:55:05Z</time>
      </trkpt>
      <trkpt lat="47.32473" lon="-0.51193">
        <ele>86.4</ele>
        <time>2021-07-04T08:55:07Z</time>
      </trkpt>
      <trkpt lat="47.32484" lon="-0.51189">
        <ele>86.4</ele>
        <time>2021-07-04T08:55:09Z</time>
      </trkpt>
      <trkpt lat="47.32494" lon="-0.51186">
        <ele>86.4</ele>
        <time>2021-07-04T08:55:11Z</time>
      </trkpt>
      <trkpt lat="47.32505" lon="-0.51182">
        <ele>86</ele>
        <time>2021-07-04T08:55:13Z</time>
      </trkpt>
      <trkpt lat="47.32515" lon="-0.51178">
        <ele>86.6</ele>
        <time>2021-07-04T08:55:15Z</time>
      </trkpt>
      <trkpt lat="47.32525" lon="-0.51174">
        <ele>87.4</ele>
        <time>2021-07-04T08:55:17Z</time>
      </trkpt>
      <trkpt lat="47.3253" lon="-0.51172">
        <ele>87</ele>
        <time>2021-07-04T08:55:18Z</time>
      </trkpt>
      <trkpt lat="47.32535" lon="-0.51171">
        <ele>86.8</ele>
        <time>2021-07-04T08:55:19Z</time>
      </trkpt>
      <trkpt lat="47.32545" lon="-0.51167">
        <ele>86.8</ele>
        <time>2021-07-04T08:55:21Z</time>
      </trkpt>
      <trkpt lat="47.32554" lon="-0.51164">
        <ele>87.2</ele>
        <time>2021-07-04T08:55:23Z</time>
      </trkpt>
      <trkpt lat="47.32559" lon="-0.51162">
        <ele>87.4</ele>
        <time>2021-07-04T08:55:24Z</time>
      </trkpt>
      <trkpt lat="47.32564" lon="-0.5116">
        <ele>87.4</ele>
        <time>2021-07-04T08:55:25Z</time>
      </trkpt>
      <trkpt lat="47.32568" lon="-0.51158">
        <ele>87.6</ele>
        <time>2021-07-04T08:55:26Z</time>
      </trkpt>
      <trkpt lat="47.32573" lon="-0.51156">
        <ele>87.6</ele>
        <time>2021-07-04T08:55:27Z</time>
      </trkpt>
      <trkpt lat="47.32581" lon="-0.51151">
        <ele>87.6</ele>
        <time>2021-07-04T08:55:29Z</time>
      </trkpt>
      <trkpt lat="47.3259" lon="-0.51146">
        <ele>88.4</ele>
        <time>2021-07-04T08:55:31Z</time>
      </trkpt>
      <trkpt lat="47.32595" lon="-0.51144">
        <ele>88.4</ele>
        <time>2021-07-04T08:55:32Z</time>
      </trkpt>
      <trkpt lat="47.32599" lon="-0.51141">
        <ele>88.4</ele>
        <time>2021-07-04T08:55:33Z</time>
      </trkpt>
      <trkpt lat="47.32603" lon="-0.51138">
        <ele>88.6</ele>
        <time>2021-07-04T08:55:34Z</time>
      </trkpt>
      <trkpt lat="47.32608" lon="-0.51135">
        <ele>88.8</ele>
        <time>2021-07-04T08:55:35Z</time>
      </trkpt>
      <trkpt lat="47.32616" lon="-0.5113">
        <ele>88.8</ele>
        <time>2021-07-04T08:55:37Z</time>
      </trkpt>
      <trkpt lat="47.32624" lon="-0.51125">
        <ele>89</ele>
        <time>2021-07-04T08:55:39Z</time>
      </trkpt>
      <trkpt lat="47.32632" lon="-0.51119">
        <ele>89.2</ele>
        <time>2021-07-04T08:55:41Z</time>
      </trkpt>
      <trkpt lat="47.32639" lon="-0.51115">
        <ele>89.4</ele>
        <time>2021-07-04T08:55:43Z</time>
      </trkpt>
      <trkpt lat="47.32643" lon="-0.51112">
        <ele>89.4</ele>
        <time>2021-07-04T08:55:45Z</time>
      </trkpt>
      <trkpt lat="47.32647" lon="-0.51108">
        <ele>89.6</ele>
        <time>2021-07-04T08:55:47Z</time>
      </trkpt>
      <trkpt lat="47.32653" lon="-0.51103">
        <ele>89.6</ele>
        <time>2021-07-04T08:55:49Z</time>
      </trkpt>
      <trkpt lat="47.32656" lon="-0.51099">
        <ele>89.6</ele>
        <time>2021-07-04T08:55:50Z</time>
      </trkpt>
      <trkpt lat="47.3266" lon="-0.51096">
        <ele>89.4</ele>
        <time>2021-07-04T08:55:51Z</time>
      </trkpt>
      <trkpt lat="47.32669" lon="-0.51087">
        <ele>88.8</ele>
        <time>2021-07-04T08:55:53Z</time>
      </trkpt>
      <trkpt lat="47.32673" lon="-0.51082">
        <ele>88.4</ele>
        <time>2021-07-04T08:55:54Z</time>
      </trkpt>
      <trkpt lat="47.32678" lon="-0.51078">
        <ele>88.8</ele>
        <time>2021-07-04T08:55:55Z</time>
      </trkpt>
      <trkpt lat="47.32687" lon="-0.51068">
        <ele>88.8</ele>
        <time>2021-07-04T08:55:57Z</time>
      </trkpt>
      <trkpt lat="47.32696" lon="-0.51058">
        <ele>88.4</ele>
        <time>2021-07-04T08:55:59Z</time>
      </trkpt>
      <trkpt lat="47.32705" lon="-0.51047">
        <ele>88.6</ele>
        <time>2021-07-04T08:56:01Z</time>
      </trkpt>
      <trkpt lat="47.32714" lon="-0.51036">
        <ele>88.6</ele>
        <time>2021-07-04T08:56:03Z</time>
      </trkpt>
      <trkpt lat="47.32723" lon="-0.51024">
        <ele>88.4</ele>
        <time>2021-07-04T08:56:05Z</time>
      </trkpt>
      <trkpt lat="47.32732" lon="-0.51012">
        <ele>89</ele>
        <time>2021-07-04T08:56:07Z</time>
      </trkpt>
      <trkpt lat="47.32741" lon="-0.51001">
        <ele>89.4</ele>
        <time>2021-07-04T08:56:09Z</time>
      </trkpt>
      <trkpt lat="47.32746" lon="-0.50995">
        <ele>89.6</ele>
        <time>2021-07-04T08:56:10Z</time>
      </trkpt>
      <trkpt lat="47.3275" lon="-0.50989">
        <ele>89.8</ele>
        <time>2021-07-04T08:56:11Z</time>
      </trkpt>
      <trkpt lat="47.32759" lon="-0.50977">
        <ele>89</ele>
        <time>2021-07-04T08:56:13Z</time>
      </trkpt>
      <trkpt lat="47.32768" lon="-0.50966">
        <ele>89</ele>
        <time>2021-07-04T08:56:15Z</time>
      </trkpt>
      <trkpt lat="47.32775" lon="-0.50955">
        <ele>89</ele>
        <time>2021-07-04T08:56:17Z</time>
      </trkpt>
      <trkpt lat="47.32779" lon="-0.5095">
        <ele>89.2</ele>
        <time>2021-07-04T08:56:18Z</time>
      </trkpt>
      <trkpt lat="47.32784" lon="-0.50944">
        <ele>89.2</ele>
        <time>2021-07-04T08:56:19Z</time>
      </trkpt>
      <trkpt lat="47.32792" lon="-0.50933">
        <ele>89.2</ele>
        <time>2021-07-04T08:56:21Z</time>
      </trkpt>
      <trkpt lat="47.32801" lon="-0.50922">
        <ele>89.2</ele>
        <time>2021-07-04T08:56:23Z</time>
      </trkpt>
      <trkpt lat="47.3281" lon="-0.50909">
        <ele>89.4</ele>
        <time>2021-07-04T08:56:25Z</time>
      </trkpt>
      <trkpt lat="47.32819" lon="-0.50896">
        <ele>89</ele>
        <time>2021-07-04T08:56:27Z</time>
      </trkpt>
      <trkpt lat="47.32829" lon="-0.50883">
        <ele>88.4</ele>
        <time>2021-07-04T08:56:29Z</time>
      </trkpt>
      <trkpt lat="47.32839" lon="-0.50871">
        <ele>88</ele>
        <time>2021-07-04T08:56:31Z</time>
      </trkpt>
      <trkpt lat="47.3285" lon="-0.50859">
        <ele>87.6</ele>
        <time>2021-07-04T08:56:33Z</time>
      </trkpt>
      <trkpt lat="47.32862" lon="-0.50848">
        <ele>87.6</ele>
        <time>2021-07-04T08:56:35Z</time>
      </trkpt>
      <trkpt lat="47.32873" lon="-0.50835">
        <ele>87.4</ele>
        <time>2021-07-04T08:56:37Z</time>
      </trkpt>
      <trkpt lat="47.32878" lon="-0.50828">
        <ele>87</ele>
        <time>2021-07-04T08:56:38Z</time>
      </trkpt>
      <trkpt lat="47.32883" lon="-0.50822">
        <ele>86.6</ele>
        <time>2021-07-04T08:56:39Z</time>
      </trkpt>
      <trkpt lat="47.32892" lon="-0.50809">
        <ele>86.4</ele>
        <time>2021-07-04T08:56:41Z</time>
      </trkpt>
      <trkpt lat="47.32904" lon="-0.50796">
        <ele>86.4</ele>
        <time>2021-07-04T08:56:43Z</time>
      </trkpt>
      <trkpt lat="47.3291" lon="-0.50789">
        <ele>86.2</ele>
        <time>2021-07-04T08:56:44Z</time>
      </trkpt>
      <trkpt lat="47.32916" lon="-0.50783">
        <ele>86</ele>
        <time>2021-07-04T08:56:45Z</time>
      </trkpt>
      <trkpt lat="47.32928" lon="-0.50771">
        <ele>85.6</ele>
        <time>2021-07-04T08:56:47Z</time>
      </trkpt>
      <trkpt lat="47.3294" lon="-0.5076">
        <ele>85</ele>
        <time>2021-07-04T08:56:49Z</time>
      </trkpt>
      <trkpt lat="47.32946" lon="-0.50755">
        <ele>84.6</ele>
        <time>2021-07-04T08:56:50Z</time>
      </trkpt>
      <trkpt lat="47.32952" lon="-0.50751">
        <ele>84.4</ele>
        <time>2021-07-04T08:56:51Z</time>
      </trkpt>
      <trkpt lat="47.32965" lon="-0.50742">
        <ele>84.2</ele>
        <time>2021-07-04T08:56:53Z</time>
      </trkpt>
      <trkpt lat="47.32978" lon="-0.50734">
        <ele>83.8</ele>
        <time>2021-07-04T08:56:55Z</time>
      </trkpt>
      <trkpt lat="47.32985" lon="-0.50729">
        <ele>83.8</ele>
        <time>2021-07-04T08:56:56Z</time>
      </trkpt>
      <trkpt lat="47.32992" lon="-0.50724">
        <ele>83.4</ele>
        <time>2021-07-04T08:56:57Z</time>
      </trkpt>
      <trkpt lat="47.33006" lon="-0.50716">
        <ele>83</ele>
        <time>2021-07-04T08:56:59Z</time>
      </trkpt>
      <trkpt lat="47.33014" lon="-0.50711">
        <ele>82.6</ele>
        <time>2021-07-04T08:57:00Z</time>
      </trkpt>
      <trkpt lat="47.33021" lon="-0.50707">
        <ele>82.2</ele>
        <time>2021-07-04T08:57:01Z</time>
      </trkpt>
      <trkpt lat="47.33035" lon="-0.50699">
        <ele>82</ele>
        <time>2021-07-04T08:57:03Z</time>
      </trkpt>
      <trkpt lat="47.33042" lon="-0.50695">
        <ele>81.8</ele>
        <time>2021-07-04T08:57:04Z</time>
      </trkpt>
      <trkpt lat="47.33049" lon="-0.50691">
        <ele>81.6</ele>
        <time>2021-07-04T08:57:05Z</time>
      </trkpt>
      <trkpt lat="47.33063" lon="-0.50684">
        <ele>81.4</ele>
        <time>2021-07-04T08:57:07Z</time>
      </trkpt>
      <trkpt lat="47.3307" lon="-0.50681">
        <ele>81.4</ele>
        <time>2021-07-04T08:57:08Z</time>
      </trkpt>
      <trkpt lat="47.33078" lon="-0.50677">
        <ele>81</ele>
        <time>2021-07-04T08:57:09Z</time>
      </trkpt>
      <trkpt lat="47.33085" lon="-0.50674">
        <ele>80</ele>
        <time>2021-07-04T08:57:10Z</time>
      </trkpt>
      <trkpt lat="47.33092" lon="-0.5067">
        <ele>80</ele>
        <time>2021-07-04T08:57:11Z</time>
      </trkpt>
      <trkpt lat="47.33098" lon="-0.50666">
        <ele>80.4</ele>
        <time>2021-07-04T08:57:12Z</time>
      </trkpt>
      <trkpt lat="47.33104" lon="-0.5066">
        <ele>80.6</ele>
        <time>2021-07-04T08:57:13Z</time>
      </trkpt>
      <trkpt lat="47.33115" lon="-0.50649">
        <ele>80.4</ele>
        <time>2021-07-04T08:57:15Z</time>
      </trkpt>
      <trkpt lat="47.33126" lon="-0.50646">
        <ele>80.6</ele>
        <time>2021-07-04T08:57:17Z</time>
      </trkpt>
      <trkpt lat="47.33131" lon="-0.50647">
        <ele>80.6</ele>
        <time>2021-07-04T08:57:18Z</time>
      </trkpt>
      <trkpt lat="47.33137" lon="-0.50651">
        <ele>80.2</ele>
        <time>2021-07-04T08:57:19Z</time>
      </trkpt>
      <trkpt lat="47.33143" lon="-0.50655">
        <ele>79.6</ele>
        <time>2021-07-04T08:57:20Z</time>
      </trkpt>
      <trkpt lat="47.3315" lon="-0.5066">
        <ele>79.2</ele>
        <time>2021-07-04T08:57:21Z</time>
      </trkpt>
      <trkpt lat="47.33156" lon="-0.50665">
        <ele>78.8</ele>
        <time>2021-07-04T08:57:22Z</time>
      </trkpt>
      <trkpt lat="47.33162" lon="-0.5067">
        <ele>78.8</ele>
        <time>2021-07-04T08:57:23Z</time>
      </trkpt>
      <trkpt lat="47.33175" lon="-0.50682">
        <ele>78.2</ele>
        <time>2021-07-04T08:57:25Z</time>
      </trkpt>
      <trkpt lat="47.33181" lon="-0.50688">
        <ele>77.6</ele>
        <time>2021-07-04T08:57:26Z</time>
      </trkpt>
      <trkpt lat="47.33187" lon="-0.50694">
        <ele>77.4</ele>
        <time>2021-07-04T08:57:27Z</time>
      </trkpt>
      <trkpt lat="47.33194" lon="-0.50701">
        <ele>76.6</ele>
        <time>2021-07-04T08:57:28Z</time>
      </trkpt>
      <trkpt lat="47.332" lon="-0.50709">
        <ele>76.4</ele>
        <time>2021-07-04T08:57:29Z</time>
      </trkpt>
      <trkpt lat="47.33206" lon="-0.50717">
        <ele>75.6</ele>
        <time>2021-07-04T08:57:30Z</time>
      </trkpt>
      <trkpt lat="47.33211" lon="-0.50725">
        <ele>75.6</ele>
        <time>2021-07-04T08:57:31Z</time>
      </trkpt>
      <trkpt lat="47.33224" lon="-0.5074">
        <ele>75.2</ele>
        <time>2021-07-04T08:57:33Z</time>
      </trkpt>
      <trkpt lat="47.33231" lon="-0.50746">
        <ele>73.2</ele>
        <time>2021-07-04T08:57:34Z</time>
      </trkpt>
      <trkpt lat="47.33238" lon="-0.5075">
        <ele>72.4</ele>
        <time>2021-07-04T08:57:35Z</time>
      </trkpt>
      <trkpt lat="47.33245" lon="-0.50751">
        <ele>71.8</ele>
        <time>2021-07-04T08:57:36Z</time>
      </trkpt>
      <trkpt lat="47.33253" lon="-0.50752">
        <ele>71.6</ele>
        <time>2021-07-04T08:57:37Z</time>
      </trkpt>
      <trkpt lat="47.33267" lon="-0.50754">
        <ele>72.6</ele>
        <time>2021-07-04T08:57:39Z</time>
      </trkpt>
      <trkpt lat="47.33273" lon="-0.50758">
        <ele>73</ele>
        <time>2021-07-04T08:57:40Z</time>
      </trkpt>
      <trkpt lat="47.33279" lon="-0.50762">
        <ele>72.8</ele>
        <time>2021-07-04T08:57:41Z</time>
      </trkpt>
      <trkpt lat="47.3329" lon="-0.50773">
        <ele>72.4</ele>
        <time>2021-07-04T08:57:43Z</time>
      </trkpt>
      <trkpt lat="47.33295" lon="-0.50779">
        <ele>72.6</ele>
        <time>2021-07-04T08:57:44Z</time>
      </trkpt>
      <trkpt lat="47.33298" lon="-0.50785">
        <ele>72.6</ele>
        <time>2021-07-04T08:57:45Z</time>
      </trkpt>
      <trkpt lat="47.33306" lon="-0.50794">
        <ele>72.6</ele>
        <time>2021-07-04T08:57:47Z</time>
      </trkpt>
      <trkpt lat="47.33316" lon="-0.508">
        <ele>72.4</ele>
        <time>2021-07-04T08:57:49Z</time>
      </trkpt>
      <trkpt lat="47.33328" lon="-0.50799">
        <ele>72.4</ele>
        <time>2021-07-04T08:57:51Z</time>
      </trkpt>
      <trkpt lat="47.33335" lon="-0.50798">
        <ele>72.2</ele>
        <time>2021-07-04T08:57:52Z</time>
      </trkpt>
      <trkpt lat="47.33342" lon="-0.50797">
        <ele>72.2</ele>
        <time>2021-07-04T08:57:53Z</time>
      </trkpt>
      <trkpt lat="47.33357" lon="-0.50794">
        <ele>72.4</ele>
        <time>2021-07-04T08:57:55Z</time>
      </trkpt>
      <trkpt lat="47.33369" lon="-0.50794">
        <ele>73.2</ele>
        <time>2021-07-04T08:57:57Z</time>
      </trkpt>
      <trkpt lat="47.33375" lon="-0.50794">
        <ele>74.4</ele>
        <time>2021-07-04T08:57:58Z</time>
      </trkpt>
      <trkpt lat="47.3338" lon="-0.50794">
        <ele>74.8</ele>
        <time>2021-07-04T08:57:59Z</time>
      </trkpt>
      <trkpt lat="47.3339" lon="-0.50792">
        <ele>75.2</ele>
        <time>2021-07-04T08:58:01Z</time>
      </trkpt>
      <trkpt lat="47.33401" lon="-0.50786">
        <ele>75</ele>
        <time>2021-07-04T08:58:03Z</time>
      </trkpt>
      <trkpt lat="47.33406" lon="-0.50782">
        <ele>74.8</ele>
        <time>2021-07-04T08:58:04Z</time>
      </trkpt>
      <trkpt lat="47.33411" lon="-0.50777">
        <ele>74.6</ele>
        <time>2021-07-04T08:58:05Z</time>
      </trkpt>
      <trkpt lat="47.33421" lon="-0.50764">
        <ele>74.6</ele>
        <time>2021-07-04T08:58:07Z</time>
      </trkpt>
      <trkpt lat="47.33432" lon="-0.50751">
        <ele>74</ele>
        <time>2021-07-04T08:58:09Z</time>
      </trkpt>
      <trkpt lat="47.33443" lon="-0.50737">
        <ele>72.8</ele>
        <time>2021-07-04T08:58:11Z</time>
      </trkpt>
      <trkpt lat="47.33456" lon="-0.50723">
        <ele>71.2</ele>
        <time>2021-07-04T08:58:13Z</time>
      </trkpt>
      <trkpt lat="47.33468" lon="-0.50709">
        <ele>69.8</ele>
        <time>2021-07-04T08:58:15Z</time>
      </trkpt>
      <trkpt lat="47.33478" lon="-0.50698">
        <ele>69.4</ele>
        <time>2021-07-04T08:58:17Z</time>
      </trkpt>
      <trkpt lat="47.33482" lon="-0.50696">
        <ele>69.4</ele>
        <time>2021-07-04T08:58:18Z</time>
      </trkpt>
      <trkpt lat="47.33486" lon="-0.50697">
        <ele>69.8</ele>
        <time>2021-07-04T08:58:19Z</time>
      </trkpt>
      <trkpt lat="47.33492" lon="-0.50706">
        <ele>70.4</ele>
        <time>2021-07-04T08:58:21Z</time>
      </trkpt>
      <trkpt lat="47.33495" lon="-0.50717">
        <ele>70.8</ele>
        <time>2021-07-04T08:58:23Z</time>
      </trkpt>
      <trkpt lat="47.33498" lon="-0.50727">
        <ele>71.6</ele>
        <time>2021-07-04T08:58:25Z</time>
      </trkpt>
      <trkpt lat="47.335" lon="-0.50731">
        <ele>72</ele>
        <time>2021-07-04T08:58:26Z</time>
      </trkpt>
      <trkpt lat="47.33503" lon="-0.50733">
        <ele>72.6</ele>
        <time>2021-07-04T08:58:27Z</time>
      </trkpt>
      <trkpt lat="47.33506" lon="-0.50732">
        <ele>73</ele>
        <time>2021-07-04T08:58:28Z</time>
      </trkpt>
      <trkpt lat="47.3351" lon="-0.5073">
        <ele>73</ele>
        <time>2021-07-04T08:58:29Z</time>
      </trkpt>
      <trkpt lat="47.33518" lon="-0.50721">
        <ele>72.4</ele>
        <time>2021-07-04T08:58:31Z</time>
      </trkpt>
      <trkpt lat="47.33522" lon="-0.50714">
        <ele>71.8</ele>
        <time>2021-07-04T08:58:32Z</time>
      </trkpt>
      <trkpt lat="47.33527" lon="-0.50708">
        <ele>71.2</ele>
        <time>2021-07-04T08:58:33Z</time>
      </trkpt>
      <trkpt lat="47.33531" lon="-0.50701">
        <ele>70.4</ele>
        <time>2021-07-04T08:58:34Z</time>
      </trkpt>
      <trkpt lat="47.33536" lon="-0.50693">
        <ele>69.8</ele>
        <time>2021-07-04T08:58:35Z</time>
      </trkpt>
      <trkpt lat="47.3354" lon="-0.50685">
        <ele>69.2</ele>
        <time>2021-07-04T08:58:36Z</time>
      </trkpt>
      <trkpt lat="47.33545" lon="-0.50677">
        <ele>69.2</ele>
        <time>2021-07-04T08:58:37Z</time>
      </trkpt>
      <trkpt lat="47.33554" lon="-0.5066">
        <ele>68</ele>
        <time>2021-07-04T08:58:39Z</time>
      </trkpt>
      <trkpt lat="47.33559" lon="-0.50651">
        <ele>66.8</ele>
        <time>2021-07-04T08:58:40Z</time>
      </trkpt>
      <trkpt lat="47.33564" lon="-0.50641">
        <ele>65.8</ele>
        <time>2021-07-04T08:58:41Z</time>
      </trkpt>
      <trkpt lat="47.3357" lon="-0.50632">
        <ele>65.4</ele>
        <time>2021-07-04T08:58:42Z</time>
      </trkpt>
      <trkpt lat="47.33576" lon="-0.50623">
        <ele>64.6</ele>
        <time>2021-07-04T08:58:43Z</time>
      </trkpt>
      <trkpt lat="47.33582" lon="-0.50615">
        <ele>64.2</ele>
        <time>2021-07-04T08:58:44Z</time>
      </trkpt>
      <trkpt lat="47.33588" lon="-0.50606">
        <ele>63.4</ele>
        <time>2021-07-04T08:58:45Z</time>
      </trkpt>
      <trkpt lat="47.33594" lon="-0.50598">
        <ele>62.8</ele>
        <time>2021-07-04T08:58:46Z</time>
      </trkpt>
      <trkpt lat="47.33601" lon="-0.5059">
        <ele>62.4</ele>
        <time>2021-07-04T08:58:47Z</time>
      </trkpt>
      <trkpt lat="47.33612" lon="-0.50576">
        <ele>62.6</ele>
        <time>2021-07-04T08:58:49Z</time>
      </trkpt>
      <trkpt lat="47.33622" lon="-0.50561">
        <ele>63.8</ele>
        <time>2021-07-04T08:58:51Z</time>
      </trkpt>
      <trkpt lat="47.33626" lon="-0.50554">
        <ele>64.4</ele>
        <time>2021-07-04T08:58:52Z</time>
      </trkpt>
      <trkpt lat="47.33629" lon="-0.50548">
        <ele>64.6</ele>
        <time>2021-07-04T08:58:53Z</time>
      </trkpt>
      <trkpt lat="47.33636" lon="-0.50536">
        <ele>65.2</ele>
        <time>2021-07-04T08:58:55Z</time>
      </trkpt>
      <trkpt lat="47.33639" lon="-0.50532">
        <ele>66</ele>
        <time>2021-07-04T08:58:56Z</time>
      </trkpt>
      <trkpt lat="47.33642" lon="-0.5053">
        <ele>66.4</ele>
        <time>2021-07-04T08:58:57Z</time>
      </trkpt>
      <trkpt lat="47.33646" lon="-0.50531">
        <ele>67</ele>
        <time>2021-07-04T08:58:58Z</time>
      </trkpt>
      <trkpt lat="47.33648" lon="-0.50533">
        <ele>67.4</ele>
        <time>2021-07-04T08:58:59Z</time>
      </trkpt>
      <trkpt lat="47.33653" lon="-0.50542">
        <ele>67.4</ele>
        <time>2021-07-04T08:59:01Z</time>
      </trkpt>
      <trkpt lat="47.33658" lon="-0.50552">
        <ele>68</ele>
        <time>2021-07-04T08:59:03Z</time>
      </trkpt>
      <trkpt lat="47.33662" lon="-0.50561">
        <ele>68.8</ele>
        <time>2021-07-04T08:59:05Z</time>
      </trkpt>
      <trkpt lat="47.33666" lon="-0.50565">
        <ele>69.2</ele>
        <time>2021-07-04T08:59:06Z</time>
      </trkpt>
      <trkpt lat="47.33669" lon="-0.50569">
        <ele>69.6</ele>
        <time>2021-07-04T08:59:07Z</time>
      </trkpt>
      <trkpt lat="47.33674" lon="-0.50577">
        <ele>70.2</ele>
        <time>2021-07-04T08:59:09Z</time>
      </trkpt>
      <trkpt lat="47.33676" lon="-0.50581">
        <ele>70.6</ele>
        <time>2021-07-04T08:59:10Z</time>
      </trkpt>
      <trkpt lat="47.33678" lon="-0.50586">
        <ele>71</ele>
        <time>2021-07-04T08:59:11Z</time>
      </trkpt>
      <trkpt lat="47.3368" lon="-0.5059">
        <ele>71</ele>
        <time>2021-07-04T08:59:12Z</time>
      </trkpt>
      <trkpt lat="47.33682" lon="-0.50593">
        <ele>71.2</ele>
        <time>2021-07-04T08:59:13Z</time>
      </trkpt>
      <trkpt lat="47.33686" lon="-0.506">
        <ele>72</ele>
        <time>2021-07-04T08:59:15Z</time>
      </trkpt>
      <trkpt lat="47.33691" lon="-0.50607">
        <ele>73</ele>
        <time>2021-07-04T08:59:17Z</time>
      </trkpt>
      <trkpt lat="47.33693" lon="-0.50611">
        <ele>73.4</ele>
        <time>2021-07-04T08:59:18Z</time>
      </trkpt>
      <trkpt lat="47.33696" lon="-0.50614">
        <ele>73.4</ele>
        <time>2021-07-04T08:59:19Z</time>
      </trkpt>
      <trkpt lat="47.337" lon="-0.50621">
        <ele>73.4</ele>
        <time>2021-07-04T08:59:21Z</time>
      </trkpt>
      <trkpt lat="47.33705" lon="-0.50628">
        <ele>74.2</ele>
        <time>2021-07-04T08:59:23Z</time>
      </trkpt>
      <trkpt lat="47.33707" lon="-0.50632">
        <ele>74.8</ele>
        <time>2021-07-04T08:59:24Z</time>
      </trkpt>
      <trkpt lat="47.3371" lon="-0.50635">
        <ele>75.4</ele>
        <time>2021-07-04T08:59:25Z</time>
      </trkpt>
      <trkpt lat="47.33712" lon="-0.50639">
        <ele>76</ele>
        <time>2021-07-04T08:59:26Z</time>
      </trkpt>
      <trkpt lat="47.33715" lon="-0.50642">
        <ele>76.2</ele>
        <time>2021-07-04T08:59:27Z</time>
      </trkpt>
      <trkpt lat="47.33721" lon="-0.50648">
        <ele>76.6</ele>
        <time>2021-07-04T08:59:29Z</time>
      </trkpt>
      <trkpt lat="47.33727" lon="-0.50654">
        <ele>77.4</ele>
        <time>2021-07-04T08:59:31Z</time>
      </trkpt>
      <trkpt lat="47.33733" lon="-0.50661">
        <ele>77.8</ele>
        <time>2021-07-04T08:59:33Z</time>
      </trkpt>
      <trkpt lat="47.33739" lon="-0.50669">
        <ele>78</ele>
        <time>2021-07-04T08:59:35Z</time>
      </trkpt>
      <trkpt lat="47.33744" lon="-0.50678">
        <ele>78.2</ele>
        <time>2021-07-04T08:59:37Z</time>
      </trkpt>
      <trkpt lat="47.33749" lon="-0.50688">
        <ele>78.2</ele>
        <time>2021-07-04T08:59:39Z</time>
      </trkpt>
      <trkpt lat="47.33752" lon="-0.50699">
        <ele>78.4</ele>
        <time>2021-07-04T08:59:41Z</time>
      </trkpt>
      <trkpt lat="47.33755" lon="-0.50709">
        <ele>78.8</ele>
        <time>2021-07-04T08:59:43Z</time>
      </trkpt>
      <trkpt lat="47.33758" lon="-0.50719">
        <ele>79.2</ele>
        <time>2021-07-04T08:59:45Z</time>
      </trkpt>
      <trkpt lat="47.3376" lon="-0.50724">
        <ele>79.4</ele>
        <time>2021-07-04T08:59:46Z</time>
      </trkpt>
      <trkpt lat="47.33761" lon="-0.50729">
        <ele>79.8</ele>
        <time>2021-07-04T08:59:47Z</time>
      </trkpt>
      <trkpt lat="47.33763" lon="-0.5074">
        <ele>81</ele>
        <time>2021-07-04T08:59:49Z</time>
      </trkpt>
      <trkpt lat="47.33764" lon="-0.50752">
        <ele>81.2</ele>
        <time>2021-07-04T08:59:51Z</time>
      </trkpt>
      <trkpt lat="47.33763" lon="-0.50758">
        <ele>80.8</ele>
        <time>2021-07-04T08:59:52Z</time>
      </trkpt>
      <trkpt lat="47.33763" lon="-0.50764">
        <ele>79.8</ele>
        <time>2021-07-04T08:59:53Z</time>
      </trkpt>
      <trkpt lat="47.33762" lon="-0.5077">
        <ele>78.6</ele>
        <time>2021-07-04T08:59:54Z</time>
      </trkpt>
      <trkpt lat="47.33761" lon="-0.50776">
        <ele>77.8</ele>
        <time>2021-07-04T08:59:55Z</time>
      </trkpt>
      <trkpt lat="47.3376" lon="-0.50789">
        <ele>79.8</ele>
        <time>2021-07-04T08:59:57Z</time>
      </trkpt>
      <trkpt lat="47.3376" lon="-0.50796">
        <ele>81.2</ele>
        <time>2021-07-04T08:59:58Z</time>
      </trkpt>
      <trkpt lat="47.33759" lon="-0.50803">
        <ele>81.2</ele>
        <time>2021-07-04T08:59:59Z</time>
      </trkpt>
      <trkpt lat="47.33759" lon="-0.5081">
        <ele>81</ele>
        <time>2021-07-04T09:00:00Z</time>
      </trkpt>
      <trkpt lat="47.33759" lon="-0.50817">
        <ele>80.8</ele>
        <time>2021-07-04T09:00:01Z</time>
      </trkpt>
      <trkpt lat="47.3376" lon="-0.50824">
        <ele>81.2</ele>
        <time>2021-07-04T09:00:02Z</time>
      </trkpt>
      <trkpt lat="47.33761" lon="-0.50831">
        <ele>81.6</ele>
        <time>2021-07-04T09:00:03Z</time>
      </trkpt>
      <trkpt lat="47.33762" lon="-0.50838">
        <ele>82.2</ele>
        <time>2021-07-04T09:00:04Z</time>
      </trkpt>
      <trkpt lat="47.33763" lon="-0.50845">
        <ele>82.4</ele>
        <time>2021-07-04T09:00:05Z</time>
      </trkpt>
      <trkpt lat="47.33767" lon="-0.50859">
        <ele>82.6</ele>
        <time>2021-07-04T09:00:07Z</time>
      </trkpt>
      <trkpt lat="47.3377" lon="-0.50873">
        <ele>83</ele>
        <time>2021-07-04T09:00:09Z</time>
      </trkpt>
      <trkpt lat="47.33773" lon="-0.50887">
        <ele>83.2</ele>
        <time>2021-07-04T09:00:11Z</time>
      </trkpt>
      <trkpt lat="47.33777" lon="-0.50901">
        <ele>83.6</ele>
        <time>2021-07-04T09:00:13Z</time>
      </trkpt>
      <trkpt lat="47.3378" lon="-0.50915">
        <ele>84</ele>
        <time>2021-07-04T09:00:15Z</time>
      </trkpt>
      <trkpt lat="47.33783" lon="-0.50929">
        <ele>84</ele>
        <time>2021-07-04T09:00:17Z</time>
      </trkpt>
      <trkpt lat="47.33787" lon="-0.50942">
        <ele>84.2</ele>
        <time>2021-07-04T09:00:19Z</time>
      </trkpt>
      <trkpt lat="47.33791" lon="-0.50956">
        <ele>84.4</ele>
        <time>2021-07-04T09:00:21Z</time>
      </trkpt>
      <trkpt lat="47.33793" lon="-0.50963">
        <ele>85</ele>
        <time>2021-07-04T09:00:22Z</time>
      </trkpt>
      <trkpt lat="47.33794" lon="-0.5097">
        <ele>85.4</ele>
        <time>2021-07-04T09:00:23Z</time>
      </trkpt>
      <trkpt lat="47.33799" lon="-0.50985">
        <ele>85.8</ele>
        <time>2021-07-04T09:00:25Z</time>
      </trkpt>
      <trkpt lat="47.33804" lon="-0.50999">
        <ele>85.8</ele>
        <time>2021-07-04T09:00:27Z</time>
      </trkpt>
      <trkpt lat="47.33806" lon="-0.51005">
        <ele>85.8</ele>
        <time>2021-07-04T09:00:28Z</time>
      </trkpt>
      <trkpt lat="47.33809" lon="-0.51012">
        <ele>85.8</ele>
        <time>2021-07-04T09:00:29Z</time>
      </trkpt>
      <trkpt lat="47.33816" lon="-0.51026">
        <ele>86</ele>
        <time>2021-07-04T09:00:31Z</time>
      </trkpt>
      <trkpt lat="47.33819" lon="-0.51032">
        <ele>86.2</ele>
        <time>2021-07-04T09:00:32Z</time>
      </trkpt>
      <trkpt lat="47.33823" lon="-0.51039">
        <ele>86.2</ele>
        <time>2021-07-04T09:00:33Z</time>
      </trkpt>
      <trkpt lat="47.3383" lon="-0.51053">
        <ele>86.6</ele>
        <time>2021-07-04T09:00:35Z</time>
      </trkpt>
      <trkpt lat="47.33837" lon="-0.51066">
        <ele>86.8</ele>
        <time>2021-07-04T09:00:37Z</time>
      </trkpt>
      <trkpt lat="47.33844" lon="-0.51079">
        <ele>86.6</ele>
        <time>2021-07-04T09:00:39Z</time>
      </trkpt>
      <trkpt lat="47.33851" lon="-0.51093">
        <ele>86.6</ele>
        <time>2021-07-04T09:00:41Z</time>
      </trkpt>
      <trkpt lat="47.33858" lon="-0.51106">
        <ele>86.6</ele>
        <time>2021-07-04T09:00:43Z</time>
      </trkpt>
      <trkpt lat="47.33861" lon="-0.51112">
        <ele>87</ele>
        <time>2021-07-04T09:00:44Z</time>
      </trkpt>
      <trkpt lat="47.33865" lon="-0.51119">
        <ele>87</ele>
        <time>2021-07-04T09:00:45Z</time>
      </trkpt>
      <trkpt lat="47.33872" lon="-0.51132">
        <ele>87</ele>
        <time>2021-07-04T09:00:47Z</time>
      </trkpt>
      <trkpt lat="47.33878" lon="-0.51145">
        <ele>87.2</ele>
        <time>2021-07-04T09:00:49Z</time>
      </trkpt>
      <trkpt lat="47.33885" lon="-0.51158">
        <ele>87.6</ele>
        <time>2021-07-04T09:00:51Z</time>
      </trkpt>
      <trkpt lat="47.33892" lon="-0.51171">
        <ele>87.8</ele>
        <time>2021-07-04T09:00:53Z</time>
      </trkpt>
      <trkpt lat="47.33896" lon="-0.51177">
        <ele>87.8</ele>
        <time>2021-07-04T09:00:54Z</time>
      </trkpt>
      <trkpt lat="47.339" lon="-0.51183">
        <ele>87.8</ele>
        <time>2021-07-04T09:00:55Z</time>
      </trkpt>
      <trkpt lat="47.33907" lon="-0.51195">
        <ele>87.6</ele>
        <time>2021-07-04T09:00:57Z</time>
      </trkpt>
      <trkpt lat="47.33914" lon="-0.51208">
        <ele>87.8</ele>
        <time>2021-07-04T09:00:59Z</time>
      </trkpt>
      <trkpt lat="47.33921" lon="-0.5122">
        <ele>88.2</ele>
        <time>2021-07-04T09:01:01Z</time>
      </trkpt>
      <trkpt lat="47.33926" lon="-0.51224">
        <ele>88.2</ele>
        <time>2021-07-04T09:01:02Z</time>
      </trkpt>
      <trkpt lat="47.33931" lon="-0.51225">
        <ele>87.8</ele>
        <time>2021-07-04T09:01:03Z</time>
      </trkpt>
      <trkpt lat="47.33943" lon="-0.51223">
        <ele>87.4</ele>
        <time>2021-07-04T09:01:05Z</time>
      </trkpt>
      <trkpt lat="47.33948" lon="-0.51221">
        <ele>87.4</ele>
        <time>2021-07-04T09:01:06Z</time>
      </trkpt>
      <trkpt lat="47.33954" lon="-0.5122">
        <ele>87.4</ele>
        <time>2021-07-04T09:01:07Z</time>
      </trkpt>
      <trkpt lat="47.33966" lon="-0.51215">
        <ele>87.4</ele>
        <time>2021-07-04T09:01:09Z</time>
      </trkpt>
      <trkpt lat="47.33979" lon="-0.51208">
        <ele>86.2</ele>
        <time>2021-07-04T09:01:11Z</time>
      </trkpt>
      <trkpt lat="47.33992" lon="-0.51203">
        <ele>85.6</ele>
        <time>2021-07-04T09:01:13Z</time>
      </trkpt>
      <trkpt lat="47.33999" lon="-0.51201">
        <ele>85</ele>
        <time>2021-07-04T09:01:14Z</time>
      </trkpt>
      <trkpt lat="47.34006" lon="-0.51199">
        <ele>84.8</ele>
        <time>2021-07-04T09:01:15Z</time>
      </trkpt>
      <trkpt lat="47.34019" lon="-0.51195">
        <ele>84.8</ele>
        <time>2021-07-04T09:01:17Z</time>
      </trkpt>
      <trkpt lat="47.34032" lon="-0.51193">
        <ele>84.4</ele>
        <time>2021-07-04T09:01:19Z</time>
      </trkpt>
      <trkpt lat="47.34038" lon="-0.5119">
        <ele>84.2</ele>
        <time>2021-07-04T09:01:20Z</time>
      </trkpt>
      <trkpt lat="47.34043" lon="-0.51187">
        <ele>83.8</ele>
        <time>2021-07-04T09:01:21Z</time>
      </trkpt>
      <trkpt lat="47.34049" lon="-0.51182">
        <ele>82.8</ele>
        <time>2021-07-04T09:01:22Z</time>
      </trkpt>
      <trkpt lat="47.34053" lon="-0.51176">
        <ele>82.6</ele>
        <time>2021-07-04T09:01:23Z</time>
      </trkpt>
      <trkpt lat="47.34056" lon="-0.5116">
        <ele>83.2</ele>
        <time>2021-07-04T09:01:25Z</time>
      </trkpt>
      <trkpt lat="47.34058" lon="-0.51142">
        <ele>82.6</ele>
        <time>2021-07-04T09:01:27Z</time>
      </trkpt>
      <trkpt lat="47.3406" lon="-0.51134">
        <ele>82.2</ele>
        <time>2021-07-04T09:01:28Z</time>
      </trkpt>
      <trkpt lat="47.34062" lon="-0.51125">
        <ele>82</ele>
        <time>2021-07-04T09:01:29Z</time>
      </trkpt>
      <trkpt lat="47.34065" lon="-0.51117">
        <ele>81.8</ele>
        <time>2021-07-04T09:01:30Z</time>
      </trkpt>
      <trkpt lat="47.34068" lon="-0.51108">
        <ele>82.2</ele>
        <time>2021-07-04T09:01:31Z</time>
      </trkpt>
      <trkpt lat="47.34072" lon="-0.51089">
        <ele>81.6</ele>
        <time>2021-07-04T09:01:33Z</time>
      </trkpt>
      <trkpt lat="47.34075" lon="-0.5108">
        <ele>80</ele>
        <time>2021-07-04T09:01:34Z</time>
      </trkpt>
      <trkpt lat="47.34078" lon="-0.51073">
        <ele>79.8</ele>
        <time>2021-07-04T09:01:35Z</time>
      </trkpt>
      <trkpt lat="47.34084" lon="-0.5107">
        <ele>80.6</ele>
        <time>2021-07-04T09:01:37Z</time>
      </trkpt>
      <trkpt lat="47.34089" lon="-0.51074">
        <ele>81</ele>
        <time>2021-07-04T09:01:39Z</time>
      </trkpt>
      <trkpt lat="47.34091" lon="-0.51077">
        <ele>81.2</ele>
        <time>2021-07-04T09:01:40Z</time>
      </trkpt>
      <trkpt lat="47.34093" lon="-0.5108">
        <ele>80.8</ele>
        <time>2021-07-04T09:01:41Z</time>
      </trkpt>
      <trkpt lat="47.34099" lon="-0.51088">
        <ele>80.4</ele>
        <time>2021-07-04T09:01:43Z</time>
      </trkpt>
      <trkpt lat="47.34105" lon="-0.51097">
        <ele>80.4</ele>
        <time>2021-07-04T09:01:45Z</time>
      </trkpt>
      <trkpt lat="47.34108" lon="-0.51102">
        <ele>80.4</ele>
        <time>2021-07-04T09:01:46Z</time>
      </trkpt>
      <trkpt lat="47.34111" lon="-0.51106">
        <ele>80.4</ele>
        <time>2021-07-04T09:01:47Z</time>
      </trkpt>
      <trkpt lat="47.34117" lon="-0.51111">
        <ele>80.2</ele>
        <time>2021-07-04T09:01:49Z</time>
      </trkpt>
      <trkpt lat="47.3412" lon="-0.5111">
        <ele>80.4</ele>
        <time>2021-07-04T09:01:50Z</time>
      </trkpt>
      <trkpt lat="47.34123" lon="-0.51107">
        <ele>80.4</ele>
        <time>2021-07-04T09:01:51Z</time>
      </trkpt>
      <trkpt lat="47.34129" lon="-0.51098">
        <ele>79.6</ele>
        <time>2021-07-04T09:01:53Z</time>
      </trkpt>
      <trkpt lat="47.34132" lon="-0.51092">
        <ele>79.2</ele>
        <time>2021-07-04T09:01:54Z</time>
      </trkpt>
      <trkpt lat="47.34136" lon="-0.51086">
        <ele>78.8</ele>
        <time>2021-07-04T09:01:55Z</time>
      </trkpt>
      <trkpt lat="47.34144" lon="-0.51072">
        <ele>78</ele>
        <time>2021-07-04T09:01:57Z</time>
      </trkpt>
      <trkpt lat="47.34148" lon="-0.51065">
        <ele>76.8</ele>
        <time>2021-07-04T09:01:58Z</time>
      </trkpt>
      <trkpt lat="47.34153" lon="-0.51059">
        <ele>76.6</ele>
        <time>2021-07-04T09:01:59Z</time>
      </trkpt>
      <trkpt lat="47.34161" lon="-0.51044">
        <ele>76.2</ele>
        <time>2021-07-04T09:02:01Z</time>
      </trkpt>
      <trkpt lat="47.34168" lon="-0.51032">
        <ele>75.8</ele>
        <time>2021-07-04T09:02:03Z</time>
      </trkpt>
      <trkpt lat="47.34174" lon="-0.5102">
        <ele>76.2</ele>
        <time>2021-07-04T09:02:05Z</time>
      </trkpt>
      <trkpt lat="47.3418" lon="-0.51008">
        <ele>75.8</ele>
        <time>2021-07-04T09:02:07Z</time>
      </trkpt>
      <trkpt lat="47.34185" lon="-0.50996">
        <ele>75.2</ele>
        <time>2021-07-04T09:02:09Z</time>
      </trkpt>
      <trkpt lat="47.34189" lon="-0.50983">
        <ele>75.2</ele>
        <time>2021-07-04T09:02:11Z</time>
      </trkpt>
      <trkpt lat="47.34193" lon="-0.50972">
        <ele>75.2</ele>
        <time>2021-07-04T09:02:13Z</time>
      </trkpt>
      <trkpt lat="47.34195" lon="-0.50968">
        <ele>75.2</ele>
        <time>2021-07-04T09:02:14Z</time>
      </trkpt>
      <trkpt lat="47.34198" lon="-0.50965">
        <ele>74.8</ele>
        <time>2021-07-04T09:02:15Z</time>
      </trkpt>
      <trkpt lat="47.34204" lon="-0.50961">
        <ele>75</ele>
        <time>2021-07-04T09:02:17Z</time>
      </trkpt>
      <trkpt lat="47.34212" lon="-0.50961">
        <ele>75.2</ele>
        <time>2021-07-04T09:02:19Z</time>
      </trkpt>
      <trkpt lat="47.34221" lon="-0.50961">
        <ele>75.2</ele>
        <time>2021-07-04T09:02:21Z</time>
      </trkpt>
      <trkpt lat="47.3423" lon="-0.5096">
        <ele>74.8</ele>
        <time>2021-07-04T09:02:23Z</time>
      </trkpt>
      <trkpt lat="47.34235" lon="-0.5096">
        <ele>74.8</ele>
        <time>2021-07-04T09:02:24Z</time>
      </trkpt>
      <trkpt lat="47.3424" lon="-0.5096">
        <ele>74.6</ele>
        <time>2021-07-04T09:02:25Z</time>
      </trkpt>
      <trkpt lat="47.3425" lon="-0.50959">
        <ele>74.8</ele>
        <time>2021-07-04T09:02:27Z</time>
      </trkpt>
      <trkpt lat="47.34265" lon="-0.50958">
        <ele>75</ele>
        <time>2021-07-04T09:02:30Z</time>
      </trkpt>
      <trkpt lat="47.3427" lon="-0.50958">
        <ele>75</ele>
        <time>2021-07-04T09:02:31Z</time>
      </trkpt>
      <trkpt lat="47.34275" lon="-0.50958">
        <ele>75</ele>
        <time>2021-07-04T09:02:32Z</time>
      </trkpt>
      <trkpt lat="47.34286" lon="-0.50957">
        <ele>75.4</ele>
        <time>2021-07-04T09:02:34Z</time>
      </trkpt>
      <trkpt lat="47.34291" lon="-0.50957">
        <ele>75.8</ele>
        <time>2021-07-04T09:02:35Z</time>
      </trkpt>
      <trkpt lat="47.34297" lon="-0.50957">
        <ele>75.6</ele>
        <time>2021-07-04T09:02:36Z</time>
      </trkpt>
      <trkpt lat="47.34309" lon="-0.50957">
        <ele>75.6</ele>
        <time>2021-07-04T09:02:38Z</time>
      </trkpt>
      <trkpt lat="47.3432" lon="-0.50956">
        <ele>74.6</ele>
        <time>2021-07-04T09:02:40Z</time>
      </trkpt>
      <trkpt lat="47.34332" lon="-0.50956">
        <ele>74</ele>
        <time>2021-07-04T09:02:42Z</time>
      </trkpt>
      <trkpt lat="47.34344" lon="-0.50955">
        <ele>73.8</ele>
        <time>2021-07-04T09:02:44Z</time>
      </trkpt>
      <trkpt lat="47.34356" lon="-0.50954">
        <ele>72.8</ele>
        <time>2021-07-04T09:02:46Z</time>
      </trkpt>
      <trkpt lat="47.3437" lon="-0.50952">
        <ele>72</ele>
        <time>2021-07-04T09:02:48Z</time>
      </trkpt>
      <trkpt lat="47.34382" lon="-0.5095">
        <ele>71.6</ele>
        <time>2021-07-04T09:02:50Z</time>
      </trkpt>
      <trkpt lat="47.34394" lon="-0.50952">
        <ele>71.4</ele>
        <time>2021-07-04T09:02:52Z</time>
      </trkpt>
      <trkpt lat="47.34402" lon="-0.50954">
        <ele>71.8</ele>
        <time>2021-07-04T09:02:54Z</time>
      </trkpt>
      <trkpt lat="47.34404" lon="-0.50955">
        <ele>72</ele>
        <time>2021-07-04T09:02:55Z</time>
      </trkpt>
      <trkpt lat="47.34407" lon="-0.50955">
        <ele>72</ele>
        <time>2021-07-04T09:02:56Z</time>
      </trkpt>
      <trkpt lat="47.34412" lon="-0.50958">
        <ele>71.6</ele>
        <time>2021-07-04T09:02:58Z</time>
      </trkpt>
      <trkpt lat="47.34419" lon="-0.50959">
        <ele>71</ele>
        <time>2021-07-04T09:03:00Z</time>
      </trkpt>
      <trkpt lat="47.34428" lon="-0.5096">
        <ele>70.8</ele>
        <time>2021-07-04T09:03:02Z</time>
      </trkpt>
      <trkpt lat="47.34439" lon="-0.50959">
        <ele>71</ele>
        <time>2021-07-04T09:03:04Z</time>
      </trkpt>
      <trkpt lat="47.34444" lon="-0.50958">
        <ele>70.8</ele>
        <time>2021-07-04T09:03:05Z</time>
      </trkpt>
      <trkpt lat="47.3445" lon="-0.50958">
        <ele>70.6</ele>
        <time>2021-07-04T09:03:06Z</time>
      </trkpt>
      <trkpt lat="47.34456" lon="-0.50958">
        <ele>70</ele>
        <time>2021-07-04T09:03:07Z</time>
      </trkpt>
      <trkpt lat="47.34461" lon="-0.50958">
        <ele>70.4</ele>
        <time>2021-07-04T09:03:08Z</time>
      </trkpt>
      <trkpt lat="47.34473" lon="-0.50956">
        <ele>71.4</ele>
        <time>2021-07-04T09:03:10Z</time>
      </trkpt>
      <trkpt lat="47.34484" lon="-0.50954">
        <ele>71.6</ele>
        <time>2021-07-04T09:03:12Z</time>
      </trkpt>
      <trkpt lat="47.34495" lon="-0.5095">
        <ele>71.4</ele>
        <time>2021-07-04T09:03:14Z</time>
      </trkpt>
      <trkpt lat="47.34506" lon="-0.50943">
        <ele>71.2</ele>
        <time>2021-07-04T09:03:16Z</time>
      </trkpt>
      <trkpt lat="47.3451" lon="-0.50938">
        <ele>71</ele>
        <time>2021-07-04T09:03:17Z</time>
      </trkpt>
      <trkpt lat="47.34514" lon="-0.50931">
        <ele>71</ele>
        <time>2021-07-04T09:03:18Z</time>
      </trkpt>
      <trkpt lat="47.34522" lon="-0.50916">
        <ele>70</ele>
        <time>2021-07-04T09:03:20Z</time>
      </trkpt>
      <trkpt lat="47.34526" lon="-0.50908">
        <ele>69.4</ele>
        <time>2021-07-04T09:03:21Z</time>
      </trkpt>
      <trkpt lat="47.3453" lon="-0.509">
        <ele>69.4</ele>
        <time>2021-07-04T09:03:22Z</time>
      </trkpt>
      <trkpt lat="47.34537" lon="-0.50884">
        <ele>69.2</ele>
        <time>2021-07-04T09:03:24Z</time>
      </trkpt>
      <trkpt lat="47.34546" lon="-0.50868">
        <ele>69.2</ele>
        <time>2021-07-04T09:03:26Z</time>
      </trkpt>
      <trkpt lat="47.34551" lon="-0.50861">
        <ele>69.4</ele>
        <time>2021-07-04T09:03:27Z</time>
      </trkpt>
      <trkpt lat="47.34554" lon="-0.50857">
        <ele>69.2</ele>
        <time>2021-07-04T09:03:28Z</time>
      </trkpt>
      <trkpt lat="47.34558" lon="-0.50853">
        <ele>69.2</ele>
        <time>2021-07-04T09:03:29Z</time>
      </trkpt>
      <trkpt lat="47.34563" lon="-0.50851">
        <ele>69.4</ele>
        <time>2021-07-04T09:03:30Z</time>
      </trkpt>
      <trkpt lat="47.34575" lon="-0.50847">
        <ele>69.2</ele>
        <time>2021-07-04T09:03:32Z</time>
      </trkpt>
      <trkpt lat="47.34581" lon="-0.50845">
        <ele>69.2</ele>
        <time>2021-07-04T09:03:33Z</time>
      </trkpt>
      <trkpt lat="47.34586" lon="-0.50843">
        <ele>69</ele>
        <time>2021-07-04T09:03:34Z</time>
      </trkpt>
      <trkpt lat="47.34591" lon="-0.5084">
        <ele>68.6</ele>
        <time>2021-07-04T09:03:35Z</time>
      </trkpt>
      <trkpt lat="47.34595" lon="-0.50836">
        <ele>68.4</ele>
        <time>2021-07-04T09:03:36Z</time>
      </trkpt>
      <trkpt lat="47.34599" lon="-0.50832">
        <ele>68</ele>
        <time>2021-07-04T09:03:37Z</time>
      </trkpt>
      <trkpt lat="47.34603" lon="-0.50826">
        <ele>67.8</ele>
        <time>2021-07-04T09:03:38Z</time>
      </trkpt>
      <trkpt lat="47.34612" lon="-0.50816">
        <ele>67.6</ele>
        <time>2021-07-04T09:03:40Z</time>
      </trkpt>
      <trkpt lat="47.34616" lon="-0.50811">
        <ele>67.4</ele>
        <time>2021-07-04T09:03:41Z</time>
      </trkpt>
      <trkpt lat="47.3462" lon="-0.50808">
        <ele>67.4</ele>
        <time>2021-07-04T09:03:42Z</time>
      </trkpt>
      <trkpt lat="47.34626" lon="-0.50805">
        <ele>67.8</ele>
        <time>2021-07-04T09:03:44Z</time>
      </trkpt>
      <trkpt lat="47.34634" lon="-0.50803">
        <ele>67.6</ele>
        <time>2021-07-04T09:03:46Z</time>
      </trkpt>
      <trkpt lat="47.34644" lon="-0.508">
        <ele>67.2</ele>
        <time>2021-07-04T09:03:48Z</time>
      </trkpt>
      <trkpt lat="47.34656" lon="-0.50795">
        <ele>66.6</ele>
        <time>2021-07-04T09:03:50Z</time>
      </trkpt>
      <trkpt lat="47.34661" lon="-0.50793">
        <ele>67</ele>
        <time>2021-07-04T09:03:51Z</time>
      </trkpt>
      <trkpt lat="47.34667" lon="-0.50791">
        <ele>67.2</ele>
        <time>2021-07-04T09:03:52Z</time>
      </trkpt>
      <trkpt lat="47.34678" lon="-0.50788">
        <ele>67.2</ele>
        <time>2021-07-04T09:03:54Z</time>
      </trkpt>
      <trkpt lat="47.34688" lon="-0.50785">
        <ele>67.2</ele>
        <time>2021-07-04T09:03:56Z</time>
      </trkpt>
      <trkpt lat="47.34693" lon="-0.50784">
        <ele>67.2</ele>
        <time>2021-07-04T09:03:57Z</time>
      </trkpt>
      <trkpt lat="47.34699" lon="-0.50782">
        <ele>67.4</ele>
        <time>2021-07-04T09:03:58Z</time>
      </trkpt>
      <trkpt lat="47.34709" lon="-0.5078">
        <ele>67.6</ele>
        <time>2021-07-04T09:04:00Z</time>
      </trkpt>
      <trkpt lat="47.34718" lon="-0.50778">
        <ele>68</ele>
        <time>2021-07-04T09:04:02Z</time>
      </trkpt>
      <trkpt lat="47.34722" lon="-0.50781">
        <ele>68.2</ele>
        <time>2021-07-04T09:04:03Z</time>
      </trkpt>
      <trkpt lat="47.34725" lon="-0.50784">
        <ele>68.2</ele>
        <time>2021-07-04T09:04:04Z</time>
      </trkpt>
      <trkpt lat="47.34726" lon="-0.50788">
        <ele>68.4</ele>
        <time>2021-07-04T09:04:05Z</time>
      </trkpt>
      <trkpt lat="47.34726" lon="-0.50793">
        <ele>68.8</ele>
        <time>2021-07-04T09:04:06Z</time>
      </trkpt>
      <trkpt lat="47.34727" lon="-0.50799">
        <ele>69</ele>
        <time>2021-07-04T09:04:07Z</time>
      </trkpt>
      <trkpt lat="47.34726" lon="-0.50805">
        <ele>69</ele>
        <time>2021-07-04T09:04:08Z</time>
      </trkpt>
      <trkpt lat="47.34726" lon="-0.50811">
        <ele>68.8</ele>
        <time>2021-07-04T09:04:09Z</time>
      </trkpt>
      <trkpt lat="47.34726" lon="-0.50824">
        <ele>68</ele>
        <time>2021-07-04T09:04:11Z</time>
      </trkpt>
      <trkpt lat="47.34726" lon="-0.50837">
        <ele>68.8</ele>
        <time>2021-07-04T09:04:13Z</time>
      </trkpt>
      <trkpt lat="47.34726" lon="-0.50851">
        <ele>68.8</ele>
        <time>2021-07-04T09:04:15Z</time>
      </trkpt>
      <trkpt lat="47.34726" lon="-0.50864">
        <ele>69.2</ele>
        <time>2021-07-04T09:04:17Z</time>
      </trkpt>
      <trkpt lat="47.34726" lon="-0.50871">
        <ele>69.4</ele>
        <time>2021-07-04T09:04:18Z</time>
      </trkpt>
      <trkpt lat="47.34726" lon="-0.50878">
        <ele>68.8</ele>
        <time>2021-07-04T09:04:19Z</time>
      </trkpt>
      <trkpt lat="47.34725" lon="-0.50891">
        <ele>68.8</ele>
        <time>2021-07-04T09:04:21Z</time>
      </trkpt>
      <trkpt lat="47.34725" lon="-0.50898">
        <ele>70</ele>
        <time>2021-07-04T09:04:22Z</time>
      </trkpt>
      <trkpt lat="47.34724" lon="-0.50905">
        <ele>71.2</ele>
        <time>2021-07-04T09:04:23Z</time>
      </trkpt>
      <trkpt lat="47.34724" lon="-0.50917">
        <ele>71.2</ele>
        <time>2021-07-04T09:04:25Z</time>
      </trkpt>
      <trkpt lat="47.34723" lon="-0.50923">
        <ele>71.2</ele>
        <time>2021-07-04T09:04:26Z</time>
      </trkpt>
      <trkpt lat="47.34722" lon="-0.5093">
        <ele>71.2</ele>
        <time>2021-07-04T09:04:27Z</time>
      </trkpt>
      <trkpt lat="47.34721" lon="-0.5094">
        <ele>71.4</ele>
        <time>2021-07-04T09:04:29Z</time>
      </trkpt>
      <trkpt lat="47.34722" lon="-0.50948">
        <ele>72.4</ele>
        <time>2021-07-04T09:04:31Z</time>
      </trkpt>
      <trkpt lat="47.34724" lon="-0.5095">
        <ele>72.8</ele>
        <time>2021-07-04T09:04:32Z</time>
      </trkpt>
      <trkpt lat="47.34727" lon="-0.50949">
        <ele>73</ele>
        <time>2021-07-04T09:04:33Z</time>
      </trkpt>
      <trkpt lat="47.34733" lon="-0.50948">
        <ele>73.2</ele>
        <time>2021-07-04T09:04:35Z</time>
      </trkpt>
      <trkpt lat="47.34739" lon="-0.50947">
        <ele>73.2</ele>
        <time>2021-07-04T09:04:37Z</time>
      </trkpt>
      <trkpt lat="47.34746" lon="-0.50946">
        <ele>73.4</ele>
        <time>2021-07-04T09:04:39Z</time>
      </trkpt>
      <trkpt lat="47.34754" lon="-0.50946">
        <ele>73.2</ele>
        <time>2021-07-04T09:04:41Z</time>
      </trkpt>
      <trkpt lat="47.34757" lon="-0.50945">
        <ele>73.4</ele>
        <time>2021-07-04T09:04:43Z</time>
      </trkpt>
      <trkpt lat="47.34764" lon="-0.50944">
        <ele>73.8</ele>
        <time>2021-07-04T09:04:45Z</time>
      </trkpt>
      <trkpt lat="47.34772" lon="-0.50943">
        <ele>73.8</ele>
        <time>2021-07-04T09:04:47Z</time>
      </trkpt>
      <trkpt lat="47.34776" lon="-0.50942">
        <ele>74</ele>
        <time>2021-07-04T09:04:48Z</time>
      </trkpt>
      <trkpt lat="47.3478" lon="-0.50941">
        <ele>74</ele>
        <time>2021-07-04T09:04:49Z</time>
      </trkpt>
      <trkpt lat="47.34788" lon="-0.50939">
        <ele>73.8</ele>
        <time>2021-07-04T09:04:51Z</time>
      </trkpt>
      <trkpt lat="47.34798" lon="-0.50936">
        <ele>73.8</ele>
        <time>2021-07-04T09:04:53Z</time>
      </trkpt>
      <trkpt lat="47.34807" lon="-0.50934">
        <ele>73.6</ele>
        <time>2021-07-04T09:04:55Z</time>
      </trkpt>
      <trkpt lat="47.34811" lon="-0.50933">
        <ele>73.6</ele>
        <time>2021-07-04T09:04:56Z</time>
      </trkpt>
      <trkpt lat="47.34816" lon="-0.50932">
        <ele>73.6</ele>
        <time>2021-07-04T09:04:57Z</time>
      </trkpt>
      <trkpt lat="47.34824" lon="-0.5093">
        <ele>73.6</ele>
        <time>2021-07-04T09:04:59Z</time>
      </trkpt>
      <trkpt lat="47.34828" lon="-0.50928">
        <ele>73.6</ele>
        <time>2021-07-04T09:05:00Z</time>
      </trkpt>
      <trkpt lat="47.34832" lon="-0.50926">
        <ele>73.4</ele>
        <time>2021-07-04T09:05:01Z</time>
      </trkpt>
      <trkpt lat="47.34837" lon="-0.50924">
        <ele>73.4</ele>
        <time>2021-07-04T09:05:02Z</time>
      </trkpt>
      <trkpt lat="47.34841" lon="-0.50922">
        <ele>73.6</ele>
        <time>2021-07-04T09:05:03Z</time>
      </trkpt>
      <trkpt lat="47.34846" lon="-0.5092">
        <ele>73.4</ele>
        <time>2021-07-04T09:05:04Z</time>
      </trkpt>
      <trkpt lat="47.34851" lon="-0.50918">
        <ele>73.2</ele>
        <time>2021-07-04T09:05:05Z</time>
      </trkpt>
      <trkpt lat="47.3486" lon="-0.50915">
        <ele>72.6</ele>
        <time>2021-07-04T09:05:07Z</time>
      </trkpt>
      <trkpt lat="47.34865" lon="-0.50913">
        <ele>72.2</ele>
        <time>2021-07-04T09:05:08Z</time>
      </trkpt>
      <trkpt lat="47.34871" lon="-0.50912">
        <ele>72</ele>
        <time>2021-07-04T09:05:09Z</time>
      </trkpt>
      <trkpt lat="47.34881" lon="-0.5091">
        <ele>72.2</ele>
        <time>2021-07-04T09:05:11Z</time>
      </trkpt>
      <trkpt lat="47.34891" lon="-0.50907">
        <ele>72</ele>
        <time>2021-07-04T09:05:13Z</time>
      </trkpt>
      <trkpt lat="47.34903" lon="-0.50906">
        <ele>71.8</ele>
        <time>2021-07-04T09:05:15Z</time>
      </trkpt>
      <trkpt lat="47.34914" lon="-0.50904">
        <ele>71.4</ele>
        <time>2021-07-04T09:05:17Z</time>
      </trkpt>
      <trkpt lat="47.34925" lon="-0.50902">
        <ele>71.4</ele>
        <time>2021-07-04T09:05:19Z</time>
      </trkpt>
      <trkpt lat="47.34931" lon="-0.50902">
        <ele>71</ele>
        <time>2021-07-04T09:05:20Z</time>
      </trkpt>
      <trkpt lat="47.34937" lon="-0.50901">
        <ele>70.4</ele>
        <time>2021-07-04T09:05:21Z</time>
      </trkpt>
      <trkpt lat="47.34942" lon="-0.509">
        <ele>69.8</ele>
        <time>2021-07-04T09:05:22Z</time>
      </trkpt>
      <trkpt lat="47.34948" lon="-0.509">
        <ele>69.8</ele>
        <time>2021-07-04T09:05:23Z</time>
      </trkpt>
      <trkpt lat="47.34959" lon="-0.50899">
        <ele>70.2</ele>
        <time>2021-07-04T09:05:25Z</time>
      </trkpt>
      <trkpt lat="47.34969" lon="-0.50899">
        <ele>69.8</ele>
        <time>2021-07-04T09:05:27Z</time>
      </trkpt>
      <trkpt lat="47.3498" lon="-0.50901">
        <ele>68.6</ele>
        <time>2021-07-04T09:05:29Z</time>
      </trkpt>
      <trkpt lat="47.34992" lon="-0.50902">
        <ele>68</ele>
        <time>2021-07-04T09:05:31Z</time>
      </trkpt>
      <trkpt lat="47.34998" lon="-0.50903">
        <ele>67.2</ele>
        <time>2021-07-04T09:05:32Z</time>
      </trkpt>
      <trkpt lat="47.35004" lon="-0.50903">
        <ele>66.8</ele>
        <time>2021-07-04T09:05:33Z</time>
      </trkpt>
      <trkpt lat="47.3501" lon="-0.50904">
        <ele>66.2</ele>
        <time>2021-07-04T09:05:34Z</time>
      </trkpt>
      <trkpt lat="47.35016" lon="-0.50905">
        <ele>66</ele>
        <time>2021-07-04T09:05:35Z</time>
      </trkpt>
      <trkpt lat="47.35021" lon="-0.50908">
        <ele>66.2</ele>
        <time>2021-07-04T09:05:36Z</time>
      </trkpt>
      <trkpt lat="47.35027" lon="-0.5091">
        <ele>66.4</ele>
        <time>2021-07-04T09:05:37Z</time>
      </trkpt>
      <trkpt lat="47.35032" lon="-0.50914">
        <ele>66.4</ele>
        <time>2021-07-04T09:05:38Z</time>
      </trkpt>
      <trkpt lat="47.35038" lon="-0.50917">
        <ele>66.6</ele>
        <time>2021-07-04T09:05:39Z</time>
      </trkpt>
      <trkpt lat="47.35048" lon="-0.50923">
        <ele>66.8</ele>
        <time>2021-07-04T09:05:41Z</time>
      </trkpt>
      <trkpt lat="47.35054" lon="-0.50925">
        <ele>66.8</ele>
        <time>2021-07-04T09:05:42Z</time>
      </trkpt>
      <trkpt lat="47.35059" lon="-0.50926">
        <ele>66.8</ele>
        <time>2021-07-04T09:05:43Z</time>
      </trkpt>
      <trkpt lat="47.3507" lon="-0.50929">
        <ele>66.8</ele>
        <time>2021-07-04T09:05:45Z</time>
      </trkpt>
      <trkpt lat="47.35081" lon="-0.50931">
        <ele>66.8</ele>
        <time>2021-07-04T09:05:47Z</time>
      </trkpt>
      <trkpt lat="47.35086" lon="-0.50932">
        <ele>67</ele>
        <time>2021-07-04T09:05:48Z</time>
      </trkpt>
      <trkpt lat="47.35091" lon="-0.50934">
        <ele>66.8</ele>
        <time>2021-07-04T09:05:49Z</time>
      </trkpt>
      <trkpt lat="47.35096" lon="-0.50935">
        <ele>67</ele>
        <time>2021-07-04T09:05:50Z</time>
      </trkpt>
      <trkpt lat="47.351" lon="-0.50938">
        <ele>67.2</ele>
        <time>2021-07-04T09:05:51Z</time>
      </trkpt>
      <trkpt lat="47.35104" lon="-0.50941">
        <ele>67.6</ele>
        <time>2021-07-04T09:05:52Z</time>
      </trkpt>
      <trkpt lat="47.35108" lon="-0.50943">
        <ele>67.8</ele>
        <time>2021-07-04T09:05:53Z</time>
      </trkpt>
      <trkpt lat="47.35117" lon="-0.5095">
        <ele>67.4</ele>
        <time>2021-07-04T09:05:55Z</time>
      </trkpt>
      <trkpt lat="47.35124" lon="-0.50956">
        <ele>70.8</ele>
        <time>2021-07-04T09:05:57Z</time>
      </trkpt>
      <trkpt lat="47.35131" lon="-0.50962">
        <ele>70.2</ele>
        <time>2021-07-04T09:05:59Z</time>
      </trkpt>
      <trkpt lat="47.35135" lon="-0.50965">
        <ele>69</ele>
        <time>2021-07-04T09:06:00Z</time>
      </trkpt>
      <trkpt lat="47.35139" lon="-0.50968">
        <ele>69</ele>
        <time>2021-07-04T09:06:01Z</time>
      </trkpt>
      <trkpt lat="47.35147" lon="-0.50974">
        <ele>69.6</ele>
        <time>2021-07-04T09:06:03Z</time>
      </trkpt>
      <trkpt lat="47.35154" lon="-0.50977">
        <ele>70.2</ele>
        <time>2021-07-04T09:06:05Z</time>
      </trkpt>
      <trkpt lat="47.35158" lon="-0.50978">
        <ele>70.8</ele>
        <time>2021-07-04T09:06:07Z</time>
      </trkpt>
      <trkpt lat="47.35162" lon="-0.50975">
        <ele>70.8</ele>
        <time>2021-07-04T09:06:09Z</time>
      </trkpt>
      <trkpt lat="47.35166" lon="-0.50969">
        <ele>70.4</ele>
        <time>2021-07-04T09:06:11Z</time>
      </trkpt>
      <trkpt lat="47.35172" lon="-0.50962">
        <ele>70.2</ele>
        <time>2021-07-04T09:06:13Z</time>
      </trkpt>
      <trkpt lat="47.35177" lon="-0.50959">
        <ele>70.2</ele>
        <time>2021-07-04T09:06:14Z</time>
      </trkpt>
      <trkpt lat="47.3518" lon="-0.50954">
        <ele>70</ele>
        <time>2021-07-04T09:06:15Z</time>
      </trkpt>
      <trkpt lat="47.35183" lon="-0.50949">
        <ele>69.8</ele>
        <time>2021-07-04T09:06:16Z</time>
      </trkpt>
      <trkpt lat="47.35187" lon="-0.50945">
        <ele>69.4</ele>
        <time>2021-07-04T09:06:17Z</time>
      </trkpt>
      <trkpt lat="47.35196" lon="-0.50935">
        <ele>69.4</ele>
        <time>2021-07-04T09:06:19Z</time>
      </trkpt>
      <trkpt lat="47.35205" lon="-0.50924">
        <ele>69.6</ele>
        <time>2021-07-04T09:06:21Z</time>
      </trkpt>
      <trkpt lat="47.3521" lon="-0.50919">
        <ele>69.6</ele>
        <time>2021-07-04T09:06:22Z</time>
      </trkpt>
      <trkpt lat="47.35213" lon="-0.50914">
        <ele>69.4</ele>
        <time>2021-07-04T09:06:23Z</time>
      </trkpt>
      <trkpt lat="47.35223" lon="-0.50904">
        <ele>69.6</ele>
        <time>2021-07-04T09:06:25Z</time>
      </trkpt>
      <trkpt lat="47.35228" lon="-0.50899">
        <ele>69</ele>
        <time>2021-07-04T09:06:26Z</time>
      </trkpt>
      <trkpt lat="47.35232" lon="-0.50893">
        <ele>69</ele>
        <time>2021-07-04T09:06:27Z</time>
      </trkpt>
      <trkpt lat="47.3524" lon="-0.50881">
        <ele>68.8</ele>
        <time>2021-07-04T09:06:29Z</time>
      </trkpt>
      <trkpt lat="47.35244" lon="-0.50876">
        <ele>69</ele>
        <time>2021-07-04T09:06:30Z</time>
      </trkpt>
      <trkpt lat="47.35248" lon="-0.50871">
        <ele>69</ele>
        <time>2021-07-04T09:06:31Z</time>
      </trkpt>
      <trkpt lat="47.35259" lon="-0.50859">
        <ele>69</ele>
        <time>2021-07-04T09:06:33Z</time>
      </trkpt>
      <trkpt lat="47.35269" lon="-0.50847">
        <ele>69</ele>
        <time>2021-07-04T09:06:35Z</time>
      </trkpt>
      <trkpt lat="47.35274" lon="-0.50842">
        <ele>69</ele>
        <time>2021-07-04T09:06:36Z</time>
      </trkpt>
      <trkpt lat="47.35279" lon="-0.50837">
        <ele>68.8</ele>
        <time>2021-07-04T09:06:37Z</time>
      </trkpt>
      <trkpt lat="47.35289" lon="-0.50826">
        <ele>68.6</ele>
        <time>2021-07-04T09:06:39Z</time>
      </trkpt>
      <trkpt lat="47.35298" lon="-0.50815">
        <ele>68.6</ele>
        <time>2021-07-04T09:06:41Z</time>
      </trkpt>
      <trkpt lat="47.35303" lon="-0.5081">
        <ele>68.8</ele>
        <time>2021-07-04T09:06:42Z</time>
      </trkpt>
      <trkpt lat="47.35307" lon="-0.50804">
        <ele>68.6</ele>
        <time>2021-07-04T09:06:43Z</time>
      </trkpt>
      <trkpt lat="47.35315" lon="-0.50793">
        <ele>68.6</ele>
        <time>2021-07-04T09:06:45Z</time>
      </trkpt>
      <trkpt lat="47.35323" lon="-0.50783">
        <ele>68.8</ele>
        <time>2021-07-04T09:06:47Z</time>
      </trkpt>
      <trkpt lat="47.35328" lon="-0.50778">
        <ele>69</ele>
        <time>2021-07-04T09:06:48Z</time>
      </trkpt>
      <trkpt lat="47.35334" lon="-0.50772">
        <ele>69.2</ele>
        <time>2021-07-04T09:06:49Z</time>
      </trkpt>
      <trkpt lat="47.35343" lon="-0.50762">
        <ele>69.6</ele>
        <time>2021-07-04T09:06:51Z</time>
      </trkpt>
      <trkpt lat="47.35353" lon="-0.50751">
        <ele>69.6</ele>
        <time>2021-07-04T09:06:53Z</time>
      </trkpt>
      <trkpt lat="47.35361" lon="-0.5074">
        <ele>70</ele>
        <time>2021-07-04T09:06:55Z</time>
      </trkpt>
      <trkpt lat="47.35365" lon="-0.50734">
        <ele>70.4</ele>
        <time>2021-07-04T09:06:56Z</time>
      </trkpt>
      <trkpt lat="47.3537" lon="-0.50728">
        <ele>70.4</ele>
        <time>2021-07-04T09:06:57Z</time>
      </trkpt>
      <trkpt lat="47.35375" lon="-0.50723">
        <ele>70.6</ele>
        <time>2021-07-04T09:06:58Z</time>
      </trkpt>
      <trkpt lat="47.3538" lon="-0.50716">
        <ele>70.6</ele>
        <time>2021-07-04T09:06:59Z</time>
      </trkpt>
      <trkpt lat="47.35389" lon="-0.50704">
        <ele>70.6</ele>
        <time>2021-07-04T09:07:01Z</time>
      </trkpt>
      <trkpt lat="47.35398" lon="-0.50692">
        <ele>70.8</ele>
        <time>2021-07-04T09:07:03Z</time>
      </trkpt>
      <trkpt lat="47.35407" lon="-0.50681">
        <ele>71.2</ele>
        <time>2021-07-04T09:07:05Z</time>
      </trkpt>
      <trkpt lat="47.35415" lon="-0.50669">
        <ele>71</ele>
        <time>2021-07-04T09:07:07Z</time>
      </trkpt>
      <trkpt lat="47.35419" lon="-0.50663">
        <ele>70.6</ele>
        <time>2021-07-04T09:07:08Z</time>
      </trkpt>
      <trkpt lat="47.35422" lon="-0.50657">
        <ele>70.8</ele>
        <time>2021-07-04T09:07:09Z</time>
      </trkpt>
      <trkpt lat="47.35429" lon="-0.50645">
        <ele>70.6</ele>
        <time>2021-07-04T09:07:11Z</time>
      </trkpt>
      <trkpt lat="47.35433" lon="-0.50639">
        <ele>70.4</ele>
        <time>2021-07-04T09:07:12Z</time>
      </trkpt>
      <trkpt lat="47.35438" lon="-0.50633">
        <ele>70.4</ele>
        <time>2021-07-04T09:07:13Z</time>
      </trkpt>
      <trkpt lat="47.35443" lon="-0.50627">
        <ele>70.4</ele>
        <time>2021-07-04T09:07:14Z</time>
      </trkpt>
      <trkpt lat="47.35447" lon="-0.50621">
        <ele>70.8</ele>
        <time>2021-07-04T09:07:15Z</time>
      </trkpt>
      <trkpt lat="47.35456" lon="-0.50608">
        <ele>70.6</ele>
        <time>2021-07-04T09:07:17Z</time>
      </trkpt>
      <trkpt lat="47.35465" lon="-0.50596">
        <ele>70.2</ele>
        <time>2021-07-04T09:07:19Z</time>
      </trkpt>
      <trkpt lat="47.35469" lon="-0.5059">
        <ele>70.2</ele>
        <time>2021-07-04T09:07:20Z</time>
      </trkpt>
      <trkpt lat="47.35472" lon="-0.50584">
        <ele>70.4</ele>
        <time>2021-07-04T09:07:21Z</time>
      </trkpt>
      <trkpt lat="47.35481" lon="-0.50572">
        <ele>70.4</ele>
        <time>2021-07-04T09:07:23Z</time>
      </trkpt>
      <trkpt lat="47.35491" lon="-0.50559">
        <ele>70.4</ele>
        <time>2021-07-04T09:07:25Z</time>
      </trkpt>
      <trkpt lat="47.35501" lon="-0.50545">
        <ele>70.2</ele>
        <time>2021-07-04T09:07:27Z</time>
      </trkpt>
      <trkpt lat="47.35511" lon="-0.50532">
        <ele>69.8</ele>
        <time>2021-07-04T09:07:29Z</time>
      </trkpt>
      <trkpt lat="47.35522" lon="-0.50518">
        <ele>69.6</ele>
        <time>2021-07-04T09:07:31Z</time>
      </trkpt>
      <trkpt lat="47.35527" lon="-0.5051">
        <ele>69.6</ele>
        <time>2021-07-04T09:07:32Z</time>
      </trkpt>
      <trkpt lat="47.35532" lon="-0.50503">
        <ele>69.6</ele>
        <time>2021-07-04T09:07:33Z</time>
      </trkpt>
      <trkpt lat="47.35542" lon="-0.50489">
        <ele>69.2</ele>
        <time>2021-07-04T09:07:35Z</time>
      </trkpt>
      <trkpt lat="47.35553" lon="-0.50475">
        <ele>69</ele>
        <time>2021-07-04T09:07:37Z</time>
      </trkpt>
      <trkpt lat="47.35563" lon="-0.50461">
        <ele>69.2</ele>
        <time>2021-07-04T09:07:39Z</time>
      </trkpt>
      <trkpt lat="47.35573" lon="-0.50447">
        <ele>69.2</ele>
        <time>2021-07-04T09:07:41Z</time>
      </trkpt>
      <trkpt lat="47.35578" lon="-0.50442">
        <ele>69.2</ele>
        <time>2021-07-04T09:07:42Z</time>
      </trkpt>
      <trkpt lat="47.35582" lon="-0.50436">
        <ele>69.4</ele>
        <time>2021-07-04T09:07:43Z</time>
      </trkpt>
      <trkpt lat="47.35586" lon="-0.50429">
        <ele>69.6</ele>
        <time>2021-07-04T09:07:44Z</time>
      </trkpt>
      <trkpt lat="47.3559" lon="-0.50424">
        <ele>69.6</ele>
        <time>2021-07-04T09:07:45Z</time>
      </trkpt>
      <trkpt lat="47.35593" lon="-0.50419">
        <ele>69.8</ele>
        <time>2021-07-04T09:07:46Z</time>
      </trkpt>
      <trkpt lat="47.35598" lon="-0.50414">
        <ele>70</ele>
        <time>2021-07-04T09:07:47Z</time>
      </trkpt>
      <trkpt lat="47.35602" lon="-0.5041">
        <ele>70.2</ele>
        <time>2021-07-04T09:07:48Z</time>
      </trkpt>
      <trkpt lat="47.35607" lon="-0.50405">
        <ele>70.4</ele>
        <time>2021-07-04T09:07:49Z</time>
      </trkpt>
      <trkpt lat="47.35617" lon="-0.50395">
        <ele>70.4</ele>
        <time>2021-07-04T09:07:51Z</time>
      </trkpt>
      <trkpt lat="47.35627" lon="-0.50386">
        <ele>70.4</ele>
        <time>2021-07-04T09:07:53Z</time>
      </trkpt>
      <trkpt lat="47.35636" lon="-0.50377">
        <ele>70.4</ele>
        <time>2021-07-04T09:07:55Z</time>
      </trkpt>
      <trkpt lat="47.35647" lon="-0.50366">
        <ele>70.6</ele>
        <time>2021-07-04T09:07:57Z</time>
      </trkpt>
      <trkpt lat="47.35659" lon="-0.50355">
        <ele>70.2</ele>
        <time>2021-07-04T09:07:59Z</time>
      </trkpt>
      <trkpt lat="47.35671" lon="-0.50344">
        <ele>70.4</ele>
        <time>2021-07-04T09:08:01Z</time>
      </trkpt>
      <trkpt lat="47.35682" lon="-0.50332">
        <ele>70</ele>
        <time>2021-07-04T09:08:03Z</time>
      </trkpt>
      <trkpt lat="47.35693" lon="-0.50323">
        <ele>70.4</ele>
        <time>2021-07-04T09:08:05Z</time>
      </trkpt>
      <trkpt lat="47.35704" lon="-0.50312">
        <ele>70.4</ele>
        <time>2021-07-04T09:08:07Z</time>
      </trkpt>
      <trkpt lat="47.35715" lon="-0.50301">
        <ele>70.4</ele>
        <time>2021-07-04T09:08:09Z</time>
      </trkpt>
      <trkpt lat="47.35725" lon="-0.50291">
        <ele>70.2</ele>
        <time>2021-07-04T09:08:11Z</time>
      </trkpt>
      <trkpt lat="47.3573" lon="-0.50286">
        <ele>70.4</ele>
        <time>2021-07-04T09:08:12Z</time>
      </trkpt>
      <trkpt lat="47.35735" lon="-0.50281">
        <ele>70.4</ele>
        <time>2021-07-04T09:08:13Z</time>
      </trkpt>
      <trkpt lat="47.35744" lon="-0.50271">
        <ele>70.8</ele>
        <time>2021-07-04T09:08:15Z</time>
      </trkpt>
      <trkpt lat="47.35754" lon="-0.5026">
        <ele>70.8</ele>
        <time>2021-07-04T09:08:17Z</time>
      </trkpt>
      <trkpt lat="47.35759" lon="-0.50255">
        <ele>70.6</ele>
        <time>2021-07-04T09:08:18Z</time>
      </trkpt>
      <trkpt lat="47.35766" lon="-0.5025">
        <ele>70.2</ele>
        <time>2021-07-04T09:08:19Z</time>
      </trkpt>
      <trkpt lat="47.35776" lon="-0.5024">
        <ele>70.2</ele>
        <time>2021-07-04T09:08:21Z</time>
      </trkpt>
      <trkpt lat="47.35786" lon="-0.5023">
        <ele>70.8</ele>
        <time>2021-07-04T09:08:23Z</time>
      </trkpt>
      <trkpt lat="47.35796" lon="-0.5022">
        <ele>69.8</ele>
        <time>2021-07-04T09:08:25Z</time>
      </trkpt>
      <trkpt lat="47.35803" lon="-0.50215">
        <ele>69.8</ele>
        <time>2021-07-04T09:08:26Z</time>
      </trkpt>
      <trkpt lat="47.3581" lon="-0.5021">
        <ele>69.8</ele>
        <time>2021-07-04T09:08:27Z</time>
      </trkpt>
      <trkpt lat="47.3582" lon="-0.50199">
        <ele>69.4</ele>
        <time>2021-07-04T09:08:29Z</time>
      </trkpt>
      <trkpt lat="47.35826" lon="-0.50194">
        <ele>69.6</ele>
        <time>2021-07-04T09:08:30Z</time>
      </trkpt>
      <trkpt lat="47.35831" lon="-0.50189">
        <ele>69.2</ele>
        <time>2021-07-04T09:08:31Z</time>
      </trkpt>
      <trkpt lat="47.35841" lon="-0.50177">
        <ele>68.8</ele>
        <time>2021-07-04T09:08:33Z</time>
      </trkpt>
      <trkpt lat="47.35852" lon="-0.50167">
        <ele>68.6</ele>
        <time>2021-07-04T09:08:35Z</time>
      </trkpt>
      <trkpt lat="47.35858" lon="-0.50162">
        <ele>68.6</ele>
        <time>2021-07-04T09:08:36Z</time>
      </trkpt>
      <trkpt lat="47.35864" lon="-0.50156">
        <ele>68.6</ele>
        <time>2021-07-04T09:08:37Z</time>
      </trkpt>
      <trkpt lat="47.35877" lon="-0.50146">
        <ele>68.2</ele>
        <time>2021-07-04T09:08:39Z</time>
      </trkpt>
      <trkpt lat="47.35888" lon="-0.50134">
        <ele>68.2</ele>
        <time>2021-07-04T09:08:41Z</time>
      </trkpt>
      <trkpt lat="47.35899" lon="-0.50124">
        <ele>67.6</ele>
        <time>2021-07-04T09:08:43Z</time>
      </trkpt>
      <trkpt lat="47.35909" lon="-0.50113">
        <ele>66.8</ele>
        <time>2021-07-04T09:08:45Z</time>
      </trkpt>
      <trkpt lat="47.35913" lon="-0.50111">
        <ele>66.6</ele>
        <time>2021-07-04T09:08:46Z</time>
      </trkpt>
      <trkpt lat="47.35915" lon="-0.50111">
        <ele>67</ele>
        <time>2021-07-04T09:08:47Z</time>
      </trkpt>
      <trkpt lat="47.35917" lon="-0.50112">
        <ele>68</ele>
        <time>2021-07-04T09:08:48Z</time>
      </trkpt>
      <trkpt lat="47.35919" lon="-0.50113">
        <ele>68.2</ele>
        <time>2021-07-04T09:08:49Z</time>
      </trkpt>
      <trkpt lat="47.35925" lon="-0.50114">
        <ele>67.8</ele>
        <time>2021-07-04T09:08:51Z</time>
      </trkpt>
      <trkpt lat="47.35929" lon="-0.50116">
        <ele>67.2</ele>
        <time>2021-07-04T09:08:52Z</time>
      </trkpt>
      <trkpt lat="47.35933" lon="-0.50117">
        <ele>66.6</ele>
        <time>2021-07-04T09:08:53Z</time>
      </trkpt>
      <trkpt lat="47.35943" lon="-0.50119">
        <ele>65.2</ele>
        <time>2021-07-04T09:08:55Z</time>
      </trkpt>
      <trkpt lat="47.35949" lon="-0.50121">
        <ele>64.6</ele>
        <time>2021-07-04T09:08:56Z</time>
      </trkpt>
      <trkpt lat="47.35955" lon="-0.50122">
        <ele>64</ele>
        <time>2021-07-04T09:08:57Z</time>
      </trkpt>
      <trkpt lat="47.35967" lon="-0.50125">
        <ele>64</ele>
        <time>2021-07-04T09:08:59Z</time>
      </trkpt>
      <trkpt lat="47.35979" lon="-0.50128">
        <ele>63.2</ele>
        <time>2021-07-04T09:09:01Z</time>
      </trkpt>
      <trkpt lat="47.35991" lon="-0.50131">
        <ele>63.6</ele>
        <time>2021-07-04T09:09:03Z</time>
      </trkpt>
      <trkpt lat="47.35997" lon="-0.50134">
        <ele>63.6</ele>
        <time>2021-07-04T09:09:04Z</time>
      </trkpt>
      <trkpt lat="47.36003" lon="-0.50137">
        <ele>63.6</ele>
        <time>2021-07-04T09:09:05Z</time>
      </trkpt>
      <trkpt lat="47.36009" lon="-0.5014">
        <ele>63</ele>
        <time>2021-07-04T09:09:06Z</time>
      </trkpt>
      <trkpt lat="47.36015" lon="-0.50144">
        <ele>62.8</ele>
        <time>2021-07-04T09:09:07Z</time>
      </trkpt>
      <trkpt lat="47.3602" lon="-0.50148">
        <ele>62.6</ele>
        <time>2021-07-04T09:09:08Z</time>
      </trkpt>
      <trkpt lat="47.36026" lon="-0.50151">
        <ele>62.4</ele>
        <time>2021-07-04T09:09:09Z</time>
      </trkpt>
      <trkpt lat="47.36032" lon="-0.50153">
        <ele>61.8</ele>
        <time>2021-07-04T09:09:10Z</time>
      </trkpt>
      <trkpt lat="47.36037" lon="-0.50156">
        <ele>61.4</ele>
        <time>2021-07-04T09:09:11Z</time>
      </trkpt>
      <trkpt lat="47.36043" lon="-0.5016">
        <ele>60.6</ele>
        <time>2021-07-04T09:09:12Z</time>
      </trkpt>
      <trkpt lat="47.3605" lon="-0.50162">
        <ele>60.4</ele>
        <time>2021-07-04T09:09:13Z</time>
      </trkpt>
      <trkpt lat="47.36065" lon="-0.50168">
        <ele>60.8</ele>
        <time>2021-07-04T09:09:15Z</time>
      </trkpt>
      <trkpt lat="47.36081" lon="-0.50173">
        <ele>60.2</ele>
        <time>2021-07-04T09:09:17Z</time>
      </trkpt>
      <trkpt lat="47.36096" lon="-0.50179">
        <ele>59.6</ele>
        <time>2021-07-04T09:09:19Z</time>
      </trkpt>
      <trkpt lat="47.36104" lon="-0.50182">
        <ele>59.4</ele>
        <time>2021-07-04T09:09:20Z</time>
      </trkpt>
      <trkpt lat="47.36112" lon="-0.50185">
        <ele>59.2</ele>
        <time>2021-07-04T09:09:21Z</time>
      </trkpt>
      <trkpt lat="47.36126" lon="-0.50192">
        <ele>58.6</ele>
        <time>2021-07-04T09:09:23Z</time>
      </trkpt>
      <trkpt lat="47.36133" lon="-0.50196">
        <ele>58.6</ele>
        <time>2021-07-04T09:09:24Z</time>
      </trkpt>
      <trkpt lat="47.3614" lon="-0.502">
        <ele>58.6</ele>
        <time>2021-07-04T09:09:25Z</time>
      </trkpt>
      <trkpt lat="47.36152" lon="-0.50208">
        <ele>59</ele>
        <time>2021-07-04T09:09:27Z</time>
      </trkpt>
      <trkpt lat="47.36164" lon="-0.50217">
        <ele>59</ele>
        <time>2021-07-04T09:09:29Z</time>
      </trkpt>
      <trkpt lat="47.36175" lon="-0.50225">
        <ele>59.2</ele>
        <time>2021-07-04T09:09:31Z</time>
      </trkpt>
      <trkpt lat="47.3618" lon="-0.50229">
        <ele>59.6</ele>
        <time>2021-07-04T09:09:32Z</time>
      </trkpt>
      <trkpt lat="47.36186" lon="-0.50233">
        <ele>59.4</ele>
        <time>2021-07-04T09:09:33Z</time>
      </trkpt>
      <trkpt lat="47.36198" lon="-0.50242">
        <ele>59.6</ele>
        <time>2021-07-04T09:09:35Z</time>
      </trkpt>
      <trkpt lat="47.36211" lon="-0.50252">
        <ele>59.2</ele>
        <time>2021-07-04T09:09:37Z</time>
      </trkpt>
      <trkpt lat="47.36223" lon="-0.50262">
        <ele>59.6</ele>
        <time>2021-07-04T09:09:39Z</time>
      </trkpt>
      <trkpt lat="47.36229" lon="-0.50267">
        <ele>59.6</ele>
        <time>2021-07-04T09:09:40Z</time>
      </trkpt>
      <trkpt lat="47.36235" lon="-0.50271">
        <ele>60.2</ele>
        <time>2021-07-04T09:09:41Z</time>
      </trkpt>
      <trkpt lat="47.36241" lon="-0.50276">
        <ele>60.6</ele>
        <time>2021-07-04T09:09:42Z</time>
      </trkpt>
      <trkpt lat="47.36247" lon="-0.5028">
        <ele>61</ele>
        <time>2021-07-04T09:09:43Z</time>
      </trkpt>
      <trkpt lat="47.36258" lon="-0.50288">
        <ele>61.2</ele>
        <time>2021-07-04T09:09:45Z</time>
      </trkpt>
      <trkpt lat="47.36269" lon="-0.50296">
        <ele>61.6</ele>
        <time>2021-07-04T09:09:47Z</time>
      </trkpt>
      <trkpt lat="47.36274" lon="-0.503">
        <ele>61.4</ele>
        <time>2021-07-04T09:09:48Z</time>
      </trkpt>
      <trkpt lat="47.36279" lon="-0.50304">
        <ele>61.6</ele>
        <time>2021-07-04T09:09:49Z</time>
      </trkpt>
      <trkpt lat="47.3629" lon="-0.50311">
        <ele>62.4</ele>
        <time>2021-07-04T09:09:51Z</time>
      </trkpt>
      <trkpt lat="47.36302" lon="-0.50318">
        <ele>62</ele>
        <time>2021-07-04T09:09:53Z</time>
      </trkpt>
      <trkpt lat="47.36313" lon="-0.50325">
        <ele>61.4</ele>
        <time>2021-07-04T09:09:55Z</time>
      </trkpt>
      <trkpt lat="47.36318" lon="-0.50329">
        <ele>61.6</ele>
        <time>2021-07-04T09:09:56Z</time>
      </trkpt>
      <trkpt lat="47.36323" lon="-0.50333">
        <ele>61.8</ele>
        <time>2021-07-04T09:09:57Z</time>
      </trkpt>
      <trkpt lat="47.36334" lon="-0.50341">
        <ele>61.2</ele>
        <time>2021-07-04T09:09:59Z</time>
      </trkpt>
      <trkpt lat="47.36344" lon="-0.50347">
        <ele>61.8</ele>
        <time>2021-07-04T09:10:01Z</time>
      </trkpt>
      <trkpt lat="47.36348" lon="-0.50349">
        <ele>62.2</ele>
        <time>2021-07-04T09:10:02Z</time>
      </trkpt>
      <trkpt lat="47.36352" lon="-0.50347">
        <ele>62.6</ele>
        <time>2021-07-04T09:10:03Z</time>
      </trkpt>
      <trkpt lat="47.36354" lon="-0.50344">
        <ele>63</ele>
        <time>2021-07-04T09:10:04Z</time>
      </trkpt>
      <trkpt lat="47.36355" lon="-0.50339">
        <ele>63</ele>
        <time>2021-07-04T09:10:05Z</time>
      </trkpt>
      <trkpt lat="47.36353" lon="-0.50329">
        <ele>61.8</ele>
        <time>2021-07-04T09:10:07Z</time>
      </trkpt>
      <trkpt lat="47.36353" lon="-0.50323">
        <ele>61.4</ele>
        <time>2021-07-04T09:10:08Z</time>
      </trkpt>
      <trkpt lat="47.36355" lon="-0.50318">
        <ele>61.4</ele>
        <time>2021-07-04T09:10:09Z</time>
      </trkpt>
      <trkpt lat="47.36359" lon="-0.50316">
        <ele>61.8</ele>
        <time>2021-07-04T09:10:10Z</time>
      </trkpt>
      <trkpt lat="47.36364" lon="-0.50315">
        <ele>62.4</ele>
        <time>2021-07-04T09:10:11Z</time>
      </trkpt>
      <trkpt lat="47.36368" lon="-0.50313">
        <ele>63</ele>
        <time>2021-07-04T09:10:12Z</time>
      </trkpt>
      <trkpt lat="47.36372" lon="-0.50311">
        <ele>63</ele>
        <time>2021-07-04T09:10:13Z</time>
      </trkpt>
      <trkpt lat="47.36381" lon="-0.50307">
        <ele>60</ele>
        <time>2021-07-04T09:10:15Z</time>
      </trkpt>
      <trkpt lat="47.36389" lon="-0.50302">
        <ele>62</ele>
        <time>2021-07-04T09:10:17Z</time>
      </trkpt>
      <trkpt lat="47.36394" lon="-0.50301">
        <ele>65.6</ele>
        <time>2021-07-04T09:10:18Z</time>
      </trkpt>
      <trkpt lat="47.36398" lon="-0.50299">
        <ele>65.4</ele>
        <time>2021-07-04T09:10:19Z</time>
      </trkpt>
      <trkpt lat="47.36401" lon="-0.50298">
        <ele>64</ele>
        <time>2021-07-04T09:10:20Z</time>
      </trkpt>
      <trkpt lat="47.36405" lon="-0.50296">
        <ele>60.2</ele>
        <time>2021-07-04T09:10:21Z</time>
      </trkpt>
      <trkpt lat="47.36409" lon="-0.50294">
        <ele>62.2</ele>
        <time>2021-07-04T09:10:22Z</time>
      </trkpt>
      <trkpt lat="47.36413" lon="-0.50292">
        <ele>63</ele>
        <time>2021-07-04T09:10:23Z</time>
      </trkpt>
      <trkpt lat="47.36418" lon="-0.50291">
        <ele>64.2</ele>
        <time>2021-07-04T09:10:24Z</time>
      </trkpt>
      <trkpt lat="47.36423" lon="-0.50289">
        <ele>63.4</ele>
        <time>2021-07-04T09:10:25Z</time>
      </trkpt>
      <trkpt lat="47.36428" lon="-0.50287">
        <ele>63</ele>
        <time>2021-07-04T09:10:26Z</time>
      </trkpt>
      <trkpt lat="47.36433" lon="-0.50285">
        <ele>63</ele>
        <time>2021-07-04T09:10:27Z</time>
      </trkpt>
      <trkpt lat="47.36444" lon="-0.50279">
        <ele>62.6</ele>
        <time>2021-07-04T09:10:29Z</time>
      </trkpt>
      <trkpt lat="47.36456" lon="-0.50273">
        <ele>62.2</ele>
        <time>2021-07-04T09:10:31Z</time>
      </trkpt>
      <trkpt lat="47.36468" lon="-0.50267">
        <ele>62.2</ele>
        <time>2021-07-04T09:10:33Z</time>
      </trkpt>
      <trkpt lat="47.36474" lon="-0.50264">
        <ele>61.8</ele>
        <time>2021-07-04T09:10:34Z</time>
      </trkpt>
      <trkpt lat="47.3648" lon="-0.5026">
        <ele>61.4</ele>
        <time>2021-07-04T09:10:35Z</time>
      </trkpt>
      <trkpt lat="47.36493" lon="-0.50256">
        <ele>61.6</ele>
        <time>2021-07-04T09:10:37Z</time>
      </trkpt>
      <trkpt lat="47.36506" lon="-0.50252">
        <ele>61.4</ele>
        <time>2021-07-04T09:10:39Z</time>
      </trkpt>
      <trkpt lat="47.36513" lon="-0.50251">
        <ele>61</ele>
        <time>2021-07-04T09:10:40Z</time>
      </trkpt>
      <trkpt lat="47.36519" lon="-0.50249">
        <ele>61</ele>
        <time>2021-07-04T09:10:41Z</time>
      </trkpt>
      <trkpt lat="47.36526" lon="-0.50248">
        <ele>60.8</ele>
        <time>2021-07-04T09:10:42Z</time>
      </trkpt>
      <trkpt lat="47.36532" lon="-0.50246">
        <ele>60.4</ele>
        <time>2021-07-04T09:10:43Z</time>
      </trkpt>
      <trkpt lat="47.36546" lon="-0.50243">
        <ele>59.6</ele>
        <time>2021-07-04T09:10:45Z</time>
      </trkpt>
      <trkpt lat="47.36559" lon="-0.50238">
        <ele>58.8</ele>
        <time>2021-07-04T09:10:47Z</time>
      </trkpt>
      <trkpt lat="47.36566" lon="-0.50236">
        <ele>58.4</ele>
        <time>2021-07-04T09:10:48Z</time>
      </trkpt>
      <trkpt lat="47.36574" lon="-0.50233">
        <ele>58.2</ele>
        <time>2021-07-04T09:10:49Z</time>
      </trkpt>
      <trkpt lat="47.36588" lon="-0.50227">
        <ele>57.8</ele>
        <time>2021-07-04T09:10:51Z</time>
      </trkpt>
      <trkpt lat="47.36603" lon="-0.50221">
        <ele>56.8</ele>
        <time>2021-07-04T09:10:53Z</time>
      </trkpt>
      <trkpt lat="47.36618" lon="-0.50215">
        <ele>56.8</ele>
        <time>2021-07-04T09:10:55Z</time>
      </trkpt>
      <trkpt lat="47.36625" lon="-0.50211">
        <ele>56.8</ele>
        <time>2021-07-04T09:10:56Z</time>
      </trkpt>
      <trkpt lat="47.36633" lon="-0.50208">
        <ele>56</ele>
        <time>2021-07-04T09:10:57Z</time>
      </trkpt>
      <trkpt lat="47.36641" lon="-0.50204">
        <ele>55.6</ele>
        <time>2021-07-04T09:10:58Z</time>
      </trkpt>
      <trkpt lat="47.36649" lon="-0.50201">
        <ele>55.2</ele>
        <time>2021-07-04T09:10:59Z</time>
      </trkpt>
      <trkpt lat="47.36665" lon="-0.50196">
        <ele>54.8</ele>
        <time>2021-07-04T09:11:01Z</time>
      </trkpt>
      <trkpt lat="47.36673" lon="-0.50193">
        <ele>53.8</ele>
        <time>2021-07-04T09:11:02Z</time>
      </trkpt>
      <trkpt lat="47.36682" lon="-0.5019">
        <ele>53.4</ele>
        <time>2021-07-04T09:11:03Z</time>
      </trkpt>
      <trkpt lat="47.3669" lon="-0.50188">
        <ele>52.8</ele>
        <time>2021-07-04T09:11:04Z</time>
      </trkpt>
      <trkpt lat="47.36699" lon="-0.50186">
        <ele>52.4</ele>
        <time>2021-07-04T09:11:05Z</time>
      </trkpt>
      <trkpt lat="47.36708" lon="-0.50184">
        <ele>51.6</ele>
        <time>2021-07-04T09:11:06Z</time>
      </trkpt>
      <trkpt lat="47.36717" lon="-0.50181">
        <ele>51.2</ele>
        <time>2021-07-04T09:11:07Z</time>
      </trkpt>
      <trkpt lat="47.36726" lon="-0.50178">
        <ele>50.2</ele>
        <time>2021-07-04T09:11:08Z</time>
      </trkpt>
      <trkpt lat="47.36735" lon="-0.50175">
        <ele>49.4</ele>
        <time>2021-07-04T09:11:09Z</time>
      </trkpt>
      <trkpt lat="47.36744" lon="-0.50173">
        <ele>48.6</ele>
        <time>2021-07-04T09:11:10Z</time>
      </trkpt>
      <trkpt lat="47.36753" lon="-0.5017">
        <ele>48.6</ele>
        <time>2021-07-04T09:11:11Z</time>
      </trkpt>
      <trkpt lat="47.36771" lon="-0.50165">
        <ele>47.6</ele>
        <time>2021-07-04T09:11:13Z</time>
      </trkpt>
      <trkpt lat="47.3678" lon="-0.50163">
        <ele>47.6</ele>
        <time>2021-07-04T09:11:14Z</time>
      </trkpt>
      <trkpt lat="47.36789" lon="-0.50161">
        <ele>47.4</ele>
        <time>2021-07-04T09:11:15Z</time>
      </trkpt>
      <trkpt lat="47.36807" lon="-0.50157">
        <ele>47</ele>
        <time>2021-07-04T09:11:17Z</time>
      </trkpt>
      <trkpt lat="47.36825" lon="-0.50154">
        <ele>47</ele>
        <time>2021-07-04T09:11:19Z</time>
      </trkpt>
      <trkpt lat="47.36843" lon="-0.50154">
        <ele>47.6</ele>
        <time>2021-07-04T09:11:21Z</time>
      </trkpt>
      <trkpt lat="47.36861" lon="-0.50154">
        <ele>45.8</ele>
        <time>2021-07-04T09:11:23Z</time>
      </trkpt>
      <trkpt lat="47.3688" lon="-0.50153">
        <ele>44.4</ele>
        <time>2021-07-04T09:11:25Z</time>
      </trkpt>
      <trkpt lat="47.36898" lon="-0.50154">
        <ele>44.4</ele>
        <time>2021-07-04T09:11:27Z</time>
      </trkpt>
      <trkpt lat="47.36915" lon="-0.50155">
        <ele>44.8</ele>
        <time>2021-07-04T09:11:29Z</time>
      </trkpt>
      <trkpt lat="47.36932" lon="-0.50157">
        <ele>44.6</ele>
        <time>2021-07-04T09:11:31Z</time>
      </trkpt>
      <trkpt lat="47.36949" lon="-0.50155">
        <ele>45</ele>
        <time>2021-07-04T09:11:33Z</time>
      </trkpt>
      <trkpt lat="47.36966" lon="-0.50153">
        <ele>44.6</ele>
        <time>2021-07-04T09:11:35Z</time>
      </trkpt>
      <trkpt lat="47.36973" lon="-0.50151">
        <ele>44.6</ele>
        <time>2021-07-04T09:11:36Z</time>
      </trkpt>
      <trkpt lat="47.36981" lon="-0.50149">
        <ele>44.6</ele>
        <time>2021-07-04T09:11:37Z</time>
      </trkpt>
      <trkpt lat="47.36996" lon="-0.50145">
        <ele>45.2</ele>
        <time>2021-07-04T09:11:39Z</time>
      </trkpt>
      <trkpt lat="47.3701" lon="-0.50143">
        <ele>45.2</ele>
        <time>2021-07-04T09:11:41Z</time>
      </trkpt>
      <trkpt lat="47.37017" lon="-0.50142">
        <ele>45.2</ele>
        <time>2021-07-04T09:11:42Z</time>
      </trkpt>
      <trkpt lat="47.37025" lon="-0.50141">
        <ele>45.4</ele>
        <time>2021-07-04T09:11:43Z</time>
      </trkpt>
      <trkpt lat="47.37039" lon="-0.50138">
        <ele>45</ele>
        <time>2021-07-04T09:11:45Z</time>
      </trkpt>
      <trkpt lat="47.37053" lon="-0.50134">
        <ele>44.6</ele>
        <time>2021-07-04T09:11:47Z</time>
      </trkpt>
      <trkpt lat="47.37059" lon="-0.5013">
        <ele>44.6</ele>
        <time>2021-07-04T09:11:48Z</time>
      </trkpt>
      <trkpt lat="47.37064" lon="-0.50124">
        <ele>44.6</ele>
        <time>2021-07-04T09:11:49Z</time>
      </trkpt>
      <trkpt lat="47.37073" lon="-0.50109">
        <ele>44.2</ele>
        <time>2021-07-04T09:11:51Z</time>
      </trkpt>
      <trkpt lat="47.37081" lon="-0.50094">
        <ele>43.6</ele>
        <time>2021-07-04T09:11:53Z</time>
      </trkpt>
      <trkpt lat="47.37089" lon="-0.50079">
        <ele>43.8</ele>
        <time>2021-07-04T09:11:55Z</time>
      </trkpt>
      <trkpt lat="47.37096" lon="-0.50063">
        <ele>43.2</ele>
        <time>2021-07-04T09:11:57Z</time>
      </trkpt>
      <trkpt lat="47.37102" lon="-0.50048">
        <ele>43</ele>
        <time>2021-07-04T09:11:59Z</time>
      </trkpt>
      <trkpt lat="47.37103" lon="-0.5004">
        <ele>42.8</ele>
        <time>2021-07-04T09:12:00Z</time>
      </trkpt>
      <trkpt lat="47.37103" lon="-0.50032">
        <ele>42.4</ele>
        <time>2021-07-04T09:12:01Z</time>
      </trkpt>
      <trkpt lat="47.37101" lon="-0.50014">
        <ele>42</ele>
        <time>2021-07-04T09:12:03Z</time>
      </trkpt>
      <trkpt lat="47.37099" lon="-0.49995">
        <ele>42</ele>
        <time>2021-07-04T09:12:05Z</time>
      </trkpt>
      <trkpt lat="47.37099" lon="-0.49985">
        <ele>42</ele>
        <time>2021-07-04T09:12:06Z</time>
      </trkpt>
      <trkpt lat="47.37097" lon="-0.49975">
        <ele>41.8</ele>
        <time>2021-07-04T09:12:07Z</time>
      </trkpt>
      <trkpt lat="47.37095" lon="-0.49954">
        <ele>41.2</ele>
        <time>2021-07-04T09:12:09Z</time>
      </trkpt>
      <trkpt lat="47.37094" lon="-0.49943">
        <ele>40.6</ele>
        <time>2021-07-04T09:12:10Z</time>
      </trkpt>
      <trkpt lat="47.37092" lon="-0.49933">
        <ele>40</ele>
        <time>2021-07-04T09:12:11Z</time>
      </trkpt>
      <trkpt lat="47.3709" lon="-0.49923">
        <ele>39.8</ele>
        <time>2021-07-04T09:12:12Z</time>
      </trkpt>
      <trkpt lat="47.37089" lon="-0.49914">
        <ele>39.8</ele>
        <time>2021-07-04T09:12:13Z</time>
      </trkpt>
      <trkpt lat="47.37085" lon="-0.49895">
        <ele>39.8</ele>
        <time>2021-07-04T09:12:15Z</time>
      </trkpt>
      <trkpt lat="47.37083" lon="-0.49886">
        <ele>39.6</ele>
        <time>2021-07-04T09:12:16Z</time>
      </trkpt>
      <trkpt lat="47.3708" lon="-0.49877">
        <ele>39.4</ele>
        <time>2021-07-04T09:12:17Z</time>
      </trkpt>
      <trkpt lat="47.37075" lon="-0.49861">
        <ele>39.2</ele>
        <time>2021-07-04T09:12:19Z</time>
      </trkpt>
      <trkpt lat="47.3707" lon="-0.49844">
        <ele>39.4</ele>
        <time>2021-07-04T09:12:21Z</time>
      </trkpt>
      <trkpt lat="47.37065" lon="-0.49826">
        <ele>39.8</ele>
        <time>2021-07-04T09:12:23Z</time>
      </trkpt>
      <trkpt lat="47.3706" lon="-0.4981">
        <ele>40.6</ele>
        <time>2021-07-04T09:12:25Z</time>
      </trkpt>
      <trkpt lat="47.37058" lon="-0.49802">
        <ele>40.8</ele>
        <time>2021-07-04T09:12:26Z</time>
      </trkpt>
      <trkpt lat="47.37055" lon="-0.49794">
        <ele>41</ele>
        <time>2021-07-04T09:12:27Z</time>
      </trkpt>
      <trkpt lat="47.37051" lon="-0.49779">
        <ele>40.8</ele>
        <time>2021-07-04T09:12:29Z</time>
      </trkpt>
      <trkpt lat="47.37047" lon="-0.49764">
        <ele>40.8</ele>
        <time>2021-07-04T09:12:31Z</time>
      </trkpt>
      <trkpt lat="47.37043" lon="-0.49748">
        <ele>40.8</ele>
        <time>2021-07-04T09:12:33Z</time>
      </trkpt>
      <trkpt lat="47.37038" lon="-0.49731">
        <ele>40.6</ele>
        <time>2021-07-04T09:12:35Z</time>
      </trkpt>
      <trkpt lat="47.37035" lon="-0.49715">
        <ele>40.8</ele>
        <time>2021-07-04T09:12:37Z</time>
      </trkpt>
      <trkpt lat="47.37034" lon="-0.49698">
        <ele>41.8</ele>
        <time>2021-07-04T09:12:39Z</time>
      </trkpt>
      <trkpt lat="47.37036" lon="-0.49681">
        <ele>42.6</ele>
        <time>2021-07-04T09:12:41Z</time>
      </trkpt>
      <trkpt lat="47.37039" lon="-0.49666">
        <ele>42.2</ele>
        <time>2021-07-04T09:12:43Z</time>
      </trkpt>
      <trkpt lat="47.37041" lon="-0.49654">
        <ele>42.6</ele>
        <time>2021-07-04T09:12:45Z</time>
      </trkpt>
      <trkpt lat="47.37043" lon="-0.49651">
        <ele>43</ele>
        <time>2021-07-04T09:12:46Z</time>
      </trkpt>
      <trkpt lat="47.37045" lon="-0.49651">
        <ele>43</ele>
        <time>2021-07-04T09:12:47Z</time>
      </trkpt>
      <trkpt lat="47.37047" lon="-0.49652">
        <ele>42</ele>
        <time>2021-07-04T09:12:49Z</time>
      </trkpt>
      <trkpt lat="47.37048" lon="-0.49653">
        <ele>41.8</ele>
        <time>2021-07-04T09:12:50Z</time>
      </trkpt>
      <trkpt lat="47.37049" lon="-0.49655">
        <ele>41.6</ele>
        <time>2021-07-04T09:12:51Z</time>
      </trkpt>
      <trkpt lat="47.37058" lon="-0.49662">
        <ele>41.4</ele>
        <time>2021-07-04T09:12:53Z</time>
      </trkpt>
      <trkpt lat="47.37065" lon="-0.49664">
        <ele>41.2</ele>
        <time>2021-07-04T09:12:54Z</time>
      </trkpt>
      <trkpt lat="47.37073" lon="-0.49666">
        <ele>41</ele>
        <time>2021-07-04T09:12:55Z</time>
      </trkpt>
      <trkpt lat="47.37081" lon="-0.49669">
        <ele>40.4</ele>
        <time>2021-07-04T09:12:56Z</time>
      </trkpt>
      <trkpt lat="47.37089" lon="-0.49671">
        <ele>39.6</ele>
        <time>2021-07-04T09:12:57Z</time>
      </trkpt>
      <trkpt lat="47.37098" lon="-0.49674">
        <ele>39</ele>
        <time>2021-07-04T09:12:58Z</time>
      </trkpt>
      <trkpt lat="47.37107" lon="-0.49676">
        <ele>38.8</ele>
        <time>2021-07-04T09:12:59Z</time>
      </trkpt>
      <trkpt lat="47.37116" lon="-0.49679">
        <ele>38.4</ele>
        <time>2021-07-04T09:13:00Z</time>
      </trkpt>
      <trkpt lat="47.37125" lon="-0.49682">
        <ele>37.8</ele>
        <time>2021-07-04T09:13:01Z</time>
      </trkpt>
      <trkpt lat="47.37142" lon="-0.49687">
        <ele>36</ele>
        <time>2021-07-04T09:13:03Z</time>
      </trkpt>
      <trkpt lat="47.37161" lon="-0.49694">
        <ele>34.8</ele>
        <time>2021-07-04T09:13:05Z</time>
      </trkpt>
      <trkpt lat="47.37171" lon="-0.49697">
        <ele>34.2</ele>
        <time>2021-07-04T09:13:06Z</time>
      </trkpt>
      <trkpt lat="47.37181" lon="-0.49701">
        <ele>33.2</ele>
        <time>2021-07-04T09:13:07Z</time>
      </trkpt>
      <trkpt lat="47.37201" lon="-0.49707">
        <ele>31.2</ele>
        <time>2021-07-04T09:13:09Z</time>
      </trkpt>
      <trkpt lat="47.37221" lon="-0.49713">
        <ele>29.4</ele>
        <time>2021-07-04T09:13:11Z</time>
      </trkpt>
      <trkpt lat="47.37231" lon="-0.49715">
        <ele>28</ele>
        <time>2021-07-04T09:13:12Z</time>
      </trkpt>
      <trkpt lat="47.37241" lon="-0.49716">
        <ele>27.6</ele>
        <time>2021-07-04T09:13:13Z</time>
      </trkpt>
      <trkpt lat="47.37251" lon="-0.49716">
        <ele>26.8</ele>
        <time>2021-07-04T09:13:14Z</time>
      </trkpt>
      <trkpt lat="47.37261" lon="-0.49715">
        <ele>26.4</ele>
        <time>2021-07-04T09:13:15Z</time>
      </trkpt>
      <trkpt lat="47.37271" lon="-0.49715">
        <ele>26.2</ele>
        <time>2021-07-04T09:13:16Z</time>
      </trkpt>
      <trkpt lat="47.3728" lon="-0.49715">
        <ele>26.4</ele>
        <time>2021-07-04T09:13:17Z</time>
      </trkpt>
      <trkpt lat="47.37298" lon="-0.49714">
        <ele>27</ele>
        <time>2021-07-04T09:13:19Z</time>
      </trkpt>
      <trkpt lat="47.37313" lon="-0.49713">
        <ele>28.4</ele>
        <time>2021-07-04T09:13:21Z</time>
      </trkpt>
      <trkpt lat="47.37319" lon="-0.49713">
        <ele>29.4</ele>
        <time>2021-07-04T09:13:22Z</time>
      </trkpt>
      <trkpt lat="47.37322" lon="-0.4971">
        <ele>30</ele>
        <time>2021-07-04T09:13:23Z</time>
      </trkpt>
      <trkpt lat="47.37326" lon="-0.49705">
        <ele>30.2</ele>
        <time>2021-07-04T09:13:24Z</time>
      </trkpt>
      <trkpt lat="47.37329" lon="-0.49699">
        <ele>30.2</ele>
        <time>2021-07-04T09:13:25Z</time>
      </trkpt>
      <trkpt lat="47.37329" lon="-0.49684">
        <ele>29.8</ele>
        <time>2021-07-04T09:13:27Z</time>
      </trkpt>
      <trkpt lat="47.37329" lon="-0.49675">
        <ele>29.6</ele>
        <time>2021-07-04T09:13:28Z</time>
      </trkpt>
      <trkpt lat="47.37329" lon="-0.49666">
        <ele>29.4</ele>
        <time>2021-07-04T09:13:29Z</time>
      </trkpt>
      <trkpt lat="47.3733" lon="-0.49648">
        <ele>29.4</ele>
        <time>2021-07-04T09:13:31Z</time>
      </trkpt>
      <trkpt lat="47.37331" lon="-0.4963">
        <ele>29.2</ele>
        <time>2021-07-04T09:13:33Z</time>
      </trkpt>
      <trkpt lat="47.37332" lon="-0.49611">
        <ele>29</ele>
        <time>2021-07-04T09:13:35Z</time>
      </trkpt>
      <trkpt lat="47.37332" lon="-0.49593">
        <ele>28.2</ele>
        <time>2021-07-04T09:13:37Z</time>
      </trkpt>
      <trkpt lat="47.37334" lon="-0.49574">
        <ele>28.8</ele>
        <time>2021-07-04T09:13:39Z</time>
      </trkpt>
      <trkpt lat="47.37336" lon="-0.49555">
        <ele>28.8</ele>
        <time>2021-07-04T09:13:41Z</time>
      </trkpt>
      <trkpt lat="47.37339" lon="-0.49537">
        <ele>28.8</ele>
        <time>2021-07-04T09:13:43Z</time>
      </trkpt>
      <trkpt lat="47.37343" lon="-0.49519">
        <ele>29</ele>
        <time>2021-07-04T09:13:45Z</time>
      </trkpt>
      <trkpt lat="47.37346" lon="-0.49501">
        <ele>29.2</ele>
        <time>2021-07-04T09:13:47Z</time>
      </trkpt>
      <trkpt lat="47.37347" lon="-0.49493">
        <ele>29.4</ele>
        <time>2021-07-04T09:13:48Z</time>
      </trkpt>
      <trkpt lat="47.37349" lon="-0.49484">
        <ele>29.6</ele>
        <time>2021-07-04T09:13:49Z</time>
      </trkpt>
      <trkpt lat="47.3735" lon="-0.49465">
        <ele>29.2</ele>
        <time>2021-07-04T09:13:51Z</time>
      </trkpt>
      <trkpt lat="47.37353" lon="-0.49446">
        <ele>29</ele>
        <time>2021-07-04T09:13:53Z</time>
      </trkpt>
      <trkpt lat="47.37355" lon="-0.49429">
        <ele>29</ele>
        <time>2021-07-04T09:13:55Z</time>
      </trkpt>
      <trkpt lat="47.37357" lon="-0.49414">
        <ele>29.2</ele>
        <time>2021-07-04T09:13:57Z</time>
      </trkpt>
      <trkpt lat="47.37359" lon="-0.49399">
        <ele>29.8</ele>
        <time>2021-07-04T09:13:59Z</time>
      </trkpt>
      <trkpt lat="47.37361" lon="-0.49392">
        <ele>29.4</ele>
        <time>2021-07-04T09:14:00Z</time>
      </trkpt>
      <trkpt lat="47.37362" lon="-0.49385">
        <ele>29.2</ele>
        <time>2021-07-04T09:14:01Z</time>
      </trkpt>
      <trkpt lat="47.37367" lon="-0.4937">
        <ele>29.6</ele>
        <time>2021-07-04T09:14:03Z</time>
      </trkpt>
      <trkpt lat="47.37371" lon="-0.49363">
        <ele>29.6</ele>
        <time>2021-07-04T09:14:04Z</time>
      </trkpt>
      <trkpt lat="47.37375" lon="-0.49356">
        <ele>29.6</ele>
        <time>2021-07-04T09:14:05Z</time>
      </trkpt>
      <trkpt lat="47.37382" lon="-0.4934">
        <ele>30.2</ele>
        <time>2021-07-04T09:14:07Z</time>
      </trkpt>
      <trkpt lat="47.3739" lon="-0.49326">
        <ele>29.8</ele>
        <time>2021-07-04T09:14:09Z</time>
      </trkpt>
      <trkpt lat="47.37395" lon="-0.49318">
        <ele>29.8</ele>
        <time>2021-07-04T09:14:10Z</time>
      </trkpt>
      <trkpt lat="47.37399" lon="-0.4931">
        <ele>30.2</ele>
        <time>2021-07-04T09:14:11Z</time>
      </trkpt>
      <trkpt lat="47.37407" lon="-0.49294">
        <ele>30.2</ele>
        <time>2021-07-04T09:14:13Z</time>
      </trkpt>
      <trkpt lat="47.37415" lon="-0.49279">
        <ele>30</ele>
        <time>2021-07-04T09:14:15Z</time>
      </trkpt>
      <trkpt lat="47.37424" lon="-0.49262">
        <ele>30</ele>
        <time>2021-07-04T09:14:17Z</time>
      </trkpt>
      <trkpt lat="47.37431" lon="-0.49248">
        <ele>30</ele>
        <time>2021-07-04T09:14:19Z</time>
      </trkpt>
      <trkpt lat="47.37437" lon="-0.49235">
        <ele>30.6</ele>
        <time>2021-07-04T09:14:21Z</time>
      </trkpt>
      <trkpt lat="47.3744" lon="-0.49228">
        <ele>30.6</ele>
        <time>2021-07-04T09:14:22Z</time>
      </trkpt>
      <trkpt lat="47.37443" lon="-0.4922">
        <ele>30.4</ele>
        <time>2021-07-04T09:14:23Z</time>
      </trkpt>
      <trkpt lat="47.37449" lon="-0.49204">
        <ele>29.6</ele>
        <time>2021-07-04T09:14:25Z</time>
      </trkpt>
      <trkpt lat="47.37452" lon="-0.49196">
        <ele>29.6</ele>
        <time>2021-07-04T09:14:26Z</time>
      </trkpt>
      <trkpt lat="47.37456" lon="-0.49189">
        <ele>29.8</ele>
        <time>2021-07-04T09:14:27Z</time>
      </trkpt>
      <trkpt lat="47.37464" lon="-0.49173">
        <ele>29.6</ele>
        <time>2021-07-04T09:14:29Z</time>
      </trkpt>
      <trkpt lat="47.3747" lon="-0.4916">
        <ele>29.4</ele>
        <time>2021-07-04T09:14:31Z</time>
      </trkpt>
      <trkpt lat="47.37477" lon="-0.49146">
        <ele>30.2</ele>
        <time>2021-07-04T09:14:33Z</time>
      </trkpt>
      <trkpt lat="47.37484" lon="-0.49132">
        <ele>30.4</ele>
        <time>2021-07-04T09:14:35Z</time>
      </trkpt>
      <trkpt lat="47.37492" lon="-0.49118">
        <ele>30.2</ele>
        <time>2021-07-04T09:14:37Z</time>
      </trkpt>
      <trkpt lat="47.37495" lon="-0.49111">
        <ele>30.6</ele>
        <time>2021-07-04T09:14:38Z</time>
      </trkpt>
      <trkpt lat="47.37498" lon="-0.49104">
        <ele>31</ele>
        <time>2021-07-04T09:14:39Z</time>
      </trkpt>
      <trkpt lat="47.37501" lon="-0.49097">
        <ele>31.6</ele>
        <time>2021-07-04T09:14:40Z</time>
      </trkpt>
      <trkpt lat="47.37504" lon="-0.49091">
        <ele>31.8</ele>
        <time>2021-07-04T09:14:41Z</time>
      </trkpt>
      <trkpt lat="47.37506" lon="-0.49083">
        <ele>32</ele>
        <time>2021-07-04T09:14:42Z</time>
      </trkpt>
      <trkpt lat="47.37508" lon="-0.49075">
        <ele>32</ele>
        <time>2021-07-04T09:14:43Z</time>
      </trkpt>
      <trkpt lat="47.37511" lon="-0.49059">
        <ele>32</ele>
        <time>2021-07-04T09:14:45Z</time>
      </trkpt>
      <trkpt lat="47.37514" lon="-0.49043">
        <ele>31.8</ele>
        <time>2021-07-04T09:14:47Z</time>
      </trkpt>
      <trkpt lat="47.37516" lon="-0.49028">
        <ele>32</ele>
        <time>2021-07-04T09:14:49Z</time>
      </trkpt>
      <trkpt lat="47.37515" lon="-0.4902">
        <ele>32.2</ele>
        <time>2021-07-04T09:14:50Z</time>
      </trkpt>
      <trkpt lat="47.37514" lon="-0.49013">
        <ele>32</ele>
        <time>2021-07-04T09:14:51Z</time>
      </trkpt>
      <trkpt lat="47.3751" lon="-0.48996">
        <ele>31.4</ele>
        <time>2021-07-04T09:14:53Z</time>
      </trkpt>
      <trkpt lat="47.37505" lon="-0.48979">
        <ele>31</ele>
        <time>2021-07-04T09:14:55Z</time>
      </trkpt>
      <trkpt lat="47.37504" lon="-0.4897">
        <ele>31</ele>
        <time>2021-07-04T09:14:56Z</time>
      </trkpt>
      <trkpt lat="47.37504" lon="-0.48961">
        <ele>31.2</ele>
        <time>2021-07-04T09:14:57Z</time>
      </trkpt>
      <trkpt lat="47.37503" lon="-0.48953">
        <ele>31.4</ele>
        <time>2021-07-04T09:14:58Z</time>
      </trkpt>
      <trkpt lat="47.37502" lon="-0.48946">
        <ele>31.2</ele>
        <time>2021-07-04T09:14:59Z</time>
      </trkpt>
      <trkpt lat="47.375" lon="-0.4893">
        <ele>30.6</ele>
        <time>2021-07-04T09:15:01Z</time>
      </trkpt>
      <trkpt lat="47.375" lon="-0.48922">
        <ele>30.6</ele>
        <time>2021-07-04T09:15:02Z</time>
      </trkpt>
      <trkpt lat="47.37501" lon="-0.48915">
        <ele>30.8</ele>
        <time>2021-07-04T09:15:03Z</time>
      </trkpt>
      <trkpt lat="47.37505" lon="-0.48906">
        <ele>31.4</ele>
        <time>2021-07-04T09:15:05Z</time>
      </trkpt>
      <trkpt lat="47.37513" lon="-0.48903">
        <ele>31.8</ele>
        <time>2021-07-04T09:15:07Z</time>
      </trkpt>
      <trkpt lat="47.37518" lon="-0.48901">
        <ele>31.8</ele>
        <time>2021-07-04T09:15:08Z</time>
      </trkpt>
      <trkpt lat="47.37522" lon="-0.48898">
        <ele>32</ele>
        <time>2021-07-04T09:15:09Z</time>
      </trkpt>
      <trkpt lat="47.37527" lon="-0.48896">
        <ele>32</ele>
        <time>2021-07-04T09:15:10Z</time>
      </trkpt>
      <trkpt lat="47.37531" lon="-0.48894">
        <ele>32.2</ele>
        <time>2021-07-04T09:15:11Z</time>
      </trkpt>
      <trkpt lat="47.3754" lon="-0.48889">
        <ele>32.8</ele>
        <time>2021-07-04T09:15:13Z</time>
      </trkpt>
      <trkpt lat="47.37545" lon="-0.48887">
        <ele>33</ele>
        <time>2021-07-04T09:15:14Z</time>
      </trkpt>
      <trkpt lat="47.37549" lon="-0.48885">
        <ele>33.2</ele>
        <time>2021-07-04T09:15:15Z</time>
      </trkpt>
      <trkpt lat="47.37558" lon="-0.48881">
        <ele>33.6</ele>
        <time>2021-07-04T09:15:17Z</time>
      </trkpt>
      <trkpt lat="47.37563" lon="-0.48879">
        <ele>33.8</ele>
        <time>2021-07-04T09:15:18Z</time>
      </trkpt>
      <trkpt lat="47.37568" lon="-0.48877">
        <ele>33.8</ele>
        <time>2021-07-04T09:15:19Z</time>
      </trkpt>
      <trkpt lat="47.37573" lon="-0.48874">
        <ele>34</ele>
        <time>2021-07-04T09:15:20Z</time>
      </trkpt>
      <trkpt lat="47.37577" lon="-0.48871">
        <ele>34.2</ele>
        <time>2021-07-04T09:15:21Z</time>
      </trkpt>
      <trkpt lat="47.37585" lon="-0.48866">
        <ele>34.8</ele>
        <time>2021-07-04T09:15:23Z</time>
      </trkpt>
      <trkpt lat="47.3759" lon="-0.48863">
        <ele>35</ele>
        <time>2021-07-04T09:15:24Z</time>
      </trkpt>
      <trkpt lat="47.37594" lon="-0.48861">
        <ele>35</ele>
        <time>2021-07-04T09:15:25Z</time>
      </trkpt>
      <trkpt lat="47.37601" lon="-0.48855">
        <ele>35.8</ele>
        <time>2021-07-04T09:15:27Z</time>
      </trkpt>
      <trkpt lat="47.37605" lon="-0.48853">
        <ele>36</ele>
        <time>2021-07-04T09:15:28Z</time>
      </trkpt>
      <trkpt lat="47.37609" lon="-0.4885">
        <ele>36.4</ele>
        <time>2021-07-04T09:15:29Z</time>
      </trkpt>
      <trkpt lat="47.37617" lon="-0.48844">
        <ele>37</ele>
        <time>2021-07-04T09:15:31Z</time>
      </trkpt>
      <trkpt lat="47.37621" lon="-0.4884">
        <ele>37.2</ele>
        <time>2021-07-04T09:15:32Z</time>
      </trkpt>
      <trkpt lat="47.37624" lon="-0.48837">
        <ele>37.4</ele>
        <time>2021-07-04T09:15:33Z</time>
      </trkpt>
      <trkpt lat="47.37628" lon="-0.48832">
        <ele>37.6</ele>
        <time>2021-07-04T09:15:34Z</time>
      </trkpt>
      <trkpt lat="47.37631" lon="-0.48828">
        <ele>37.8</ele>
        <time>2021-07-04T09:15:35Z</time>
      </trkpt>
      <trkpt lat="47.37637" lon="-0.48821">
        <ele>38.2</ele>
        <time>2021-07-04T09:15:37Z</time>
      </trkpt>
      <trkpt lat="47.3764" lon="-0.48813">
        <ele>38.6</ele>
        <time>2021-07-04T09:15:39Z</time>
      </trkpt>
      <trkpt lat="47.37637" lon="-0.48804">
        <ele>38.6</ele>
        <time>2021-07-04T09:15:41Z</time>
      </trkpt>
      <trkpt lat="47.37635" lon="-0.48799">
        <ele>38.6</ele>
        <time>2021-07-04T09:15:42Z</time>
      </trkpt>
      <trkpt lat="47.37634" lon="-0.48793">
        <ele>38.6</ele>
        <time>2021-07-04T09:15:43Z</time>
      </trkpt>
      <trkpt lat="47.3763" lon="-0.48782">
        <ele>38.2</ele>
        <time>2021-07-04T09:15:45Z</time>
      </trkpt>
      <trkpt lat="47.37626" lon="-0.48771">
        <ele>37.6</ele>
        <time>2021-07-04T09:15:47Z</time>
      </trkpt>
      <trkpt lat="47.37624" lon="-0.48766">
        <ele>37.6</ele>
        <time>2021-07-04T09:15:48Z</time>
      </trkpt>
      <trkpt lat="47.37622" lon="-0.48761">
        <ele>37.8</ele>
        <time>2021-07-04T09:15:49Z</time>
      </trkpt>
      <trkpt lat="47.37618" lon="-0.48748">
        <ele>38.6</ele>
        <time>2021-07-04T09:15:51Z</time>
      </trkpt>
      <trkpt lat="47.37614" lon="-0.48736">
        <ele>39.6</ele>
        <time>2021-07-04T09:15:53Z</time>
      </trkpt>
      <trkpt lat="47.3761" lon="-0.48725">
        <ele>40.2</ele>
        <time>2021-07-04T09:15:55Z</time>
      </trkpt>
      <trkpt lat="47.37605" lon="-0.48713">
        <ele>40.8</ele>
        <time>2021-07-04T09:15:57Z</time>
      </trkpt>
      <trkpt lat="47.376" lon="-0.48701">
        <ele>40.8</ele>
        <time>2021-07-04T09:15:59Z</time>
      </trkpt>
      <trkpt lat="47.37595" lon="-0.48687">
        <ele>41.2</ele>
        <time>2021-07-04T09:16:01Z</time>
      </trkpt>
      <trkpt lat="47.3759" lon="-0.48673">
        <ele>41</ele>
        <time>2021-07-04T09:16:03Z</time>
      </trkpt>
      <trkpt lat="47.37585" lon="-0.48658">
        <ele>40.6</ele>
        <time>2021-07-04T09:16:05Z</time>
      </trkpt>
      <trkpt lat="47.37579" lon="-0.48643">
        <ele>40.8</ele>
        <time>2021-07-04T09:16:07Z</time>
      </trkpt>
      <trkpt lat="47.37576" lon="-0.48635">
        <ele>40.8</ele>
        <time>2021-07-04T09:16:08Z</time>
      </trkpt>
      <trkpt lat="47.37573" lon="-0.48628">
        <ele>40.8</ele>
        <time>2021-07-04T09:16:09Z</time>
      </trkpt>
      <trkpt lat="47.37568" lon="-0.48614">
        <ele>40.4</ele>
        <time>2021-07-04T09:16:11Z</time>
      </trkpt>
      <trkpt lat="47.37562" lon="-0.48599">
        <ele>40</ele>
        <time>2021-07-04T09:16:13Z</time>
      </trkpt>
      <trkpt lat="47.37555" lon="-0.48584">
        <ele>39.8</ele>
        <time>2021-07-04T09:16:15Z</time>
      </trkpt>
      <trkpt lat="47.37549" lon="-0.48568">
        <ele>39.8</ele>
        <time>2021-07-04T09:16:17Z</time>
      </trkpt>
      <trkpt lat="47.37542" lon="-0.4855">
        <ele>39.4</ele>
        <time>2021-07-04T09:16:19Z</time>
      </trkpt>
      <trkpt lat="47.37536" lon="-0.48532">
        <ele>39</ele>
        <time>2021-07-04T09:16:21Z</time>
      </trkpt>
      <trkpt lat="47.37532" lon="-0.48523">
        <ele>38.6</ele>
        <time>2021-07-04T09:16:22Z</time>
      </trkpt>
      <trkpt lat="47.37529" lon="-0.48513">
        <ele>37.6</ele>
        <time>2021-07-04T09:16:23Z</time>
      </trkpt>
      <trkpt lat="47.37526" lon="-0.48503">
        <ele>36.4</ele>
        <time>2021-07-04T09:16:24Z</time>
      </trkpt>
      <trkpt lat="47.37522" lon="-0.48493">
        <ele>35.6</ele>
        <time>2021-07-04T09:16:25Z</time>
      </trkpt>
      <trkpt lat="47.37518" lon="-0.48482">
        <ele>35</ele>
        <time>2021-07-04T09:16:26Z</time>
      </trkpt>
      <trkpt lat="47.37514" lon="-0.48472">
        <ele>34.4</ele>
        <time>2021-07-04T09:16:27Z</time>
      </trkpt>
      <trkpt lat="47.37509" lon="-0.48456">
        <ele>34.6</ele>
        <time>2021-07-04T09:16:29Z</time>
      </trkpt>
      <trkpt lat="47.37508" lon="-0.4845">
        <ele>35</ele>
        <time>2021-07-04T09:16:30Z</time>
      </trkpt>
      <trkpt lat="47.3751" lon="-0.48445">
        <ele>35.4</ele>
        <time>2021-07-04T09:16:31Z</time>
      </trkpt>
      <trkpt lat="47.37515" lon="-0.48438">
        <ele>36</ele>
        <time>2021-07-04T09:16:33Z</time>
      </trkpt>
      <trkpt lat="47.37518" lon="-0.48434">
        <ele>36</ele>
        <time>2021-07-04T09:16:34Z</time>
      </trkpt>
      <trkpt lat="47.3752" lon="-0.48431">
        <ele>36.2</ele>
        <time>2021-07-04T09:16:35Z</time>
      </trkpt>
      <trkpt lat="47.37526" lon="-0.48424">
        <ele>37.2</ele>
        <time>2021-07-04T09:16:37Z</time>
      </trkpt>
      <trkpt lat="47.37529" lon="-0.48421">
        <ele>37.6</ele>
        <time>2021-07-04T09:16:38Z</time>
      </trkpt>
      <trkpt lat="47.37532" lon="-0.48418">
        <ele>37.8</ele>
        <time>2021-07-04T09:16:39Z</time>
      </trkpt>
      <trkpt lat="47.37534" lon="-0.48415">
        <ele>38.4</ele>
        <time>2021-07-04T09:16:40Z</time>
      </trkpt>
      <trkpt lat="47.37536" lon="-0.48411">
        <ele>39</ele>
        <time>2021-07-04T09:16:41Z</time>
      </trkpt>
      <trkpt lat="47.37541" lon="-0.48403">
        <ele>39.2</ele>
        <time>2021-07-04T09:16:43Z</time>
      </trkpt>
      <trkpt lat="47.37546" lon="-0.48396">
        <ele>39.4</ele>
        <time>2021-07-04T09:16:45Z</time>
      </trkpt>
      <trkpt lat="47.37549" lon="-0.48388">
        <ele>39.8</ele>
        <time>2021-07-04T09:16:47Z</time>
      </trkpt>
      <trkpt lat="47.37552" lon="-0.48385">
        <ele>40.4</ele>
        <time>2021-07-04T09:16:48Z</time>
      </trkpt>
      <trkpt lat="47.37554" lon="-0.48381">
        <ele>40.6</ele>
        <time>2021-07-04T09:16:49Z</time>
      </trkpt>
      <trkpt lat="47.37559" lon="-0.48375">
        <ele>41</ele>
        <time>2021-07-04T09:16:51Z</time>
      </trkpt>
      <trkpt lat="47.37565" lon="-0.48368">
        <ele>41.4</ele>
        <time>2021-07-04T09:16:53Z</time>
      </trkpt>
      <trkpt lat="47.37567" lon="-0.48365">
        <ele>41.4</ele>
        <time>2021-07-04T09:16:54Z</time>
      </trkpt>
      <trkpt lat="47.3757" lon="-0.48362">
        <ele>41.4</ele>
        <time>2021-07-04T09:16:55Z</time>
      </trkpt>
      <trkpt lat="47.37576" lon="-0.48357">
        <ele>41.8</ele>
        <time>2021-07-04T09:16:57Z</time>
      </trkpt>
      <trkpt lat="47.37582" lon="-0.48352">
        <ele>42.2</ele>
        <time>2021-07-04T09:16:59Z</time>
      </trkpt>
      <trkpt lat="47.37585" lon="-0.4835">
        <ele>42.4</ele>
        <time>2021-07-04T09:17:00Z</time>
      </trkpt>
      <trkpt lat="47.37588" lon="-0.48348">
        <ele>42.4</ele>
        <time>2021-07-04T09:17:01Z</time>
      </trkpt>
      <trkpt lat="47.37594" lon="-0.48343">
        <ele>42.8</ele>
        <time>2021-07-04T09:17:03Z</time>
      </trkpt>
      <trkpt lat="47.37601" lon="-0.48338">
        <ele>43.2</ele>
        <time>2021-07-04T09:17:05Z</time>
      </trkpt>
      <trkpt lat="47.37608" lon="-0.48333">
        <ele>43.6</ele>
        <time>2021-07-04T09:17:07Z</time>
      </trkpt>
      <trkpt lat="47.37611" lon="-0.4833">
        <ele>43.4</ele>
        <time>2021-07-04T09:17:08Z</time>
      </trkpt>
      <trkpt lat="47.37614" lon="-0.48327">
        <ele>43.6</ele>
        <time>2021-07-04T09:17:09Z</time>
      </trkpt>
      <trkpt lat="47.3762" lon="-0.48322">
        <ele>44.4</ele>
        <time>2021-07-04T09:17:11Z</time>
      </trkpt>
      <trkpt lat="47.37623" lon="-0.48319">
        <ele>44.8</ele>
        <time>2021-07-04T09:17:12Z</time>
      </trkpt>
      <trkpt lat="47.37626" lon="-0.48317">
        <ele>45</ele>
        <time>2021-07-04T09:17:13Z</time>
      </trkpt>
      <trkpt lat="47.37632" lon="-0.48313">
        <ele>45.8</ele>
        <time>2021-07-04T09:17:15Z</time>
      </trkpt>
      <trkpt lat="47.37635" lon="-0.48311">
        <ele>46</ele>
        <time>2021-07-04T09:17:16Z</time>
      </trkpt>
      <trkpt lat="47.37638" lon="-0.48309">
        <ele>46.4</ele>
        <time>2021-07-04T09:17:17Z</time>
      </trkpt>
      <trkpt lat="47.37645" lon="-0.48306">
        <ele>46.6</ele>
        <time>2021-07-04T09:17:19Z</time>
      </trkpt>
      <trkpt lat="47.37651" lon="-0.48301">
        <ele>47</ele>
        <time>2021-07-04T09:17:21Z</time>
      </trkpt>
      <trkpt lat="47.37658" lon="-0.48297">
        <ele>47.2</ele>
        <time>2021-07-04T09:17:23Z</time>
      </trkpt>
      <trkpt lat="47.37664" lon="-0.48293">
        <ele>47.2</ele>
        <time>2021-07-04T09:17:25Z</time>
      </trkpt>
      <trkpt lat="47.3767" lon="-0.48289">
        <ele>47.8</ele>
        <time>2021-07-04T09:17:27Z</time>
      </trkpt>
      <trkpt lat="47.37673" lon="-0.48287">
        <ele>48.2</ele>
        <time>2021-07-04T09:17:28Z</time>
      </trkpt>
      <trkpt lat="47.37676" lon="-0.48285">
        <ele>48.4</ele>
        <time>2021-07-04T09:17:29Z</time>
      </trkpt>
      <trkpt lat="47.37683" lon="-0.48282">
        <ele>48.6</ele>
        <time>2021-07-04T09:17:31Z</time>
      </trkpt>
      <trkpt lat="47.37686" lon="-0.48279">
        <ele>48.6</ele>
        <time>2021-07-04T09:17:32Z</time>
      </trkpt>
      <trkpt lat="47.37689" lon="-0.48277">
        <ele>48.8</ele>
        <time>2021-07-04T09:17:33Z</time>
      </trkpt>
      <trkpt lat="47.37695" lon="-0.48273">
        <ele>49.4</ele>
        <time>2021-07-04T09:17:35Z</time>
      </trkpt>
      <trkpt lat="47.37701" lon="-0.48269">
        <ele>49.8</ele>
        <time>2021-07-04T09:17:37Z</time>
      </trkpt>
      <trkpt lat="47.37707" lon="-0.48265">
        <ele>50.2</ele>
        <time>2021-07-04T09:17:39Z</time>
      </trkpt>
      <trkpt lat="47.37709" lon="-0.48263">
        <ele>50.4</ele>
        <time>2021-07-04T09:17:40Z</time>
      </trkpt>
      <trkpt lat="47.37712" lon="-0.48261">
        <ele>50.6</ele>
        <time>2021-07-04T09:17:41Z</time>
      </trkpt>
      <trkpt lat="47.37719" lon="-0.48258">
        <ele>51</ele>
        <time>2021-07-04T09:17:43Z</time>
      </trkpt>
      <trkpt lat="47.37725" lon="-0.48254">
        <ele>51.4</ele>
        <time>2021-07-04T09:17:45Z</time>
      </trkpt>
      <trkpt lat="47.37731" lon="-0.48249">
        <ele>52</ele>
        <time>2021-07-04T09:17:47Z</time>
      </trkpt>
      <trkpt lat="47.37737" lon="-0.48246">
        <ele>52.2</ele>
        <time>2021-07-04T09:17:49Z</time>
      </trkpt>
      <trkpt lat="47.37743" lon="-0.48242">
        <ele>52.6</ele>
        <time>2021-07-04T09:17:51Z</time>
      </trkpt>
      <trkpt lat="47.37749" lon="-0.48238">
        <ele>53.2</ele>
        <time>2021-07-04T09:17:53Z</time>
      </trkpt>
      <trkpt lat="47.37755" lon="-0.48234">
        <ele>53.6</ele>
        <time>2021-07-04T09:17:55Z</time>
      </trkpt>
      <trkpt lat="47.37761" lon="-0.48229">
        <ele>54</ele>
        <time>2021-07-04T09:17:57Z</time>
      </trkpt>
      <trkpt lat="47.37767" lon="-0.48225">
        <ele>54.4</ele>
        <time>2021-07-04T09:17:59Z</time>
      </trkpt>
      <trkpt lat="47.37774" lon="-0.48221">
        <ele>54.6</ele>
        <time>2021-07-04T09:18:01Z</time>
      </trkpt>
      <trkpt lat="47.3778" lon="-0.48217">
        <ele>54.8</ele>
        <time>2021-07-04T09:18:03Z</time>
      </trkpt>
      <trkpt lat="47.37787" lon="-0.48213">
        <ele>55.4</ele>
        <time>2021-07-04T09:18:05Z</time>
      </trkpt>
      <trkpt lat="47.37794" lon="-0.48208">
        <ele>55.6</ele>
        <time>2021-07-04T09:18:07Z</time>
      </trkpt>
      <trkpt lat="47.378" lon="-0.48204">
        <ele>56</ele>
        <time>2021-07-04T09:18:09Z</time>
      </trkpt>
      <trkpt lat="47.37806" lon="-0.48201">
        <ele>56.2</ele>
        <time>2021-07-04T09:18:11Z</time>
      </trkpt>
      <trkpt lat="47.37812" lon="-0.482">
        <ele>57</ele>
        <time>2021-07-04T09:18:13Z</time>
      </trkpt>
      <trkpt lat="47.37815" lon="-0.48202">
        <ele>57</ele>
        <time>2021-07-04T09:18:14Z</time>
      </trkpt>
      <trkpt lat="47.37818" lon="-0.48206">
        <ele>57</ele>
        <time>2021-07-04T09:18:15Z</time>
      </trkpt>
      <trkpt lat="47.37821" lon="-0.48215">
        <ele>57</ele>
        <time>2021-07-04T09:18:17Z</time>
      </trkpt>
      <trkpt lat="47.37823" lon="-0.48221">
        <ele>56.8</ele>
        <time>2021-07-04T09:18:18Z</time>
      </trkpt>
      <trkpt lat="47.37824" lon="-0.48227">
        <ele>56.4</ele>
        <time>2021-07-04T09:18:19Z</time>
      </trkpt>
      <trkpt lat="47.37825" lon="-0.48232">
        <ele>56.2</ele>
        <time>2021-07-04T09:18:20Z</time>
      </trkpt>
      <trkpt lat="47.37826" lon="-0.48238">
        <ele>56.4</ele>
        <time>2021-07-04T09:18:21Z</time>
      </trkpt>
      <trkpt lat="47.37829" lon="-0.48249">
        <ele>56.4</ele>
        <time>2021-07-04T09:18:23Z</time>
      </trkpt>
      <trkpt lat="47.37832" lon="-0.48257">
        <ele>56.4</ele>
        <time>2021-07-04T09:18:25Z</time>
      </trkpt>
      <trkpt lat="47.37836" lon="-0.48258">
        <ele>56.6</ele>
        <time>2021-07-04T09:18:26Z</time>
      </trkpt>
      <trkpt lat="47.3784" lon="-0.48258">
        <ele>56.8</ele>
        <time>2021-07-04T09:18:27Z</time>
      </trkpt>
      <trkpt lat="47.37843" lon="-0.48256">
        <ele>57.2</ele>
        <time>2021-07-04T09:18:28Z</time>
      </trkpt>
      <trkpt lat="47.37846" lon="-0.48254">
        <ele>57.2</ele>
        <time>2021-07-04T09:18:29Z</time>
      </trkpt>
      <trkpt lat="47.37849" lon="-0.48252">
        <ele>57.4</ele>
        <time>2021-07-04T09:18:30Z</time>
      </trkpt>
      <trkpt lat="47.37853" lon="-0.4825">
        <ele>57.6</ele>
        <time>2021-07-04T09:18:31Z</time>
      </trkpt>
      <trkpt lat="47.37859" lon="-0.48247">
        <ele>58</ele>
        <time>2021-07-04T09:18:33Z</time>
      </trkpt>
      <trkpt lat="47.37866" lon="-0.48244">
        <ele>58.4</ele>
        <time>2021-07-04T09:18:35Z</time>
      </trkpt>
      <trkpt lat="47.37873" lon="-0.48241">
        <ele>58.6</ele>
        <time>2021-07-04T09:18:37Z</time>
      </trkpt>
      <trkpt lat="47.3788" lon="-0.48238">
        <ele>59</ele>
        <time>2021-07-04T09:18:39Z</time>
      </trkpt>
      <trkpt lat="47.37883" lon="-0.48237">
        <ele>59.2</ele>
        <time>2021-07-04T09:18:40Z</time>
      </trkpt>
      <trkpt lat="47.37886" lon="-0.48235">
        <ele>59.4</ele>
        <time>2021-07-04T09:18:41Z</time>
      </trkpt>
      <trkpt lat="47.37889" lon="-0.48233">
        <ele>59.6</ele>
        <time>2021-07-04T09:18:42Z</time>
      </trkpt>
      <trkpt lat="47.37892" lon="-0.48232">
        <ele>59.8</ele>
        <time>2021-07-04T09:18:43Z</time>
      </trkpt>
      <trkpt lat="47.37899" lon="-0.48229">
        <ele>60.2</ele>
        <time>2021-07-04T09:18:45Z</time>
      </trkpt>
      <trkpt lat="47.37905" lon="-0.48225">
        <ele>60.4</ele>
        <time>2021-07-04T09:18:47Z</time>
      </trkpt>
      <trkpt lat="47.37911" lon="-0.48222">
        <ele>60.8</ele>
        <time>2021-07-04T09:18:49Z</time>
      </trkpt>
      <trkpt lat="47.37918" lon="-0.48219">
        <ele>61.2</ele>
        <time>2021-07-04T09:18:51Z</time>
      </trkpt>
      <trkpt lat="47.3792" lon="-0.48218">
        <ele>61.4</ele>
        <time>2021-07-04T09:18:52Z</time>
      </trkpt>
      <trkpt lat="47.37924" lon="-0.48217">
        <ele>61.4</ele>
        <time>2021-07-04T09:18:53Z</time>
      </trkpt>
      <trkpt lat="47.3793" lon="-0.48214">
        <ele>62</ele>
        <time>2021-07-04T09:18:55Z</time>
      </trkpt>
      <trkpt lat="47.37937" lon="-0.4821">
        <ele>62.2</ele>
        <time>2021-07-04T09:18:57Z</time>
      </trkpt>
      <trkpt lat="47.3794" lon="-0.48208">
        <ele>62.4</ele>
        <time>2021-07-04T09:18:58Z</time>
      </trkpt>
      <trkpt lat="47.37944" lon="-0.48207">
        <ele>62.4</ele>
        <time>2021-07-04T09:18:59Z</time>
      </trkpt>
      <trkpt lat="47.37951" lon="-0.48204">
        <ele>63</ele>
        <time>2021-07-04T09:19:01Z</time>
      </trkpt>
      <trkpt lat="47.37957" lon="-0.48201">
        <ele>63.4</ele>
        <time>2021-07-04T09:19:03Z</time>
      </trkpt>
      <trkpt lat="47.37963" lon="-0.48199">
        <ele>63.2</ele>
        <time>2021-07-04T09:19:05Z</time>
      </trkpt>
      <trkpt lat="47.3797" lon="-0.48196">
        <ele>63.4</ele>
        <time>2021-07-04T09:19:07Z</time>
      </trkpt>
      <trkpt lat="47.37977" lon="-0.48194">
        <ele>64</ele>
        <time>2021-07-04T09:19:09Z</time>
      </trkpt>
      <trkpt lat="47.37983" lon="-0.48196">
        <ele>64.4</ele>
        <time>2021-07-04T09:19:11Z</time>
      </trkpt>
      <trkpt lat="47.37987" lon="-0.48198">
        <ele>64.6</ele>
        <time>2021-07-04T09:19:12Z</time>
      </trkpt>
      <trkpt lat="47.37991" lon="-0.48201">
        <ele>64.8</ele>
        <time>2021-07-04T09:19:13Z</time>
      </trkpt>
      <trkpt lat="47.37994" lon="-0.48204">
        <ele>64.8</ele>
        <time>2021-07-04T09:19:14Z</time>
      </trkpt>
      <trkpt lat="47.37998" lon="-0.48208">
        <ele>65</ele>
        <time>2021-07-04T09:19:15Z</time>
      </trkpt>
      <trkpt lat="47.38005" lon="-0.48216">
        <ele>65</ele>
        <time>2021-07-04T09:19:17Z</time>
      </trkpt>
      <trkpt lat="47.38013" lon="-0.48224">
        <ele>64.6</ele>
        <time>2021-07-04T09:19:19Z</time>
      </trkpt>
      <trkpt lat="47.38022" lon="-0.48232">
        <ele>64.4</ele>
        <time>2021-07-04T09:19:21Z</time>
      </trkpt>
      <trkpt lat="47.3803" lon="-0.48239">
        <ele>64.4</ele>
        <time>2021-07-04T09:19:23Z</time>
      </trkpt>
      <trkpt lat="47.38039" lon="-0.48248">
        <ele>64.2</ele>
        <time>2021-07-04T09:19:25Z</time>
      </trkpt>
      <trkpt lat="47.38044" lon="-0.48252">
        <ele>64.4</ele>
        <time>2021-07-04T09:19:26Z</time>
      </trkpt>
      <trkpt lat="47.38049" lon="-0.48255">
        <ele>64</ele>
        <time>2021-07-04T09:19:27Z</time>
      </trkpt>
      <trkpt lat="47.38057" lon="-0.48265">
        <ele>63.6</ele>
        <time>2021-07-04T09:19:29Z</time>
      </trkpt>
      <trkpt lat="47.38065" lon="-0.48275">
        <ele>64</ele>
        <time>2021-07-04T09:19:31Z</time>
      </trkpt>
      <trkpt lat="47.38068" lon="-0.48282">
        <ele>63.4</ele>
        <time>2021-07-04T09:19:32Z</time>
      </trkpt>
      <trkpt lat="47.38072" lon="-0.48288">
        <ele>63</ele>
        <time>2021-07-04T09:19:33Z</time>
      </trkpt>
      <trkpt lat="47.38075" lon="-0.48294">
        <ele>62.4</ele>
        <time>2021-07-04T09:19:34Z</time>
      </trkpt>
      <trkpt lat="47.38079" lon="-0.48301">
        <ele>62.2</ele>
        <time>2021-07-04T09:19:35Z</time>
      </trkpt>
      <trkpt lat="47.38086" lon="-0.48314">
        <ele>61.4</ele>
        <time>2021-07-04T09:19:37Z</time>
      </trkpt>
      <trkpt lat="47.38093" lon="-0.48327">
        <ele>61.2</ele>
        <time>2021-07-04T09:19:39Z</time>
      </trkpt>
      <trkpt lat="47.38098" lon="-0.4834">
        <ele>61.6</ele>
        <time>2021-07-04T09:19:41Z</time>
      </trkpt>
      <trkpt lat="47.38104" lon="-0.48353">
        <ele>61</ele>
        <time>2021-07-04T09:19:43Z</time>
      </trkpt>
      <trkpt lat="47.38107" lon="-0.48361">
        <ele>60.8</ele>
        <time>2021-07-04T09:19:44Z</time>
      </trkpt>
      <trkpt lat="47.3811" lon="-0.48368">
        <ele>60.2</ele>
        <time>2021-07-04T09:19:45Z</time>
      </trkpt>
      <trkpt lat="47.38113" lon="-0.48376">
        <ele>60</ele>
        <time>2021-07-04T09:19:46Z</time>
      </trkpt>
      <trkpt lat="47.38116" lon="-0.48383">
        <ele>59.4</ele>
        <time>2021-07-04T09:19:47Z</time>
      </trkpt>
      <trkpt lat="47.38123" lon="-0.48398">
        <ele>59.6</ele>
        <time>2021-07-04T09:19:49Z</time>
      </trkpt>
      <trkpt lat="47.38129" lon="-0.48412">
        <ele>60.4</ele>
        <time>2021-07-04T09:19:51Z</time>
      </trkpt>
      <trkpt lat="47.38134" lon="-0.48427">
        <ele>59.6</ele>
        <time>2021-07-04T09:19:53Z</time>
      </trkpt>
      <trkpt lat="47.38137" lon="-0.48433">
        <ele>59.2</ele>
        <time>2021-07-04T09:19:54Z</time>
      </trkpt>
      <trkpt lat="47.38139" lon="-0.4844">
        <ele>59.2</ele>
        <time>2021-07-04T09:19:55Z</time>
      </trkpt>
      <trkpt lat="47.38145" lon="-0.48455">
        <ele>59.2</ele>
        <time>2021-07-04T09:19:57Z</time>
      </trkpt>
      <trkpt lat="47.3815" lon="-0.48471">
        <ele>59.4</ele>
        <time>2021-07-04T09:19:59Z</time>
      </trkpt>
      <trkpt lat="47.38154" lon="-0.48486">
        <ele>58.4</ele>
        <time>2021-07-04T09:20:01Z</time>
      </trkpt>
      <trkpt lat="47.38158" lon="-0.485">
        <ele>58</ele>
        <time>2021-07-04T09:20:03Z</time>
      </trkpt>
      <trkpt lat="47.38162" lon="-0.48515">
        <ele>58</ele>
        <time>2021-07-04T09:20:05Z</time>
      </trkpt>
      <trkpt lat="47.38165" lon="-0.48529">
        <ele>57.8</ele>
        <time>2021-07-04T09:20:07Z</time>
      </trkpt>
      <trkpt lat="47.38167" lon="-0.48537">
        <ele>57.6</ele>
        <time>2021-07-04T09:20:08Z</time>
      </trkpt>
      <trkpt lat="47.38168" lon="-0.48544">
        <ele>57.4</ele>
        <time>2021-07-04T09:20:09Z</time>
      </trkpt>
      <trkpt lat="47.38171" lon="-0.48558">
        <ele>57.8</ele>
        <time>2021-07-04T09:20:11Z</time>
      </trkpt>
      <trkpt lat="47.38173" lon="-0.48572">
        <ele>57.8</ele>
        <time>2021-07-04T09:20:13Z</time>
      </trkpt>
      <trkpt lat="47.38175" lon="-0.48579">
        <ele>57.4</ele>
        <time>2021-07-04T09:20:14Z</time>
      </trkpt>
      <trkpt lat="47.38177" lon="-0.48586">
        <ele>57</ele>
        <time>2021-07-04T09:20:15Z</time>
      </trkpt>
      <trkpt lat="47.38179" lon="-0.48599">
        <ele>56.4</ele>
        <time>2021-07-04T09:20:17Z</time>
      </trkpt>
      <trkpt lat="47.38184" lon="-0.48607">
        <ele>56.4</ele>
        <time>2021-07-04T09:20:19Z</time>
      </trkpt>
      <trkpt lat="47.38187" lon="-0.4861">
        <ele>56.8</ele>
        <time>2021-07-04T09:20:20Z</time>
      </trkpt>
      <trkpt lat="47.38191" lon="-0.48611">
        <ele>57</ele>
        <time>2021-07-04T09:20:21Z</time>
      </trkpt>
      <trkpt lat="47.38195" lon="-0.48612">
        <ele>57.2</ele>
        <time>2021-07-04T09:20:22Z</time>
      </trkpt>
      <trkpt lat="47.382" lon="-0.48615">
        <ele>57.2</ele>
        <time>2021-07-04T09:20:23Z</time>
      </trkpt>
      <trkpt lat="47.38204" lon="-0.48617">
        <ele>57.2</ele>
        <time>2021-07-04T09:20:24Z</time>
      </trkpt>
      <trkpt lat="47.38209" lon="-0.48619">
        <ele>57.4</ele>
        <time>2021-07-04T09:20:25Z</time>
      </trkpt>
      <trkpt lat="47.38218" lon="-0.48625">
        <ele>57.6</ele>
        <time>2021-07-04T09:20:27Z</time>
      </trkpt>
      <trkpt lat="47.38227" lon="-0.4863">
        <ele>57.6</ele>
        <time>2021-07-04T09:20:29Z</time>
      </trkpt>
      <trkpt lat="47.38232" lon="-0.48632">
        <ele>57.8</ele>
        <time>2021-07-04T09:20:30Z</time>
      </trkpt>
      <trkpt lat="47.38237" lon="-0.48634">
        <ele>58</ele>
        <time>2021-07-04T09:20:31Z</time>
      </trkpt>
      <trkpt lat="47.38248" lon="-0.48638">
        <ele>59</ele>
        <time>2021-07-04T09:20:33Z</time>
      </trkpt>
      <trkpt lat="47.38259" lon="-0.48639">
        <ele>60</ele>
        <time>2021-07-04T09:20:35Z</time>
      </trkpt>
      <trkpt lat="47.38265" lon="-0.48638">
        <ele>60.2</ele>
        <time>2021-07-04T09:20:36Z</time>
      </trkpt>
      <trkpt lat="47.38271" lon="-0.48638">
        <ele>60.6</ele>
        <time>2021-07-04T09:20:37Z</time>
      </trkpt>
      <trkpt lat="47.38282" lon="-0.48637">
        <ele>60.8</ele>
        <time>2021-07-04T09:20:39Z</time>
      </trkpt>
      <trkpt lat="47.38293" lon="-0.48634">
        <ele>60.6</ele>
        <time>2021-07-04T09:20:41Z</time>
      </trkpt>
      <trkpt lat="47.38303" lon="-0.48628">
        <ele>61</ele>
        <time>2021-07-04T09:20:43Z</time>
      </trkpt>
      <trkpt lat="47.38314" lon="-0.48622">
        <ele>60.6</ele>
        <time>2021-07-04T09:20:45Z</time>
      </trkpt>
      <trkpt lat="47.38319" lon="-0.48617">
        <ele>60.4</ele>
        <time>2021-07-04T09:20:46Z</time>
      </trkpt>
      <trkpt lat="47.38323" lon="-0.48612">
        <ele>60</ele>
        <time>2021-07-04T09:20:47Z</time>
      </trkpt>
      <trkpt lat="47.38327" lon="-0.48606">
        <ele>59.8</ele>
        <time>2021-07-04T09:20:48Z</time>
      </trkpt>
      <trkpt lat="47.38331" lon="-0.48601">
        <ele>59.2</ele>
        <time>2021-07-04T09:20:49Z</time>
      </trkpt>
      <trkpt lat="47.38335" lon="-0.48594">
        <ele>58.6</ele>
        <time>2021-07-04T09:20:50Z</time>
      </trkpt>
      <trkpt lat="47.38339" lon="-0.48587">
        <ele>58.4</ele>
        <time>2021-07-04T09:20:51Z</time>
      </trkpt>
      <trkpt lat="47.38346" lon="-0.48572">
        <ele>58.2</ele>
        <time>2021-07-04T09:20:53Z</time>
      </trkpt>
      <trkpt lat="47.3835" lon="-0.48565">
        <ele>58</ele>
        <time>2021-07-04T09:20:54Z</time>
      </trkpt>
      <trkpt lat="47.38355" lon="-0.48558">
        <ele>57.8</ele>
        <time>2021-07-04T09:20:55Z</time>
      </trkpt>
      <trkpt lat="47.38363" lon="-0.48543">
        <ele>58</ele>
        <time>2021-07-04T09:20:57Z</time>
      </trkpt>
      <trkpt lat="47.38373" lon="-0.48528">
        <ele>58</ele>
        <time>2021-07-04T09:20:59Z</time>
      </trkpt>
      <trkpt lat="47.38382" lon="-0.48515">
        <ele>57.6</ele>
        <time>2021-07-04T09:21:01Z</time>
      </trkpt>
      <trkpt lat="47.38391" lon="-0.48503">
        <ele>57.2</ele>
        <time>2021-07-04T09:21:03Z</time>
      </trkpt>
      <trkpt lat="47.38402" lon="-0.48494">
        <ele>57.6</ele>
        <time>2021-07-04T09:21:05Z</time>
      </trkpt>
      <trkpt lat="47.38414" lon="-0.48487">
        <ele>57.6</ele>
        <time>2021-07-04T09:21:07Z</time>
      </trkpt>
      <trkpt lat="47.38426" lon="-0.48483">
        <ele>57.4</ele>
        <time>2021-07-04T09:21:09Z</time>
      </trkpt>
      <trkpt lat="47.38431" lon="-0.48486">
        <ele>57.6</ele>
        <time>2021-07-04T09:21:10Z</time>
      </trkpt>
      <trkpt lat="47.38435" lon="-0.48491">
        <ele>57.8</ele>
        <time>2021-07-04T09:21:11Z</time>
      </trkpt>
      <trkpt lat="47.38438" lon="-0.48498">
        <ele>58</ele>
        <time>2021-07-04T09:21:12Z</time>
      </trkpt>
      <trkpt lat="47.38441" lon="-0.48504">
        <ele>58.2</ele>
        <time>2021-07-04T09:21:13Z</time>
      </trkpt>
      <trkpt lat="47.38443" lon="-0.48513">
        <ele>58.2</ele>
        <time>2021-07-04T09:21:14Z</time>
      </trkpt>
      <trkpt lat="47.38445" lon="-0.4852">
        <ele>58</ele>
        <time>2021-07-04T09:21:15Z</time>
      </trkpt>
      <trkpt lat="47.38449" lon="-0.48527">
        <ele>57.6</ele>
        <time>2021-07-04T09:21:16Z</time>
      </trkpt>
      <trkpt lat="47.38455" lon="-0.48531">
        <ele>57.2</ele>
        <time>2021-07-04T09:21:17Z</time>
      </trkpt>
      <trkpt lat="47.38461" lon="-0.48532">
        <ele>56.8</ele>
        <time>2021-07-04T09:21:18Z</time>
      </trkpt>
      <trkpt lat="47.38467" lon="-0.48533">
        <ele>56.8</ele>
        <time>2021-07-04T09:21:19Z</time>
      </trkpt>
      <trkpt lat="47.38479" lon="-0.48539">
        <ele>56.4</ele>
        <time>2021-07-04T09:21:21Z</time>
      </trkpt>
      <trkpt lat="47.38485" lon="-0.48544">
        <ele>56</ele>
        <time>2021-07-04T09:21:22Z</time>
      </trkpt>
      <trkpt lat="47.38489" lon="-0.48552">
        <ele>55.6</ele>
        <time>2021-07-04T09:21:23Z</time>
      </trkpt>
      <trkpt lat="47.38497" lon="-0.48568">
        <ele>54.6</ele>
        <time>2021-07-04T09:21:25Z</time>
      </trkpt>
      <trkpt lat="47.38501" lon="-0.48577">
        <ele>54.2</ele>
        <time>2021-07-04T09:21:26Z</time>
      </trkpt>
      <trkpt lat="47.38505" lon="-0.48586">
        <ele>54</ele>
        <time>2021-07-04T09:21:27Z</time>
      </trkpt>
      <trkpt lat="47.38512" lon="-0.48605">
        <ele>53.2</ele>
        <time>2021-07-04T09:21:29Z</time>
      </trkpt>
      <trkpt lat="47.38515" lon="-0.48614">
        <ele>52.6</ele>
        <time>2021-07-04T09:21:30Z</time>
      </trkpt>
      <trkpt lat="47.38519" lon="-0.48621">
        <ele>52.2</ele>
        <time>2021-07-04T09:21:31Z</time>
      </trkpt>
      <trkpt lat="47.38529" lon="-0.48625">
        <ele>52.4</ele>
        <time>2021-07-04T09:21:33Z</time>
      </trkpt>
      <trkpt lat="47.3854" lon="-0.48617">
        <ele>52.6</ele>
        <time>2021-07-04T09:21:35Z</time>
      </trkpt>
      <trkpt lat="47.38546" lon="-0.4861">
        <ele>52.8</ele>
        <time>2021-07-04T09:21:36Z</time>
      </trkpt>
      <trkpt lat="47.38551" lon="-0.48605">
        <ele>53.4</ele>
        <time>2021-07-04T09:21:37Z</time>
      </trkpt>
      <trkpt lat="47.38557" lon="-0.48597">
        <ele>53.8</ele>
        <time>2021-07-04T09:21:39Z</time>
      </trkpt>
      <trkpt lat="47.3856" lon="-0.48592">
        <ele>54.2</ele>
        <time>2021-07-04T09:21:40Z</time>
      </trkpt>
      <trkpt lat="47.38563" lon="-0.48589">
        <ele>54.2</ele>
        <time>2021-07-04T09:21:41Z</time>
      </trkpt>
      <trkpt lat="47.38561" lon="-0.48589">
        <ele>54.2</ele>
        <time>2021-07-04T09:21:42Z</time>
      </trkpt>
      <trkpt lat="47.38561" lon="-0.48591">
        <ele>54.6</ele>
        <time>2021-07-04T09:26:19Z</time>
      </trkpt>
      <trkpt lat="47.38563" lon="-0.48591">
        <ele>54</ele>
        <time>2021-07-04T09:26:20Z</time>
      </trkpt>
      <trkpt lat="47.38566" lon="-0.48589">
        <ele>54</ele>
        <time>2021-07-04T09:26:22Z</time>
      </trkpt>
      <trkpt lat="47.38569" lon="-0.48587">
        <ele>54.4</ele>
        <time>2021-07-04T09:26:24Z</time>
      </trkpt>
      <trkpt lat="47.38573" lon="-0.48583">
        <ele>54.2</ele>
        <time>2021-07-04T09:26:26Z</time>
      </trkpt>
      <trkpt lat="47.38579" lon="-0.48579">
        <ele>54</ele>
        <time>2021-07-04T09:26:28Z</time>
      </trkpt>
      <trkpt lat="47.38582" lon="-0.48577">
        <ele>54.2</ele>
        <time>2021-07-04T09:26:29Z</time>
      </trkpt>
      <trkpt lat="47.38585" lon="-0.48575">
        <ele>54.6</ele>
        <time>2021-07-04T09:26:30Z</time>
      </trkpt>
      <trkpt lat="47.38593" lon="-0.48571">
        <ele>54.8</ele>
        <time>2021-07-04T09:26:32Z</time>
      </trkpt>
      <trkpt lat="47.386" lon="-0.48565">
        <ele>55.2</ele>
        <time>2021-07-04T09:26:34Z</time>
      </trkpt>
      <trkpt lat="47.38608" lon="-0.4856">
        <ele>55.6</ele>
        <time>2021-07-04T09:26:36Z</time>
      </trkpt>
      <trkpt lat="47.38617" lon="-0.48554">
        <ele>56</ele>
        <time>2021-07-04T09:26:38Z</time>
      </trkpt>
      <trkpt lat="47.38625" lon="-0.48547">
        <ele>56.2</ele>
        <time>2021-07-04T09:26:40Z</time>
      </trkpt>
      <trkpt lat="47.38629" lon="-0.48542">
        <ele>56.4</ele>
        <time>2021-07-04T09:26:41Z</time>
      </trkpt>
      <trkpt lat="47.38632" lon="-0.48536">
        <ele>53.4</ele>
        <time>2021-07-04T09:26:42Z</time>
      </trkpt>
      <trkpt lat="47.38633" lon="-0.48531">
        <ele>55.4</ele>
        <time>2021-07-04T09:26:43Z</time>
      </trkpt>
      <trkpt lat="47.38634" lon="-0.48525">
        <ele>56</ele>
        <time>2021-07-04T09:26:44Z</time>
      </trkpt>
      <trkpt lat="47.38633" lon="-0.4852">
        <ele>59.4</ele>
        <time>2021-07-04T09:26:45Z</time>
      </trkpt>
      <trkpt lat="47.38633" lon="-0.48515">
        <ele>57.6</ele>
        <time>2021-07-04T09:26:46Z</time>
      </trkpt>
      <trkpt lat="47.38632" lon="-0.4851">
        <ele>57</ele>
        <time>2021-07-04T09:26:47Z</time>
      </trkpt>
      <trkpt lat="47.38633" lon="-0.48506">
        <ele>57</ele>
        <time>2021-07-04T09:26:48Z</time>
      </trkpt>
      <trkpt lat="47.38635" lon="-0.48499">
        <ele>57.4</ele>
        <time>2021-07-04T09:26:50Z</time>
      </trkpt>
      <trkpt lat="47.38637" lon="-0.48496">
        <ele>57.6</ele>
        <time>2021-07-04T09:26:51Z</time>
      </trkpt>
      <trkpt lat="47.38639" lon="-0.48492">
        <ele>57.6</ele>
        <time>2021-07-04T09:26:52Z</time>
      </trkpt>
      <trkpt lat="47.38645" lon="-0.48485">
        <ele>57.4</ele>
        <time>2021-07-04T09:26:54Z</time>
      </trkpt>
      <trkpt lat="47.38649" lon="-0.48481">
        <ele>57.2</ele>
        <time>2021-07-04T09:26:55Z</time>
      </trkpt>
      <trkpt lat="47.38653" lon="-0.48478">
        <ele>57.2</ele>
        <time>2021-07-04T09:26:56Z</time>
      </trkpt>
      <trkpt lat="47.38658" lon="-0.48474">
        <ele>57</ele>
        <time>2021-07-04T09:26:57Z</time>
      </trkpt>
      <trkpt lat="47.38662" lon="-0.48471">
        <ele>57</ele>
        <time>2021-07-04T09:26:58Z</time>
      </trkpt>
      <trkpt lat="47.38672" lon="-0.48463">
        <ele>56.8</ele>
        <time>2021-07-04T09:27:00Z</time>
      </trkpt>
      <trkpt lat="47.38677" lon="-0.4846">
        <ele>56.6</ele>
        <time>2021-07-04T09:27:01Z</time>
      </trkpt>
      <trkpt lat="47.38682" lon="-0.48456">
        <ele>56.4</ele>
        <time>2021-07-04T09:27:02Z</time>
      </trkpt>
      <trkpt lat="47.38693" lon="-0.48449">
        <ele>55.6</ele>
        <time>2021-07-04T09:27:04Z</time>
      </trkpt>
      <trkpt lat="47.38699" lon="-0.48445">
        <ele>55.4</ele>
        <time>2021-07-04T09:27:05Z</time>
      </trkpt>
      <trkpt lat="47.38705" lon="-0.48441">
        <ele>55</ele>
        <time>2021-07-04T09:27:06Z</time>
      </trkpt>
      <trkpt lat="47.38717" lon="-0.48433">
        <ele>54.6</ele>
        <time>2021-07-04T09:27:08Z</time>
      </trkpt>
      <trkpt lat="47.38723" lon="-0.48427">
        <ele>54.4</ele>
        <time>2021-07-04T09:27:09Z</time>
      </trkpt>
      <trkpt lat="47.38728" lon="-0.48419">
        <ele>54.2</ele>
        <time>2021-07-04T09:27:10Z</time>
      </trkpt>
      <trkpt lat="47.38737" lon="-0.484">
        <ele>53.6</ele>
        <time>2021-07-04T09:27:12Z</time>
      </trkpt>
      <trkpt lat="47.38741" lon="-0.4839">
        <ele>52.8</ele>
        <time>2021-07-04T09:27:13Z</time>
      </trkpt>
      <trkpt lat="47.38746" lon="-0.4838">
        <ele>52</ele>
        <time>2021-07-04T09:27:14Z</time>
      </trkpt>
      <trkpt lat="47.38751" lon="-0.4837">
        <ele>51.2</ele>
        <time>2021-07-04T09:27:15Z</time>
      </trkpt>
      <trkpt lat="47.38756" lon="-0.4836">
        <ele>50.8</ele>
        <time>2021-07-04T09:27:16Z</time>
      </trkpt>
      <trkpt lat="47.38767" lon="-0.4834">
        <ele>50.4</ele>
        <time>2021-07-04T09:27:18Z</time>
      </trkpt>
      <trkpt lat="47.38777" lon="-0.48319">
        <ele>49.8</ele>
        <time>2021-07-04T09:27:20Z</time>
      </trkpt>
      <trkpt lat="47.38786" lon="-0.48296">
        <ele>49</ele>
        <time>2021-07-04T09:27:22Z</time>
      </trkpt>
      <trkpt lat="47.3879" lon="-0.48285">
        <ele>48</ele>
        <time>2021-07-04T09:27:23Z</time>
      </trkpt>
      <trkpt lat="47.38794" lon="-0.48274">
        <ele>47</ele>
        <time>2021-07-04T09:27:24Z</time>
      </trkpt>
      <trkpt lat="47.38802" lon="-0.48252">
        <ele>46.6</ele>
        <time>2021-07-04T09:27:26Z</time>
      </trkpt>
      <trkpt lat="47.38812" lon="-0.48234">
        <ele>46.8</ele>
        <time>2021-07-04T09:27:28Z</time>
      </trkpt>
      <trkpt lat="47.38817" lon="-0.48228">
        <ele>47</ele>
        <time>2021-07-04T09:27:29Z</time>
      </trkpt>
      <trkpt lat="47.38821" lon="-0.48224">
        <ele>47.2</ele>
        <time>2021-07-04T09:27:30Z</time>
      </trkpt>
      <trkpt lat="47.38821" lon="-0.4821">
        <ele>47.4</ele>
        <time>2021-07-04T09:27:32Z</time>
      </trkpt>
      <trkpt lat="47.38816" lon="-0.48197">
        <ele>47</ele>
        <time>2021-07-04T09:27:34Z</time>
      </trkpt>
      <trkpt lat="47.38813" lon="-0.48191">
        <ele>46.6</ele>
        <time>2021-07-04T09:27:35Z</time>
      </trkpt>
      <trkpt lat="47.3881" lon="-0.48184">
        <ele>46.4</ele>
        <time>2021-07-04T09:27:36Z</time>
      </trkpt>
      <trkpt lat="47.38803" lon="-0.48172">
        <ele>46.6</ele>
        <time>2021-07-04T09:27:38Z</time>
      </trkpt>
      <trkpt lat="47.38795" lon="-0.48159">
        <ele>46.2</ele>
        <time>2021-07-04T09:27:40Z</time>
      </trkpt>
      <trkpt lat="47.38791" lon="-0.48152">
        <ele>45.8</ele>
        <time>2021-07-04T09:27:41Z</time>
      </trkpt>
      <trkpt lat="47.38787" lon="-0.48145">
        <ele>45.6</ele>
        <time>2021-07-04T09:27:42Z</time>
      </trkpt>
      <trkpt lat="47.38779" lon="-0.48132">
        <ele>45.4</ele>
        <time>2021-07-04T09:27:44Z</time>
      </trkpt>
      <trkpt lat="47.38772" lon="-0.48118">
        <ele>45.4</ele>
        <time>2021-07-04T09:27:46Z</time>
      </trkpt>
      <trkpt lat="47.38764" lon="-0.48104">
        <ele>45.6</ele>
        <time>2021-07-04T09:27:48Z</time>
      </trkpt>
      <trkpt lat="47.38755" lon="-0.48092">
        <ele>46.2</ele>
        <time>2021-07-04T09:27:50Z</time>
      </trkpt>
      <trkpt lat="47.38747" lon="-0.48079">
        <ele>46.8</ele>
        <time>2021-07-04T09:27:52Z</time>
      </trkpt>
      <trkpt lat="47.38739" lon="-0.48065">
        <ele>46.2</ele>
        <time>2021-07-04T09:27:54Z</time>
      </trkpt>
      <trkpt lat="47.38731" lon="-0.48051">
        <ele>45.2</ele>
        <time>2021-07-04T09:27:56Z</time>
      </trkpt>
      <trkpt lat="47.38723" lon="-0.48039">
        <ele>45</ele>
        <time>2021-07-04T09:27:58Z</time>
      </trkpt>
      <trkpt lat="47.38715" lon="-0.48026">
        <ele>46</ele>
        <time>2021-07-04T09:28:00Z</time>
      </trkpt>
      <trkpt lat="47.38708" lon="-0.48013">
        <ele>45.6</ele>
        <time>2021-07-04T09:28:02Z</time>
      </trkpt>
      <trkpt lat="47.387" lon="-0.48">
        <ele>45.8</ele>
        <time>2021-07-04T09:28:04Z</time>
      </trkpt>
      <trkpt lat="47.38692" lon="-0.47987">
        <ele>45.2</ele>
        <time>2021-07-04T09:28:06Z</time>
      </trkpt>
      <trkpt lat="47.38683" lon="-0.47973">
        <ele>45.6</ele>
        <time>2021-07-04T09:28:08Z</time>
      </trkpt>
      <trkpt lat="47.38676" lon="-0.4796">
        <ele>45.8</ele>
        <time>2021-07-04T09:28:10Z</time>
      </trkpt>
      <trkpt lat="47.38668" lon="-0.47946">
        <ele>46.2</ele>
        <time>2021-07-04T09:28:12Z</time>
      </trkpt>
      <trkpt lat="47.3866" lon="-0.47932">
        <ele>46.4</ele>
        <time>2021-07-04T09:28:14Z</time>
      </trkpt>
      <trkpt lat="47.38656" lon="-0.47925">
        <ele>46</ele>
        <time>2021-07-04T09:28:15Z</time>
      </trkpt>
      <trkpt lat="47.38653" lon="-0.47918">
        <ele>45.4</ele>
        <time>2021-07-04T09:28:16Z</time>
      </trkpt>
      <trkpt lat="47.38645" lon="-0.47904">
        <ele>45.2</ele>
        <time>2021-07-04T09:28:18Z</time>
      </trkpt>
      <trkpt lat="47.38637" lon="-0.47889">
        <ele>45.8</ele>
        <time>2021-07-04T09:28:20Z</time>
      </trkpt>
      <trkpt lat="47.38629" lon="-0.47875">
        <ele>46.4</ele>
        <time>2021-07-04T09:28:22Z</time>
      </trkpt>
      <trkpt lat="47.38622" lon="-0.47861">
        <ele>46.8</ele>
        <time>2021-07-04T09:28:24Z</time>
      </trkpt>
      <trkpt lat="47.38618" lon="-0.47853">
        <ele>45.8</ele>
        <time>2021-07-04T09:28:25Z</time>
      </trkpt>
      <trkpt lat="47.38615" lon="-0.47846">
        <ele>45.4</ele>
        <time>2021-07-04T09:28:26Z</time>
      </trkpt>
      <trkpt lat="47.38608" lon="-0.47833">
        <ele>45.6</ele>
        <time>2021-07-04T09:28:28Z</time>
      </trkpt>
      <trkpt lat="47.38602" lon="-0.4782">
        <ele>46.4</ele>
        <time>2021-07-04T09:28:30Z</time>
      </trkpt>
      <trkpt lat="47.38599" lon="-0.47814">
        <ele>46.6</ele>
        <time>2021-07-04T09:28:31Z</time>
      </trkpt>
      <trkpt lat="47.38596" lon="-0.47809">
        <ele>47.2</ele>
        <time>2021-07-04T09:28:32Z</time>
      </trkpt>
      <trkpt lat="47.38593" lon="-0.478">
        <ele>48</ele>
        <time>2021-07-04T09:28:34Z</time>
      </trkpt>
      <trkpt lat="47.38588" lon="-0.4779">
        <ele>48</ele>
        <time>2021-07-04T09:28:36Z</time>
      </trkpt>
      <trkpt lat="47.38583" lon="-0.47779">
        <ele>48</ele>
        <time>2021-07-04T09:28:38Z</time>
      </trkpt>
      <trkpt lat="47.38581" lon="-0.47773">
        <ele>48.2</ele>
        <time>2021-07-04T09:28:39Z</time>
      </trkpt>
      <trkpt lat="47.38579" lon="-0.47767">
        <ele>48.4</ele>
        <time>2021-07-04T09:28:40Z</time>
      </trkpt>
      <trkpt lat="47.38576" lon="-0.47761">
        <ele>48.2</ele>
        <time>2021-07-04T09:28:41Z</time>
      </trkpt>
      <trkpt lat="47.38573" lon="-0.47754">
        <ele>48</ele>
        <time>2021-07-04T09:28:42Z</time>
      </trkpt>
      <trkpt lat="47.38566" lon="-0.4774">
        <ele>47.8</ele>
        <time>2021-07-04T09:28:44Z</time>
      </trkpt>
      <trkpt lat="47.38561" lon="-0.47726">
        <ele>47.6</ele>
        <time>2021-07-04T09:28:46Z</time>
      </trkpt>
      <trkpt lat="47.38554" lon="-0.47712">
        <ele>47.8</ele>
        <time>2021-07-04T09:28:48Z</time>
      </trkpt>
      <trkpt lat="47.38547" lon="-0.47698">
        <ele>47.8</ele>
        <time>2021-07-04T09:28:50Z</time>
      </trkpt>
      <trkpt lat="47.38542" lon="-0.47682">
        <ele>48</ele>
        <time>2021-07-04T09:28:52Z</time>
      </trkpt>
      <trkpt lat="47.38536" lon="-0.47667">
        <ele>48</ele>
        <time>2021-07-04T09:28:54Z</time>
      </trkpt>
      <trkpt lat="47.3853" lon="-0.4765">
        <ele>47.8</ele>
        <time>2021-07-04T09:28:56Z</time>
      </trkpt>
      <trkpt lat="47.38525" lon="-0.47634">
        <ele>47.8</ele>
        <time>2021-07-04T09:28:58Z</time>
      </trkpt>
      <trkpt lat="47.38519" lon="-0.47618">
        <ele>47.8</ele>
        <time>2021-07-04T09:29:00Z</time>
      </trkpt>
      <trkpt lat="47.38513" lon="-0.47602">
        <ele>48</ele>
        <time>2021-07-04T09:29:02Z</time>
      </trkpt>
      <trkpt lat="47.38507" lon="-0.47586">
        <ele>48.4</ele>
        <time>2021-07-04T09:29:04Z</time>
      </trkpt>
      <trkpt lat="47.38504" lon="-0.47578">
        <ele>48.4</ele>
        <time>2021-07-04T09:29:05Z</time>
      </trkpt>
      <trkpt lat="47.38501" lon="-0.47569">
        <ele>48.4</ele>
        <time>2021-07-04T09:29:06Z</time>
      </trkpt>
      <trkpt lat="47.38495" lon="-0.47554">
        <ele>48.2</ele>
        <time>2021-07-04T09:29:08Z</time>
      </trkpt>
      <trkpt lat="47.38488" lon="-0.47538">
        <ele>47.8</ele>
        <time>2021-07-04T09:29:10Z</time>
      </trkpt>
      <trkpt lat="47.38482" lon="-0.47522">
        <ele>48.4</ele>
        <time>2021-07-04T09:29:12Z</time>
      </trkpt>
      <trkpt lat="47.38476" lon="-0.47507">
        <ele>48.8</ele>
        <time>2021-07-04T09:29:14Z</time>
      </trkpt>
      <trkpt lat="47.3847" lon="-0.47491">
        <ele>48.8</ele>
        <time>2021-07-04T09:29:16Z</time>
      </trkpt>
      <trkpt lat="47.38464" lon="-0.47476">
        <ele>48.8</ele>
        <time>2021-07-04T09:29:18Z</time>
      </trkpt>
      <trkpt lat="47.38458" lon="-0.47461">
        <ele>49</ele>
        <time>2021-07-04T09:29:20Z</time>
      </trkpt>
      <trkpt lat="47.38452" lon="-0.47446">
        <ele>48.6</ele>
        <time>2021-07-04T09:29:22Z</time>
      </trkpt>
      <trkpt lat="47.38448" lon="-0.47439">
        <ele>48.4</ele>
        <time>2021-07-04T09:29:23Z</time>
      </trkpt>
      <trkpt lat="47.38445" lon="-0.47431">
        <ele>48.4</ele>
        <time>2021-07-04T09:29:24Z</time>
      </trkpt>
      <trkpt lat="47.38439" lon="-0.47418">
        <ele>48.2</ele>
        <time>2021-07-04T09:29:26Z</time>
      </trkpt>
      <trkpt lat="47.38433" lon="-0.47404">
        <ele>48.4</ele>
        <time>2021-07-04T09:29:28Z</time>
      </trkpt>
      <trkpt lat="47.38426" lon="-0.4739">
        <ele>48.4</ele>
        <time>2021-07-04T09:29:30Z</time>
      </trkpt>
      <trkpt lat="47.38423" lon="-0.47383">
        <ele>48.4</ele>
        <time>2021-07-04T09:29:31Z</time>
      </trkpt>
      <trkpt lat="47.38419" lon="-0.47376">
        <ele>48.2</ele>
        <time>2021-07-04T09:29:32Z</time>
      </trkpt>
      <trkpt lat="47.38412" lon="-0.47362">
        <ele>48</ele>
        <time>2021-07-04T09:29:34Z</time>
      </trkpt>
      <trkpt lat="47.38405" lon="-0.47348">
        <ele>48.6</ele>
        <time>2021-07-04T09:29:36Z</time>
      </trkpt>
      <trkpt lat="47.38398" lon="-0.47333">
        <ele>49</ele>
        <time>2021-07-04T09:29:38Z</time>
      </trkpt>
      <trkpt lat="47.38394" lon="-0.47327">
        <ele>49.2</ele>
        <time>2021-07-04T09:29:39Z</time>
      </trkpt>
      <trkpt lat="47.38391" lon="-0.47321">
        <ele>49</ele>
        <time>2021-07-04T09:29:40Z</time>
      </trkpt>
      <trkpt lat="47.38384" lon="-0.47309">
        <ele>49</ele>
        <time>2021-07-04T09:29:42Z</time>
      </trkpt>
      <trkpt lat="47.38377" lon="-0.47298">
        <ele>49</ele>
        <time>2021-07-04T09:29:44Z</time>
      </trkpt>
      <trkpt lat="47.3837" lon="-0.47285">
        <ele>49.4</ele>
        <time>2021-07-04T09:29:46Z</time>
      </trkpt>
      <trkpt lat="47.38363" lon="-0.47271">
        <ele>49.6</ele>
        <time>2021-07-04T09:29:48Z</time>
      </trkpt>
      <trkpt lat="47.38356" lon="-0.47259">
        <ele>49.4</ele>
        <time>2021-07-04T09:29:50Z</time>
      </trkpt>
      <trkpt lat="47.38349" lon="-0.47245">
        <ele>49.4</ele>
        <time>2021-07-04T09:29:52Z</time>
      </trkpt>
      <trkpt lat="47.38342" lon="-0.47231">
        <ele>49.2</ele>
        <time>2021-07-04T09:29:54Z</time>
      </trkpt>
      <trkpt lat="47.38339" lon="-0.47225">
        <ele>49.2</ele>
        <time>2021-07-04T09:29:55Z</time>
      </trkpt>
      <trkpt lat="47.38334" lon="-0.47219">
        <ele>49.2</ele>
        <time>2021-07-04T09:29:56Z</time>
      </trkpt>
      <trkpt lat="47.38331" lon="-0.47212">
        <ele>49.4</ele>
        <time>2021-07-04T09:29:57Z</time>
      </trkpt>
      <trkpt lat="47.38328" lon="-0.47205">
        <ele>49.4</ele>
        <time>2021-07-04T09:29:58Z</time>
      </trkpt>
      <trkpt lat="47.38319" lon="-0.47191">
        <ele>49.2</ele>
        <time>2021-07-04T09:30:00Z</time>
      </trkpt>
      <trkpt lat="47.38311" lon="-0.47177">
        <ele>49.8</ele>
        <time>2021-07-04T09:30:02Z</time>
      </trkpt>
      <trkpt lat="47.38303" lon="-0.47164">
        <ele>50.4</ele>
        <time>2021-07-04T09:30:04Z</time>
      </trkpt>
      <trkpt lat="47.38298" lon="-0.47157">
        <ele>50.6</ele>
        <time>2021-07-04T09:30:05Z</time>
      </trkpt>
      <trkpt lat="47.38295" lon="-0.47151">
        <ele>50.4</ele>
        <time>2021-07-04T09:30:06Z</time>
      </trkpt>
      <trkpt lat="47.38287" lon="-0.47138">
        <ele>50.6</ele>
        <time>2021-07-04T09:30:08Z</time>
      </trkpt>
      <trkpt lat="47.38283" lon="-0.47129">
        <ele>50.2</ele>
        <time>2021-07-04T09:30:10Z</time>
      </trkpt>
      <trkpt lat="47.38282" lon="-0.47124">
        <ele>50.4</ele>
        <time>2021-07-04T09:30:11Z</time>
      </trkpt>
      <trkpt lat="47.38284" lon="-0.47121">
        <ele>50.8</ele>
        <time>2021-07-04T09:30:12Z</time>
      </trkpt>
      <trkpt lat="47.38285" lon="-0.47117">
        <ele>51.4</ele>
        <time>2021-07-04T09:30:13Z</time>
      </trkpt>
      <trkpt lat="47.38287" lon="-0.47116">
        <ele>51.8</ele>
        <time>2021-07-04T09:30:14Z</time>
      </trkpt>
      <trkpt lat="47.38288" lon="-0.47115">
        <ele>51.8</ele>
        <time>2021-07-04T09:30:15Z</time>
      </trkpt>
      <trkpt lat="47.3829" lon="-0.47115">
        <ele>51.6</ele>
        <time>2021-07-04T09:30:16Z</time>
      </trkpt>
      <trkpt lat="47.38296" lon="-0.4712">
        <ele>51.4</ele>
        <time>2021-07-04T09:30:17Z</time>
      </trkpt>
      <trkpt lat="47.383" lon="-0.47125">
        <ele>50.8</ele>
        <time>2021-07-04T09:30:18Z</time>
      </trkpt>
      <trkpt lat="47.38305" lon="-0.47129">
        <ele>50.4</ele>
        <time>2021-07-04T09:30:19Z</time>
      </trkpt>
      <trkpt lat="47.3831" lon="-0.47134">
        <ele>50</ele>
        <time>2021-07-04T09:30:20Z</time>
      </trkpt>
      <trkpt lat="47.38314" lon="-0.47139">
        <ele>49.8</ele>
        <time>2021-07-04T09:30:21Z</time>
      </trkpt>
      <trkpt lat="47.3832" lon="-0.47144">
        <ele>49.8</ele>
        <time>2021-07-04T09:30:22Z</time>
      </trkpt>
      <trkpt lat="47.38331" lon="-0.47152">
        <ele>49.6</ele>
        <time>2021-07-04T09:30:24Z</time>
      </trkpt>
      <trkpt lat="47.38337" lon="-0.47157">
        <ele>49.4</ele>
        <time>2021-07-04T09:30:25Z</time>
      </trkpt>
      <trkpt lat="47.38342" lon="-0.4716">
        <ele>49.2</ele>
        <time>2021-07-04T09:30:26Z</time>
      </trkpt>
      <trkpt lat="47.38354" lon="-0.47167">
        <ele>49</ele>
        <time>2021-07-04T09:30:28Z</time>
      </trkpt>
      <trkpt lat="47.38367" lon="-0.47172">
        <ele>48.8</ele>
        <time>2021-07-04T09:30:30Z</time>
      </trkpt>
      <trkpt lat="47.38379" lon="-0.47177">
        <ele>48.4</ele>
        <time>2021-07-04T09:30:32Z</time>
      </trkpt>
      <trkpt lat="47.38385" lon="-0.47179">
        <ele>48.4</ele>
        <time>2021-07-04T09:30:33Z</time>
      </trkpt>
      <trkpt lat="47.38391" lon="-0.47181">
        <ele>48.6</ele>
        <time>2021-07-04T09:30:34Z</time>
      </trkpt>
      <trkpt lat="47.38404" lon="-0.47185">
        <ele>48.4</ele>
        <time>2021-07-04T09:30:36Z</time>
      </trkpt>
      <trkpt lat="47.38415" lon="-0.47188">
        <ele>48.2</ele>
        <time>2021-07-04T09:30:38Z</time>
      </trkpt>
      <trkpt lat="47.38426" lon="-0.47192">
        <ele>48.4</ele>
        <time>2021-07-04T09:30:40Z</time>
      </trkpt>
      <trkpt lat="47.3843" lon="-0.47193">
        <ele>48.8</ele>
        <time>2021-07-04T09:30:41Z</time>
      </trkpt>
      <trkpt lat="47.38434" lon="-0.47193">
        <ele>48.8</ele>
        <time>2021-07-04T09:30:42Z</time>
      </trkpt>
      <trkpt lat="47.38439" lon="-0.47187">
        <ele>49.2</ele>
        <time>2021-07-04T09:30:44Z</time>
      </trkpt>
      <trkpt lat="47.3844" lon="-0.47178">
        <ele>50</ele>
        <time>2021-07-04T09:30:46Z</time>
      </trkpt>
      <trkpt lat="47.38442" lon="-0.47167">
        <ele>49.6</ele>
        <time>2021-07-04T09:30:48Z</time>
      </trkpt>
      <trkpt lat="47.38444" lon="-0.4716">
        <ele>49.4</ele>
        <time>2021-07-04T09:30:49Z</time>
      </trkpt>
      <trkpt lat="47.38444" lon="-0.47154">
        <ele>49.4</ele>
        <time>2021-07-04T09:30:50Z</time>
      </trkpt>
      <trkpt lat="47.38447" lon="-0.47141">
        <ele>49.4</ele>
        <time>2021-07-04T09:30:52Z</time>
      </trkpt>
      <trkpt lat="47.38449" lon="-0.47127">
        <ele>50</ele>
        <time>2021-07-04T09:30:54Z</time>
      </trkpt>
      <trkpt lat="47.3845" lon="-0.47114">
        <ele>50</ele>
        <time>2021-07-04T09:30:56Z</time>
      </trkpt>
      <trkpt lat="47.38453" lon="-0.47102">
        <ele>50.4</ele>
        <time>2021-07-04T09:30:58Z</time>
      </trkpt>
      <trkpt lat="47.38458" lon="-0.47092">
        <ele>50.6</ele>
        <time>2021-07-04T09:31:00Z</time>
      </trkpt>
      <trkpt lat="47.3846" lon="-0.47088">
        <ele>50.4</ele>
        <time>2021-07-04T09:31:01Z</time>
      </trkpt>
      <trkpt lat="47.3846" lon="-0.47081">
        <ele>50.2</ele>
        <time>2021-07-04T09:31:02Z</time>
      </trkpt>
      <trkpt lat="47.38461" lon="-0.47069">
        <ele>50.2</ele>
        <time>2021-07-04T09:31:04Z</time>
      </trkpt>
      <trkpt lat="47.38465" lon="-0.47057">
        <ele>51.2</ele>
        <time>2021-07-04T09:31:06Z</time>
      </trkpt>
      <trkpt lat="47.38467" lon="-0.4705">
        <ele>51.6</ele>
        <time>2021-07-04T09:31:07Z</time>
      </trkpt>
      <trkpt lat="47.38467" lon="-0.47043">
        <ele>51.6</ele>
        <time>2021-07-04T09:31:08Z</time>
      </trkpt>
      <trkpt lat="47.38468" lon="-0.47028">
        <ele>50.6</ele>
        <time>2021-07-04T09:31:10Z</time>
      </trkpt>
      <trkpt lat="47.38469" lon="-0.47014">
        <ele>49.8</ele>
        <time>2021-07-04T09:31:12Z</time>
      </trkpt>
      <trkpt lat="47.38471" lon="-0.46999">
        <ele>49.8</ele>
        <time>2021-07-04T09:31:14Z</time>
      </trkpt>
      <trkpt lat="47.38472" lon="-0.46993">
        <ele>49.6</ele>
        <time>2021-07-04T09:31:15Z</time>
      </trkpt>
      <trkpt lat="47.38474" lon="-0.46989">
        <ele>50</ele>
        <time>2021-07-04T09:31:16Z</time>
      </trkpt>
      <trkpt lat="47.3848" lon="-0.46987">
        <ele>50.2</ele>
        <time>2021-07-04T09:31:18Z</time>
      </trkpt>
      <trkpt lat="47.38489" lon="-0.46988">
        <ele>50.2</ele>
        <time>2021-07-04T09:31:20Z</time>
      </trkpt>
      <trkpt lat="47.38499" lon="-0.46989">
        <ele>49.8</ele>
        <time>2021-07-04T09:31:22Z</time>
      </trkpt>
      <trkpt lat="47.3851" lon="-0.4699">
        <ele>49.6</ele>
        <time>2021-07-04T09:31:24Z</time>
      </trkpt>
      <trkpt lat="47.38522" lon="-0.46992">
        <ele>49.6</ele>
        <time>2021-07-04T09:31:26Z</time>
      </trkpt>
      <trkpt lat="47.38528" lon="-0.46993">
        <ele>49</ele>
        <time>2021-07-04T09:31:27Z</time>
      </trkpt>
      <trkpt lat="47.38534" lon="-0.46994">
        <ele>48.8</ele>
        <time>2021-07-04T09:31:28Z</time>
      </trkpt>
      <trkpt lat="47.38545" lon="-0.46996">
        <ele>48.8</ele>
        <time>2021-07-04T09:31:30Z</time>
      </trkpt>
      <trkpt lat="47.38556" lon="-0.46997">
        <ele>48.6</ele>
        <time>2021-07-04T09:31:32Z</time>
      </trkpt>
      <trkpt lat="47.38562" lon="-0.46998">
        <ele>48.4</ele>
        <time>2021-07-04T09:31:33Z</time>
      </trkpt>
      <trkpt lat="47.38567" lon="-0.46998">
        <ele>48.6</ele>
        <time>2021-07-04T09:31:34Z</time>
      </trkpt>
      <trkpt lat="47.38578" lon="-0.46999">
        <ele>48.6</ele>
        <time>2021-07-04T09:31:36Z</time>
      </trkpt>
      <trkpt lat="47.38591" lon="-0.47">
        <ele>48.6</ele>
        <time>2021-07-04T09:31:38Z</time>
      </trkpt>
      <trkpt lat="47.38602" lon="-0.47001">
        <ele>48.2</ele>
        <time>2021-07-04T09:31:40Z</time>
      </trkpt>
      <trkpt lat="47.38613" lon="-0.47001">
        <ele>48.4</ele>
        <time>2021-07-04T09:31:42Z</time>
      </trkpt>
      <trkpt lat="47.38624" lon="-0.47001">
        <ele>48</ele>
        <time>2021-07-04T09:31:44Z</time>
      </trkpt>
      <trkpt lat="47.38634" lon="-0.47001">
        <ele>48.2</ele>
        <time>2021-07-04T09:31:46Z</time>
      </trkpt>
      <trkpt lat="47.38639" lon="-0.47">
        <ele>47.8</ele>
        <time>2021-07-04T09:31:47Z</time>
      </trkpt>
      <trkpt lat="47.38645" lon="-0.46998">
        <ele>47.8</ele>
        <time>2021-07-04T09:31:48Z</time>
      </trkpt>
      <trkpt lat="47.38658" lon="-0.46995">
        <ele>47.6</ele>
        <time>2021-07-04T09:31:50Z</time>
      </trkpt>
      <trkpt lat="47.3867" lon="-0.4699">
        <ele>47.8</ele>
        <time>2021-07-04T09:31:52Z</time>
      </trkpt>
      <trkpt lat="47.38682" lon="-0.46986">
        <ele>47.8</ele>
        <time>2021-07-04T09:31:54Z</time>
      </trkpt>
      <trkpt lat="47.38695" lon="-0.46982">
        <ele>47.8</ele>
        <time>2021-07-04T09:31:56Z</time>
      </trkpt>
      <trkpt lat="47.38707" lon="-0.46978">
        <ele>48.2</ele>
        <time>2021-07-04T09:31:58Z</time>
      </trkpt>
      <trkpt lat="47.38713" lon="-0.46975">
        <ele>48</ele>
        <time>2021-07-04T09:31:59Z</time>
      </trkpt>
      <trkpt lat="47.38719" lon="-0.46973">
        <ele>47.8</ele>
        <time>2021-07-04T09:32:00Z</time>
      </trkpt>
      <trkpt lat="47.38731" lon="-0.46968">
        <ele>47.8</ele>
        <time>2021-07-04T09:32:02Z</time>
      </trkpt>
      <trkpt lat="47.38742" lon="-0.46963">
        <ele>47.6</ele>
        <time>2021-07-04T09:32:04Z</time>
      </trkpt>
      <trkpt lat="47.38747" lon="-0.4696">
        <ele>47.4</ele>
        <time>2021-07-04T09:32:05Z</time>
      </trkpt>
      <trkpt lat="47.38753" lon="-0.46958">
        <ele>47.4</ele>
        <time>2021-07-04T09:32:06Z</time>
      </trkpt>
      <trkpt lat="47.38766" lon="-0.46954">
        <ele>47.4</ele>
        <time>2021-07-04T09:32:08Z</time>
      </trkpt>
      <trkpt lat="47.38778" lon="-0.46951">
        <ele>46.8</ele>
        <time>2021-07-04T09:32:10Z</time>
      </trkpt>
      <trkpt lat="47.38784" lon="-0.46951">
        <ele>46.2</ele>
        <time>2021-07-04T09:32:11Z</time>
      </trkpt>
      <trkpt lat="47.38791" lon="-0.46951">
        <ele>46.2</ele>
        <time>2021-07-04T09:32:12Z</time>
      </trkpt>
      <trkpt lat="47.38803" lon="-0.46952">
        <ele>46.8</ele>
        <time>2021-07-04T09:32:14Z</time>
      </trkpt>
      <trkpt lat="47.38816" lon="-0.46953">
        <ele>47</ele>
        <time>2021-07-04T09:32:16Z</time>
      </trkpt>
      <trkpt lat="47.38829" lon="-0.46953">
        <ele>47.2</ele>
        <time>2021-07-04T09:32:18Z</time>
      </trkpt>
      <trkpt lat="47.38835" lon="-0.46954">
        <ele>47.4</ele>
        <time>2021-07-04T09:32:19Z</time>
      </trkpt>
      <trkpt lat="47.38841" lon="-0.46954">
        <ele>47.6</ele>
        <time>2021-07-04T09:32:20Z</time>
      </trkpt>
      <trkpt lat="47.38851" lon="-0.46954">
        <ele>48.2</ele>
        <time>2021-07-04T09:32:22Z</time>
      </trkpt>
      <trkpt lat="47.38857" lon="-0.46955">
        <ele>48</ele>
        <time>2021-07-04T09:32:23Z</time>
      </trkpt>
      <trkpt lat="47.38862" lon="-0.46956">
        <ele>48</ele>
        <time>2021-07-04T09:32:24Z</time>
      </trkpt>
      <trkpt lat="47.38874" lon="-0.4696">
        <ele>47.8</ele>
        <time>2021-07-04T09:32:26Z</time>
      </trkpt>
      <trkpt lat="47.3888" lon="-0.46963">
        <ele>47.6</ele>
        <time>2021-07-04T09:32:27Z</time>
      </trkpt>
      <trkpt lat="47.38886" lon="-0.46966">
        <ele>47.6</ele>
        <time>2021-07-04T09:32:28Z</time>
      </trkpt>
      <trkpt lat="47.38898" lon="-0.4697">
        <ele>47.8</ele>
        <time>2021-07-04T09:32:30Z</time>
      </trkpt>
      <trkpt lat="47.3891" lon="-0.46974">
        <ele>48.4</ele>
        <time>2021-07-04T09:32:32Z</time>
      </trkpt>
      <trkpt lat="47.38923" lon="-0.46976">
        <ele>48.4</ele>
        <time>2021-07-04T09:32:34Z</time>
      </trkpt>
      <trkpt lat="47.38929" lon="-0.46977">
        <ele>48.2</ele>
        <time>2021-07-04T09:32:35Z</time>
      </trkpt>
      <trkpt lat="47.38935" lon="-0.46977">
        <ele>48.2</ele>
        <time>2021-07-04T09:32:36Z</time>
      </trkpt>
      <trkpt lat="47.38948" lon="-0.46976">
        <ele>48.2</ele>
        <time>2021-07-04T09:32:38Z</time>
      </trkpt>
      <trkpt lat="47.3896" lon="-0.46975">
        <ele>48.8</ele>
        <time>2021-07-04T09:32:40Z</time>
      </trkpt>
      <trkpt lat="47.38972" lon="-0.46974">
        <ele>48.4</ele>
        <time>2021-07-04T09:32:42Z</time>
      </trkpt>
      <trkpt lat="47.38979" lon="-0.46974">
        <ele>48.2</ele>
        <time>2021-07-04T09:32:43Z</time>
      </trkpt>
      <trkpt lat="47.38985" lon="-0.46973">
        <ele>48</ele>
        <time>2021-07-04T09:32:44Z</time>
      </trkpt>
      <trkpt lat="47.38997" lon="-0.46972">
        <ele>48.2</ele>
        <time>2021-07-04T09:32:46Z</time>
      </trkpt>
      <trkpt lat="47.39008" lon="-0.46971">
        <ele>48.6</ele>
        <time>2021-07-04T09:32:48Z</time>
      </trkpt>
      <trkpt lat="47.3902" lon="-0.46972">
        <ele>49.2</ele>
        <time>2021-07-04T09:32:50Z</time>
      </trkpt>
      <trkpt lat="47.39026" lon="-0.46973">
        <ele>49.2</ele>
        <time>2021-07-04T09:32:51Z</time>
      </trkpt>
      <trkpt lat="47.39032" lon="-0.46974">
        <ele>49.6</ele>
        <time>2021-07-04T09:32:52Z</time>
      </trkpt>
      <trkpt lat="47.39044" lon="-0.46977">
        <ele>49.4</ele>
        <time>2021-07-04T09:32:54Z</time>
      </trkpt>
      <trkpt lat="47.39057" lon="-0.46981">
        <ele>48.6</ele>
        <time>2021-07-04T09:32:56Z</time>
      </trkpt>
      <trkpt lat="47.39064" lon="-0.46983">
        <ele>48.4</ele>
        <time>2021-07-04T09:32:57Z</time>
      </trkpt>
      <trkpt lat="47.3907" lon="-0.46984">
        <ele>48</ele>
        <time>2021-07-04T09:32:58Z</time>
      </trkpt>
      <trkpt lat="47.39084" lon="-0.46986">
        <ele>47.2</ele>
        <time>2021-07-04T09:33:00Z</time>
      </trkpt>
      <trkpt lat="47.39098" lon="-0.46985">
        <ele>47.2</ele>
        <time>2021-07-04T09:33:02Z</time>
      </trkpt>
      <trkpt lat="47.39105" lon="-0.46984">
        <ele>47.8</ele>
        <time>2021-07-04T09:33:03Z</time>
      </trkpt>
      <trkpt lat="47.39112" lon="-0.46982">
        <ele>47.8</ele>
        <time>2021-07-04T09:33:04Z</time>
      </trkpt>
      <trkpt lat="47.39127" lon="-0.4698">
        <ele>47</ele>
        <time>2021-07-04T09:33:06Z</time>
      </trkpt>
      <trkpt lat="47.39141" lon="-0.46977">
        <ele>46.8</ele>
        <time>2021-07-04T09:33:08Z</time>
      </trkpt>
      <trkpt lat="47.39155" lon="-0.46975">
        <ele>46.6</ele>
        <time>2021-07-04T09:33:10Z</time>
      </trkpt>
      <trkpt lat="47.3917" lon="-0.46972">
        <ele>46</ele>
        <time>2021-07-04T09:33:12Z</time>
      </trkpt>
      <trkpt lat="47.39185" lon="-0.46968">
        <ele>45.8</ele>
        <time>2021-07-04T09:33:14Z</time>
      </trkpt>
      <trkpt lat="47.392" lon="-0.46964">
        <ele>45.2</ele>
        <time>2021-07-04T09:33:16Z</time>
      </trkpt>
      <trkpt lat="47.39215" lon="-0.46961">
        <ele>44.8</ele>
        <time>2021-07-04T09:33:18Z</time>
      </trkpt>
      <trkpt lat="47.39231" lon="-0.46958">
        <ele>44.4</ele>
        <time>2021-07-04T09:33:20Z</time>
      </trkpt>
      <trkpt lat="47.39246" lon="-0.46957">
        <ele>44.6</ele>
        <time>2021-07-04T09:33:22Z</time>
      </trkpt>
      <trkpt lat="47.39262" lon="-0.46957">
        <ele>44.4</ele>
        <time>2021-07-04T09:33:24Z</time>
      </trkpt>
      <trkpt lat="47.39269" lon="-0.46958">
        <ele>43.8</ele>
        <time>2021-07-04T09:33:25Z</time>
      </trkpt>
      <trkpt lat="47.39277" lon="-0.46958">
        <ele>43.4</ele>
        <time>2021-07-04T09:33:26Z</time>
      </trkpt>
      <trkpt lat="47.39293" lon="-0.4696">
        <ele>43.2</ele>
        <time>2021-07-04T09:33:28Z</time>
      </trkpt>
      <trkpt lat="47.39308" lon="-0.4696">
        <ele>43.4</ele>
        <time>2021-07-04T09:33:30Z</time>
      </trkpt>
      <trkpt lat="47.39324" lon="-0.46961">
        <ele>43.6</ele>
        <time>2021-07-04T09:33:32Z</time>
      </trkpt>
      <trkpt lat="47.39339" lon="-0.46961">
        <ele>43.2</ele>
        <time>2021-07-04T09:33:34Z</time>
      </trkpt>
      <trkpt lat="47.39347" lon="-0.46962">
        <ele>43.2</ele>
        <time>2021-07-04T09:33:35Z</time>
      </trkpt>
      <trkpt lat="47.39355" lon="-0.46962">
        <ele>43.2</ele>
        <time>2021-07-04T09:33:36Z</time>
      </trkpt>
      <trkpt lat="47.3937" lon="-0.46963">
        <ele>44.2</ele>
        <time>2021-07-04T09:33:38Z</time>
      </trkpt>
      <trkpt lat="47.39384" lon="-0.46964">
        <ele>44.2</ele>
        <time>2021-07-04T09:33:40Z</time>
      </trkpt>
      <trkpt lat="47.39398" lon="-0.46965">
        <ele>44</ele>
        <time>2021-07-04T09:33:42Z</time>
      </trkpt>
      <trkpt lat="47.39412" lon="-0.46964">
        <ele>44</ele>
        <time>2021-07-04T09:33:44Z</time>
      </trkpt>
      <trkpt lat="47.39426" lon="-0.46964">
        <ele>44.4</ele>
        <time>2021-07-04T09:33:46Z</time>
      </trkpt>
      <trkpt lat="47.39439" lon="-0.46965">
        <ele>44.8</ele>
        <time>2021-07-04T09:33:48Z</time>
      </trkpt>
      <trkpt lat="47.39451" lon="-0.46965">
        <ele>45</ele>
        <time>2021-07-04T09:33:50Z</time>
      </trkpt>
      <trkpt lat="47.39463" lon="-0.46965">
        <ele>44.8</ele>
        <time>2021-07-04T09:33:52Z</time>
      </trkpt>
      <trkpt lat="47.39469" lon="-0.46966">
        <ele>44.6</ele>
        <time>2021-07-04T09:33:53Z</time>
      </trkpt>
      <trkpt lat="47.39473" lon="-0.4697">
        <ele>44.6</ele>
        <time>2021-07-04T09:33:54Z</time>
      </trkpt>
      <trkpt lat="47.39477" lon="-0.46975">
        <ele>44.4</ele>
        <time>2021-07-04T09:33:55Z</time>
      </trkpt>
      <trkpt lat="47.39478" lon="-0.46982">
        <ele>44.2</ele>
        <time>2021-07-04T09:33:56Z</time>
      </trkpt>
      <trkpt lat="47.39477" lon="-0.46989">
        <ele>43.6</ele>
        <time>2021-07-04T09:33:57Z</time>
      </trkpt>
      <trkpt lat="47.39476" lon="-0.46997">
        <ele>43.2</ele>
        <time>2021-07-04T09:33:58Z</time>
      </trkpt>
      <trkpt lat="47.39474" lon="-0.47013">
        <ele>42.8</ele>
        <time>2021-07-04T09:34:00Z</time>
      </trkpt>
      <trkpt lat="47.39473" lon="-0.47021">
        <ele>42.6</ele>
        <time>2021-07-04T09:34:01Z</time>
      </trkpt>
      <trkpt lat="47.39473" lon="-0.47029">
        <ele>42.6</ele>
        <time>2021-07-04T09:34:02Z</time>
      </trkpt>
      <trkpt lat="47.39471" lon="-0.47046">
        <ele>42.6</ele>
        <time>2021-07-04T09:34:04Z</time>
      </trkpt>
      <trkpt lat="47.39468" lon="-0.47063">
        <ele>42.2</ele>
        <time>2021-07-04T09:34:06Z</time>
      </trkpt>
      <trkpt lat="47.39465" lon="-0.4708">
        <ele>42.2</ele>
        <time>2021-07-04T09:34:08Z</time>
      </trkpt>
      <trkpt lat="47.39463" lon="-0.47094">
        <ele>42.8</ele>
        <time>2021-07-04T09:34:10Z</time>
      </trkpt>
      <trkpt lat="47.39462" lon="-0.471">
        <ele>43</ele>
        <time>2021-07-04T09:34:11Z</time>
      </trkpt>
      <trkpt lat="47.39461" lon="-0.47106">
        <ele>43.4</ele>
        <time>2021-07-04T09:34:12Z</time>
      </trkpt>
      <trkpt lat="47.39459" lon="-0.47118">
        <ele>43.4</ele>
        <time>2021-07-04T09:34:14Z</time>
      </trkpt>
      <trkpt lat="47.39457" lon="-0.4713">
        <ele>42.8</ele>
        <time>2021-07-04T09:34:16Z</time>
      </trkpt>
      <trkpt lat="47.39457" lon="-0.47135">
        <ele>42.4</ele>
        <time>2021-07-04T09:34:17Z</time>
      </trkpt>
      <trkpt lat="47.39459" lon="-0.47139">
        <ele>42.6</ele>
        <time>2021-07-04T09:34:18Z</time>
      </trkpt>
      <trkpt lat="47.39461" lon="-0.4714">
        <ele>42.6</ele>
        <time>2021-07-04T09:34:19Z</time>
      </trkpt>
      <trkpt lat="47.39465" lon="-0.47141">
        <ele>42.8</ele>
        <time>2021-07-04T09:34:20Z</time>
      </trkpt>
      <trkpt lat="47.39472" lon="-0.47142">
        <ele>42.6</ele>
        <time>2021-07-04T09:34:22Z</time>
      </trkpt>
      <trkpt lat="47.39475" lon="-0.47143">
        <ele>42.4</ele>
        <time>2021-07-04T09:34:23Z</time>
      </trkpt>
      <trkpt lat="47.39479" lon="-0.47144">
        <ele>42.4</ele>
        <time>2021-07-04T09:34:24Z</time>
      </trkpt>
      <trkpt lat="47.39486" lon="-0.47146">
        <ele>42.6</ele>
        <time>2021-07-04T09:34:26Z</time>
      </trkpt>
      <trkpt lat="47.3949" lon="-0.47146">
        <ele>42.6</ele>
        <time>2021-07-04T09:34:27Z</time>
      </trkpt>
      <trkpt lat="47.39494" lon="-0.47146">
        <ele>42.8</ele>
        <time>2021-07-04T09:34:28Z</time>
      </trkpt>
      <trkpt lat="47.39502" lon="-0.47148">
        <ele>42.6</ele>
        <time>2021-07-04T09:34:30Z</time>
      </trkpt>
      <trkpt lat="47.39509" lon="-0.4715">
        <ele>43.4</ele>
        <time>2021-07-04T09:34:32Z</time>
      </trkpt>
      <trkpt lat="47.39513" lon="-0.4715">
        <ele>43.4</ele>
        <time>2021-07-04T09:34:33Z</time>
      </trkpt>
      <trkpt lat="47.39518" lon="-0.4715">
        <ele>42.6</ele>
        <time>2021-07-04T09:34:34Z</time>
      </trkpt>
      <trkpt lat="47.39527" lon="-0.47151">
        <ele>42.6</ele>
        <time>2021-07-04T09:34:36Z</time>
      </trkpt>
      <trkpt lat="47.39537" lon="-0.47151">
        <ele>42.4</ele>
        <time>2021-07-04T09:34:38Z</time>
      </trkpt>
      <trkpt lat="47.39542" lon="-0.47152">
        <ele>42.2</ele>
        <time>2021-07-04T09:34:39Z</time>
      </trkpt>
      <trkpt lat="47.39547" lon="-0.47153">
        <ele>42.4</ele>
        <time>2021-07-04T09:34:40Z</time>
      </trkpt>
      <trkpt lat="47.39553" lon="-0.47154">
        <ele>42.6</ele>
        <time>2021-07-04T09:34:41Z</time>
      </trkpt>
      <trkpt lat="47.39558" lon="-0.47154">
        <ele>42.6</ele>
        <time>2021-07-04T09:34:42Z</time>
      </trkpt>
      <trkpt lat="47.39569" lon="-0.47151">
        <ele>42.8</ele>
        <time>2021-07-04T09:34:44Z</time>
      </trkpt>
      <trkpt lat="47.3958" lon="-0.47148">
        <ele>41.8</ele>
        <time>2021-07-04T09:34:46Z</time>
      </trkpt>
      <trkpt lat="47.39585" lon="-0.47146">
        <ele>41.4</ele>
        <time>2021-07-04T09:34:47Z</time>
      </trkpt>
      <trkpt lat="47.3959" lon="-0.47144">
        <ele>41.6</ele>
        <time>2021-07-04T09:34:48Z</time>
      </trkpt>
      <trkpt lat="47.396" lon="-0.4714">
        <ele>42</ele>
        <time>2021-07-04T09:34:50Z</time>
      </trkpt>
      <trkpt lat="47.39611" lon="-0.47137">
        <ele>41.8</ele>
        <time>2021-07-04T09:34:52Z</time>
      </trkpt>
      <trkpt lat="47.39615" lon="-0.47135">
        <ele>41.6</ele>
        <time>2021-07-04T09:34:53Z</time>
      </trkpt>
      <trkpt lat="47.3962" lon="-0.47134">
        <ele>41.4</ele>
        <time>2021-07-04T09:34:54Z</time>
      </trkpt>
      <trkpt lat="47.39631" lon="-0.47131">
        <ele>41.2</ele>
        <time>2021-07-04T09:34:56Z</time>
      </trkpt>
      <trkpt lat="47.39641" lon="-0.47128">
        <ele>41</ele>
        <time>2021-07-04T09:34:58Z</time>
      </trkpt>
      <trkpt lat="47.39647" lon="-0.47125">
        <ele>40.6</ele>
        <time>2021-07-04T09:34:59Z</time>
      </trkpt>
      <trkpt lat="47.39652" lon="-0.47122">
        <ele>40</ele>
        <time>2021-07-04T09:35:00Z</time>
      </trkpt>
      <trkpt lat="47.39662" lon="-0.47114">
        <ele>39.6</ele>
        <time>2021-07-04T09:35:02Z</time>
      </trkpt>
      <trkpt lat="47.39672" lon="-0.47107">
        <ele>39.4</ele>
        <time>2021-07-04T09:35:04Z</time>
      </trkpt>
      <trkpt lat="47.39677" lon="-0.47105">
        <ele>39.4</ele>
        <time>2021-07-04T09:35:05Z</time>
      </trkpt>
      <trkpt lat="47.39681" lon="-0.47102">
        <ele>39.4</ele>
        <time>2021-07-04T09:35:06Z</time>
      </trkpt>
      <trkpt lat="47.39689" lon="-0.47098">
        <ele>39.4</ele>
        <time>2021-07-04T09:35:08Z</time>
      </trkpt>
      <trkpt lat="47.39698" lon="-0.47095">
        <ele>39</ele>
        <time>2021-07-04T09:35:10Z</time>
      </trkpt>
      <trkpt lat="47.39706" lon="-0.4709">
        <ele>39.2</ele>
        <time>2021-07-04T09:35:12Z</time>
      </trkpt>
      <trkpt lat="47.39709" lon="-0.47088">
        <ele>39.2</ele>
        <time>2021-07-04T09:35:13Z</time>
      </trkpt>
      <trkpt lat="47.39713" lon="-0.47085">
        <ele>38.6</ele>
        <time>2021-07-04T09:35:14Z</time>
      </trkpt>
      <trkpt lat="47.39721" lon="-0.47081">
        <ele>38.6</ele>
        <time>2021-07-04T09:35:16Z</time>
      </trkpt>
      <trkpt lat="47.39726" lon="-0.47082">
        <ele>39</ele>
        <time>2021-07-04T09:35:17Z</time>
      </trkpt>
      <trkpt lat="47.3973" lon="-0.47084">
        <ele>39</ele>
        <time>2021-07-04T09:35:18Z</time>
      </trkpt>
      <trkpt lat="47.39738" lon="-0.47089">
        <ele>39.2</ele>
        <time>2021-07-04T09:35:20Z</time>
      </trkpt>
      <trkpt lat="47.39743" lon="-0.4709">
        <ele>39.8</ele>
        <time>2021-07-04T09:35:21Z</time>
      </trkpt>
      <trkpt lat="47.39746" lon="-0.47092">
        <ele>40</ele>
        <time>2021-07-04T09:35:22Z</time>
      </trkpt>
      <trkpt lat="47.39751" lon="-0.47094">
        <ele>41</ele>
        <time>2021-07-04T09:35:24Z</time>
      </trkpt>
      <trkpt lat="47.39756" lon="-0.47098">
        <ele>41.6</ele>
        <time>2021-07-04T09:35:26Z</time>
      </trkpt>
      <trkpt lat="47.39757" lon="-0.471">
        <ele>41.8</ele>
        <time>2021-07-04T09:35:27Z</time>
      </trkpt>
      <trkpt lat="47.39758" lon="-0.47103">
        <ele>41.8</ele>
        <time>2021-07-04T09:35:28Z</time>
      </trkpt>
      <trkpt lat="47.3976" lon="-0.47106">
        <ele>42</ele>
        <time>2021-07-04T09:35:29Z</time>
      </trkpt>
      <trkpt lat="47.39762" lon="-0.4711">
        <ele>42.2</ele>
        <time>2021-07-04T09:35:30Z</time>
      </trkpt>
      <trkpt lat="47.39766" lon="-0.47118">
        <ele>42.8</ele>
        <time>2021-07-04T09:35:32Z</time>
      </trkpt>
      <trkpt lat="47.3977" lon="-0.47126">
        <ele>43.2</ele>
        <time>2021-07-04T09:35:34Z</time>
      </trkpt>
      <trkpt lat="47.39774" lon="-0.47137">
        <ele>43.2</ele>
        <time>2021-07-04T09:35:36Z</time>
      </trkpt>
      <trkpt lat="47.39777" lon="-0.47143">
        <ele>43</ele>
        <time>2021-07-04T09:35:37Z</time>
      </trkpt>
      <trkpt lat="47.39779" lon="-0.47149">
        <ele>43</ele>
        <time>2021-07-04T09:35:38Z</time>
      </trkpt>
      <trkpt lat="47.39785" lon="-0.47162">
        <ele>42.4</ele>
        <time>2021-07-04T09:35:40Z</time>
      </trkpt>
      <trkpt lat="47.39788" lon="-0.47169">
        <ele>41.8</ele>
        <time>2021-07-04T09:35:41Z</time>
      </trkpt>
      <trkpt lat="47.39791" lon="-0.47176">
        <ele>41.4</ele>
        <time>2021-07-04T09:35:42Z</time>
      </trkpt>
      <trkpt lat="47.39798" lon="-0.47186">
        <ele>41</ele>
        <time>2021-07-04T09:35:44Z</time>
      </trkpt>
      <trkpt lat="47.39806" lon="-0.47197">
        <ele>41.2</ele>
        <time>2021-07-04T09:35:46Z</time>
      </trkpt>
      <trkpt lat="47.3981" lon="-0.47203">
        <ele>41.4</ele>
        <time>2021-07-04T09:35:47Z</time>
      </trkpt>
      <trkpt lat="47.39813" lon="-0.4721">
        <ele>41</ele>
        <time>2021-07-04T09:35:48Z</time>
      </trkpt>
      <trkpt lat="47.39817" lon="-0.47224">
        <ele>41.2</ele>
        <time>2021-07-04T09:35:50Z</time>
      </trkpt>
      <trkpt lat="47.39819" lon="-0.47231">
        <ele>41.6</ele>
        <time>2021-07-04T09:35:51Z</time>
      </trkpt>
      <trkpt lat="47.39822" lon="-0.47238">
        <ele>41.6</ele>
        <time>2021-07-04T09:35:52Z</time>
      </trkpt>
      <trkpt lat="47.39826" lon="-0.47251">
        <ele>41.4</ele>
        <time>2021-07-04T09:35:54Z</time>
      </trkpt>
      <trkpt lat="47.39831" lon="-0.47265">
        <ele>42.4</ele>
        <time>2021-07-04T09:35:56Z</time>
      </trkpt>
      <trkpt lat="47.39838" lon="-0.47279">
        <ele>42.4</ele>
        <time>2021-07-04T09:35:58Z</time>
      </trkpt>
      <trkpt lat="47.39844" lon="-0.47294">
        <ele>41.2</ele>
        <time>2021-07-04T09:36:00Z</time>
      </trkpt>
      <trkpt lat="47.39847" lon="-0.47302">
        <ele>40.6</ele>
        <time>2021-07-04T09:36:01Z</time>
      </trkpt>
      <trkpt lat="47.3985" lon="-0.47309">
        <ele>40.8</ele>
        <time>2021-07-04T09:36:02Z</time>
      </trkpt>
      <trkpt lat="47.39854" lon="-0.47324">
        <ele>41</ele>
        <time>2021-07-04T09:36:04Z</time>
      </trkpt>
      <trkpt lat="47.39857" lon="-0.47331">
        <ele>41.2</ele>
        <time>2021-07-04T09:36:05Z</time>
      </trkpt>
      <trkpt lat="47.3986" lon="-0.47337">
        <ele>41.4</ele>
        <time>2021-07-04T09:36:06Z</time>
      </trkpt>
      <trkpt lat="47.39867" lon="-0.4735">
        <ele>41.2</ele>
        <time>2021-07-04T09:36:08Z</time>
      </trkpt>
      <trkpt lat="47.39874" lon="-0.47362">
        <ele>40.6</ele>
        <time>2021-07-04T09:36:10Z</time>
      </trkpt>
      <trkpt lat="47.39878" lon="-0.47368">
        <ele>40.6</ele>
        <time>2021-07-04T09:36:11Z</time>
      </trkpt>
      <trkpt lat="47.39881" lon="-0.47372">
        <ele>40.8</ele>
        <time>2021-07-04T09:36:12Z</time>
      </trkpt>
      <trkpt lat="47.39884" lon="-0.47377">
        <ele>41</ele>
        <time>2021-07-04T09:36:13Z</time>
      </trkpt>
      <trkpt lat="47.39887" lon="-0.47381">
        <ele>41.2</ele>
        <time>2021-07-04T09:36:14Z</time>
      </trkpt>
      <trkpt lat="47.39894" lon="-0.47389">
        <ele>41</ele>
        <time>2021-07-04T09:36:16Z</time>
      </trkpt>
      <trkpt lat="47.39902" lon="-0.47398">
        <ele>41</ele>
        <time>2021-07-04T09:36:18Z</time>
      </trkpt>
      <trkpt lat="47.39906" lon="-0.47403">
        <ele>40.8</ele>
        <time>2021-07-04T09:36:19Z</time>
      </trkpt>
      <trkpt lat="47.3991" lon="-0.47408">
        <ele>40.4</ele>
        <time>2021-07-04T09:36:20Z</time>
      </trkpt>
      <trkpt lat="47.39919" lon="-0.4742">
        <ele>39.4</ele>
        <time>2021-07-04T09:36:22Z</time>
      </trkpt>
      <trkpt lat="47.39928" lon="-0.47431">
        <ele>39.2</ele>
        <time>2021-07-04T09:36:24Z</time>
      </trkpt>
      <trkpt lat="47.39932" lon="-0.47435">
        <ele>39.4</ele>
        <time>2021-07-04T09:36:25Z</time>
      </trkpt>
      <trkpt lat="47.39937" lon="-0.47439">
        <ele>38.4</ele>
        <time>2021-07-04T09:36:26Z</time>
      </trkpt>
      <trkpt lat="47.39943" lon="-0.47444">
        <ele>37.8</ele>
        <time>2021-07-04T09:36:27Z</time>
      </trkpt>
      <trkpt lat="47.39948" lon="-0.47449">
        <ele>37.2</ele>
        <time>2021-07-04T09:36:28Z</time>
      </trkpt>
      <trkpt lat="47.39952" lon="-0.47455">
        <ele>36.8</ele>
        <time>2021-07-04T09:36:29Z</time>
      </trkpt>
      <trkpt lat="47.39958" lon="-0.4746">
        <ele>36</ele>
        <time>2021-07-04T09:36:30Z</time>
      </trkpt>
      <trkpt lat="47.39964" lon="-0.47464">
        <ele>35.6</ele>
        <time>2021-07-04T09:36:31Z</time>
      </trkpt>
      <trkpt lat="47.39969" lon="-0.47467">
        <ele>35.6</ele>
        <time>2021-07-04T09:36:32Z</time>
      </trkpt>
      <trkpt lat="47.39975" lon="-0.47468">
        <ele>35.6</ele>
        <time>2021-07-04T09:36:33Z</time>
      </trkpt>
      <trkpt lat="47.39981" lon="-0.4747">
        <ele>35.6</ele>
        <time>2021-07-04T09:36:34Z</time>
      </trkpt>
      <trkpt lat="47.39993" lon="-0.47472">
        <ele>35.6</ele>
        <time>2021-07-04T09:36:36Z</time>
      </trkpt>
      <trkpt lat="47.40005" lon="-0.47474">
        <ele>36</ele>
        <time>2021-07-04T09:36:38Z</time>
      </trkpt>
      <trkpt lat="47.4001" lon="-0.47475">
        <ele>36.2</ele>
        <time>2021-07-04T09:36:39Z</time>
      </trkpt>
      <trkpt lat="47.40015" lon="-0.47476">
        <ele>36.6</ele>
        <time>2021-07-04T09:36:40Z</time>
      </trkpt>
      <trkpt lat="47.40021" lon="-0.47478">
        <ele>36.8</ele>
        <time>2021-07-04T09:36:41Z</time>
      </trkpt>
      <trkpt lat="47.40026" lon="-0.47479">
        <ele>36.8</ele>
        <time>2021-07-04T09:36:42Z</time>
      </trkpt>
      <trkpt lat="47.40036" lon="-0.47478">
        <ele>36.8</ele>
        <time>2021-07-04T09:36:44Z</time>
      </trkpt>
      <trkpt lat="47.40042" lon="-0.47479">
        <ele>36.6</ele>
        <time>2021-07-04T09:36:45Z</time>
      </trkpt>
      <trkpt lat="47.40046" lon="-0.47483">
        <ele>36.8</ele>
        <time>2021-07-04T09:36:46Z</time>
      </trkpt>
      <trkpt lat="47.40049" lon="-0.47489">
        <ele>37</ele>
        <time>2021-07-04T09:36:47Z</time>
      </trkpt>
      <trkpt lat="47.40055" lon="-0.47495">
        <ele>37</ele>
        <time>2021-07-04T09:36:48Z</time>
      </trkpt>
      <trkpt lat="47.40061" lon="-0.47509">
        <ele>36.4</ele>
        <time>2021-07-04T09:36:50Z</time>
      </trkpt>
      <trkpt lat="47.40063" lon="-0.47518">
        <ele>36.2</ele>
        <time>2021-07-04T09:36:51Z</time>
      </trkpt>
      <trkpt lat="47.40065" lon="-0.47527">
        <ele>35.8</ele>
        <time>2021-07-04T09:36:52Z</time>
      </trkpt>
      <trkpt lat="47.40066" lon="-0.47536">
        <ele>35.4</ele>
        <time>2021-07-04T09:36:53Z</time>
      </trkpt>
      <trkpt lat="47.40067" lon="-0.47546">
        <ele>34.8</ele>
        <time>2021-07-04T09:36:54Z</time>
      </trkpt>
      <trkpt lat="47.40069" lon="-0.47565">
        <ele>34.2</ele>
        <time>2021-07-04T09:36:56Z</time>
      </trkpt>
      <trkpt lat="47.4007" lon="-0.47583">
        <ele>34.2</ele>
        <time>2021-07-04T09:36:58Z</time>
      </trkpt>
      <trkpt lat="47.40071" lon="-0.47593">
        <ele>34.2</ele>
        <time>2021-07-04T09:36:59Z</time>
      </trkpt>
      <trkpt lat="47.40073" lon="-0.47602">
        <ele>34.4</ele>
        <time>2021-07-04T09:37:00Z</time>
      </trkpt>
      <trkpt lat="47.40075" lon="-0.47611">
        <ele>34.2</ele>
        <time>2021-07-04T09:37:01Z</time>
      </trkpt>
      <trkpt lat="47.40077" lon="-0.4762">
        <ele>34.2</ele>
        <time>2021-07-04T09:37:02Z</time>
      </trkpt>
      <trkpt lat="47.4008" lon="-0.47637">
        <ele>34</ele>
        <time>2021-07-04T09:37:04Z</time>
      </trkpt>
      <trkpt lat="47.40081" lon="-0.47646">
        <ele>34</ele>
        <time>2021-07-04T09:37:05Z</time>
      </trkpt>
      <trkpt lat="47.40081" lon="-0.47654">
        <ele>34.4</ele>
        <time>2021-07-04T09:37:06Z</time>
      </trkpt>
      <trkpt lat="47.40084" lon="-0.47669">
        <ele>35.2</ele>
        <time>2021-07-04T09:37:08Z</time>
      </trkpt>
      <trkpt lat="47.40087" lon="-0.47684">
        <ele>35.4</ele>
        <time>2021-07-04T09:37:10Z</time>
      </trkpt>
      <trkpt lat="47.40087" lon="-0.47692">
        <ele>35.4</ele>
        <time>2021-07-04T09:37:11Z</time>
      </trkpt>
      <trkpt lat="47.40086" lon="-0.47699">
        <ele>35</ele>
        <time>2021-07-04T09:37:12Z</time>
      </trkpt>
      <trkpt lat="47.40081" lon="-0.47712">
        <ele>35.4</ele>
        <time>2021-07-04T09:37:14Z</time>
      </trkpt>
      <trkpt lat="47.40073" lon="-0.47724">
        <ele>36</ele>
        <time>2021-07-04T09:37:16Z</time>
      </trkpt>
      <trkpt lat="47.40066" lon="-0.47735">
        <ele>36.2</ele>
        <time>2021-07-04T09:37:18Z</time>
      </trkpt>
      <trkpt lat="47.40063" lon="-0.47743">
        <ele>36.4</ele>
        <time>2021-07-04T09:37:19Z</time>
      </trkpt>
      <trkpt lat="47.4006" lon="-0.47751">
        <ele>36.4</ele>
        <time>2021-07-04T09:37:20Z</time>
      </trkpt>
      <trkpt lat="47.40056" lon="-0.47768">
        <ele>36.8</ele>
        <time>2021-07-04T09:37:22Z</time>
      </trkpt>
      <trkpt lat="47.40055" lon="-0.47784">
        <ele>36.8</ele>
        <time>2021-07-04T09:37:24Z</time>
      </trkpt>
      <trkpt lat="47.40055" lon="-0.47792">
        <ele>36.8</ele>
        <time>2021-07-04T09:37:25Z</time>
      </trkpt>
      <trkpt lat="47.40057" lon="-0.47799">
        <ele>36.8</ele>
        <time>2021-07-04T09:37:26Z</time>
      </trkpt>
      <trkpt lat="47.40064" lon="-0.47807">
        <ele>36.8</ele>
        <time>2021-07-04T09:37:28Z</time>
      </trkpt>
      <trkpt lat="47.40074" lon="-0.47813">
        <ele>36.8</ele>
        <time>2021-07-04T09:37:30Z</time>
      </trkpt>
      <trkpt lat="47.40084" lon="-0.47819">
        <ele>36.6</ele>
        <time>2021-07-04T09:37:32Z</time>
      </trkpt>
      <trkpt lat="47.40089" lon="-0.47821">
        <ele>36.6</ele>
        <time>2021-07-04T09:37:33Z</time>
      </trkpt>
      <trkpt lat="47.40095" lon="-0.47824">
        <ele>36.2</ele>
        <time>2021-07-04T09:37:34Z</time>
      </trkpt>
      <trkpt lat="47.40106" lon="-0.47828">
        <ele>36</ele>
        <time>2021-07-04T09:37:36Z</time>
      </trkpt>
      <trkpt lat="47.40118" lon="-0.47832">
        <ele>35.8</ele>
        <time>2021-07-04T09:37:38Z</time>
      </trkpt>
      <trkpt lat="47.40131" lon="-0.47834">
        <ele>36.2</ele>
        <time>2021-07-04T09:37:40Z</time>
      </trkpt>
      <trkpt lat="47.40138" lon="-0.47835">
        <ele>36</ele>
        <time>2021-07-04T09:37:41Z</time>
      </trkpt>
      <trkpt lat="47.40145" lon="-0.47836">
        <ele>36.2</ele>
        <time>2021-07-04T09:37:42Z</time>
      </trkpt>
      <trkpt lat="47.40152" lon="-0.47836">
        <ele>36</ele>
        <time>2021-07-04T09:37:43Z</time>
      </trkpt>
      <trkpt lat="47.40159" lon="-0.47835">
        <ele>35.8</ele>
        <time>2021-07-04T09:37:44Z</time>
      </trkpt>
      <trkpt lat="47.40173" lon="-0.47832">
        <ele>35.4</ele>
        <time>2021-07-04T09:37:46Z</time>
      </trkpt>
      <trkpt lat="47.40186" lon="-0.47829">
        <ele>35.8</ele>
        <time>2021-07-04T09:37:48Z</time>
      </trkpt>
      <trkpt lat="47.402" lon="-0.47826">
        <ele>35.6</ele>
        <time>2021-07-04T09:37:50Z</time>
      </trkpt>
      <trkpt lat="47.40206" lon="-0.47825">
        <ele>35</ele>
        <time>2021-07-04T09:37:51Z</time>
      </trkpt>
      <trkpt lat="47.40212" lon="-0.47824">
        <ele>34.6</ele>
        <time>2021-07-04T09:37:52Z</time>
      </trkpt>
      <trkpt lat="47.40218" lon="-0.47823">
        <ele>34.4</ele>
        <time>2021-07-04T09:37:53Z</time>
      </trkpt>
      <trkpt lat="47.40224" lon="-0.47822">
        <ele>34.6</ele>
        <time>2021-07-04T09:37:54Z</time>
      </trkpt>
      <trkpt lat="47.40229" lon="-0.47821">
        <ele>34.8</ele>
        <time>2021-07-04T09:37:55Z</time>
      </trkpt>
      <trkpt lat="47.40235" lon="-0.4782">
        <ele>35.2</ele>
        <time>2021-07-04T09:37:56Z</time>
      </trkpt>
      <trkpt lat="47.40244" lon="-0.47817">
        <ele>35.6</ele>
        <time>2021-07-04T09:37:58Z</time>
      </trkpt>
      <trkpt lat="47.40252" lon="-0.47815">
        <ele>36.2</ele>
        <time>2021-07-04T09:38:00Z</time>
      </trkpt>
      <trkpt lat="47.40262" lon="-0.47813">
        <ele>37.2</ele>
        <time>2021-07-04T09:38:02Z</time>
      </trkpt>
      <trkpt lat="47.40267" lon="-0.47812">
        <ele>37.4</ele>
        <time>2021-07-04T09:38:03Z</time>
      </trkpt>
      <trkpt lat="47.40272" lon="-0.47812">
        <ele>37.8</ele>
        <time>2021-07-04T09:38:04Z</time>
      </trkpt>
      <trkpt lat="47.40281" lon="-0.47808">
        <ele>38.2</ele>
        <time>2021-07-04T09:38:06Z</time>
      </trkpt>
      <trkpt lat="47.40286" lon="-0.47805">
        <ele>38.2</ele>
        <time>2021-07-04T09:38:07Z</time>
      </trkpt>
      <trkpt lat="47.40291" lon="-0.47803">
        <ele>38.2</ele>
        <time>2021-07-04T09:38:08Z</time>
      </trkpt>
      <trkpt lat="47.40295" lon="-0.47801">
        <ele>38.2</ele>
        <time>2021-07-04T09:38:09Z</time>
      </trkpt>
      <trkpt lat="47.403" lon="-0.47798">
        <ele>38.4</ele>
        <time>2021-07-04T09:38:10Z</time>
      </trkpt>
      <trkpt lat="47.40305" lon="-0.47795">
        <ele>38.8</ele>
        <time>2021-07-04T09:38:11Z</time>
      </trkpt>
      <trkpt lat="47.4031" lon="-0.47792">
        <ele>39</ele>
        <time>2021-07-04T09:38:12Z</time>
      </trkpt>
      <trkpt lat="47.4032" lon="-0.47786">
        <ele>39.6</ele>
        <time>2021-07-04T09:38:14Z</time>
      </trkpt>
      <trkpt lat="47.40325" lon="-0.47783">
        <ele>40</ele>
        <time>2021-07-04T09:38:15Z</time>
      </trkpt>
      <trkpt lat="47.40329" lon="-0.4778">
        <ele>40.4</ele>
        <time>2021-07-04T09:38:16Z</time>
      </trkpt>
      <trkpt lat="47.40338" lon="-0.47776">
        <ele>40.6</ele>
        <time>2021-07-04T09:38:18Z</time>
      </trkpt>
      <trkpt lat="47.40342" lon="-0.47773">
        <ele>40.6</ele>
        <time>2021-07-04T09:38:19Z</time>
      </trkpt>
      <trkpt lat="47.40346" lon="-0.47769">
        <ele>40.6</ele>
        <time>2021-07-04T09:38:20Z</time>
      </trkpt>
      <trkpt lat="47.40354" lon="-0.47763">
        <ele>40.8</ele>
        <time>2021-07-04T09:38:22Z</time>
      </trkpt>
      <trkpt lat="47.40361" lon="-0.47757">
        <ele>41</ele>
        <time>2021-07-04T09:38:24Z</time>
      </trkpt>
      <trkpt lat="47.40369" lon="-0.47752">
        <ele>40.8</ele>
        <time>2021-07-04T09:38:26Z</time>
      </trkpt>
      <trkpt lat="47.40377" lon="-0.47746">
        <ele>40.4</ele>
        <time>2021-07-04T09:38:28Z</time>
      </trkpt>
      <trkpt lat="47.40385" lon="-0.47739">
        <ele>40</ele>
        <time>2021-07-04T09:38:30Z</time>
      </trkpt>
      <trkpt lat="47.40394" lon="-0.47732">
        <ele>39.6</ele>
        <time>2021-07-04T09:38:32Z</time>
      </trkpt>
      <trkpt lat="47.40398" lon="-0.47728">
        <ele>39.4</ele>
        <time>2021-07-04T09:38:33Z</time>
      </trkpt>
      <trkpt lat="47.40403" lon="-0.47724">
        <ele>39.2</ele>
        <time>2021-07-04T09:38:34Z</time>
      </trkpt>
      <trkpt lat="47.40408" lon="-0.4772">
        <ele>38.8</ele>
        <time>2021-07-04T09:38:35Z</time>
      </trkpt>
      <trkpt lat="47.40414" lon="-0.47715">
        <ele>38.4</ele>
        <time>2021-07-04T09:38:36Z</time>
      </trkpt>
      <trkpt lat="47.4042" lon="-0.47711">
        <ele>37.8</ele>
        <time>2021-07-04T09:38:37Z</time>
      </trkpt>
      <trkpt lat="47.40427" lon="-0.47706">
        <ele>37</ele>
        <time>2021-07-04T09:38:38Z</time>
      </trkpt>
      <trkpt lat="47.40433" lon="-0.47701">
        <ele>36.2</ele>
        <time>2021-07-04T09:38:39Z</time>
      </trkpt>
      <trkpt lat="47.4044" lon="-0.47697">
        <ele>35.6</ele>
        <time>2021-07-04T09:38:40Z</time>
      </trkpt>
      <trkpt lat="47.40447" lon="-0.47692">
        <ele>35</ele>
        <time>2021-07-04T09:38:41Z</time>
      </trkpt>
      <trkpt lat="47.40454" lon="-0.47686">
        <ele>34.4</ele>
        <time>2021-07-04T09:38:42Z</time>
      </trkpt>
      <trkpt lat="47.40467" lon="-0.47674">
        <ele>33.8</ele>
        <time>2021-07-04T09:38:44Z</time>
      </trkpt>
      <trkpt lat="47.40478" lon="-0.4766">
        <ele>34</ele>
        <time>2021-07-04T09:38:46Z</time>
      </trkpt>
      <trkpt lat="47.40489" lon="-0.47647">
        <ele>34.2</ele>
        <time>2021-07-04T09:38:48Z</time>
      </trkpt>
      <trkpt lat="47.40494" lon="-0.4764">
        <ele>34.4</ele>
        <time>2021-07-04T09:38:49Z</time>
      </trkpt>
      <trkpt lat="47.40499" lon="-0.47632">
        <ele>34.4</ele>
        <time>2021-07-04T09:38:50Z</time>
      </trkpt>
      <trkpt lat="47.40508" lon="-0.47618">
        <ele>34.4</ele>
        <time>2021-07-04T09:38:52Z</time>
      </trkpt>
      <trkpt lat="47.40511" lon="-0.47612">
        <ele>34.8</ele>
        <time>2021-07-04T09:38:53Z</time>
      </trkpt>
      <trkpt lat="47.40515" lon="-0.47606">
        <ele>35.2</ele>
        <time>2021-07-04T09:38:54Z</time>
      </trkpt>
      <trkpt lat="47.40518" lon="-0.476">
        <ele>35.6</ele>
        <time>2021-07-04T09:38:55Z</time>
      </trkpt>
      <trkpt lat="47.40523" lon="-0.47594">
        <ele>36</ele>
        <time>2021-07-04T09:38:56Z</time>
      </trkpt>
      <trkpt lat="47.40532" lon="-0.47582">
        <ele>35.8</ele>
        <time>2021-07-04T09:38:58Z</time>
      </trkpt>
      <trkpt lat="47.40541" lon="-0.4757">
        <ele>34.6</ele>
        <time>2021-07-04T09:39:00Z</time>
      </trkpt>
      <trkpt lat="47.40547" lon="-0.47565">
        <ele>34</ele>
        <time>2021-07-04T09:39:01Z</time>
      </trkpt>
      <trkpt lat="47.40554" lon="-0.4756">
        <ele>33.4</ele>
        <time>2021-07-04T09:39:02Z</time>
      </trkpt>
      <trkpt lat="47.40561" lon="-0.47556">
        <ele>32.8</ele>
        <time>2021-07-04T09:39:03Z</time>
      </trkpt>
      <trkpt lat="47.40568" lon="-0.47552">
        <ele>32.4</ele>
        <time>2021-07-04T09:39:04Z</time>
      </trkpt>
      <trkpt lat="47.40583" lon="-0.47544">
        <ele>31</ele>
        <time>2021-07-04T09:39:06Z</time>
      </trkpt>
      <trkpt lat="47.40599" lon="-0.47535">
        <ele>29.8</ele>
        <time>2021-07-04T09:39:08Z</time>
      </trkpt>
      <trkpt lat="47.40616" lon="-0.47525">
        <ele>29</ele>
        <time>2021-07-04T09:39:10Z</time>
      </trkpt>
      <trkpt lat="47.40625" lon="-0.4752">
        <ele>28.8</ele>
        <time>2021-07-04T09:39:11Z</time>
      </trkpt>
      <trkpt lat="47.40633" lon="-0.47515">
        <ele>28.4</ele>
        <time>2021-07-04T09:39:12Z</time>
      </trkpt>
      <trkpt lat="47.40649" lon="-0.47505">
        <ele>27.4</ele>
        <time>2021-07-04T09:39:14Z</time>
      </trkpt>
      <trkpt lat="47.40664" lon="-0.47496">
        <ele>27.4</ele>
        <time>2021-07-04T09:39:16Z</time>
      </trkpt>
      <trkpt lat="47.40678" lon="-0.47487">
        <ele>27.4</ele>
        <time>2021-07-04T09:39:18Z</time>
      </trkpt>
      <trkpt lat="47.40689" lon="-0.4748">
        <ele>27.8</ele>
        <time>2021-07-04T09:39:20Z</time>
      </trkpt>
      <trkpt lat="47.40694" lon="-0.47476">
        <ele>28</ele>
        <time>2021-07-04T09:39:21Z</time>
      </trkpt>
      <trkpt lat="47.40697" lon="-0.47474">
        <ele>28.6</ele>
        <time>2021-07-04T09:39:22Z</time>
      </trkpt>
      <trkpt lat="47.40699" lon="-0.47473">
        <ele>29.4</ele>
        <time>2021-07-04T09:39:24Z</time>
      </trkpt>
      <trkpt lat="47.40704" lon="-0.47467">
        <ele>29.8</ele>
        <time>2021-07-04T09:39:29Z</time>
      </trkpt>
      <trkpt lat="47.40707" lon="-0.47463">
        <ele>29.8</ele>
        <time>2021-07-04T09:39:31Z</time>
      </trkpt>
      <trkpt lat="47.4071" lon="-0.47458">
        <ele>29.8</ele>
        <time>2021-07-04T09:39:33Z</time>
      </trkpt>
      <trkpt lat="47.40714" lon="-0.47452">
        <ele>29.6</ele>
        <time>2021-07-04T09:39:35Z</time>
      </trkpt>
      <trkpt lat="47.40719" lon="-0.47442">
        <ele>28.8</ele>
        <time>2021-07-04T09:39:37Z</time>
      </trkpt>
      <trkpt lat="47.40722" lon="-0.47438">
        <ele>28</ele>
        <time>2021-07-04T09:39:38Z</time>
      </trkpt>
      <trkpt lat="47.40725" lon="-0.47433">
        <ele>27.8</ele>
        <time>2021-07-04T09:39:39Z</time>
      </trkpt>
      <trkpt lat="47.40731" lon="-0.47424">
        <ele>27.2</ele>
        <time>2021-07-04T09:39:41Z</time>
      </trkpt>
      <trkpt lat="47.40734" lon="-0.4742">
        <ele>26.8</ele>
        <time>2021-07-04T09:39:42Z</time>
      </trkpt>
      <trkpt lat="47.40738" lon="-0.47415">
        <ele>26.4</ele>
        <time>2021-07-04T09:39:43Z</time>
      </trkpt>
      <trkpt lat="47.40746" lon="-0.47407">
        <ele>26.4</ele>
        <time>2021-07-04T09:39:45Z</time>
      </trkpt>
      <trkpt lat="47.40751" lon="-0.47398">
        <ele>26.2</ele>
        <time>2021-07-04T09:39:47Z</time>
      </trkpt>
      <trkpt lat="47.4075" lon="-0.4739">
        <ele>26</ele>
        <time>2021-07-04T09:39:49Z</time>
      </trkpt>
      <trkpt lat="47.40748" lon="-0.47386">
        <ele>25.6</ele>
        <time>2021-07-04T09:39:50Z</time>
      </trkpt>
      <trkpt lat="47.40745" lon="-0.47381">
        <ele>25.4</ele>
        <time>2021-07-04T09:39:51Z</time>
      </trkpt>
      <trkpt lat="47.4074" lon="-0.4737">
        <ele>25.6</ele>
        <time>2021-07-04T09:39:53Z</time>
      </trkpt>
      <trkpt lat="47.40737" lon="-0.47365">
        <ele>25.6</ele>
        <time>2021-07-04T09:39:54Z</time>
      </trkpt>
      <trkpt lat="47.40734" lon="-0.4736">
        <ele>25.6</ele>
        <time>2021-07-04T09:39:55Z</time>
      </trkpt>
      <trkpt lat="47.40726" lon="-0.47353">
        <ele>25.6</ele>
        <time>2021-07-04T09:39:57Z</time>
      </trkpt>
      <trkpt lat="47.40721" lon="-0.4735">
        <ele>25.4</ele>
        <time>2021-07-04T09:39:58Z</time>
      </trkpt>
      <trkpt lat="47.40716" lon="-0.47348">
        <ele>25.2</ele>
        <time>2021-07-04T09:39:59Z</time>
      </trkpt>
      <trkpt lat="47.40707" lon="-0.47342">
        <ele>25</ele>
        <time>2021-07-04T09:40:01Z</time>
      </trkpt>
      <trkpt lat="47.407" lon="-0.47334">
        <ele>25.4</ele>
        <time>2021-07-04T09:40:03Z</time>
      </trkpt>
      <trkpt lat="47.40693" lon="-0.47324">
        <ele>25.2</ele>
        <time>2021-07-04T09:40:05Z</time>
      </trkpt>
      <trkpt lat="47.40686" lon="-0.47312">
        <ele>25.6</ele>
        <time>2021-07-04T09:40:07Z</time>
      </trkpt>
      <trkpt lat="47.40682" lon="-0.47306">
        <ele>26</ele>
        <time>2021-07-04T09:40:08Z</time>
      </trkpt>
      <trkpt lat="47.40678" lon="-0.47301">
        <ele>26</ele>
        <time>2021-07-04T09:40:09Z</time>
      </trkpt>
      <trkpt lat="47.40669" lon="-0.47293">
        <ele>26</ele>
        <time>2021-07-04T09:40:11Z</time>
      </trkpt>
      <trkpt lat="47.4066" lon="-0.47288">
        <ele>25.8</ele>
        <time>2021-07-04T09:40:13Z</time>
      </trkpt>
      <trkpt lat="47.40655" lon="-0.47286">
        <ele>25.8</ele>
        <time>2021-07-04T09:40:14Z</time>
      </trkpt>
      <trkpt lat="47.40651" lon="-0.47284">
        <ele>25.6</ele>
        <time>2021-07-04T09:40:15Z</time>
      </trkpt>
      <trkpt lat="47.40643" lon="-0.47279">
        <ele>25.6</ele>
        <time>2021-07-04T09:40:17Z</time>
      </trkpt>
      <trkpt lat="47.40639" lon="-0.47269">
        <ele>25.4</ele>
        <time>2021-07-04T09:40:19Z</time>
      </trkpt>
      <trkpt lat="47.40637" lon="-0.47262">
        <ele>25.2</ele>
        <time>2021-07-04T09:40:20Z</time>
      </trkpt>
      <trkpt lat="47.40636" lon="-0.47255">
        <ele>25</ele>
        <time>2021-07-04T09:40:21Z</time>
      </trkpt>
      <trkpt lat="47.40634" lon="-0.4724">
        <ele>24.6</ele>
        <time>2021-07-04T09:40:23Z</time>
      </trkpt>
      <trkpt lat="47.40632" lon="-0.47225">
        <ele>24.6</ele>
        <time>2021-07-04T09:40:25Z</time>
      </trkpt>
      <trkpt lat="47.40631" lon="-0.4722">
        <ele>24.8</ele>
        <time>2021-07-04T09:40:26Z</time>
      </trkpt>
      <trkpt lat="47.4063" lon="-0.47217">
        <ele>25.2</ele>
        <time>2021-07-04T09:40:27Z</time>
      </trkpt>
      <trkpt lat="47.40631" lon="-0.47214">
        <ele>25.8</ele>
        <time>2021-07-04T09:40:28Z</time>
      </trkpt>
      <trkpt lat="47.40632" lon="-0.47212">
        <ele>26.2</ele>
        <time>2021-07-04T09:40:29Z</time>
      </trkpt>
      <trkpt lat="47.40637" lon="-0.47208">
        <ele>26</ele>
        <time>2021-07-04T09:40:31Z</time>
      </trkpt>
      <trkpt lat="47.40643" lon="-0.47203">
        <ele>25.8</ele>
        <time>2021-07-04T09:40:33Z</time>
      </trkpt>
      <trkpt lat="47.40645" lon="-0.472">
        <ele>25.8</ele>
        <time>2021-07-04T09:40:34Z</time>
      </trkpt>
      <trkpt lat="47.40646" lon="-0.47197">
        <ele>26</ele>
        <time>2021-07-04T09:40:35Z</time>
      </trkpt>
      <trkpt lat="47.40647" lon="-0.47187">
        <ele>25.8</ele>
        <time>2021-07-04T09:40:37Z</time>
      </trkpt>
      <trkpt lat="47.40648" lon="-0.47176">
        <ele>26.2</ele>
        <time>2021-07-04T09:40:39Z</time>
      </trkpt>
      <trkpt lat="47.40649" lon="-0.47169">
        <ele>26</ele>
        <time>2021-07-04T09:40:40Z</time>
      </trkpt>
      <trkpt lat="47.40649" lon="-0.47161">
        <ele>25.6</ele>
        <time>2021-07-04T09:40:41Z</time>
      </trkpt>
      <trkpt lat="47.4065" lon="-0.47153">
        <ele>24.8</ele>
        <time>2021-07-04T09:40:42Z</time>
      </trkpt>
      <trkpt lat="47.4065" lon="-0.47144">
        <ele>24.4</ele>
        <time>2021-07-04T09:40:43Z</time>
      </trkpt>
      <trkpt lat="47.40651" lon="-0.47126">
        <ele>24.4</ele>
        <time>2021-07-04T09:40:45Z</time>
      </trkpt>
      <trkpt lat="47.40651" lon="-0.47109">
        <ele>24.4</ele>
        <time>2021-07-04T09:40:47Z</time>
      </trkpt>
      <trkpt lat="47.40651" lon="-0.4709">
        <ele>23.8</ele>
        <time>2021-07-04T09:40:49Z</time>
      </trkpt>
      <trkpt lat="47.4065" lon="-0.47072">
        <ele>24.2</ele>
        <time>2021-07-04T09:40:51Z</time>
      </trkpt>
      <trkpt lat="47.4065" lon="-0.47064">
        <ele>24.2</ele>
        <time>2021-07-04T09:40:52Z</time>
      </trkpt>
      <trkpt lat="47.40651" lon="-0.47056">
        <ele>24.6</ele>
        <time>2021-07-04T09:40:53Z</time>
      </trkpt>
      <trkpt lat="47.40652" lon="-0.47048">
        <ele>24.4</ele>
        <time>2021-07-04T09:40:54Z</time>
      </trkpt>
      <trkpt lat="47.40653" lon="-0.4704">
        <ele>24.6</ele>
        <time>2021-07-04T09:40:55Z</time>
      </trkpt>
      <trkpt lat="47.40655" lon="-0.47023">
        <ele>24.6</ele>
        <time>2021-07-04T09:40:57Z</time>
      </trkpt>
      <trkpt lat="47.40659" lon="-0.47006">
        <ele>24.4</ele>
        <time>2021-07-04T09:40:59Z</time>
      </trkpt>
      <trkpt lat="47.40662" lon="-0.46991">
        <ele>24.6</ele>
        <time>2021-07-04T09:41:01Z</time>
      </trkpt>
      <trkpt lat="47.40666" lon="-0.46972">
        <ele>24.2</ele>
        <time>2021-07-04T09:41:03Z</time>
      </trkpt>
      <trkpt lat="47.40666" lon="-0.46963">
        <ele>24</ele>
        <time>2021-07-04T09:41:04Z</time>
      </trkpt>
      <trkpt lat="47.40665" lon="-0.46954">
        <ele>23.8</ele>
        <time>2021-07-04T09:41:05Z</time>
      </trkpt>
      <trkpt lat="47.40662" lon="-0.46939">
        <ele>24</ele>
        <time>2021-07-04T09:41:07Z</time>
      </trkpt>
      <trkpt lat="47.40661" lon="-0.46931">
        <ele>24</ele>
        <time>2021-07-04T09:41:08Z</time>
      </trkpt>
      <trkpt lat="47.4066" lon="-0.46924">
        <ele>24</ele>
        <time>2021-07-04T09:41:09Z</time>
      </trkpt>
      <trkpt lat="47.40657" lon="-0.46908">
        <ele>23.4</ele>
        <time>2021-07-04T09:41:11Z</time>
      </trkpt>
      <trkpt lat="47.40654" lon="-0.46891">
        <ele>23.6</ele>
        <time>2021-07-04T09:41:13Z</time>
      </trkpt>
      <trkpt lat="47.40652" lon="-0.46875">
        <ele>24.2</ele>
        <time>2021-07-04T09:41:15Z</time>
      </trkpt>
      <trkpt lat="47.40649" lon="-0.46859">
        <ele>24.4</ele>
        <time>2021-07-04T09:41:17Z</time>
      </trkpt>
      <trkpt lat="47.40648" lon="-0.46851">
        <ele>24.6</ele>
        <time>2021-07-04T09:41:18Z</time>
      </trkpt>
      <trkpt lat="47.40646" lon="-0.46843">
        <ele>24.6</ele>
        <time>2021-07-04T09:41:19Z</time>
      </trkpt>
      <trkpt lat="47.40644" lon="-0.46835">
        <ele>24.6</ele>
        <time>2021-07-04T09:41:20Z</time>
      </trkpt>
      <trkpt lat="47.40643" lon="-0.46827">
        <ele>24.8</ele>
        <time>2021-07-04T09:41:21Z</time>
      </trkpt>
      <trkpt lat="47.40638" lon="-0.4681">
        <ele>25.6</ele>
        <time>2021-07-04T09:41:23Z</time>
      </trkpt>
      <trkpt lat="47.40635" lon="-0.46794">
        <ele>25.4</ele>
        <time>2021-07-04T09:41:25Z</time>
      </trkpt>
      <trkpt lat="47.40632" lon="-0.46778">
        <ele>25</ele>
        <time>2021-07-04T09:41:27Z</time>
      </trkpt>
      <trkpt lat="47.40631" lon="-0.4677">
        <ele>25</ele>
        <time>2021-07-04T09:41:28Z</time>
      </trkpt>
      <trkpt lat="47.4063" lon="-0.46762">
        <ele>25</ele>
        <time>2021-07-04T09:41:29Z</time>
      </trkpt>
      <trkpt lat="47.40628" lon="-0.46746">
        <ele>25</ele>
        <time>2021-07-04T09:41:31Z</time>
      </trkpt>
      <trkpt lat="47.40628" lon="-0.46737">
        <ele>24.8</ele>
        <time>2021-07-04T09:41:32Z</time>
      </trkpt>
      <trkpt lat="47.40627" lon="-0.46729">
        <ele>24.8</ele>
        <time>2021-07-04T09:41:33Z</time>
      </trkpt>
      <trkpt lat="47.40625" lon="-0.46721">
        <ele>24.6</ele>
        <time>2021-07-04T09:41:34Z</time>
      </trkpt>
      <trkpt lat="47.40623" lon="-0.46712">
        <ele>24.4</ele>
        <time>2021-07-04T09:41:35Z</time>
      </trkpt>
      <trkpt lat="47.40618" lon="-0.46697">
        <ele>24.6</ele>
        <time>2021-07-04T09:41:37Z</time>
      </trkpt>
      <trkpt lat="47.40614" lon="-0.4668">
        <ele>24.4</ele>
        <time>2021-07-04T09:41:39Z</time>
      </trkpt>
      <trkpt lat="47.40611" lon="-0.46663">
        <ele>24.4</ele>
        <time>2021-07-04T09:41:41Z</time>
      </trkpt>
      <trkpt lat="47.40608" lon="-0.46646">
        <ele>24.4</ele>
        <time>2021-07-04T09:41:43Z</time>
      </trkpt>
      <trkpt lat="47.40606" lon="-0.46638">
        <ele>24.8</ele>
        <time>2021-07-04T09:41:44Z</time>
      </trkpt>
      <trkpt lat="47.40604" lon="-0.46629">
        <ele>24.8</ele>
        <time>2021-07-04T09:41:45Z</time>
      </trkpt>
      <trkpt lat="47.406" lon="-0.46611">
        <ele>24.4</ele>
        <time>2021-07-04T09:41:47Z</time>
      </trkpt>
      <trkpt lat="47.40596" lon="-0.46594">
        <ele>23.8</ele>
        <time>2021-07-04T09:41:49Z</time>
      </trkpt>
      <trkpt lat="47.40591" lon="-0.46578">
        <ele>24.8</ele>
        <time>2021-07-04T09:41:51Z</time>
      </trkpt>
      <trkpt lat="47.40589" lon="-0.4657">
        <ele>25</ele>
        <time>2021-07-04T09:41:52Z</time>
      </trkpt>
      <trkpt lat="47.40587" lon="-0.46563">
        <ele>24.4</ele>
        <time>2021-07-04T09:41:53Z</time>
      </trkpt>
      <trkpt lat="47.40583" lon="-0.46548">
        <ele>24.6</ele>
        <time>2021-07-04T09:41:55Z</time>
      </trkpt>
      <trkpt lat="47.40578" lon="-0.46532">
        <ele>24.8</ele>
        <time>2021-07-04T09:41:57Z</time>
      </trkpt>
      <trkpt lat="47.40577" lon="-0.46524">
        <ele>24.6</ele>
        <time>2021-07-04T09:41:58Z</time>
      </trkpt>
      <trkpt lat="47.40575" lon="-0.46515">
        <ele>24.4</ele>
        <time>2021-07-04T09:41:59Z</time>
      </trkpt>
      <trkpt lat="47.40573" lon="-0.46506">
        <ele>24.2</ele>
        <time>2021-07-04T09:42:00Z</time>
      </trkpt>
      <trkpt lat="47.40571" lon="-0.46497">
        <ele>24.4</ele>
        <time>2021-07-04T09:42:01Z</time>
      </trkpt>
      <trkpt lat="47.40569" lon="-0.46488">
        <ele>24.6</ele>
        <time>2021-07-04T09:42:02Z</time>
      </trkpt>
      <trkpt lat="47.40567" lon="-0.46478">
        <ele>24.6</ele>
        <time>2021-07-04T09:42:03Z</time>
      </trkpt>
      <trkpt lat="47.40562" lon="-0.4646">
        <ele>24.4</ele>
        <time>2021-07-04T09:42:05Z</time>
      </trkpt>
      <trkpt lat="47.40559" lon="-0.46452">
        <ele>24.4</ele>
        <time>2021-07-04T09:42:06Z</time>
      </trkpt>
      <trkpt lat="47.40555" lon="-0.46445">
        <ele>24.4</ele>
        <time>2021-07-04T09:42:07Z</time>
      </trkpt>
      <trkpt lat="47.40551" lon="-0.46437">
        <ele>24.6</ele>
        <time>2021-07-04T09:42:08Z</time>
      </trkpt>
      <trkpt lat="47.40547" lon="-0.4643">
        <ele>24.6</ele>
        <time>2021-07-04T09:42:09Z</time>
      </trkpt>
      <trkpt lat="47.40545" lon="-0.46422">
        <ele>24.6</ele>
        <time>2021-07-04T09:42:10Z</time>
      </trkpt>
      <trkpt lat="47.40544" lon="-0.46414">
        <ele>24.6</ele>
        <time>2021-07-04T09:42:11Z</time>
      </trkpt>
      <trkpt lat="47.40546" lon="-0.46407">
        <ele>24.6</ele>
        <time>2021-07-04T09:42:12Z</time>
      </trkpt>
      <trkpt lat="47.4055" lon="-0.46403">
        <ele>24.4</ele>
        <time>2021-07-04T09:42:13Z</time>
      </trkpt>
      <trkpt lat="47.4056" lon="-0.464">
        <ele>24.6</ele>
        <time>2021-07-04T09:42:15Z</time>
      </trkpt>
      <trkpt lat="47.40571" lon="-0.46403">
        <ele>24.4</ele>
        <time>2021-07-04T09:42:17Z</time>
      </trkpt>
      <trkpt lat="47.40582" lon="-0.46409">
        <ele>24.2</ele>
        <time>2021-07-04T09:42:19Z</time>
      </trkpt>
      <trkpt lat="47.40588" lon="-0.46412">
        <ele>24.2</ele>
        <time>2021-07-04T09:42:20Z</time>
      </trkpt>
      <trkpt lat="47.40594" lon="-0.46415">
        <ele>24.2</ele>
        <time>2021-07-04T09:42:21Z</time>
      </trkpt>
      <trkpt lat="47.40606" lon="-0.46421">
        <ele>23.8</ele>
        <time>2021-07-04T09:42:23Z</time>
      </trkpt>
      <trkpt lat="47.40618" lon="-0.46426">
        <ele>24.2</ele>
        <time>2021-07-04T09:42:25Z</time>
      </trkpt>
      <trkpt lat="47.40629" lon="-0.46432">
        <ele>24.2</ele>
        <time>2021-07-04T09:42:27Z</time>
      </trkpt>
      <trkpt lat="47.40641" lon="-0.46437">
        <ele>24.4</ele>
        <time>2021-07-04T09:42:29Z</time>
      </trkpt>
      <trkpt lat="47.40654" lon="-0.46443">
        <ele>24.4</ele>
        <time>2021-07-04T09:42:31Z</time>
      </trkpt>
      <trkpt lat="47.4066" lon="-0.46445">
        <ele>24.2</ele>
        <time>2021-07-04T09:42:32Z</time>
      </trkpt>
      <trkpt lat="47.40666" lon="-0.46448">
        <ele>23.8</ele>
        <time>2021-07-04T09:42:33Z</time>
      </trkpt>
      <trkpt lat="47.40678" lon="-0.46454">
        <ele>24</ele>
        <time>2021-07-04T09:42:35Z</time>
      </trkpt>
      <trkpt lat="47.4069" lon="-0.4646">
        <ele>23.6</ele>
        <time>2021-07-04T09:42:37Z</time>
      </trkpt>
      <trkpt lat="47.40701" lon="-0.46465">
        <ele>23.8</ele>
        <time>2021-07-04T09:42:39Z</time>
      </trkpt>
      <trkpt lat="47.40712" lon="-0.4647">
        <ele>23.8</ele>
        <time>2021-07-04T09:42:41Z</time>
      </trkpt>
      <trkpt lat="47.40723" lon="-0.46476">
        <ele>23.4</ele>
        <time>2021-07-04T09:42:43Z</time>
      </trkpt>
      <trkpt lat="47.40734" lon="-0.46482">
        <ele>23.8</ele>
        <time>2021-07-04T09:42:45Z</time>
      </trkpt>
      <trkpt lat="47.40739" lon="-0.46485">
        <ele>24</ele>
        <time>2021-07-04T09:42:46Z</time>
      </trkpt>
      <trkpt lat="47.40743" lon="-0.46487">
        <ele>24</ele>
        <time>2021-07-04T09:42:47Z</time>
      </trkpt>
      <trkpt lat="47.40753" lon="-0.46493">
        <ele>24.2</ele>
        <time>2021-07-04T09:42:49Z</time>
      </trkpt>
      <trkpt lat="47.4076" lon="-0.46496">
        <ele>23.8</ele>
        <time>2021-07-04T09:42:50Z</time>
      </trkpt>
      <trkpt lat="47.40766" lon="-0.465">
        <ele>23.8</ele>
        <time>2021-07-04T09:42:51Z</time>
      </trkpt>
      <trkpt lat="47.40779" lon="-0.46506">
        <ele>23.6</ele>
        <time>2021-07-04T09:42:53Z</time>
      </trkpt>
      <trkpt lat="47.40791" lon="-0.46512">
        <ele>23.2</ele>
        <time>2021-07-04T09:42:55Z</time>
      </trkpt>
      <trkpt lat="47.40797" lon="-0.46515">
        <ele>23.6</ele>
        <time>2021-07-04T09:42:56Z</time>
      </trkpt>
      <trkpt lat="47.40803" lon="-0.46518">
        <ele>23.6</ele>
        <time>2021-07-04T09:42:57Z</time>
      </trkpt>
      <trkpt lat="47.40815" lon="-0.46525">
        <ele>23.4</ele>
        <time>2021-07-04T09:42:59Z</time>
      </trkpt>
      <trkpt lat="47.40825" lon="-0.46531">
        <ele>23.6</ele>
        <time>2021-07-04T09:43:01Z</time>
      </trkpt>
      <trkpt lat="47.40831" lon="-0.46534">
        <ele>23.6</ele>
        <time>2021-07-04T09:43:02Z</time>
      </trkpt>
      <trkpt lat="47.40836" lon="-0.46537">
        <ele>23.6</ele>
        <time>2021-07-04T09:43:03Z</time>
      </trkpt>
      <trkpt lat="47.40847" lon="-0.46543">
        <ele>24.2</ele>
        <time>2021-07-04T09:43:05Z</time>
      </trkpt>
      <trkpt lat="47.40858" lon="-0.4655">
        <ele>24.2</ele>
        <time>2021-07-04T09:43:07Z</time>
      </trkpt>
      <trkpt lat="47.40868" lon="-0.46557">
        <ele>24.4</ele>
        <time>2021-07-04T09:43:09Z</time>
      </trkpt>
      <trkpt lat="47.40873" lon="-0.46562">
        <ele>24.8</ele>
        <time>2021-07-04T09:43:10Z</time>
      </trkpt>
      <trkpt lat="47.40878" lon="-0.46568">
        <ele>24.8</ele>
        <time>2021-07-04T09:43:11Z</time>
      </trkpt>
      <trkpt lat="47.40881" lon="-0.46576">
        <ele>25.2</ele>
        <time>2021-07-04T09:43:12Z</time>
      </trkpt>
      <trkpt lat="47.40884" lon="-0.46584">
        <ele>25.6</ele>
        <time>2021-07-04T09:43:13Z</time>
      </trkpt>
      <trkpt lat="47.40889" lon="-0.46603">
        <ele>25</ele>
        <time>2021-07-04T09:43:15Z</time>
      </trkpt>
      <trkpt lat="47.40894" lon="-0.46621">
        <ele>24.6</ele>
        <time>2021-07-04T09:43:17Z</time>
      </trkpt>
      <trkpt lat="47.409" lon="-0.46639">
        <ele>24.4</ele>
        <time>2021-07-04T09:43:19Z</time>
      </trkpt>
      <trkpt lat="47.40906" lon="-0.46657">
        <ele>24.8</ele>
        <time>2021-07-04T09:43:21Z</time>
      </trkpt>
      <trkpt lat="47.40912" lon="-0.46674">
        <ele>24.8</ele>
        <time>2021-07-04T09:43:23Z</time>
      </trkpt>
      <trkpt lat="47.40915" lon="-0.46682">
        <ele>24.8</ele>
        <time>2021-07-04T09:43:24Z</time>
      </trkpt>
      <trkpt lat="47.40917" lon="-0.4669">
        <ele>24.8</ele>
        <time>2021-07-04T09:43:25Z</time>
      </trkpt>
      <trkpt lat="47.40922" lon="-0.46707">
        <ele>25</ele>
        <time>2021-07-04T09:43:27Z</time>
      </trkpt>
      <trkpt lat="47.40926" lon="-0.46724">
        <ele>25.2</ele>
        <time>2021-07-04T09:43:29Z</time>
      </trkpt>
      <trkpt lat="47.40929" lon="-0.46732">
        <ele>25.4</ele>
        <time>2021-07-04T09:43:30Z</time>
      </trkpt>
      <trkpt lat="47.40931" lon="-0.46741">
        <ele>25.4</ele>
        <time>2021-07-04T09:43:31Z</time>
      </trkpt>
      <trkpt lat="47.40936" lon="-0.46758">
        <ele>25.2</ele>
        <time>2021-07-04T09:43:33Z</time>
      </trkpt>
      <trkpt lat="47.40941" lon="-0.46775">
        <ele>25</ele>
        <time>2021-07-04T09:43:35Z</time>
      </trkpt>
      <trkpt lat="47.40946" lon="-0.46792">
        <ele>25.4</ele>
        <time>2021-07-04T09:43:37Z</time>
      </trkpt>
      <trkpt lat="47.40951" lon="-0.46809">
        <ele>24.8</ele>
        <time>2021-07-04T09:43:39Z</time>
      </trkpt>
      <trkpt lat="47.40955" lon="-0.46827">
        <ele>24.2</ele>
        <time>2021-07-04T09:43:41Z</time>
      </trkpt>
      <trkpt lat="47.4096" lon="-0.46845">
        <ele>23.8</ele>
        <time>2021-07-04T09:43:43Z</time>
      </trkpt>
      <trkpt lat="47.40964" lon="-0.46864">
        <ele>24.2</ele>
        <time>2021-07-04T09:43:45Z</time>
      </trkpt>
      <trkpt lat="47.40967" lon="-0.46874">
        <ele>24.6</ele>
        <time>2021-07-04T09:43:46Z</time>
      </trkpt>
      <trkpt lat="47.40969" lon="-0.46883">
        <ele>25.2</ele>
        <time>2021-07-04T09:43:47Z</time>
      </trkpt>
      <trkpt lat="47.40973" lon="-0.46901">
        <ele>25.6</ele>
        <time>2021-07-04T09:43:49Z</time>
      </trkpt>
      <trkpt lat="47.40977" lon="-0.46919">
        <ele>25.2</ele>
        <time>2021-07-04T09:43:51Z</time>
      </trkpt>
      <trkpt lat="47.40982" lon="-0.46937">
        <ele>24.8</ele>
        <time>2021-07-04T09:43:53Z</time>
      </trkpt>
      <trkpt lat="47.40986" lon="-0.46955">
        <ele>24.6</ele>
        <time>2021-07-04T09:43:55Z</time>
      </trkpt>
      <trkpt lat="47.40991" lon="-0.46973">
        <ele>24.2</ele>
        <time>2021-07-04T09:43:57Z</time>
      </trkpt>
      <trkpt lat="47.40994" lon="-0.46991">
        <ele>24.4</ele>
        <time>2021-07-04T09:43:59Z</time>
      </trkpt>
      <trkpt lat="47.40999" lon="-0.47009">
        <ele>24.2</ele>
        <time>2021-07-04T09:44:01Z</time>
      </trkpt>
      <trkpt lat="47.41001" lon="-0.47018">
        <ele>23.4</ele>
        <time>2021-07-04T09:44:02Z</time>
      </trkpt>
      <trkpt lat="47.41002" lon="-0.47027">
        <ele>22.8</ele>
        <time>2021-07-04T09:44:03Z</time>
      </trkpt>
      <trkpt lat="47.41006" lon="-0.47045">
        <ele>23.2</ele>
        <time>2021-07-04T09:44:05Z</time>
      </trkpt>
      <trkpt lat="47.41011" lon="-0.47063">
        <ele>25</ele>
        <time>2021-07-04T09:44:07Z</time>
      </trkpt>
      <trkpt lat="47.41015" lon="-0.47082">
        <ele>25.2</ele>
        <time>2021-07-04T09:44:09Z</time>
      </trkpt>
      <trkpt lat="47.4102" lon="-0.47101">
        <ele>25.2</ele>
        <time>2021-07-04T09:44:11Z</time>
      </trkpt>
      <trkpt lat="47.41024" lon="-0.4712">
        <ele>24.4</ele>
        <time>2021-07-04T09:44:13Z</time>
      </trkpt>
      <trkpt lat="47.41029" lon="-0.47138">
        <ele>24</ele>
        <time>2021-07-04T09:44:15Z</time>
      </trkpt>
      <trkpt lat="47.41031" lon="-0.47147">
        <ele>23.8</ele>
        <time>2021-07-04T09:44:16Z</time>
      </trkpt>
      <trkpt lat="47.41033" lon="-0.47157">
        <ele>23.8</ele>
        <time>2021-07-04T09:44:17Z</time>
      </trkpt>
      <trkpt lat="47.41037" lon="-0.47175">
        <ele>23.8</ele>
        <time>2021-07-04T09:44:19Z</time>
      </trkpt>
      <trkpt lat="47.41041" lon="-0.47193">
        <ele>23.6</ele>
        <time>2021-07-04T09:44:21Z</time>
      </trkpt>
      <trkpt lat="47.41045" lon="-0.47209">
        <ele>23.4</ele>
        <time>2021-07-04T09:44:23Z</time>
      </trkpt>
      <trkpt lat="47.41049" lon="-0.47226">
        <ele>24</ele>
        <time>2021-07-04T09:44:25Z</time>
      </trkpt>
      <trkpt lat="47.4105" lon="-0.47234">
        <ele>24.2</ele>
        <time>2021-07-04T09:44:26Z</time>
      </trkpt>
      <trkpt lat="47.41052" lon="-0.47241">
        <ele>24.4</ele>
        <time>2021-07-04T09:44:27Z</time>
      </trkpt>
      <trkpt lat="47.41053" lon="-0.47247">
        <ele>24.8</ele>
        <time>2021-07-04T09:44:28Z</time>
      </trkpt>
      <trkpt lat="47.41054" lon="-0.47253">
        <ele>25.2</ele>
        <time>2021-07-04T09:44:29Z</time>
      </trkpt>
      <trkpt lat="47.41056" lon="-0.47261">
        <ele>26</ele>
        <time>2021-07-04T09:44:31Z</time>
      </trkpt>
      <trkpt lat="47.41057" lon="-0.47269">
        <ele>26.2</ele>
        <time>2021-07-04T09:44:39Z</time>
      </trkpt>
      <trkpt lat="47.41055" lon="-0.47278">
        <ele>26.2</ele>
        <time>2021-07-04T09:44:41Z</time>
      </trkpt>
      <trkpt lat="47.41052" lon="-0.4729">
        <ele>26.2</ele>
        <time>2021-07-04T09:44:43Z</time>
      </trkpt>
      <trkpt lat="47.41048" lon="-0.47304">
        <ele>26</ele>
        <time>2021-07-04T09:44:45Z</time>
      </trkpt>
      <trkpt lat="47.41046" lon="-0.47311">
        <ele>25.8</ele>
        <time>2021-07-04T09:44:46Z</time>
      </trkpt>
      <trkpt lat="47.41044" lon="-0.47319">
        <ele>25.6</ele>
        <time>2021-07-04T09:44:47Z</time>
      </trkpt>
      <trkpt lat="47.4104" lon="-0.47334">
        <ele>26.2</ele>
        <time>2021-07-04T09:44:49Z</time>
      </trkpt>
      <trkpt lat="47.41036" lon="-0.4735">
        <ele>26.4</ele>
        <time>2021-07-04T09:44:51Z</time>
      </trkpt>
      <trkpt lat="47.41033" lon="-0.47365">
        <ele>26.2</ele>
        <time>2021-07-04T09:44:53Z</time>
      </trkpt>
      <trkpt lat="47.41029" lon="-0.47379">
        <ele>25.6</ele>
        <time>2021-07-04T09:44:55Z</time>
      </trkpt>
      <trkpt lat="47.41026" lon="-0.47394">
        <ele>25.6</ele>
        <time>2021-07-04T09:44:57Z</time>
      </trkpt>
      <trkpt lat="47.41023" lon="-0.47407">
        <ele>26</ele>
        <time>2021-07-04T09:44:59Z</time>
      </trkpt>
      <trkpt lat="47.41019" lon="-0.4742">
        <ele>26.2</ele>
        <time>2021-07-04T09:45:01Z</time>
      </trkpt>
      <trkpt lat="47.41015" lon="-0.47434">
        <ele>26</ele>
        <time>2021-07-04T09:45:03Z</time>
      </trkpt>
      <trkpt lat="47.4101" lon="-0.4745">
        <ele>25.2</ele>
        <time>2021-07-04T09:45:05Z</time>
      </trkpt>
      <trkpt lat="47.41004" lon="-0.47465">
        <ele>25.2</ele>
        <time>2021-07-04T09:45:07Z</time>
      </trkpt>
      <trkpt lat="47.41002" lon="-0.47474">
        <ele>25</ele>
        <time>2021-07-04T09:45:08Z</time>
      </trkpt>
      <trkpt lat="47.40999" lon="-0.47482">
        <ele>24.8</ele>
        <time>2021-07-04T09:45:09Z</time>
      </trkpt>
      <trkpt lat="47.40994" lon="-0.47499">
        <ele>25.2</ele>
        <time>2021-07-04T09:45:11Z</time>
      </trkpt>
      <trkpt lat="47.4099" lon="-0.47516">
        <ele>25.6</ele>
        <time>2021-07-04T09:45:13Z</time>
      </trkpt>
      <trkpt lat="47.40988" lon="-0.47525">
        <ele>25.4</ele>
        <time>2021-07-04T09:45:14Z</time>
      </trkpt>
      <trkpt lat="47.40987" lon="-0.47534">
        <ele>25</ele>
        <time>2021-07-04T09:45:15Z</time>
      </trkpt>
      <trkpt lat="47.40985" lon="-0.47553">
        <ele>24.8</ele>
        <time>2021-07-04T09:45:17Z</time>
      </trkpt>
      <trkpt lat="47.40984" lon="-0.47562">
        <ele>24.6</ele>
        <time>2021-07-04T09:45:18Z</time>
      </trkpt>
      <trkpt lat="47.40984" lon="-0.4757">
        <ele>24.8</ele>
        <time>2021-07-04T09:45:19Z</time>
      </trkpt>
      <trkpt lat="47.40983" lon="-0.47589">
        <ele>24.8</ele>
        <time>2021-07-04T09:45:21Z</time>
      </trkpt>
      <trkpt lat="47.40983" lon="-0.47607">
        <ele>25</ele>
        <time>2021-07-04T09:45:23Z</time>
      </trkpt>
      <trkpt lat="47.40982" lon="-0.47623">
        <ele>25.2</ele>
        <time>2021-07-04T09:45:25Z</time>
      </trkpt>
      <trkpt lat="47.40981" lon="-0.47637">
        <ele>25.6</ele>
        <time>2021-07-04T09:45:27Z</time>
      </trkpt>
      <trkpt lat="47.4098" lon="-0.47651">
        <ele>26.4</ele>
        <time>2021-07-04T09:45:29Z</time>
      </trkpt>
      <trkpt lat="47.40979" lon="-0.47658">
        <ele>26.4</ele>
        <time>2021-07-04T09:45:30Z</time>
      </trkpt>
      <trkpt lat="47.40979" lon="-0.47665">
        <ele>26.6</ele>
        <time>2021-07-04T09:45:31Z</time>
      </trkpt>
      <trkpt lat="47.40977" lon="-0.47678">
        <ele>26.6</ele>
        <time>2021-07-04T09:45:33Z</time>
      </trkpt>
      <trkpt lat="47.40975" lon="-0.4769">
        <ele>26.4</ele>
        <time>2021-07-04T09:45:35Z</time>
      </trkpt>
      <trkpt lat="47.40974" lon="-0.47697">
        <ele>26.4</ele>
        <time>2021-07-04T09:45:36Z</time>
      </trkpt>
      <trkpt lat="47.40973" lon="-0.47704">
        <ele>26.4</ele>
        <time>2021-07-04T09:45:37Z</time>
      </trkpt>
      <trkpt lat="47.40973" lon="-0.47714">
        <ele>26.6</ele>
        <time>2021-07-04T09:45:39Z</time>
      </trkpt>
      <trkpt lat="47.40973" lon="-0.47713">
        <ele>26.8</ele>
        <time>2021-07-04T09:45:40Z</time>
      </trkpt>
      <trkpt lat="47.4097" lon="-0.4773">
        <ele>26.6</ele>
        <time>2021-07-04T09:45:45Z</time>
      </trkpt>
      <trkpt lat="47.40975" lon="-0.47731">
        <ele>26.6</ele>
        <time>2021-07-04T09:45:47Z</time>
      </trkpt>
      <trkpt lat="47.40979" lon="-0.47732">
        <ele>26.6</ele>
        <time>2021-07-04T09:45:48Z</time>
      </trkpt>
      <trkpt lat="47.40984" lon="-0.47733">
        <ele>26.4</ele>
        <time>2021-07-04T09:45:49Z</time>
      </trkpt>
      <trkpt lat="47.4099" lon="-0.47733">
        <ele>26</ele>
        <time>2021-07-04T09:45:50Z</time>
      </trkpt>
      <trkpt lat="47.40995" lon="-0.47734">
        <ele>26</ele>
        <time>2021-07-04T09:45:51Z</time>
      </trkpt>
      <trkpt lat="47.41001" lon="-0.47734">
        <ele>25.8</ele>
        <time>2021-07-04T09:45:52Z</time>
      </trkpt>
      <trkpt lat="47.41007" lon="-0.47734">
        <ele>25.8</ele>
        <time>2021-07-04T09:45:53Z</time>
      </trkpt>
      <trkpt lat="47.41019" lon="-0.47734">
        <ele>25.6</ele>
        <time>2021-07-04T09:45:55Z</time>
      </trkpt>
      <trkpt lat="47.41031" lon="-0.47735">
        <ele>25.6</ele>
        <time>2021-07-04T09:45:57Z</time>
      </trkpt>
      <trkpt lat="47.41042" lon="-0.47734">
        <ele>25.6</ele>
        <time>2021-07-04T09:45:59Z</time>
      </trkpt>
      <trkpt lat="47.41053" lon="-0.47734">
        <ele>26.4</ele>
        <time>2021-07-04T09:46:01Z</time>
      </trkpt>
      <trkpt lat="47.41062" lon="-0.47734">
        <ele>26.8</ele>
        <time>2021-07-04T09:46:03Z</time>
      </trkpt>
      <trkpt lat="47.41067" lon="-0.47734">
        <ele>26.6</ele>
        <time>2021-07-04T09:46:04Z</time>
      </trkpt>
      <trkpt lat="47.41071" lon="-0.47734">
        <ele>26.8</ele>
        <time>2021-07-04T09:46:05Z</time>
      </trkpt>
      <trkpt lat="47.41079" lon="-0.47735">
        <ele>27</ele>
        <time>2021-07-04T09:46:07Z</time>
      </trkpt>
      <trkpt lat="47.41084" lon="-0.47734">
        <ele>27</ele>
        <time>2021-07-04T09:46:08Z</time>
      </trkpt>
      <trkpt lat="47.41089" lon="-0.47734">
        <ele>27.2</ele>
        <time>2021-07-04T09:46:09Z</time>
      </trkpt>
      <trkpt lat="47.41098" lon="-0.47733">
        <ele>27</ele>
        <time>2021-07-04T09:46:11Z</time>
      </trkpt>
      <trkpt lat="47.41107" lon="-0.47733">
        <ele>27.4</ele>
        <time>2021-07-04T09:46:13Z</time>
      </trkpt>
      <trkpt lat="47.41117" lon="-0.47733">
        <ele>27</ele>
        <time>2021-07-04T09:46:15Z</time>
      </trkpt>
      <trkpt lat="47.41127" lon="-0.47733">
        <ele>27</ele>
        <time>2021-07-04T09:46:17Z</time>
      </trkpt>
      <trkpt lat="47.41132" lon="-0.47734">
        <ele>27.4</ele>
        <time>2021-07-04T09:46:18Z</time>
      </trkpt>
      <trkpt lat="47.41136" lon="-0.47733">
        <ele>27.6</ele>
        <time>2021-07-04T09:46:19Z</time>
      </trkpt>
      <trkpt lat="47.41144" lon="-0.47733">
        <ele>27.4</ele>
        <time>2021-07-04T09:46:21Z</time>
      </trkpt>
      <trkpt lat="47.41152" lon="-0.47733">
        <ele>27.4</ele>
        <time>2021-07-04T09:46:23Z</time>
      </trkpt>
      <trkpt lat="47.4116" lon="-0.47734">
        <ele>27.6</ele>
        <time>2021-07-04T09:46:25Z</time>
      </trkpt>
      <trkpt lat="47.41167" lon="-0.47734">
        <ele>27.2</ele>
        <time>2021-07-04T09:46:27Z</time>
      </trkpt>
      <trkpt lat="47.41173" lon="-0.47737">
        <ele>27.6</ele>
        <time>2021-07-04T09:46:29Z</time>
      </trkpt>
      <trkpt lat="47.41175" lon="-0.4774">
        <ele>27.6</ele>
        <time>2021-07-04T09:46:30Z</time>
      </trkpt>
      <trkpt lat="47.41177" lon="-0.47742">
        <ele>27.4</ele>
        <time>2021-07-04T09:46:31Z</time>
      </trkpt>
      <trkpt lat="47.41177" lon="-0.47743">
        <ele>27.4</ele>
        <time>2021-07-04T09:46:33Z</time>
      </trkpt>
      <trkpt lat="47.41173" lon="-0.47739">
        <ele>27.4</ele>
        <time>2021-07-04T09:46:55Z</time>
      </trkpt>
      <trkpt lat="47.41171" lon="-0.47737">
        <ele>27.4</ele>
        <time>2021-07-04T09:46:56Z</time>
      </trkpt>
      <trkpt lat="47.41168" lon="-0.47736">
        <ele>27.4</ele>
        <time>2021-07-04T09:46:57Z</time>
      </trkpt>
      <trkpt lat="47.4116" lon="-0.47736">
        <ele>26.8</ele>
        <time>2021-07-04T09:46:59Z</time>
      </trkpt>
      <trkpt lat="47.41155" lon="-0.47736">
        <ele>26.6</ele>
        <time>2021-07-04T09:47:00Z</time>
      </trkpt>
      <trkpt lat="47.41149" lon="-0.47736">
        <ele>26.2</ele>
        <time>2021-07-04T09:47:01Z</time>
      </trkpt>
      <trkpt lat="47.41139" lon="-0.47735">
        <ele>25.6</ele>
        <time>2021-07-04T09:47:03Z</time>
      </trkpt>
      <trkpt lat="47.41133" lon="-0.47735">
        <ele>25.4</ele>
        <time>2021-07-04T09:47:04Z</time>
      </trkpt>
      <trkpt lat="47.41127" lon="-0.47735">
        <ele>25.2</ele>
        <time>2021-07-04T09:47:05Z</time>
      </trkpt>
      <trkpt lat="47.41122" lon="-0.47735">
        <ele>25.2</ele>
        <time>2021-07-04T09:47:06Z</time>
      </trkpt>
      <trkpt lat="47.41116" lon="-0.47735">
        <ele>24.8</ele>
        <time>2021-07-04T09:47:07Z</time>
      </trkpt>
      <trkpt lat="47.41106" lon="-0.47735">
        <ele>24.8</ele>
        <time>2021-07-04T09:47:09Z</time>
      </trkpt>
      <trkpt lat="47.41095" lon="-0.47735">
        <ele>24.6</ele>
        <time>2021-07-04T09:47:11Z</time>
      </trkpt>
      <trkpt lat="47.41084" lon="-0.47735">
        <ele>25</ele>
        <time>2021-07-04T09:47:13Z</time>
      </trkpt>
      <trkpt lat="47.41073" lon="-0.47736">
        <ele>24.2</ele>
        <time>2021-07-04T09:47:15Z</time>
      </trkpt>
      <trkpt lat="47.41061" lon="-0.47737">
        <ele>24.4</ele>
        <time>2021-07-04T09:47:17Z</time>
      </trkpt>
      <trkpt lat="47.4105" lon="-0.47737">
        <ele>24.2</ele>
        <time>2021-07-04T09:47:19Z</time>
      </trkpt>
      <trkpt lat="47.41039" lon="-0.47737">
        <ele>24.4</ele>
        <time>2021-07-04T09:47:21Z</time>
      </trkpt>
      <trkpt lat="47.41028" lon="-0.47737">
        <ele>25.2</ele>
        <time>2021-07-04T09:47:23Z</time>
      </trkpt>
      <trkpt lat="47.41023" lon="-0.47737">
        <ele>25.6</ele>
        <time>2021-07-04T09:47:24Z</time>
      </trkpt>
      <trkpt lat="47.41017" lon="-0.47737">
        <ele>26</ele>
        <time>2021-07-04T09:47:25Z</time>
      </trkpt>
      <trkpt lat="47.41006" lon="-0.47738">
        <ele>25.8</ele>
        <time>2021-07-04T09:47:27Z</time>
      </trkpt>
      <trkpt lat="47.40995" lon="-0.47738">
        <ele>25.6</ele>
        <time>2021-07-04T09:47:29Z</time>
      </trkpt>
      <trkpt lat="47.40989" lon="-0.47738">
        <ele>25.6</ele>
        <time>2021-07-04T09:47:30Z</time>
      </trkpt>
      <trkpt lat="47.40984" lon="-0.47737">
        <ele>25.6</ele>
        <time>2021-07-04T09:47:31Z</time>
      </trkpt>
      <trkpt lat="47.40978" lon="-0.47737">
        <ele>25.8</ele>
        <time>2021-07-04T09:47:32Z</time>
      </trkpt>
      <trkpt lat="47.40973" lon="-0.47737">
        <ele>25.8</ele>
        <time>2021-07-04T09:47:33Z</time>
      </trkpt>
      <trkpt lat="47.40966" lon="-0.47737">
        <ele>25.8</ele>
        <time>2021-07-04T09:47:35Z</time>
      </trkpt>
      <trkpt lat="47.40964" lon="-0.47735">
        <ele>26.2</ele>
        <time>2021-07-04T09:47:36Z</time>
      </trkpt>
      <trkpt lat="47.40963" lon="-0.47731">
        <ele>26.2</ele>
        <time>2021-07-04T09:47:37Z</time>
      </trkpt>
      <trkpt lat="47.40963" lon="-0.47726">
        <ele>26.4</ele>
        <time>2021-07-04T09:47:38Z</time>
      </trkpt>
      <trkpt lat="47.40964" lon="-0.4772">
        <ele>26.2</ele>
        <time>2021-07-04T09:47:39Z</time>
      </trkpt>
      <trkpt lat="47.40967" lon="-0.47708">
        <ele>26</ele>
        <time>2021-07-04T09:47:41Z</time>
      </trkpt>
      <trkpt lat="47.40968" lon="-0.47695">
        <ele>26</ele>
        <time>2021-07-04T09:47:43Z</time>
      </trkpt>
      <trkpt lat="47.40969" lon="-0.4768">
        <ele>25.8</ele>
        <time>2021-07-04T09:47:45Z</time>
      </trkpt>
      <trkpt lat="47.40971" lon="-0.47664">
        <ele>25.6</ele>
        <time>2021-07-04T09:47:47Z</time>
      </trkpt>
      <trkpt lat="47.40971" lon="-0.47656">
        <ele>27</ele>
        <time>2021-07-04T09:47:48Z</time>
      </trkpt>
      <trkpt lat="47.40972" lon="-0.47649">
        <ele>22</ele>
        <time>2021-07-04T09:47:49Z</time>
      </trkpt>
      <trkpt lat="47.40972" lon="-0.47642">
        <ele>20.6</ele>
        <time>2021-07-04T09:47:50Z</time>
      </trkpt>
      <trkpt lat="47.40973" lon="-0.47635">
        <ele>22.8</ele>
        <time>2021-07-04T09:47:51Z</time>
      </trkpt>
      <trkpt lat="47.40974" lon="-0.47629">
        <ele>29</ele>
        <time>2021-07-04T09:47:52Z</time>
      </trkpt>
      <trkpt lat="47.40974" lon="-0.47623">
        <ele>31</ele>
        <time>2021-07-04T09:47:53Z</time>
      </trkpt>
      <trkpt lat="47.40974" lon="-0.47617">
        <ele>27.4</ele>
        <time>2021-07-04T09:47:54Z</time>
      </trkpt>
      <trkpt lat="47.40974" lon="-0.4761">
        <ele>26.2</ele>
        <time>2021-07-04T09:47:55Z</time>
      </trkpt>
      <trkpt lat="47.40975" lon="-0.47595">
        <ele>25.8</ele>
        <time>2021-07-04T09:47:57Z</time>
      </trkpt>
      <trkpt lat="47.40977" lon="-0.4758">
        <ele>25.6</ele>
        <time>2021-07-04T09:47:59Z</time>
      </trkpt>
      <trkpt lat="47.40978" lon="-0.47572">
        <ele>25.6</ele>
        <time>2021-07-04T09:48:00Z</time>
      </trkpt>
      <trkpt lat="47.40978" lon="-0.47565">
        <ele>25.6</ele>
        <time>2021-07-04T09:48:01Z</time>
      </trkpt>
      <trkpt lat="47.40981" lon="-0.47548">
        <ele>25.6</ele>
        <time>2021-07-04T09:48:03Z</time>
      </trkpt>
      <trkpt lat="47.40984" lon="-0.47532">
        <ele>25.8</ele>
        <time>2021-07-04T09:48:05Z</time>
      </trkpt>
      <trkpt lat="47.40986" lon="-0.47524">
        <ele>25.6</ele>
        <time>2021-07-04T09:48:06Z</time>
      </trkpt>
      <trkpt lat="47.40988" lon="-0.47517">
        <ele>25.8</ele>
        <time>2021-07-04T09:48:07Z</time>
      </trkpt>
      <trkpt lat="47.40992" lon="-0.47502">
        <ele>26</ele>
        <time>2021-07-04T09:48:09Z</time>
      </trkpt>
      <trkpt lat="47.40996" lon="-0.47486">
        <ele>26.2</ele>
        <time>2021-07-04T09:48:11Z</time>
      </trkpt>
      <trkpt lat="47.40998" lon="-0.47479">
        <ele>26.2</ele>
        <time>2021-07-04T09:48:12Z</time>
      </trkpt>
      <trkpt lat="47.41" lon="-0.47471">
        <ele>26.2</ele>
        <time>2021-07-04T09:48:13Z</time>
      </trkpt>
      <trkpt lat="47.41004" lon="-0.47456">
        <ele>26.2</ele>
        <time>2021-07-04T09:48:15Z</time>
      </trkpt>
      <trkpt lat="47.41007" lon="-0.47441">
        <ele>26.4</ele>
        <time>2021-07-04T09:48:17Z</time>
      </trkpt>
      <trkpt lat="47.41009" lon="-0.47434">
        <ele>26.4</ele>
        <time>2021-07-04T09:48:18Z</time>
      </trkpt>
      <trkpt lat="47.41011" lon="-0.47426">
        <ele>26.6</ele>
        <time>2021-07-04T09:48:19Z</time>
      </trkpt>
      <trkpt lat="47.41015" lon="-0.4741">
        <ele>26.6</ele>
        <time>2021-07-04T09:48:21Z</time>
      </trkpt>
      <trkpt lat="47.4102" lon="-0.47393">
        <ele>26.4</ele>
        <time>2021-07-04T09:48:23Z</time>
      </trkpt>
      <trkpt lat="47.41022" lon="-0.47385">
        <ele>26.4</ele>
        <time>2021-07-04T09:48:24Z</time>
      </trkpt>
      <trkpt lat="47.41025" lon="-0.47375">
        <ele>26.2</ele>
        <time>2021-07-04T09:48:25Z</time>
      </trkpt>
      <trkpt lat="47.41031" lon="-0.47357">
        <ele>25.8</ele>
        <time>2021-07-04T09:48:27Z</time>
      </trkpt>
      <trkpt lat="47.41036" lon="-0.4734">
        <ele>25.6</ele>
        <time>2021-07-04T09:48:29Z</time>
      </trkpt>
      <trkpt lat="47.41041" lon="-0.47323">
        <ele>25.8</ele>
        <time>2021-07-04T09:48:31Z</time>
      </trkpt>
      <trkpt lat="47.41043" lon="-0.47315">
        <ele>25.8</ele>
        <time>2021-07-04T09:48:32Z</time>
      </trkpt>
      <trkpt lat="47.41046" lon="-0.47307">
        <ele>25.8</ele>
        <time>2021-07-04T09:48:33Z</time>
      </trkpt>
      <trkpt lat="47.4105" lon="-0.47292">
        <ele>26</ele>
        <time>2021-07-04T09:48:35Z</time>
      </trkpt>
      <trkpt lat="47.41055" lon="-0.47278">
        <ele>26.4</ele>
        <time>2021-07-04T09:48:37Z</time>
      </trkpt>
      <trkpt lat="47.41058" lon="-0.47273">
        <ele>26.4</ele>
        <time>2021-07-04T09:48:38Z</time>
      </trkpt>
      <trkpt lat="47.41061" lon="-0.47268">
        <ele>26.4</ele>
        <time>2021-07-04T09:48:39Z</time>
      </trkpt>
      <trkpt lat="47.4107" lon="-0.47262">
        <ele>26.6</ele>
        <time>2021-07-04T09:48:41Z</time>
      </trkpt>
      <trkpt lat="47.41075" lon="-0.47262">
        <ele>26.6</ele>
        <time>2021-07-04T09:48:42Z</time>
      </trkpt>
      <trkpt lat="47.41079" lon="-0.47262">
        <ele>26.4</ele>
        <time>2021-07-04T09:48:43Z</time>
      </trkpt>
      <trkpt lat="47.41084" lon="-0.47262">
        <ele>26.6</ele>
        <time>2021-07-04T09:48:44Z</time>
      </trkpt>
      <trkpt lat="47.41089" lon="-0.47263">
        <ele>26.4</ele>
        <time>2021-07-04T09:48:45Z</time>
      </trkpt>
      <trkpt lat="47.411" lon="-0.47264">
        <ele>26.4</ele>
        <time>2021-07-04T09:48:47Z</time>
      </trkpt>
      <trkpt lat="47.41111" lon="-0.47266">
        <ele>26.4</ele>
        <time>2021-07-04T09:48:49Z</time>
      </trkpt>
      <trkpt lat="47.41123" lon="-0.47267">
        <ele>26.2</ele>
        <time>2021-07-04T09:48:51Z</time>
      </trkpt>
      <trkpt lat="47.41134" lon="-0.47269">
        <ele>26.2</ele>
        <time>2021-07-04T09:48:53Z</time>
      </trkpt>
      <trkpt lat="47.41146" lon="-0.47271">
        <ele>26</ele>
        <time>2021-07-04T09:48:55Z</time>
      </trkpt>
      <trkpt lat="47.41159" lon="-0.47273">
        <ele>26</ele>
        <time>2021-07-04T09:48:57Z</time>
      </trkpt>
      <trkpt lat="47.41172" lon="-0.47275">
        <ele>25.6</ele>
        <time>2021-07-04T09:48:59Z</time>
      </trkpt>
      <trkpt lat="47.41178" lon="-0.47276">
        <ele>25.2</ele>
        <time>2021-07-04T09:49:00Z</time>
      </trkpt>
      <trkpt lat="47.41184" lon="-0.47276">
        <ele>25.2</ele>
        <time>2021-07-04T09:49:01Z</time>
      </trkpt>
      <trkpt lat="47.41196" lon="-0.47276">
        <ele>25.6</ele>
        <time>2021-07-04T09:49:03Z</time>
      </trkpt>
      <trkpt lat="47.41209" lon="-0.47272">
        <ele>25.8</ele>
        <time>2021-07-04T09:49:05Z</time>
      </trkpt>
      <trkpt lat="47.41216" lon="-0.4727">
        <ele>25.6</ele>
        <time>2021-07-04T09:49:06Z</time>
      </trkpt>
      <trkpt lat="47.41222" lon="-0.47268">
        <ele>25.6</ele>
        <time>2021-07-04T09:49:07Z</time>
      </trkpt>
      <trkpt lat="47.41236" lon="-0.47264">
        <ele>25.4</ele>
        <time>2021-07-04T09:49:09Z</time>
      </trkpt>
      <trkpt lat="47.4125" lon="-0.4726">
        <ele>25.6</ele>
        <time>2021-07-04T09:49:11Z</time>
      </trkpt>
      <trkpt lat="47.41264" lon="-0.47256">
        <ele>25.4</ele>
        <time>2021-07-04T09:49:13Z</time>
      </trkpt>
      <trkpt lat="47.41271" lon="-0.47254">
        <ele>25.2</ele>
        <time>2021-07-04T09:49:14Z</time>
      </trkpt>
      <trkpt lat="47.41278" lon="-0.47253">
        <ele>25.2</ele>
        <time>2021-07-04T09:49:15Z</time>
      </trkpt>
      <trkpt lat="47.41291" lon="-0.47249">
        <ele>25.4</ele>
        <time>2021-07-04T09:49:17Z</time>
      </trkpt>
      <trkpt lat="47.41304" lon="-0.47245">
        <ele>25.8</ele>
        <time>2021-07-04T09:49:19Z</time>
      </trkpt>
      <trkpt lat="47.41317" lon="-0.47242">
        <ele>26.2</ele>
        <time>2021-07-04T09:49:21Z</time>
      </trkpt>
      <trkpt lat="47.4133" lon="-0.47238">
        <ele>26.6</ele>
        <time>2021-07-04T09:49:23Z</time>
      </trkpt>
      <trkpt lat="47.41343" lon="-0.47234">
        <ele>26.2</ele>
        <time>2021-07-04T09:49:25Z</time>
      </trkpt>
      <trkpt lat="47.41356" lon="-0.4723">
        <ele>26</ele>
        <time>2021-07-04T09:49:27Z</time>
      </trkpt>
      <trkpt lat="47.41368" lon="-0.47226">
        <ele>26.2</ele>
        <time>2021-07-04T09:49:29Z</time>
      </trkpt>
      <trkpt lat="47.41381" lon="-0.47222">
        <ele>26.2</ele>
        <time>2021-07-04T09:49:31Z</time>
      </trkpt>
      <trkpt lat="47.41393" lon="-0.47219">
        <ele>26</ele>
        <time>2021-07-04T09:49:33Z</time>
      </trkpt>
      <trkpt lat="47.41399" lon="-0.47218">
        <ele>26.4</ele>
        <time>2021-07-04T09:49:34Z</time>
      </trkpt>
      <trkpt lat="47.41405" lon="-0.47218">
        <ele>26.8</ele>
        <time>2021-07-04T09:49:35Z</time>
      </trkpt>
      <trkpt lat="47.41409" lon="-0.47219">
        <ele>27.2</ele>
        <time>2021-07-04T09:49:36Z</time>
      </trkpt>
      <trkpt lat="47.41414" lon="-0.47221">
        <ele>27.4</ele>
        <time>2021-07-04T09:49:37Z</time>
      </trkpt>
      <trkpt lat="47.41418" lon="-0.47223">
        <ele>27.4</ele>
        <time>2021-07-04T09:49:38Z</time>
      </trkpt>
      <trkpt lat="47.41422" lon="-0.47226">
        <ele>27.4</ele>
        <time>2021-07-04T09:49:39Z</time>
      </trkpt>
      <trkpt lat="47.41425" lon="-0.4723">
        <ele>27.6</ele>
        <time>2021-07-04T09:49:40Z</time>
      </trkpt>
      <trkpt lat="47.41428" lon="-0.47235">
        <ele>27.8</ele>
        <time>2021-07-04T09:49:41Z</time>
      </trkpt>
      <trkpt lat="47.41431" lon="-0.47241">
        <ele>27.8</ele>
        <time>2021-07-04T09:49:42Z</time>
      </trkpt>
      <trkpt lat="47.41433" lon="-0.47262">
        <ele>27.4</ele>
        <time>2021-07-04T09:49:45Z</time>
      </trkpt>
      <trkpt lat="47.41433" lon="-0.4727">
        <ele>27.6</ele>
        <time>2021-07-04T09:49:46Z</time>
      </trkpt>
      <trkpt lat="47.41433" lon="-0.47278">
        <ele>27.6</ele>
        <time>2021-07-04T09:49:47Z</time>
      </trkpt>
      <trkpt lat="47.41433" lon="-0.47294">
        <ele>27.2</ele>
        <time>2021-07-04T09:49:49Z</time>
      </trkpt>
      <trkpt lat="47.41432" lon="-0.47311">
        <ele>27.2</ele>
        <time>2021-07-04T09:49:51Z</time>
      </trkpt>
      <trkpt lat="47.41432" lon="-0.4732">
        <ele>27</ele>
        <time>2021-07-04T09:49:52Z</time>
      </trkpt>
      <trkpt lat="47.41431" lon="-0.47329">
        <ele>27.2</ele>
        <time>2021-07-04T09:49:53Z</time>
      </trkpt>
      <trkpt lat="47.4143" lon="-0.47346">
        <ele>27.2</ele>
        <time>2021-07-04T09:49:55Z</time>
      </trkpt>
      <trkpt lat="47.41429" lon="-0.47355">
        <ele>26.8</ele>
        <time>2021-07-04T09:49:56Z</time>
      </trkpt>
      <trkpt lat="47.41429" lon="-0.47364">
        <ele>26.6</ele>
        <time>2021-07-04T09:49:57Z</time>
      </trkpt>
      <trkpt lat="47.41428" lon="-0.47383">
        <ele>26.6</ele>
        <time>2021-07-04T09:49:59Z</time>
      </trkpt>
      <trkpt lat="47.41429" lon="-0.47394">
        <ele>26.4</ele>
        <time>2021-07-04T09:50:00Z</time>
      </trkpt>
      <trkpt lat="47.41428" lon="-0.47403">
        <ele>26.4</ele>
        <time>2021-07-04T09:50:01Z</time>
      </trkpt>
      <trkpt lat="47.41428" lon="-0.47412">
        <ele>26.2</ele>
        <time>2021-07-04T09:50:02Z</time>
      </trkpt>
      <trkpt lat="47.41427" lon="-0.4742">
        <ele>26.8</ele>
        <time>2021-07-04T09:50:03Z</time>
      </trkpt>
      <trkpt lat="47.41427" lon="-0.47428">
        <ele>27</ele>
        <time>2021-07-04T09:50:04Z</time>
      </trkpt>
      <trkpt lat="47.41427" lon="-0.47436">
        <ele>27.4</ele>
        <time>2021-07-04T09:50:05Z</time>
      </trkpt>
      <trkpt lat="47.41427" lon="-0.47442">
        <ele>27.8</ele>
        <time>2021-07-04T09:50:06Z</time>
      </trkpt>
      <trkpt lat="47.41427" lon="-0.47448">
        <ele>28</ele>
        <time>2021-07-04T09:50:07Z</time>
      </trkpt>
      <trkpt lat="47.41428" lon="-0.47453">
        <ele>28.4</ele>
        <time>2021-07-04T09:50:08Z</time>
      </trkpt>
      <trkpt lat="47.41427" lon="-0.47466">
        <ele>28</ele>
        <time>2021-07-04T09:50:10Z</time>
      </trkpt>
      <trkpt lat="47.41426" lon="-0.4748">
        <ele>27.6</ele>
        <time>2021-07-04T09:50:12Z</time>
      </trkpt>
      <trkpt lat="47.41425" lon="-0.47495">
        <ele>27.6</ele>
        <time>2021-07-04T09:50:14Z</time>
      </trkpt>
      <trkpt lat="47.41424" lon="-0.47512">
        <ele>27.4</ele>
        <time>2021-07-04T09:50:16Z</time>
      </trkpt>
      <trkpt lat="47.41423" lon="-0.47521">
        <ele>27.2</ele>
        <time>2021-07-04T09:50:17Z</time>
      </trkpt>
      <trkpt lat="47.41423" lon="-0.4753">
        <ele>27.2</ele>
        <time>2021-07-04T09:50:18Z</time>
      </trkpt>
      <trkpt lat="47.41421" lon="-0.47547">
        <ele>27</ele>
        <time>2021-07-04T09:50:20Z</time>
      </trkpt>
      <trkpt lat="47.4142" lon="-0.47564">
        <ele>26.2</ele>
        <time>2021-07-04T09:50:22Z</time>
      </trkpt>
      <trkpt lat="47.41419" lon="-0.47572">
        <ele>26</ele>
        <time>2021-07-04T09:50:23Z</time>
      </trkpt>
      <trkpt lat="47.41419" lon="-0.4758">
        <ele>25.6</ele>
        <time>2021-07-04T09:50:24Z</time>
      </trkpt>
      <trkpt lat="47.41417" lon="-0.47588">
        <ele>25.4</ele>
        <time>2021-07-04T09:50:25Z</time>
      </trkpt>
      <trkpt lat="47.41416" lon="-0.47596">
        <ele>25.4</ele>
        <time>2021-07-04T09:50:26Z</time>
      </trkpt>
      <trkpt lat="47.41415" lon="-0.47604">
        <ele>25.8</ele>
        <time>2021-07-04T09:50:27Z</time>
      </trkpt>
      <trkpt lat="47.41415" lon="-0.47613">
        <ele>26</ele>
        <time>2021-07-04T09:50:28Z</time>
      </trkpt>
      <trkpt lat="47.41414" lon="-0.4763">
        <ele>25.8</ele>
        <time>2021-07-04T09:50:30Z</time>
      </trkpt>
      <trkpt lat="47.41412" lon="-0.47648">
        <ele>26.2</ele>
        <time>2021-07-04T09:50:32Z</time>
      </trkpt>
      <trkpt lat="47.41409" lon="-0.47666">
        <ele>27.4</ele>
        <time>2021-07-04T09:50:34Z</time>
      </trkpt>
      <trkpt lat="47.41409" lon="-0.47676">
        <ele>27.6</ele>
        <time>2021-07-04T09:50:35Z</time>
      </trkpt>
      <trkpt lat="47.41408" lon="-0.47685">
        <ele>27.2</ele>
        <time>2021-07-04T09:50:36Z</time>
      </trkpt>
      <trkpt lat="47.41407" lon="-0.47702">
        <ele>26.6</ele>
        <time>2021-07-04T09:50:38Z</time>
      </trkpt>
      <trkpt lat="47.41405" lon="-0.47719">
        <ele>26.4</ele>
        <time>2021-07-04T09:50:40Z</time>
      </trkpt>
      <trkpt lat="47.41403" lon="-0.47733">
        <ele>26.6</ele>
        <time>2021-07-04T09:50:42Z</time>
      </trkpt>
      <trkpt lat="47.41402" lon="-0.47741">
        <ele>26.8</ele>
        <time>2021-07-04T09:50:43Z</time>
      </trkpt>
      <trkpt lat="47.41402" lon="-0.47748">
        <ele>26.6</ele>
        <time>2021-07-04T09:50:44Z</time>
      </trkpt>
      <trkpt lat="47.41401" lon="-0.47762">
        <ele>26.8</ele>
        <time>2021-07-04T09:50:46Z</time>
      </trkpt>
      <trkpt lat="47.414" lon="-0.47776">
        <ele>27.2</ele>
        <time>2021-07-04T09:50:48Z</time>
      </trkpt>
      <trkpt lat="47.414" lon="-0.47789">
        <ele>27.4</ele>
        <time>2021-07-04T09:50:50Z</time>
      </trkpt>
      <trkpt lat="47.41401" lon="-0.47802">
        <ele>27</ele>
        <time>2021-07-04T09:50:52Z</time>
      </trkpt>
      <trkpt lat="47.41402" lon="-0.4781">
        <ele>27</ele>
        <time>2021-07-04T09:50:53Z</time>
      </trkpt>
      <trkpt lat="47.41403" lon="-0.47817">
        <ele>27</ele>
        <time>2021-07-04T09:50:54Z</time>
      </trkpt>
      <trkpt lat="47.41404" lon="-0.47824">
        <ele>27.2</ele>
        <time>2021-07-04T09:50:55Z</time>
      </trkpt>
      <trkpt lat="47.41405" lon="-0.47837">
        <ele>27</ele>
        <time>2021-07-04T09:50:57Z</time>
      </trkpt>
      <trkpt lat="47.41405" lon="-0.47844">
        <ele>27.2</ele>
        <time>2021-07-04T09:50:58Z</time>
      </trkpt>
      <trkpt lat="47.41403" lon="-0.47849">
        <ele>27.6</ele>
        <time>2021-07-04T09:50:59Z</time>
      </trkpt>
      <trkpt lat="47.41403" lon="-0.47856">
        <ele>28.8</ele>
        <time>2021-07-04T09:51:01Z</time>
      </trkpt>
      <trkpt lat="47.41403" lon="-0.47859">
        <ele>29.2</ele>
        <time>2021-07-04T09:51:03Z</time>
      </trkpt>
      <trkpt lat="47.41396" lon="-0.47877">
        <ele>28.4</ele>
        <time>2021-07-04T09:51:15Z</time>
      </trkpt>
      <trkpt lat="47.41394" lon="-0.47883">
        <ele>26.4</ele>
        <time>2021-07-04T09:51:16Z</time>
      </trkpt>
      <trkpt lat="47.41393" lon="-0.47888">
        <ele>27.4</ele>
        <time>2021-07-04T09:51:17Z</time>
      </trkpt>
      <trkpt lat="47.41391" lon="-0.47897">
        <ele>31.6</ele>
        <time>2021-07-04T09:51:19Z</time>
      </trkpt>
      <trkpt lat="47.4139" lon="-0.47906">
        <ele>33</ele>
        <time>2021-07-04T09:51:21Z</time>
      </trkpt>
      <trkpt lat="47.41389" lon="-0.4791">
        <ele>28.8</ele>
        <time>2021-07-04T09:51:22Z</time>
      </trkpt>
      <trkpt lat="47.41388" lon="-0.47914">
        <ele>28.6</ele>
        <time>2021-07-04T09:51:23Z</time>
      </trkpt>
      <trkpt lat="47.41386" lon="-0.47923">
        <ele>30.2</ele>
        <time>2021-07-04T09:51:25Z</time>
      </trkpt>
      <trkpt lat="47.41385" lon="-0.47929">
        <ele>28.8</ele>
        <time>2021-07-04T09:51:26Z</time>
      </trkpt>
      <trkpt lat="47.41384" lon="-0.47934">
        <ele>28.2</ele>
        <time>2021-07-04T09:51:27Z</time>
      </trkpt>
      <trkpt lat="47.41382" lon="-0.47946">
        <ele>27.8</ele>
        <time>2021-07-04T09:51:29Z</time>
      </trkpt>
      <trkpt lat="47.41381" lon="-0.47961">
        <ele>27.6</ele>
        <time>2021-07-04T09:51:31Z</time>
      </trkpt>
      <trkpt lat="47.4138" lon="-0.47967">
        <ele>27.6</ele>
        <time>2021-07-04T09:51:32Z</time>
      </trkpt>
      <trkpt lat="47.4138" lon="-0.47973">
        <ele>27.4</ele>
        <time>2021-07-04T09:51:33Z</time>
      </trkpt>
      <trkpt lat="47.4138" lon="-0.47981">
        <ele>27.6</ele>
        <time>2021-07-04T09:51:34Z</time>
      </trkpt>
      <trkpt lat="47.4138" lon="-0.47989">
        <ele>27.4</ele>
        <time>2021-07-04T09:51:35Z</time>
      </trkpt>
      <trkpt lat="47.41378" lon="-0.47998">
        <ele>27.2</ele>
        <time>2021-07-04T09:51:36Z</time>
      </trkpt>
      <trkpt lat="47.41378" lon="-0.48007">
        <ele>27</ele>
        <time>2021-07-04T09:51:37Z</time>
      </trkpt>
      <trkpt lat="47.41375" lon="-0.48027">
        <ele>27</ele>
        <time>2021-07-04T09:51:39Z</time>
      </trkpt>
      <trkpt lat="47.41374" lon="-0.48037">
        <ele>26.6</ele>
        <time>2021-07-04T09:51:40Z</time>
      </trkpt>
      <trkpt lat="47.41373" lon="-0.48046">
        <ele>26.4</ele>
        <time>2021-07-04T09:51:41Z</time>
      </trkpt>
      <trkpt lat="47.41371" lon="-0.48066">
        <ele>26.4</ele>
        <time>2021-07-04T09:51:43Z</time>
      </trkpt>
      <trkpt lat="47.41368" lon="-0.48086">
        <ele>26.6</ele>
        <time>2021-07-04T09:51:45Z</time>
      </trkpt>
      <trkpt lat="47.41367" lon="-0.48095">
        <ele>26.6</ele>
        <time>2021-07-04T09:51:46Z</time>
      </trkpt>
      <trkpt lat="47.41366" lon="-0.48105">
        <ele>26.2</ele>
        <time>2021-07-04T09:51:47Z</time>
      </trkpt>
      <trkpt lat="47.41363" lon="-0.48125">
        <ele>26</ele>
        <time>2021-07-04T09:51:49Z</time>
      </trkpt>
      <trkpt lat="47.41361" lon="-0.48147">
        <ele>26</ele>
        <time>2021-07-04T09:51:51Z</time>
      </trkpt>
      <trkpt lat="47.4136" lon="-0.48168">
        <ele>26.2</ele>
        <time>2021-07-04T09:51:53Z</time>
      </trkpt>
      <trkpt lat="47.41358" lon="-0.48188">
        <ele>26</ele>
        <time>2021-07-04T09:51:55Z</time>
      </trkpt>
      <trkpt lat="47.41357" lon="-0.48208">
        <ele>26</ele>
        <time>2021-07-04T09:51:57Z</time>
      </trkpt>
      <trkpt lat="47.41355" lon="-0.48217">
        <ele>26</ele>
        <time>2021-07-04T09:51:58Z</time>
      </trkpt>
      <trkpt lat="47.41354" lon="-0.48227">
        <ele>26</ele>
        <time>2021-07-04T09:51:59Z</time>
      </trkpt>
      <trkpt lat="47.41353" lon="-0.48246">
        <ele>26.6</ele>
        <time>2021-07-04T09:52:01Z</time>
      </trkpt>
      <trkpt lat="47.41352" lon="-0.48265">
        <ele>26.8</ele>
        <time>2021-07-04T09:52:03Z</time>
      </trkpt>
      <trkpt lat="47.41351" lon="-0.48283">
        <ele>26.6</ele>
        <time>2021-07-04T09:52:05Z</time>
      </trkpt>
      <trkpt lat="47.4135" lon="-0.48301">
        <ele>26.8</ele>
        <time>2021-07-04T09:52:07Z</time>
      </trkpt>
      <trkpt lat="47.41349" lon="-0.48319">
        <ele>26.4</ele>
        <time>2021-07-04T09:52:09Z</time>
      </trkpt>
      <trkpt lat="47.41349" lon="-0.48337">
        <ele>26.2</ele>
        <time>2021-07-04T09:52:11Z</time>
      </trkpt>
      <trkpt lat="47.41348" lon="-0.48356">
        <ele>26.2</ele>
        <time>2021-07-04T09:52:13Z</time>
      </trkpt>
      <trkpt lat="47.41346" lon="-0.48374">
        <ele>26.6</ele>
        <time>2021-07-04T09:52:15Z</time>
      </trkpt>
      <trkpt lat="47.41345" lon="-0.48392">
        <ele>26.8</ele>
        <time>2021-07-04T09:52:17Z</time>
      </trkpt>
      <trkpt lat="47.41344" lon="-0.4841">
        <ele>26.8</ele>
        <time>2021-07-04T09:52:19Z</time>
      </trkpt>
      <trkpt lat="47.41343" lon="-0.48429">
        <ele>26.4</ele>
        <time>2021-07-04T09:52:21Z</time>
      </trkpt>
      <trkpt lat="47.41342" lon="-0.48447">
        <ele>26.2</ele>
        <time>2021-07-04T09:52:23Z</time>
      </trkpt>
      <trkpt lat="47.41342" lon="-0.48456">
        <ele>26.4</ele>
        <time>2021-07-04T09:52:24Z</time>
      </trkpt>
      <trkpt lat="47.41342" lon="-0.48465">
        <ele>26.6</ele>
        <time>2021-07-04T09:52:25Z</time>
      </trkpt>
      <trkpt lat="47.41342" lon="-0.48482">
        <ele>26.4</ele>
        <time>2021-07-04T09:52:27Z</time>
      </trkpt>
      <trkpt lat="47.41341" lon="-0.48492">
        <ele>26.4</ele>
        <time>2021-07-04T09:52:28Z</time>
      </trkpt>
      <trkpt lat="47.4134" lon="-0.48501">
        <ele>26.4</ele>
        <time>2021-07-04T09:52:29Z</time>
      </trkpt>
      <trkpt lat="47.41339" lon="-0.4852">
        <ele>26</ele>
        <time>2021-07-04T09:52:31Z</time>
      </trkpt>
      <trkpt lat="47.41339" lon="-0.48539">
        <ele>25.8</ele>
        <time>2021-07-04T09:52:33Z</time>
      </trkpt>
      <trkpt lat="47.41338" lon="-0.48549">
        <ele>25.6</ele>
        <time>2021-07-04T09:52:34Z</time>
      </trkpt>
      <trkpt lat="47.41338" lon="-0.48558">
        <ele>25.4</ele>
        <time>2021-07-04T09:52:35Z</time>
      </trkpt>
      <trkpt lat="47.41337" lon="-0.48568">
        <ele>25.2</ele>
        <time>2021-07-04T09:52:36Z</time>
      </trkpt>
      <trkpt lat="47.41336" lon="-0.48577">
        <ele>25.4</ele>
        <time>2021-07-04T09:52:37Z</time>
      </trkpt>
      <trkpt lat="47.41334" lon="-0.48596">
        <ele>25.8</ele>
        <time>2021-07-04T09:52:39Z</time>
      </trkpt>
      <trkpt lat="47.41333" lon="-0.48605">
        <ele>25.6</ele>
        <time>2021-07-04T09:52:40Z</time>
      </trkpt>
      <trkpt lat="47.41331" lon="-0.48614">
        <ele>25.4</ele>
        <time>2021-07-04T09:52:41Z</time>
      </trkpt>
      <trkpt lat="47.41329" lon="-0.48631">
        <ele>25.6</ele>
        <time>2021-07-04T09:52:43Z</time>
      </trkpt>
      <trkpt lat="47.41328" lon="-0.4864">
        <ele>26</ele>
        <time>2021-07-04T09:52:44Z</time>
      </trkpt>
      <trkpt lat="47.41327" lon="-0.48649">
        <ele>26</ele>
        <time>2021-07-04T09:52:45Z</time>
      </trkpt>
      <trkpt lat="47.41328" lon="-0.48668">
        <ele>26</ele>
        <time>2021-07-04T09:52:47Z</time>
      </trkpt>
      <trkpt lat="47.41328" lon="-0.48687">
        <ele>26</ele>
        <time>2021-07-04T09:52:49Z</time>
      </trkpt>
      <trkpt lat="47.41329" lon="-0.48704">
        <ele>26.2</ele>
        <time>2021-07-04T09:52:51Z</time>
      </trkpt>
      <trkpt lat="47.41328" lon="-0.48722">
        <ele>25.8</ele>
        <time>2021-07-04T09:52:53Z</time>
      </trkpt>
      <trkpt lat="47.41327" lon="-0.48741">
        <ele>25.8</ele>
        <time>2021-07-04T09:52:55Z</time>
      </trkpt>
      <trkpt lat="47.41325" lon="-0.48758">
        <ele>25.4</ele>
        <time>2021-07-04T09:52:57Z</time>
      </trkpt>
      <trkpt lat="47.41324" lon="-0.48768">
        <ele>25</ele>
        <time>2021-07-04T09:52:58Z</time>
      </trkpt>
      <trkpt lat="47.41324" lon="-0.48777">
        <ele>25.2</ele>
        <time>2021-07-04T09:52:59Z</time>
      </trkpt>
      <trkpt lat="47.41322" lon="-0.48797">
        <ele>25.4</ele>
        <time>2021-07-04T09:53:01Z</time>
      </trkpt>
      <trkpt lat="47.41321" lon="-0.48817">
        <ele>26</ele>
        <time>2021-07-04T09:53:03Z</time>
      </trkpt>
      <trkpt lat="47.41321" lon="-0.48826">
        <ele>26.2</ele>
        <time>2021-07-04T09:53:04Z</time>
      </trkpt>
      <trkpt lat="47.41321" lon="-0.48845">
        <ele>26</ele>
        <time>2021-07-04T09:53:06Z</time>
      </trkpt>
      <trkpt lat="47.41321" lon="-0.48863">
        <ele>25.4</ele>
        <time>2021-07-04T09:53:08Z</time>
      </trkpt>
      <trkpt lat="47.4132" lon="-0.48872">
        <ele>25.4</ele>
        <time>2021-07-04T09:53:10Z</time>
      </trkpt>
      <trkpt lat="47.4132" lon="-0.4888">
        <ele>25.4</ele>
        <time>2021-07-04T09:53:11Z</time>
      </trkpt>
      <trkpt lat="47.4132" lon="-0.48888">
        <ele>25.6</ele>
        <time>2021-07-04T09:53:12Z</time>
      </trkpt>
      <trkpt lat="47.4132" lon="-0.48905">
        <ele>26.2</ele>
        <time>2021-07-04T09:53:14Z</time>
      </trkpt>
      <trkpt lat="47.4132" lon="-0.48922">
        <ele>26.2</ele>
        <time>2021-07-04T09:53:16Z</time>
      </trkpt>
      <trkpt lat="47.41319" lon="-0.48929">
        <ele>26.6</ele>
        <time>2021-07-04T09:53:17Z</time>
      </trkpt>
      <trkpt lat="47.41318" lon="-0.48936">
        <ele>26.8</ele>
        <time>2021-07-04T09:53:18Z</time>
      </trkpt>
      <trkpt lat="47.41314" lon="-0.48943">
        <ele>27</ele>
        <time>2021-07-04T09:53:20Z</time>
      </trkpt>
      <trkpt lat="47.41313" lon="-0.48943">
        <ele>27.8</ele>
        <time>2021-07-04T09:53:22Z</time>
      </trkpt>
      <trkpt lat="47.41304" lon="-0.48958">
        <ele>28</ele>
        <time>2021-07-04T09:55:05Z</time>
      </trkpt>
      <trkpt lat="47.41302" lon="-0.48962">
        <ele>28</ele>
        <time>2021-07-04T09:55:06Z</time>
      </trkpt>
      <trkpt lat="47.413" lon="-0.48965">
        <ele>28</ele>
        <time>2021-07-04T09:55:07Z</time>
      </trkpt>
      <trkpt lat="47.41297" lon="-0.48973">
        <ele>28.2</ele>
        <time>2021-07-04T09:55:09Z</time>
      </trkpt>
      <trkpt lat="47.41295" lon="-0.48982">
        <ele>28.4</ele>
        <time>2021-07-04T09:55:11Z</time>
      </trkpt>
      <trkpt lat="47.41295" lon="-0.48986">
        <ele>28.4</ele>
        <time>2021-07-04T09:55:12Z</time>
      </trkpt>
      <trkpt lat="47.41294" lon="-0.48991">
        <ele>28.2</ele>
        <time>2021-07-04T09:55:13Z</time>
      </trkpt>
      <trkpt lat="47.41291" lon="-0.48999">
        <ele>28.2</ele>
        <time>2021-07-04T09:55:15Z</time>
      </trkpt>
      <trkpt lat="47.4129" lon="-0.49011">
        <ele>27.6</ele>
        <time>2021-07-04T09:55:17Z</time>
      </trkpt>
      <trkpt lat="47.41289" lon="-0.49025">
        <ele>28</ele>
        <time>2021-07-04T09:55:19Z</time>
      </trkpt>
      <trkpt lat="47.41284" lon="-0.49036">
        <ele>27.6</ele>
        <time>2021-07-04T09:55:21Z</time>
      </trkpt>
      <trkpt lat="47.4128" lon="-0.49039">
        <ele>27.4</ele>
        <time>2021-07-04T09:55:22Z</time>
      </trkpt>
      <trkpt lat="47.41276" lon="-0.49042">
        <ele>27</ele>
        <time>2021-07-04T09:55:23Z</time>
      </trkpt>
      <trkpt lat="47.41271" lon="-0.49044">
        <ele>27</ele>
        <time>2021-07-04T09:55:24Z</time>
      </trkpt>
      <trkpt lat="47.41267" lon="-0.49043">
        <ele>27.2</ele>
        <time>2021-07-04T09:55:25Z</time>
      </trkpt>
      <trkpt lat="47.41263" lon="-0.49044">
        <ele>27.2</ele>
        <time>2021-07-04T09:55:26Z</time>
      </trkpt>
      <trkpt lat="47.41258" lon="-0.49044">
        <ele>27.4</ele>
        <time>2021-07-04T09:55:27Z</time>
      </trkpt>
      <trkpt lat="47.41252" lon="-0.49046">
        <ele>27.4</ele>
        <time>2021-07-04T09:55:28Z</time>
      </trkpt>
      <trkpt lat="47.41246" lon="-0.49046">
        <ele>27.4</ele>
        <time>2021-07-04T09:55:29Z</time>
      </trkpt>
      <trkpt lat="47.41236" lon="-0.49047">
        <ele>27</ele>
        <time>2021-07-04T09:55:31Z</time>
      </trkpt>
      <trkpt lat="47.41225" lon="-0.49047">
        <ele>27.2</ele>
        <time>2021-07-04T09:55:33Z</time>
      </trkpt>
      <trkpt lat="47.41214" lon="-0.49046">
        <ele>27.2</ele>
        <time>2021-07-04T09:55:35Z</time>
      </trkpt>
      <trkpt lat="47.41202" lon="-0.49046">
        <ele>27.2</ele>
        <time>2021-07-04T09:55:37Z</time>
      </trkpt>
      <trkpt lat="47.4119" lon="-0.49045">
        <ele>27</ele>
        <time>2021-07-04T09:55:39Z</time>
      </trkpt>
      <trkpt lat="47.41179" lon="-0.49043">
        <ele>26.8</ele>
        <time>2021-07-04T09:55:41Z</time>
      </trkpt>
      <trkpt lat="47.41169" lon="-0.49041">
        <ele>26.8</ele>
        <time>2021-07-04T09:55:43Z</time>
      </trkpt>
      <trkpt lat="47.41159" lon="-0.4904">
        <ele>27.2</ele>
        <time>2021-07-04T09:55:45Z</time>
      </trkpt>
      <trkpt lat="47.41152" lon="-0.4904">
        <ele>27.4</ele>
        <time>2021-07-04T09:55:47Z</time>
      </trkpt>
      <trkpt lat="47.41149" lon="-0.4904">
        <ele>27.6</ele>
        <time>2021-07-04T09:55:48Z</time>
      </trkpt>
      <trkpt lat="47.41146" lon="-0.49039">
        <ele>27.6</ele>
        <time>2021-07-04T09:55:49Z</time>
      </trkpt>
      <trkpt lat="47.41137" lon="-0.49036">
        <ele>27.4</ele>
        <time>2021-07-04T09:55:51Z</time>
      </trkpt>
      <trkpt lat="47.41132" lon="-0.49036">
        <ele>27.2</ele>
        <time>2021-07-04T09:55:52Z</time>
      </trkpt>
      <trkpt lat="47.41127" lon="-0.49035">
        <ele>27.4</ele>
        <time>2021-07-04T09:55:53Z</time>
      </trkpt>
      <trkpt lat="47.41116" lon="-0.49031">
        <ele>26.8</ele>
        <time>2021-07-04T09:55:55Z</time>
      </trkpt>
      <trkpt lat="47.41105" lon="-0.49028">
        <ele>26.6</ele>
        <time>2021-07-04T09:55:57Z</time>
      </trkpt>
      <trkpt lat="47.41093" lon="-0.49025">
        <ele>26.4</ele>
        <time>2021-07-04T09:55:59Z</time>
      </trkpt>
      <trkpt lat="47.41081" lon="-0.49022">
        <ele>26</ele>
        <time>2021-07-04T09:56:01Z</time>
      </trkpt>
      <trkpt lat="47.41075" lon="-0.49022">
        <ele>26</ele>
        <time>2021-07-04T09:56:02Z</time>
      </trkpt>
      <trkpt lat="47.41068" lon="-0.49022">
        <ele>26</ele>
        <time>2021-07-04T09:56:03Z</time>
      </trkpt>
      <trkpt lat="47.41062" lon="-0.49021">
        <ele>26</ele>
        <time>2021-07-04T09:56:04Z</time>
      </trkpt>
      <trkpt lat="47.41056" lon="-0.4902">
        <ele>25.6</ele>
        <time>2021-07-04T09:56:05Z</time>
      </trkpt>
      <trkpt lat="47.41045" lon="-0.49019">
        <ele>25.6</ele>
        <time>2021-07-04T09:56:07Z</time>
      </trkpt>
      <trkpt lat="47.41034" lon="-0.4902">
        <ele>25.8</ele>
        <time>2021-07-04T09:56:09Z</time>
      </trkpt>
      <trkpt lat="47.41024" lon="-0.4902">
        <ele>25.4</ele>
        <time>2021-07-04T09:56:11Z</time>
      </trkpt>
      <trkpt lat="47.41014" lon="-0.49022">
        <ele>25.8</ele>
        <time>2021-07-04T09:56:13Z</time>
      </trkpt>
      <trkpt lat="47.41009" lon="-0.49023">
        <ele>26.2</ele>
        <time>2021-07-04T09:56:14Z</time>
      </trkpt>
      <trkpt lat="47.41004" lon="-0.49023">
        <ele>25.6</ele>
        <time>2021-07-04T09:56:15Z</time>
      </trkpt>
      <trkpt lat="47.40993" lon="-0.49023">
        <ele>24.8</ele>
        <time>2021-07-04T09:56:17Z</time>
      </trkpt>
      <trkpt lat="47.40981" lon="-0.49024">
        <ele>24.6</ele>
        <time>2021-07-04T09:56:19Z</time>
      </trkpt>
      <trkpt lat="47.40975" lon="-0.49025">
        <ele>24.6</ele>
        <time>2021-07-04T09:56:20Z</time>
      </trkpt>
      <trkpt lat="47.40968" lon="-0.49026">
        <ele>24.6</ele>
        <time>2021-07-04T09:56:21Z</time>
      </trkpt>
      <trkpt lat="47.40956" lon="-0.49028">
        <ele>24.4</ele>
        <time>2021-07-04T09:56:23Z</time>
      </trkpt>
      <trkpt lat="47.40943" lon="-0.4903">
        <ele>24.4</ele>
        <time>2021-07-04T09:56:25Z</time>
      </trkpt>
      <trkpt lat="47.4093" lon="-0.4903">
        <ele>24.2</ele>
        <time>2021-07-04T09:56:27Z</time>
      </trkpt>
      <trkpt lat="47.40923" lon="-0.49031">
        <ele>24.4</ele>
        <time>2021-07-04T09:56:28Z</time>
      </trkpt>
      <trkpt lat="47.40916" lon="-0.49032">
        <ele>25</ele>
        <time>2021-07-04T09:56:29Z</time>
      </trkpt>
      <trkpt lat="47.40911" lon="-0.49034">
        <ele>25</ele>
        <time>2021-07-04T09:56:30Z</time>
      </trkpt>
      <trkpt lat="47.40906" lon="-0.49035">
        <ele>25.4</ele>
        <time>2021-07-04T09:56:31Z</time>
      </trkpt>
      <trkpt lat="47.40902" lon="-0.49037">
        <ele>25.6</ele>
        <time>2021-07-04T09:56:32Z</time>
      </trkpt>
      <trkpt lat="47.40899" lon="-0.49039">
        <ele>26.2</ele>
        <time>2021-07-04T09:56:33Z</time>
      </trkpt>
      <trkpt lat="47.40891" lon="-0.49042">
        <ele>26.6</ele>
        <time>2021-07-04T09:56:35Z</time>
      </trkpt>
      <trkpt lat="47.40882" lon="-0.49045">
        <ele>26.4</ele>
        <time>2021-07-04T09:56:37Z</time>
      </trkpt>
      <trkpt lat="47.40877" lon="-0.49046">
        <ele>26.4</ele>
        <time>2021-07-04T09:56:38Z</time>
      </trkpt>
      <trkpt lat="47.40873" lon="-0.49047">
        <ele>26</ele>
        <time>2021-07-04T09:56:39Z</time>
      </trkpt>
      <trkpt lat="47.40864" lon="-0.49051">
        <ele>26</ele>
        <time>2021-07-04T09:56:41Z</time>
      </trkpt>
      <trkpt lat="47.40855" lon="-0.49057">
        <ele>26.4</ele>
        <time>2021-07-04T09:56:43Z</time>
      </trkpt>
      <trkpt lat="47.40851" lon="-0.49063">
        <ele>26.4</ele>
        <time>2021-07-04T09:56:44Z</time>
      </trkpt>
      <trkpt lat="47.40851" lon="-0.49068">
        <ele>26.6</ele>
        <time>2021-07-04T09:56:45Z</time>
      </trkpt>
      <trkpt lat="47.40851" lon="-0.49073">
        <ele>26.6</ele>
        <time>2021-07-04T09:56:46Z</time>
      </trkpt>
      <trkpt lat="47.40853" lon="-0.49079">
        <ele>27</ele>
        <time>2021-07-04T09:56:47Z</time>
      </trkpt>
      <trkpt lat="47.40852" lon="-0.49093">
        <ele>27</ele>
        <time>2021-07-04T09:56:49Z</time>
      </trkpt>
      <trkpt lat="47.40852" lon="-0.49101">
        <ele>26.8</ele>
        <time>2021-07-04T09:56:50Z</time>
      </trkpt>
      <trkpt lat="47.40852" lon="-0.49109">
        <ele>26.6</ele>
        <time>2021-07-04T09:56:51Z</time>
      </trkpt>
      <trkpt lat="47.40852" lon="-0.49126">
        <ele>26.6</ele>
        <time>2021-07-04T09:56:53Z</time>
      </trkpt>
      <trkpt lat="47.40852" lon="-0.49143">
        <ele>26.8</ele>
        <time>2021-07-04T09:56:55Z</time>
      </trkpt>
      <trkpt lat="47.40852" lon="-0.49152">
        <ele>27</ele>
        <time>2021-07-04T09:56:56Z</time>
      </trkpt>
      <trkpt lat="47.40851" lon="-0.49161">
        <ele>27.2</ele>
        <time>2021-07-04T09:56:57Z</time>
      </trkpt>
      <trkpt lat="47.40851" lon="-0.49169">
        <ele>27.4</ele>
        <time>2021-07-04T09:56:58Z</time>
      </trkpt>
      <trkpt lat="47.4085" lon="-0.49178">
        <ele>27.6</ele>
        <time>2021-07-04T09:56:59Z</time>
      </trkpt>
      <trkpt lat="47.40849" lon="-0.49195">
        <ele>28.2</ele>
        <time>2021-07-04T09:57:01Z</time>
      </trkpt>
      <trkpt lat="47.40847" lon="-0.49213">
        <ele>27.6</ele>
        <time>2021-07-04T09:57:03Z</time>
      </trkpt>
      <trkpt lat="47.40846" lon="-0.49233">
        <ele>26.4</ele>
        <time>2021-07-04T09:57:05Z</time>
      </trkpt>
      <trkpt lat="47.40846" lon="-0.49243">
        <ele>26</ele>
        <time>2021-07-04T09:57:06Z</time>
      </trkpt>
      <trkpt lat="47.40846" lon="-0.49253">
        <ele>26</ele>
        <time>2021-07-04T09:57:07Z</time>
      </trkpt>
      <trkpt lat="47.40847" lon="-0.49262">
        <ele>26</ele>
        <time>2021-07-04T09:57:08Z</time>
      </trkpt>
      <trkpt lat="47.40848" lon="-0.49272">
        <ele>26</ele>
        <time>2021-07-04T09:57:09Z</time>
      </trkpt>
      <trkpt lat="47.40848" lon="-0.49282">
        <ele>26</ele>
        <time>2021-07-04T09:57:10Z</time>
      </trkpt>
      <trkpt lat="47.40848" lon="-0.49293">
        <ele>26</ele>
        <time>2021-07-04T09:57:11Z</time>
      </trkpt>
      <trkpt lat="47.40844" lon="-0.49315">
        <ele>26.2</ele>
        <time>2021-07-04T09:57:13Z</time>
      </trkpt>
      <trkpt lat="47.40842" lon="-0.49336">
        <ele>25.6</ele>
        <time>2021-07-04T09:57:15Z</time>
      </trkpt>
      <trkpt lat="47.40839" lon="-0.49358">
        <ele>25</ele>
        <time>2021-07-04T09:57:17Z</time>
      </trkpt>
      <trkpt lat="47.40837" lon="-0.49368">
        <ele>24.6</ele>
        <time>2021-07-04T09:57:18Z</time>
      </trkpt>
      <trkpt lat="47.40836" lon="-0.49379">
        <ele>24.6</ele>
        <time>2021-07-04T09:57:19Z</time>
      </trkpt>
      <trkpt lat="47.40833" lon="-0.49398">
        <ele>24</ele>
        <time>2021-07-04T09:57:21Z</time>
      </trkpt>
      <trkpt lat="47.40832" lon="-0.49408">
        <ele>24</ele>
        <time>2021-07-04T09:57:22Z</time>
      </trkpt>
      <trkpt lat="47.4083" lon="-0.49417">
        <ele>24.2</ele>
        <time>2021-07-04T09:57:23Z</time>
      </trkpt>
      <trkpt lat="47.40828" lon="-0.49436">
        <ele>24.4</ele>
        <time>2021-07-04T09:57:25Z</time>
      </trkpt>
      <trkpt lat="47.40825" lon="-0.49454">
        <ele>24.8</ele>
        <time>2021-07-04T09:57:27Z</time>
      </trkpt>
      <trkpt lat="47.40822" lon="-0.49472">
        <ele>24.4</ele>
        <time>2021-07-04T09:57:29Z</time>
      </trkpt>
      <trkpt lat="47.4082" lon="-0.49491">
        <ele>24.4</ele>
        <time>2021-07-04T09:57:31Z</time>
      </trkpt>
      <trkpt lat="47.40819" lon="-0.49501">
        <ele>24.4</ele>
        <time>2021-07-04T09:57:32Z</time>
      </trkpt>
      <trkpt lat="47.40819" lon="-0.49511">
        <ele>24.6</ele>
        <time>2021-07-04T09:57:33Z</time>
      </trkpt>
      <trkpt lat="47.40818" lon="-0.49531">
        <ele>24.4</ele>
        <time>2021-07-04T09:57:35Z</time>
      </trkpt>
      <trkpt lat="47.40817" lon="-0.49554">
        <ele>24.2</ele>
        <time>2021-07-04T09:57:37Z</time>
      </trkpt>
      <trkpt lat="47.40817" lon="-0.49578">
        <ele>24.2</ele>
        <time>2021-07-04T09:57:39Z</time>
      </trkpt>
      <trkpt lat="47.40815" lon="-0.496">
        <ele>25</ele>
        <time>2021-07-04T09:57:41Z</time>
      </trkpt>
      <trkpt lat="47.40814" lon="-0.49622">
        <ele>25</ele>
        <time>2021-07-04T09:57:43Z</time>
      </trkpt>
      <trkpt lat="47.40811" lon="-0.49643">
        <ele>25</ele>
        <time>2021-07-04T09:57:45Z</time>
      </trkpt>
      <trkpt lat="47.4081" lon="-0.49654">
        <ele>25</ele>
        <time>2021-07-04T09:57:46Z</time>
      </trkpt>
      <trkpt lat="47.40809" lon="-0.49664">
        <ele>24.6</ele>
        <time>2021-07-04T09:57:47Z</time>
      </trkpt>
      <trkpt lat="47.40807" lon="-0.49685">
        <ele>24.6</ele>
        <time>2021-07-04T09:57:49Z</time>
      </trkpt>
      <trkpt lat="47.40805" lon="-0.49705">
        <ele>25.2</ele>
        <time>2021-07-04T09:57:51Z</time>
      </trkpt>
      <trkpt lat="47.40805" lon="-0.49715">
        <ele>25.2</ele>
        <time>2021-07-04T09:57:52Z</time>
      </trkpt>
      <trkpt lat="47.40804" lon="-0.49725">
        <ele>25.2</ele>
        <time>2021-07-04T09:57:53Z</time>
      </trkpt>
      <trkpt lat="47.40802" lon="-0.49744">
        <ele>24.8</ele>
        <time>2021-07-04T09:57:55Z</time>
      </trkpt>
      <trkpt lat="47.40801" lon="-0.49763">
        <ele>24.6</ele>
        <time>2021-07-04T09:57:57Z</time>
      </trkpt>
      <trkpt lat="47.408" lon="-0.49772">
        <ele>24.4</ele>
        <time>2021-07-04T09:57:58Z</time>
      </trkpt>
      <trkpt lat="47.40799" lon="-0.49782">
        <ele>24</ele>
        <time>2021-07-04T09:57:59Z</time>
      </trkpt>
      <trkpt lat="47.40799" lon="-0.498">
        <ele>23.8</ele>
        <time>2021-07-04T09:58:01Z</time>
      </trkpt>
      <trkpt lat="47.40797" lon="-0.49819">
        <ele>23.8</ele>
        <time>2021-07-04T09:58:03Z</time>
      </trkpt>
      <trkpt lat="47.40793" lon="-0.49837">
        <ele>23.6</ele>
        <time>2021-07-04T09:58:05Z</time>
      </trkpt>
      <trkpt lat="47.4079" lon="-0.49856">
        <ele>23.8</ele>
        <time>2021-07-04T09:58:07Z</time>
      </trkpt>
      <trkpt lat="47.40787" lon="-0.49874">
        <ele>24.2</ele>
        <time>2021-07-04T09:58:09Z</time>
      </trkpt>
      <trkpt lat="47.40786" lon="-0.49894">
        <ele>24.6</ele>
        <time>2021-07-04T09:58:11Z</time>
      </trkpt>
      <trkpt lat="47.40785" lon="-0.49915">
        <ele>24.6</ele>
        <time>2021-07-04T09:58:13Z</time>
      </trkpt>
      <trkpt lat="47.40784" lon="-0.49935">
        <ele>24.4</ele>
        <time>2021-07-04T09:58:15Z</time>
      </trkpt>
      <trkpt lat="47.40784" lon="-0.49954">
        <ele>23.8</ele>
        <time>2021-07-04T09:58:17Z</time>
      </trkpt>
      <trkpt lat="47.40784" lon="-0.49974">
        <ele>23.6</ele>
        <time>2021-07-04T09:58:19Z</time>
      </trkpt>
      <trkpt lat="47.40784" lon="-0.49993">
        <ele>23.6</ele>
        <time>2021-07-04T09:58:21Z</time>
      </trkpt>
      <trkpt lat="47.40784" lon="-0.50011">
        <ele>23.6</ele>
        <time>2021-07-04T09:58:23Z</time>
      </trkpt>
      <trkpt lat="47.40785" lon="-0.5003">
        <ele>24.4</ele>
        <time>2021-07-04T09:58:25Z</time>
      </trkpt>
      <trkpt lat="47.40784" lon="-0.5004">
        <ele>25</ele>
        <time>2021-07-04T09:58:26Z</time>
      </trkpt>
      <trkpt lat="47.40785" lon="-0.50049">
        <ele>25</ele>
        <time>2021-07-04T09:58:27Z</time>
      </trkpt>
      <trkpt lat="47.40785" lon="-0.50068">
        <ele>24.2</ele>
        <time>2021-07-04T09:58:29Z</time>
      </trkpt>
      <trkpt lat="47.40785" lon="-0.50078">
        <ele>23.8</ele>
        <time>2021-07-04T09:58:30Z</time>
      </trkpt>
      <trkpt lat="47.40785" lon="-0.50088">
        <ele>24</ele>
        <time>2021-07-04T09:58:31Z</time>
      </trkpt>
      <trkpt lat="47.40785" lon="-0.50106">
        <ele>24</ele>
        <time>2021-07-04T09:58:33Z</time>
      </trkpt>
      <trkpt lat="47.40786" lon="-0.50125">
        <ele>23.6</ele>
        <time>2021-07-04T09:58:35Z</time>
      </trkpt>
      <trkpt lat="47.40786" lon="-0.50145">
        <ele>24</ele>
        <time>2021-07-04T09:58:37Z</time>
      </trkpt>
      <trkpt lat="47.40786" lon="-0.50164">
        <ele>24.2</ele>
        <time>2021-07-04T09:58:39Z</time>
      </trkpt>
      <trkpt lat="47.40786" lon="-0.50183">
        <ele>23.8</ele>
        <time>2021-07-04T09:58:41Z</time>
      </trkpt>
      <trkpt lat="47.40786" lon="-0.50202">
        <ele>23.4</ele>
        <time>2021-07-04T09:58:43Z</time>
      </trkpt>
      <trkpt lat="47.40786" lon="-0.5022">
        <ele>23.4</ele>
        <time>2021-07-04T09:58:45Z</time>
      </trkpt>
      <trkpt lat="47.40786" lon="-0.50239">
        <ele>24.2</ele>
        <time>2021-07-04T09:58:47Z</time>
      </trkpt>
      <trkpt lat="47.40787" lon="-0.50258">
        <ele>24.6</ele>
        <time>2021-07-04T09:58:49Z</time>
      </trkpt>
      <trkpt lat="47.40787" lon="-0.50268">
        <ele>24.6</ele>
        <time>2021-07-04T09:58:50Z</time>
      </trkpt>
      <trkpt lat="47.40787" lon="-0.50277">
        <ele>24.6</ele>
        <time>2021-07-04T09:58:51Z</time>
      </trkpt>
      <trkpt lat="47.40787" lon="-0.50297">
        <ele>24.6</ele>
        <time>2021-07-04T09:58:53Z</time>
      </trkpt>
      <trkpt lat="47.40787" lon="-0.50317">
        <ele>24.4</ele>
        <time>2021-07-04T09:58:55Z</time>
      </trkpt>
      <trkpt lat="47.40786" lon="-0.50337">
        <ele>24</ele>
        <time>2021-07-04T09:58:57Z</time>
      </trkpt>
      <trkpt lat="47.40786" lon="-0.50346">
        <ele>24</ele>
        <time>2021-07-04T09:58:58Z</time>
      </trkpt>
      <trkpt lat="47.40785" lon="-0.50356">
        <ele>24.2</ele>
        <time>2021-07-04T09:58:59Z</time>
      </trkpt>
      <trkpt lat="47.40785" lon="-0.50376">
        <ele>24.2</ele>
        <time>2021-07-04T09:59:01Z</time>
      </trkpt>
      <trkpt lat="47.40785" lon="-0.50395">
        <ele>23.6</ele>
        <time>2021-07-04T09:59:03Z</time>
      </trkpt>
      <trkpt lat="47.40786" lon="-0.50413">
        <ele>24</ele>
        <time>2021-07-04T09:59:05Z</time>
      </trkpt>
      <trkpt lat="47.40786" lon="-0.50422">
        <ele>24.4</ele>
        <time>2021-07-04T09:59:06Z</time>
      </trkpt>
      <trkpt lat="47.40787" lon="-0.50431">
        <ele>24.6</ele>
        <time>2021-07-04T09:59:07Z</time>
      </trkpt>
      <trkpt lat="47.40788" lon="-0.50449">
        <ele>24.8</ele>
        <time>2021-07-04T09:59:09Z</time>
      </trkpt>
      <trkpt lat="47.40789" lon="-0.50459">
        <ele>25</ele>
        <time>2021-07-04T09:59:10Z</time>
      </trkpt>
      <trkpt lat="47.4079" lon="-0.50468">
        <ele>25</ele>
        <time>2021-07-04T09:59:11Z</time>
      </trkpt>
      <trkpt lat="47.40792" lon="-0.50486">
        <ele>25.2</ele>
        <time>2021-07-04T09:59:13Z</time>
      </trkpt>
      <trkpt lat="47.40794" lon="-0.50495">
        <ele>25.2</ele>
        <time>2021-07-04T09:59:14Z</time>
      </trkpt>
      <trkpt lat="47.40795" lon="-0.50505">
        <ele>25</ele>
        <time>2021-07-04T09:59:15Z</time>
      </trkpt>
      <trkpt lat="47.40795" lon="-0.50523">
        <ele>24.6</ele>
        <time>2021-07-04T09:59:17Z</time>
      </trkpt>
      <trkpt lat="47.40795" lon="-0.50542">
        <ele>25</ele>
        <time>2021-07-04T09:59:19Z</time>
      </trkpt>
      <trkpt lat="47.40795" lon="-0.50551">
        <ele>25</ele>
        <time>2021-07-04T09:59:20Z</time>
      </trkpt>
      <trkpt lat="47.40793" lon="-0.5056">
        <ele>24.6</ele>
        <time>2021-07-04T09:59:21Z</time>
      </trkpt>
      <trkpt lat="47.4079" lon="-0.50578">
        <ele>24.2</ele>
        <time>2021-07-04T09:59:23Z</time>
      </trkpt>
      <trkpt lat="47.40786" lon="-0.50596">
        <ele>24</ele>
        <time>2021-07-04T09:59:25Z</time>
      </trkpt>
      <trkpt lat="47.40782" lon="-0.50614">
        <ele>24.6</ele>
        <time>2021-07-04T09:59:27Z</time>
      </trkpt>
      <trkpt lat="47.40779" lon="-0.50633">
        <ele>24.4</ele>
        <time>2021-07-04T09:59:29Z</time>
      </trkpt>
      <trkpt lat="47.40776" lon="-0.50651">
        <ele>24.6</ele>
        <time>2021-07-04T09:59:31Z</time>
      </trkpt>
      <trkpt lat="47.40775" lon="-0.5066">
        <ele>24.6</ele>
        <time>2021-07-04T09:59:32Z</time>
      </trkpt>
      <trkpt lat="47.40773" lon="-0.50669">
        <ele>24.8</ele>
        <time>2021-07-04T09:59:33Z</time>
      </trkpt>
      <trkpt lat="47.40772" lon="-0.50687">
        <ele>25</ele>
        <time>2021-07-04T09:59:35Z</time>
      </trkpt>
      <trkpt lat="47.40771" lon="-0.50706">
        <ele>24.8</ele>
        <time>2021-07-04T09:59:37Z</time>
      </trkpt>
      <trkpt lat="47.40771" lon="-0.50715">
        <ele>24.4</ele>
        <time>2021-07-04T09:59:38Z</time>
      </trkpt>
      <trkpt lat="47.40771" lon="-0.50724">
        <ele>24.2</ele>
        <time>2021-07-04T09:59:39Z</time>
      </trkpt>
      <trkpt lat="47.40771" lon="-0.50742">
        <ele>25.2</ele>
        <time>2021-07-04T09:59:41Z</time>
      </trkpt>
      <trkpt lat="47.4077" lon="-0.5076">
        <ele>25</ele>
        <time>2021-07-04T09:59:43Z</time>
      </trkpt>
      <trkpt lat="47.40768" lon="-0.50778">
        <ele>24</ele>
        <time>2021-07-04T09:59:45Z</time>
      </trkpt>
      <trkpt lat="47.40766" lon="-0.50787">
        <ele>24.2</ele>
        <time>2021-07-04T09:59:46Z</time>
      </trkpt>
      <trkpt lat="47.40765" lon="-0.50795">
        <ele>25</ele>
        <time>2021-07-04T09:59:47Z</time>
      </trkpt>
      <trkpt lat="47.40761" lon="-0.50813">
        <ele>25.6</ele>
        <time>2021-07-04T09:59:49Z</time>
      </trkpt>
      <trkpt lat="47.40757" lon="-0.50829">
        <ele>25.6</ele>
        <time>2021-07-04T09:59:51Z</time>
      </trkpt>
      <trkpt lat="47.40753" lon="-0.50845">
        <ele>25.6</ele>
        <time>2021-07-04T09:59:53Z</time>
      </trkpt>
      <trkpt lat="47.4075" lon="-0.50851">
        <ele>25.2</ele>
        <time>2021-07-04T09:59:54Z</time>
      </trkpt>
      <trkpt lat="47.40747" lon="-0.50857">
        <ele>25</ele>
        <time>2021-07-04T09:59:55Z</time>
      </trkpt>
      <trkpt lat="47.40739" lon="-0.50865">
        <ele>25.2</ele>
        <time>2021-07-04T09:59:57Z</time>
      </trkpt>
      <trkpt lat="47.40735" lon="-0.50867">
        <ele>25.4</ele>
        <time>2021-07-04T09:59:58Z</time>
      </trkpt>
      <trkpt lat="47.4073" lon="-0.50868">
        <ele>25.6</ele>
        <time>2021-07-04T09:59:59Z</time>
      </trkpt>
      <trkpt lat="47.40725" lon="-0.5087">
        <ele>25.8</ele>
        <time>2021-07-04T10:00:00Z</time>
      </trkpt>
      <trkpt lat="47.4072" lon="-0.50871">
        <ele>26</ele>
        <time>2021-07-04T10:00:01Z</time>
      </trkpt>
      <trkpt lat="47.40709" lon="-0.50874">
        <ele>26.2</ele>
        <time>2021-07-04T10:00:03Z</time>
      </trkpt>
      <trkpt lat="47.40704" lon="-0.50875">
        <ele>26</ele>
        <time>2021-07-04T10:00:04Z</time>
      </trkpt>
      <trkpt lat="47.40698" lon="-0.50878">
        <ele>25.6</ele>
        <time>2021-07-04T10:00:05Z</time>
      </trkpt>
      <trkpt lat="47.40687" lon="-0.50882">
        <ele>25.8</ele>
        <time>2021-07-04T10:00:07Z</time>
      </trkpt>
      <trkpt lat="47.40674" lon="-0.50886">
        <ele>25.8</ele>
        <time>2021-07-04T10:00:09Z</time>
      </trkpt>
      <trkpt lat="47.40661" lon="-0.50892">
        <ele>26.2</ele>
        <time>2021-07-04T10:00:11Z</time>
      </trkpt>
      <trkpt lat="47.40649" lon="-0.50897">
        <ele>26.8</ele>
        <time>2021-07-04T10:00:13Z</time>
      </trkpt>
      <trkpt lat="47.40637" lon="-0.50903">
        <ele>26.6</ele>
        <time>2021-07-04T10:00:15Z</time>
      </trkpt>
      <trkpt lat="47.40631" lon="-0.50905">
        <ele>26.2</ele>
        <time>2021-07-04T10:00:16Z</time>
      </trkpt>
      <trkpt lat="47.40625" lon="-0.50906">
        <ele>26</ele>
        <time>2021-07-04T10:00:17Z</time>
      </trkpt>
      <trkpt lat="47.40614" lon="-0.5091">
        <ele>25</ele>
        <time>2021-07-04T10:00:19Z</time>
      </trkpt>
      <trkpt lat="47.40604" lon="-0.50918">
        <ele>24.8</ele>
        <time>2021-07-04T10:00:21Z</time>
      </trkpt>
      <trkpt lat="47.40601" lon="-0.50925">
        <ele>24.8</ele>
        <time>2021-07-04T10:00:22Z</time>
      </trkpt>
      <trkpt lat="47.40601" lon="-0.50932">
        <ele>25</ele>
        <time>2021-07-04T10:00:23Z</time>
      </trkpt>
      <trkpt lat="47.406" lon="-0.50945">
        <ele>25.4</ele>
        <time>2021-07-04T10:00:25Z</time>
      </trkpt>
      <trkpt lat="47.406" lon="-0.50959">
        <ele>25.8</ele>
        <time>2021-07-04T10:00:27Z</time>
      </trkpt>
      <trkpt lat="47.40598" lon="-0.50974">
        <ele>26</ele>
        <time>2021-07-04T10:00:29Z</time>
      </trkpt>
      <trkpt lat="47.40599" lon="-0.50981">
        <ele>26.2</ele>
        <time>2021-07-04T10:00:30Z</time>
      </trkpt>
      <trkpt lat="47.40601" lon="-0.50984">
        <ele>26</ele>
        <time>2021-07-04T10:00:31Z</time>
      </trkpt>
      <trkpt lat="47.40607" lon="-0.50984">
        <ele>26.2</ele>
        <time>2021-07-04T10:00:32Z</time>
      </trkpt>
      <trkpt lat="47.40613" lon="-0.50983">
        <ele>26.4</ele>
        <time>2021-07-04T10:00:33Z</time>
      </trkpt>
      <trkpt lat="47.40624" lon="-0.50979">
        <ele>26.8</ele>
        <time>2021-07-04T10:00:35Z</time>
      </trkpt>
      <trkpt lat="47.40636" lon="-0.50975">
        <ele>26.6</ele>
        <time>2021-07-04T10:00:37Z</time>
      </trkpt>
      <trkpt lat="47.40648" lon="-0.50971">
        <ele>26.4</ele>
        <time>2021-07-04T10:00:39Z</time>
      </trkpt>
      <trkpt lat="47.40652" lon="-0.50969">
        <ele>26.4</ele>
        <time>2021-07-04T10:00:40Z</time>
      </trkpt>
      <trkpt lat="47.40658" lon="-0.50967">
        <ele>26.2</ele>
        <time>2021-07-04T10:00:41Z</time>
      </trkpt>
      <trkpt lat="47.40663" lon="-0.50964">
        <ele>26</ele>
        <time>2021-07-04T10:00:42Z</time>
      </trkpt>
      <trkpt lat="47.40669" lon="-0.50963">
        <ele>26</ele>
        <time>2021-07-04T10:00:43Z</time>
      </trkpt>
      <trkpt lat="47.4068" lon="-0.50959">
        <ele>26</ele>
        <time>2021-07-04T10:00:45Z</time>
      </trkpt>
      <trkpt lat="47.40693" lon="-0.50955">
        <ele>26</ele>
        <time>2021-07-04T10:00:47Z</time>
      </trkpt>
      <trkpt lat="47.40699" lon="-0.50953">
        <ele>26</ele>
        <time>2021-07-04T10:00:48Z</time>
      </trkpt>
      <trkpt lat="47.40706" lon="-0.50951">
        <ele>26</ele>
        <time>2021-07-04T10:00:49Z</time>
      </trkpt>
      <trkpt lat="47.4072" lon="-0.50947">
        <ele>25.4</ele>
        <time>2021-07-04T10:00:51Z</time>
      </trkpt>
      <trkpt lat="47.40733" lon="-0.50944">
        <ele>25.6</ele>
        <time>2021-07-04T10:00:53Z</time>
      </trkpt>
      <trkpt lat="47.4074" lon="-0.50942">
        <ele>25.8</ele>
        <time>2021-07-04T10:00:54Z</time>
      </trkpt>
      <trkpt lat="47.40747" lon="-0.50941">
        <ele>25.8</ele>
        <time>2021-07-04T10:00:55Z</time>
      </trkpt>
      <trkpt lat="47.4076" lon="-0.50938">
        <ele>26.2</ele>
        <time>2021-07-04T10:00:57Z</time>
      </trkpt>
      <trkpt lat="47.40772" lon="-0.50934">
        <ele>26.4</ele>
        <time>2021-07-04T10:00:59Z</time>
      </trkpt>
      <trkpt lat="47.40785" lon="-0.5093">
        <ele>26.6</ele>
        <time>2021-07-04T10:01:01Z</time>
      </trkpt>
      <trkpt lat="47.40791" lon="-0.50929">
        <ele>26.4</ele>
        <time>2021-07-04T10:01:02Z</time>
      </trkpt>
      <trkpt lat="47.40797" lon="-0.50928">
        <ele>26.2</ele>
        <time>2021-07-04T10:01:03Z</time>
      </trkpt>
      <trkpt lat="47.40803" lon="-0.50929">
        <ele>26.2</ele>
        <time>2021-07-04T10:01:04Z</time>
      </trkpt>
      <trkpt lat="47.40808" lon="-0.5093">
        <ele>26</ele>
        <time>2021-07-04T10:01:05Z</time>
      </trkpt>
      <trkpt lat="47.40813" lon="-0.50934">
        <ele>25.6</ele>
        <time>2021-07-04T10:01:06Z</time>
      </trkpt>
      <trkpt lat="47.40819" lon="-0.50938">
        <ele>25.2</ele>
        <time>2021-07-04T10:01:07Z</time>
      </trkpt>
      <trkpt lat="47.40826" lon="-0.50942">
        <ele>25</ele>
        <time>2021-07-04T10:01:08Z</time>
      </trkpt>
      <trkpt lat="47.40833" lon="-0.50946">
        <ele>25</ele>
        <time>2021-07-04T10:01:09Z</time>
      </trkpt>
      <trkpt lat="47.40846" lon="-0.50953">
        <ele>24.8</ele>
        <time>2021-07-04T10:01:11Z</time>
      </trkpt>
      <trkpt lat="47.40859" lon="-0.50959">
        <ele>24.8</ele>
        <time>2021-07-04T10:01:13Z</time>
      </trkpt>
      <trkpt lat="47.40871" lon="-0.50966">
        <ele>24.8</ele>
        <time>2021-07-04T10:01:15Z</time>
      </trkpt>
      <trkpt lat="47.40882" lon="-0.50974">
        <ele>25</ele>
        <time>2021-07-04T10:01:17Z</time>
      </trkpt>
      <trkpt lat="47.40886" lon="-0.50981">
        <ele>25</ele>
        <time>2021-07-04T10:01:18Z</time>
      </trkpt>
      <trkpt lat="47.4089" lon="-0.50987">
        <ele>25.2</ele>
        <time>2021-07-04T10:01:19Z</time>
      </trkpt>
      <trkpt lat="47.40894" lon="-0.50993">
        <ele>25.2</ele>
        <time>2021-07-04T10:01:20Z</time>
      </trkpt>
      <trkpt lat="47.40896" lon="-0.50998">
        <ele>25.2</ele>
        <time>2021-07-04T10:01:21Z</time>
      </trkpt>
      <trkpt lat="47.40897" lon="-0.51009">
        <ele>25.2</ele>
        <time>2021-07-04T10:01:23Z</time>
      </trkpt>
      <trkpt lat="47.40898" lon="-0.51021">
        <ele>24.6</ele>
        <time>2021-07-04T10:01:25Z</time>
      </trkpt>
      <trkpt lat="47.40897" lon="-0.51033">
        <ele>24.2</ele>
        <time>2021-07-04T10:01:27Z</time>
      </trkpt>
      <trkpt lat="47.40897" lon="-0.51048">
        <ele>24.8</ele>
        <time>2021-07-04T10:01:29Z</time>
      </trkpt>
      <trkpt lat="47.409" lon="-0.51063">
        <ele>25.6</ele>
        <time>2021-07-04T10:01:31Z</time>
      </trkpt>
      <trkpt lat="47.40902" lon="-0.51078">
        <ele>25.8</ele>
        <time>2021-07-04T10:01:33Z</time>
      </trkpt>
      <trkpt lat="47.40903" lon="-0.51085">
        <ele>25.6</ele>
        <time>2021-07-04T10:01:34Z</time>
      </trkpt>
      <trkpt lat="47.40903" lon="-0.51094">
        <ele>25.2</ele>
        <time>2021-07-04T10:01:35Z</time>
      </trkpt>
      <trkpt lat="47.40903" lon="-0.51111">
        <ele>25</ele>
        <time>2021-07-04T10:01:37Z</time>
      </trkpt>
      <trkpt lat="47.40901" lon="-0.51129">
        <ele>25.2</ele>
        <time>2021-07-04T10:01:39Z</time>
      </trkpt>
      <trkpt lat="47.40901" lon="-0.51148">
        <ele>24.6</ele>
        <time>2021-07-04T10:01:41Z</time>
      </trkpt>
      <trkpt lat="47.409" lon="-0.51166">
        <ele>24.8</ele>
        <time>2021-07-04T10:01:43Z</time>
      </trkpt>
      <trkpt lat="47.409" lon="-0.51183">
        <ele>24.6</ele>
        <time>2021-07-04T10:01:45Z</time>
      </trkpt>
      <trkpt lat="47.40901" lon="-0.51191">
        <ele>24.2</ele>
        <time>2021-07-04T10:01:46Z</time>
      </trkpt>
      <trkpt lat="47.40902" lon="-0.51199">
        <ele>24.2</ele>
        <time>2021-07-04T10:01:47Z</time>
      </trkpt>
      <trkpt lat="47.40906" lon="-0.51217">
        <ele>24</ele>
        <time>2021-07-04T10:01:49Z</time>
      </trkpt>
      <trkpt lat="47.40908" lon="-0.51227">
        <ele>24.2</ele>
        <time>2021-07-04T10:01:50Z</time>
      </trkpt>
      <trkpt lat="47.40911" lon="-0.51236">
        <ele>24.2</ele>
        <time>2021-07-04T10:01:51Z</time>
      </trkpt>
      <trkpt lat="47.40915" lon="-0.51253">
        <ele>24.2</ele>
        <time>2021-07-04T10:01:53Z</time>
      </trkpt>
      <trkpt lat="47.4092" lon="-0.51269">
        <ele>24</ele>
        <time>2021-07-04T10:01:55Z</time>
      </trkpt>
      <trkpt lat="47.40923" lon="-0.51274">
        <ele>24.2</ele>
        <time>2021-07-04T10:01:56Z</time>
      </trkpt>
      <trkpt lat="47.40925" lon="-0.51278">
        <ele>24.4</ele>
        <time>2021-07-04T10:01:57Z</time>
      </trkpt>
      <trkpt lat="47.40927" lon="-0.51279">
        <ele>24.4</ele>
        <time>2021-07-04T10:01:58Z</time>
      </trkpt>
      <trkpt lat="47.40929" lon="-0.5128">
        <ele>24.4</ele>
        <time>2021-07-04T10:01:59Z</time>
      </trkpt>
      <trkpt lat="47.40933" lon="-0.51278">
        <ele>24.6</ele>
        <time>2021-07-04T10:02:01Z</time>
      </trkpt>
      <trkpt lat="47.40935" lon="-0.51276">
        <ele>24.6</ele>
        <time>2021-07-04T10:02:02Z</time>
      </trkpt>
      <trkpt lat="47.40936" lon="-0.51278">
        <ele>24.6</ele>
        <time>2021-07-04T10:02:03Z</time>
      </trkpt>
      <trkpt lat="47.40938" lon="-0.51287">
        <ele>24.2</ele>
        <time>2021-07-04T10:02:05Z</time>
      </trkpt>
      <trkpt lat="47.4094" lon="-0.51291">
        <ele>24.2</ele>
        <time>2021-07-04T10:02:06Z</time>
      </trkpt>
      <trkpt lat="47.40942" lon="-0.51295">
        <ele>24</ele>
        <time>2021-07-04T10:02:07Z</time>
      </trkpt>
      <trkpt lat="47.40944" lon="-0.51306">
        <ele>24.2</ele>
        <time>2021-07-04T10:02:09Z</time>
      </trkpt>
      <trkpt lat="47.40951" lon="-0.51315">
        <ele>24.2</ele>
        <time>2021-07-04T10:02:11Z</time>
      </trkpt>
      <trkpt lat="47.40959" lon="-0.51319">
        <ele>24.4</ele>
        <time>2021-07-04T10:02:12Z</time>
      </trkpt>
      <trkpt lat="47.40965" lon="-0.51323">
        <ele>24.6</ele>
        <time>2021-07-04T10:02:13Z</time>
      </trkpt>
      <trkpt lat="47.40977" lon="-0.51329">
        <ele>24.8</ele>
        <time>2021-07-04T10:02:15Z</time>
      </trkpt>
      <trkpt lat="47.4099" lon="-0.51335">
        <ele>24.8</ele>
        <time>2021-07-04T10:02:17Z</time>
      </trkpt>
      <trkpt lat="47.41005" lon="-0.51344">
        <ele>24.6</ele>
        <time>2021-07-04T10:02:19Z</time>
      </trkpt>
      <trkpt lat="47.41019" lon="-0.51353">
        <ele>24.8</ele>
        <time>2021-07-04T10:02:21Z</time>
      </trkpt>
      <trkpt lat="47.41024" lon="-0.51359">
        <ele>25</ele>
        <time>2021-07-04T10:02:22Z</time>
      </trkpt>
      <trkpt lat="47.41029" lon="-0.51366">
        <ele>25.2</ele>
        <time>2021-07-04T10:02:23Z</time>
      </trkpt>
      <trkpt lat="47.41039" lon="-0.51378">
        <ele>25.2</ele>
        <time>2021-07-04T10:02:25Z</time>
      </trkpt>
      <trkpt lat="47.41045" lon="-0.51381">
        <ele>25.4</ele>
        <time>2021-07-04T10:02:26Z</time>
      </trkpt>
      <trkpt lat="47.41051" lon="-0.51385">
        <ele>25.2</ele>
        <time>2021-07-04T10:02:27Z</time>
      </trkpt>
      <trkpt lat="47.41058" lon="-0.51388">
        <ele>25.2</ele>
        <time>2021-07-04T10:02:28Z</time>
      </trkpt>
      <trkpt lat="47.41064" lon="-0.51394">
        <ele>25.2</ele>
        <time>2021-07-04T10:02:29Z</time>
      </trkpt>
      <trkpt lat="47.41073" lon="-0.51406">
        <ele>25.2</ele>
        <time>2021-07-04T10:02:31Z</time>
      </trkpt>
      <trkpt lat="47.41077" lon="-0.51417">
        <ele>24.8</ele>
        <time>2021-07-04T10:02:33Z</time>
      </trkpt>
      <trkpt lat="47.4108" lon="-0.51423">
        <ele>24.6</ele>
        <time>2021-07-04T10:02:34Z</time>
      </trkpt>
      <trkpt lat="47.41082" lon="-0.51428">
        <ele>24.6</ele>
        <time>2021-07-04T10:02:35Z</time>
      </trkpt>
      <trkpt lat="47.41086" lon="-0.51437">
        <ele>25</ele>
        <time>2021-07-04T10:02:37Z</time>
      </trkpt>
      <trkpt lat="47.41091" lon="-0.51445">
        <ele>25.6</ele>
        <time>2021-07-04T10:02:39Z</time>
      </trkpt>
      <trkpt lat="47.41094" lon="-0.51449">
        <ele>26</ele>
        <time>2021-07-04T10:02:40Z</time>
      </trkpt>
      <trkpt lat="47.41095" lon="-0.51452">
        <ele>26.6</ele>
        <time>2021-07-04T10:02:41Z</time>
      </trkpt>
      <trkpt lat="47.41097" lon="-0.51459">
        <ele>27.2</ele>
        <time>2021-07-04T10:02:43Z</time>
      </trkpt>
      <trkpt lat="47.41097" lon="-0.51463">
        <ele>27</ele>
        <time>2021-07-04T10:02:44Z</time>
      </trkpt>
      <trkpt lat="47.41095" lon="-0.5147">
        <ele>27.2</ele>
        <time>2021-07-04T10:02:45Z</time>
      </trkpt>
      <trkpt lat="47.41092" lon="-0.51484">
        <ele>27.4</ele>
        <time>2021-07-04T10:02:47Z</time>
      </trkpt>
      <trkpt lat="47.4109" lon="-0.51502">
        <ele>27.4</ele>
        <time>2021-07-04T10:02:49Z</time>
      </trkpt>
      <trkpt lat="47.41089" lon="-0.51511">
        <ele>27.4</ele>
        <time>2021-07-04T10:02:50Z</time>
      </trkpt>
      <trkpt lat="47.41088" lon="-0.51522">
        <ele>27.2</ele>
        <time>2021-07-04T10:02:51Z</time>
      </trkpt>
      <trkpt lat="47.41083" lon="-0.51546">
        <ele>27</ele>
        <time>2021-07-04T10:02:53Z</time>
      </trkpt>
      <trkpt lat="47.41077" lon="-0.51558">
        <ele>26.8</ele>
        <time>2021-07-04T10:02:54Z</time>
      </trkpt>
      <trkpt lat="47.41073" lon="-0.51568">
        <ele>26.6</ele>
        <time>2021-07-04T10:02:55Z</time>
      </trkpt>
      <trkpt lat="47.41068" lon="-0.51586">
        <ele>26.6</ele>
        <time>2021-07-04T10:02:57Z</time>
      </trkpt>
      <trkpt lat="47.41064" lon="-0.51604">
        <ele>26.6</ele>
        <time>2021-07-04T10:02:59Z</time>
      </trkpt>
      <trkpt lat="47.4106" lon="-0.51621">
        <ele>26.6</ele>
        <time>2021-07-04T10:03:01Z</time>
      </trkpt>
      <trkpt lat="47.41057" lon="-0.51639">
        <ele>26.4</ele>
        <time>2021-07-04T10:03:03Z</time>
      </trkpt>
      <trkpt lat="47.41054" lon="-0.51657">
        <ele>26.8</ele>
        <time>2021-07-04T10:03:05Z</time>
      </trkpt>
      <trkpt lat="47.41052" lon="-0.51674">
        <ele>26.8</ele>
        <time>2021-07-04T10:03:07Z</time>
      </trkpt>
      <trkpt lat="47.41051" lon="-0.51691">
        <ele>26.4</ele>
        <time>2021-07-04T10:03:09Z</time>
      </trkpt>
      <trkpt lat="47.4105" lon="-0.51699">
        <ele>26</ele>
        <time>2021-07-04T10:03:10Z</time>
      </trkpt>
      <trkpt lat="47.41049" lon="-0.51707">
        <ele>26</ele>
        <time>2021-07-04T10:03:11Z</time>
      </trkpt>
      <trkpt lat="47.41047" lon="-0.51724">
        <ele>26.6</ele>
        <time>2021-07-04T10:03:13Z</time>
      </trkpt>
      <trkpt lat="47.41045" lon="-0.51739">
        <ele>26.4</ele>
        <time>2021-07-04T10:03:15Z</time>
      </trkpt>
      <trkpt lat="47.41043" lon="-0.51755">
        <ele>26</ele>
        <time>2021-07-04T10:03:17Z</time>
      </trkpt>
      <trkpt lat="47.41041" lon="-0.5177">
        <ele>25.4</ele>
        <time>2021-07-04T10:03:19Z</time>
      </trkpt>
      <trkpt lat="47.41038" lon="-0.51785">
        <ele>25.4</ele>
        <time>2021-07-04T10:03:21Z</time>
      </trkpt>
      <trkpt lat="47.41037" lon="-0.518">
        <ele>25.6</ele>
        <time>2021-07-04T10:03:23Z</time>
      </trkpt>
      <trkpt lat="47.41036" lon="-0.51808">
        <ele>25.8</ele>
        <time>2021-07-04T10:03:24Z</time>
      </trkpt>
      <trkpt lat="47.41034" lon="-0.51815">
        <ele>25.8</ele>
        <time>2021-07-04T10:03:25Z</time>
      </trkpt>
      <trkpt lat="47.41033" lon="-0.51823">
        <ele>25.8</ele>
        <time>2021-07-04T10:03:26Z</time>
      </trkpt>
      <trkpt lat="47.41032" lon="-0.5183">
        <ele>25.8</ele>
        <time>2021-07-04T10:03:27Z</time>
      </trkpt>
      <trkpt lat="47.41031" lon="-0.51843">
        <ele>25.8</ele>
        <time>2021-07-04T10:03:29Z</time>
      </trkpt>
      <trkpt lat="47.41035" lon="-0.51852">
        <ele>26.2</ele>
        <time>2021-07-04T10:03:31Z</time>
      </trkpt>
      <trkpt lat="47.41041" lon="-0.51856">
        <ele>26.4</ele>
        <time>2021-07-04T10:03:33Z</time>
      </trkpt>
      <trkpt lat="47.41045" lon="-0.51856">
        <ele>26.6</ele>
        <time>2021-07-04T10:03:35Z</time>
      </trkpt>
      <trkpt lat="47.41049" lon="-0.51857">
        <ele>26.6</ele>
        <time>2021-07-04T10:03:37Z</time>
      </trkpt>
      <trkpt lat="47.41059" lon="-0.51854">
        <ele>26.2</ele>
        <time>2021-07-04T10:03:39Z</time>
      </trkpt>
      <trkpt lat="47.4107" lon="-0.5185">
        <ele>26.2</ele>
        <time>2021-07-04T10:03:41Z</time>
      </trkpt>
      <trkpt lat="47.41082" lon="-0.51847">
        <ele>26.4</ele>
        <time>2021-07-04T10:03:43Z</time>
      </trkpt>
      <trkpt lat="47.41087" lon="-0.51846">
        <ele>26.2</ele>
        <time>2021-07-04T10:03:44Z</time>
      </trkpt>
      <trkpt lat="47.41093" lon="-0.51843">
        <ele>26.4</ele>
        <time>2021-07-04T10:03:45Z</time>
      </trkpt>
      <trkpt lat="47.41103" lon="-0.51842">
        <ele>26.2</ele>
        <time>2021-07-04T10:03:47Z</time>
      </trkpt>
      <trkpt lat="47.41108" lon="-0.51841">
        <ele>26</ele>
        <time>2021-07-04T10:03:48Z</time>
      </trkpt>
      <trkpt lat="47.41114" lon="-0.51839">
        <ele>26.2</ele>
        <time>2021-07-04T10:03:49Z</time>
      </trkpt>
      <trkpt lat="47.4112" lon="-0.51839">
        <ele>26.4</ele>
        <time>2021-07-04T10:03:50Z</time>
      </trkpt>
      <trkpt lat="47.41127" lon="-0.51838">
        <ele>26.4</ele>
        <time>2021-07-04T10:03:51Z</time>
      </trkpt>
      <trkpt lat="47.41139" lon="-0.51836">
        <ele>26.2</ele>
        <time>2021-07-04T10:03:53Z</time>
      </trkpt>
      <trkpt lat="47.41145" lon="-0.51836">
        <ele>26</ele>
        <time>2021-07-04T10:03:54Z</time>
      </trkpt>
      <trkpt lat="47.41153" lon="-0.51836">
        <ele>26</ele>
        <time>2021-07-04T10:03:55Z</time>
      </trkpt>
      <trkpt lat="47.41167" lon="-0.51836">
        <ele>25.8</ele>
        <time>2021-07-04T10:03:57Z</time>
      </trkpt>
      <trkpt lat="47.41179" lon="-0.51837">
        <ele>26.2</ele>
        <time>2021-07-04T10:03:59Z</time>
      </trkpt>
      <trkpt lat="47.41188" lon="-0.51837">
        <ele>26.4</ele>
        <time>2021-07-04T10:04:01Z</time>
      </trkpt>
      <trkpt lat="47.41197" lon="-0.51838">
        <ele>26.6</ele>
        <time>2021-07-04T10:04:03Z</time>
      </trkpt>
      <trkpt lat="47.41205" lon="-0.5184">
        <ele>27</ele>
        <time>2021-07-04T10:04:05Z</time>
      </trkpt>
      <trkpt lat="47.41209" lon="-0.51843">
        <ele>27</ele>
        <time>2021-07-04T10:04:06Z</time>
      </trkpt>
      <trkpt lat="47.41213" lon="-0.51848">
        <ele>27.4</ele>
        <time>2021-07-04T10:04:07Z</time>
      </trkpt>
      <trkpt lat="47.41218" lon="-0.51855">
        <ele>27.4</ele>
        <time>2021-07-04T10:04:09Z</time>
      </trkpt>
      <trkpt lat="47.41221" lon="-0.51863">
        <ele>27</ele>
        <time>2021-07-04T10:04:11Z</time>
      </trkpt>
      <trkpt lat="47.41224" lon="-0.5187">
        <ele>27</ele>
        <time>2021-07-04T10:04:13Z</time>
      </trkpt>
      <trkpt lat="47.41225" lon="-0.51875">
        <ele>27</ele>
        <time>2021-07-04T10:04:14Z</time>
      </trkpt>
      <trkpt lat="47.41226" lon="-0.51879">
        <ele>27.2</ele>
        <time>2021-07-04T10:04:15Z</time>
      </trkpt>
      <trkpt lat="47.4123" lon="-0.51886">
        <ele>27.8</ele>
        <time>2021-07-04T10:04:17Z</time>
      </trkpt>
      <trkpt lat="47.41232" lon="-0.51889">
        <ele>27.8</ele>
        <time>2021-07-04T10:04:18Z</time>
      </trkpt>
      <trkpt lat="47.41235" lon="-0.51892">
        <ele>27.8</ele>
        <time>2021-07-04T10:04:19Z</time>
      </trkpt>
      <trkpt lat="47.41237" lon="-0.51893">
        <ele>28</ele>
        <time>2021-07-04T10:04:21Z</time>
      </trkpt>
      <trkpt lat="47.41238" lon="-0.51898">
        <ele>28</ele>
        <time>2021-07-04T10:04:35Z</time>
      </trkpt>
      <trkpt lat="47.41236" lon="-0.51898">
        <ele>27.8</ele>
        <time>2021-07-04T10:04:36Z</time>
      </trkpt>
      <trkpt lat="47.41235" lon="-0.51898">
        <ele>27.6</ele>
        <time>2021-07-04T10:04:37Z</time>
      </trkpt>
      <trkpt lat="47.41232" lon="-0.51895">
        <ele>27.8</ele>
        <time>2021-07-04T10:04:39Z</time>
      </trkpt>
      <trkpt lat="47.41232" lon="-0.51893">
        <ele>28</ele>
        <time>2021-07-04T10:04:40Z</time>
      </trkpt>
      <trkpt lat="47.41233" lon="-0.51891">
        <ele>28</ele>
        <time>2021-07-04T10:04:41Z</time>
      </trkpt>
      <trkpt lat="47.41235" lon="-0.51888">
        <ele>27.8</ele>
        <time>2021-07-04T10:04:43Z</time>
      </trkpt>
      <trkpt lat="47.41238" lon="-0.51884">
        <ele>28</ele>
        <time>2021-07-04T10:04:45Z</time>
      </trkpt>
      <trkpt lat="47.41241" lon="-0.51881">
        <ele>28.2</ele>
        <time>2021-07-04T10:04:47Z</time>
      </trkpt>
      <trkpt lat="47.41242" lon="-0.51876">
        <ele>28</ele>
        <time>2021-07-04T10:04:49Z</time>
      </trkpt>
      <trkpt lat="47.41241" lon="-0.51874">
        <ele>28</ele>
        <time>2021-07-04T10:04:50Z</time>
      </trkpt>
      <trkpt lat="47.41239" lon="-0.51874">
        <ele>28</ele>
        <time>2021-07-04T10:04:51Z</time>
      </trkpt>
      <trkpt lat="47.41233" lon="-0.51876">
        <ele>27.4</ele>
        <time>2021-07-04T10:04:53Z</time>
      </trkpt>
      <trkpt lat="47.41229" lon="-0.51877">
        <ele>27</ele>
        <time>2021-07-04T10:04:54Z</time>
      </trkpt>
      <trkpt lat="47.41225" lon="-0.51879">
        <ele>27</ele>
        <time>2021-07-04T10:04:55Z</time>
      </trkpt>
      <trkpt lat="47.41217" lon="-0.51881">
        <ele>27.2</ele>
        <time>2021-07-04T10:04:57Z</time>
      </trkpt>
      <trkpt lat="47.4121" lon="-0.51882">
        <ele>27.4</ele>
        <time>2021-07-04T10:04:59Z</time>
      </trkpt>
      <trkpt lat="47.41203" lon="-0.51881">
        <ele>27.2</ele>
        <time>2021-07-04T10:05:01Z</time>
      </trkpt>
      <trkpt lat="47.41195" lon="-0.5188">
        <ele>27.2</ele>
        <time>2021-07-04T10:05:03Z</time>
      </trkpt>
      <trkpt lat="47.41186" lon="-0.5188">
        <ele>26.8</ele>
        <time>2021-07-04T10:05:05Z</time>
      </trkpt>
      <trkpt lat="47.41174" lon="-0.51878">
        <ele>26.4</ele>
        <time>2021-07-04T10:05:07Z</time>
      </trkpt>
      <trkpt lat="47.41161" lon="-0.51875">
        <ele>26.4</ele>
        <time>2021-07-04T10:05:09Z</time>
      </trkpt>
      <trkpt lat="47.41149" lon="-0.51875">
        <ele>26.4</ele>
        <time>2021-07-04T10:05:11Z</time>
      </trkpt>
      <trkpt lat="47.41139" lon="-0.51875">
        <ele>26.4</ele>
        <time>2021-07-04T10:05:13Z</time>
      </trkpt>
      <trkpt lat="47.41127" lon="-0.51874">
        <ele>26.2</ele>
        <time>2021-07-04T10:05:15Z</time>
      </trkpt>
      <trkpt lat="47.41117" lon="-0.51874">
        <ele>26.2</ele>
        <time>2021-07-04T10:05:17Z</time>
      </trkpt>
      <trkpt lat="47.41111" lon="-0.51875">
        <ele>26</ele>
        <time>2021-07-04T10:05:18Z</time>
      </trkpt>
      <trkpt lat="47.41106" lon="-0.51877">
        <ele>26.4</ele>
        <time>2021-07-04T10:05:19Z</time>
      </trkpt>
      <trkpt lat="47.41096" lon="-0.51878">
        <ele>26</ele>
        <time>2021-07-04T10:05:21Z</time>
      </trkpt>
      <trkpt lat="47.41089" lon="-0.51878">
        <ele>25.6</ele>
        <time>2021-07-04T10:05:22Z</time>
      </trkpt>
      <trkpt lat="47.41084" lon="-0.51878">
        <ele>25.6</ele>
        <time>2021-07-04T10:05:23Z</time>
      </trkpt>
      <trkpt lat="47.4108" lon="-0.51878">
        <ele>25.6</ele>
        <time>2021-07-04T10:05:24Z</time>
      </trkpt>
      <trkpt lat="47.41074" lon="-0.51877">
        <ele>25.8</ele>
        <time>2021-07-04T10:05:25Z</time>
      </trkpt>
      <trkpt lat="47.41065" lon="-0.51877">
        <ele>26</ele>
        <time>2021-07-04T10:05:27Z</time>
      </trkpt>
      <trkpt lat="47.41057" lon="-0.51876">
        <ele>26.4</ele>
        <time>2021-07-04T10:05:29Z</time>
      </trkpt>
      <trkpt lat="47.41055" lon="-0.51877">
        <ele>26.8</ele>
        <time>2021-07-04T10:05:30Z</time>
      </trkpt>
      <trkpt lat="47.41052" lon="-0.51877">
        <ele>27.2</ele>
        <time>2021-07-04T10:05:31Z</time>
      </trkpt>
      <trkpt lat="47.41051" lon="-0.51877">
        <ele>27.6</ele>
        <time>2021-07-04T10:05:33Z</time>
      </trkpt>
      <trkpt lat="47.41054" lon="-0.51861">
        <ele>27.2</ele>
        <time>2021-07-04T10:06:07Z</time>
      </trkpt>
      <trkpt lat="47.41056" lon="-0.51857">
        <ele>27.2</ele>
        <time>2021-07-04T10:06:09Z</time>
      </trkpt>
      <trkpt lat="47.4106" lon="-0.51855">
        <ele>27</ele>
        <time>2021-07-04T10:06:11Z</time>
      </trkpt>
      <trkpt lat="47.41062" lon="-0.51853">
        <ele>26.6</ele>
        <time>2021-07-04T10:06:12Z</time>
      </trkpt>
      <trkpt lat="47.41064" lon="-0.51851">
        <ele>26.6</ele>
        <time>2021-07-04T10:06:13Z</time>
      </trkpt>
      <trkpt lat="47.41067" lon="-0.51848">
        <ele>27</ele>
        <time>2021-07-04T10:06:15Z</time>
      </trkpt>
      <trkpt lat="47.41069" lon="-0.51847">
        <ele>25.4</ele>
        <time>2021-07-04T10:06:16Z</time>
      </trkpt>
      <trkpt lat="47.41071" lon="-0.51846">
        <ele>26.8</ele>
        <time>2021-07-04T10:06:17Z</time>
      </trkpt>
      <trkpt lat="47.41079" lon="-0.51845">
        <ele>28.8</ele>
        <time>2021-07-04T10:06:19Z</time>
      </trkpt>
      <trkpt lat="47.41083" lon="-0.51844">
        <ele>27.8</ele>
        <time>2021-07-04T10:06:20Z</time>
      </trkpt>
      <trkpt lat="47.41086" lon="-0.51843">
        <ele>27.2</ele>
        <time>2021-07-04T10:06:21Z</time>
      </trkpt>
      <trkpt lat="47.41094" lon="-0.51842">
        <ele>26.8</ele>
        <time>2021-07-04T10:06:23Z</time>
      </trkpt>
      <trkpt lat="47.41097" lon="-0.51841">
        <ele>26.6</ele>
        <time>2021-07-04T10:06:24Z</time>
      </trkpt>
      <trkpt lat="47.41101" lon="-0.5184">
        <ele>26.8</ele>
        <time>2021-07-04T10:06:25Z</time>
      </trkpt>
      <trkpt lat="47.41108" lon="-0.51839">
        <ele>26.8</ele>
        <time>2021-07-04T10:06:27Z</time>
      </trkpt>
      <trkpt lat="47.41116" lon="-0.51837">
        <ele>26.8</ele>
        <time>2021-07-04T10:06:29Z</time>
      </trkpt>
      <trkpt lat="47.41126" lon="-0.51836">
        <ele>26.8</ele>
        <time>2021-07-04T10:06:31Z</time>
      </trkpt>
      <trkpt lat="47.41136" lon="-0.51836">
        <ele>26.6</ele>
        <time>2021-07-04T10:06:33Z</time>
      </trkpt>
      <trkpt lat="47.41141" lon="-0.51836">
        <ele>26.6</ele>
        <time>2021-07-04T10:06:34Z</time>
      </trkpt>
      <trkpt lat="47.41146" lon="-0.51835">
        <ele>26.6</ele>
        <time>2021-07-04T10:06:35Z</time>
      </trkpt>
      <trkpt lat="47.41152" lon="-0.51836">
        <ele>26.6</ele>
        <time>2021-07-04T10:06:36Z</time>
      </trkpt>
      <trkpt lat="47.41157" lon="-0.51835">
        <ele>26.6</ele>
        <time>2021-07-04T10:06:37Z</time>
      </trkpt>
      <trkpt lat="47.41163" lon="-0.51834">
        <ele>26.8</ele>
        <time>2021-07-04T10:06:38Z</time>
      </trkpt>
      <trkpt lat="47.41167" lon="-0.51834">
        <ele>26.8</ele>
        <time>2021-07-04T10:06:39Z</time>
      </trkpt>
      <trkpt lat="47.41175" lon="-0.51839">
        <ele>27.2</ele>
        <time>2021-07-04T10:06:41Z</time>
      </trkpt>
      <trkpt lat="47.41178" lon="-0.51847">
        <ele>27</ele>
        <time>2021-07-04T10:06:43Z</time>
      </trkpt>
      <trkpt lat="47.41179" lon="-0.51852">
        <ele>27</ele>
        <time>2021-07-04T10:06:44Z</time>
      </trkpt>
      <trkpt lat="47.4118" lon="-0.51856">
        <ele>26.8</ele>
        <time>2021-07-04T10:06:45Z</time>
      </trkpt>
      <trkpt lat="47.4118" lon="-0.51865">
        <ele>26.4</ele>
        <time>2021-07-04T10:06:47Z</time>
      </trkpt>
      <trkpt lat="47.41181" lon="-0.51874">
        <ele>26.4</ele>
        <time>2021-07-04T10:06:49Z</time>
      </trkpt>
      <trkpt lat="47.4118" lon="-0.51885">
        <ele>26.2</ele>
        <time>2021-07-04T10:06:51Z</time>
      </trkpt>
      <trkpt lat="47.41178" lon="-0.51898">
        <ele>25.8</ele>
        <time>2021-07-04T10:06:53Z</time>
      </trkpt>
      <trkpt lat="47.41177" lon="-0.51904">
        <ele>25.4</ele>
        <time>2021-07-04T10:06:54Z</time>
      </trkpt>
      <trkpt lat="47.41175" lon="-0.51912">
        <ele>25.4</ele>
        <time>2021-07-04T10:06:55Z</time>
      </trkpt>
      <trkpt lat="47.41173" lon="-0.51929">
        <ele>25.6</ele>
        <time>2021-07-04T10:06:57Z</time>
      </trkpt>
      <trkpt lat="47.4117" lon="-0.51943">
        <ele>26</ele>
        <time>2021-07-04T10:06:59Z</time>
      </trkpt>
      <trkpt lat="47.41167" lon="-0.51959">
        <ele>25.6</ele>
        <time>2021-07-04T10:07:01Z</time>
      </trkpt>
      <trkpt lat="47.41164" lon="-0.51973">
        <ele>25.6</ele>
        <time>2021-07-04T10:07:03Z</time>
      </trkpt>
      <trkpt lat="47.41161" lon="-0.51987">
        <ele>26</ele>
        <time>2021-07-04T10:07:05Z</time>
      </trkpt>
      <trkpt lat="47.41158" lon="-0.52002">
        <ele>26.6</ele>
        <time>2021-07-04T10:07:07Z</time>
      </trkpt>
      <trkpt lat="47.41155" lon="-0.52016">
        <ele>26.6</ele>
        <time>2021-07-04T10:07:09Z</time>
      </trkpt>
      <trkpt lat="47.41154" lon="-0.52029">
        <ele>26.2</ele>
        <time>2021-07-04T10:07:11Z</time>
      </trkpt>
      <trkpt lat="47.41152" lon="-0.52045">
        <ele>26.4</ele>
        <time>2021-07-04T10:07:13Z</time>
      </trkpt>
      <trkpt lat="47.41151" lon="-0.52059">
        <ele>26.4</ele>
        <time>2021-07-04T10:07:15Z</time>
      </trkpt>
      <trkpt lat="47.41149" lon="-0.52071">
        <ele>26</ele>
        <time>2021-07-04T10:07:17Z</time>
      </trkpt>
      <trkpt lat="47.4115" lon="-0.52082">
        <ele>26.2</ele>
        <time>2021-07-04T10:07:19Z</time>
      </trkpt>
      <trkpt lat="47.41151" lon="-0.52093">
        <ele>26.2</ele>
        <time>2021-07-04T10:07:21Z</time>
      </trkpt>
      <trkpt lat="47.41151" lon="-0.52098">
        <ele>26.2</ele>
        <time>2021-07-04T10:07:22Z</time>
      </trkpt>
      <trkpt lat="47.41152" lon="-0.52103">
        <ele>26.2</ele>
        <time>2021-07-04T10:07:23Z</time>
      </trkpt>
      <trkpt lat="47.41154" lon="-0.52109">
        <ele>26.2</ele>
        <time>2021-07-04T10:07:24Z</time>
      </trkpt>
      <trkpt lat="47.41154" lon="-0.52113">
        <ele>26.4</ele>
        <time>2021-07-04T10:07:25Z</time>
      </trkpt>
      <trkpt lat="47.41156" lon="-0.52117">
        <ele>26.6</ele>
        <time>2021-07-04T10:07:26Z</time>
      </trkpt>
      <trkpt lat="47.41158" lon="-0.5212">
        <ele>26.6</ele>
        <time>2021-07-04T10:07:27Z</time>
      </trkpt>
      <trkpt lat="47.41158" lon="-0.52127">
        <ele>26.6</ele>
        <time>2021-07-04T10:07:28Z</time>
      </trkpt>
      <trkpt lat="47.41158" lon="-0.52134">
        <ele>26.6</ele>
        <time>2021-07-04T10:07:29Z</time>
      </trkpt>
      <trkpt lat="47.41157" lon="-0.5214">
        <ele>26.8</ele>
        <time>2021-07-04T10:07:30Z</time>
      </trkpt>
      <trkpt lat="47.41157" lon="-0.52144">
        <ele>27</ele>
        <time>2021-07-04T10:07:31Z</time>
      </trkpt>
      <trkpt lat="47.41158" lon="-0.52151">
        <ele>27.4</ele>
        <time>2021-07-04T10:07:33Z</time>
      </trkpt>
      <trkpt lat="47.41158" lon="-0.52155">
        <ele>27.6</ele>
        <time>2021-07-04T10:07:34Z</time>
      </trkpt>
      <trkpt lat="47.41158" lon="-0.5216">
        <ele>27.8</ele>
        <time>2021-07-04T10:07:35Z</time>
      </trkpt>
      <trkpt lat="47.41157" lon="-0.52164">
        <ele>28</ele>
        <time>2021-07-04T10:07:36Z</time>
      </trkpt>
      <trkpt lat="47.41155" lon="-0.52168">
        <ele>27.8</ele>
        <time>2021-07-04T10:07:37Z</time>
      </trkpt>
      <trkpt lat="47.41153" lon="-0.52176">
        <ele>27.2</ele>
        <time>2021-07-04T10:07:39Z</time>
      </trkpt>
      <trkpt lat="47.41149" lon="-0.52187">
        <ele>26.8</ele>
        <time>2021-07-04T10:07:41Z</time>
      </trkpt>
      <trkpt lat="47.41144" lon="-0.52196">
        <ele>26.8</ele>
        <time>2021-07-04T10:07:43Z</time>
      </trkpt>
      <trkpt lat="47.41141" lon="-0.52202">
        <ele>27</ele>
        <time>2021-07-04T10:07:44Z</time>
      </trkpt>
      <trkpt lat="47.41136" lon="-0.52211">
        <ele>27</ele>
        <time>2021-07-04T10:07:45Z</time>
      </trkpt>
      <trkpt lat="47.41127" lon="-0.52229">
        <ele>27.4</ele>
        <time>2021-07-04T10:07:47Z</time>
      </trkpt>
      <trkpt lat="47.41123" lon="-0.52236">
        <ele>27.4</ele>
        <time>2021-07-04T10:07:48Z</time>
      </trkpt>
      <trkpt lat="47.4112" lon="-0.52242">
        <ele>27</ele>
        <time>2021-07-04T10:07:49Z</time>
      </trkpt>
      <trkpt lat="47.41117" lon="-0.52248">
        <ele>27</ele>
        <time>2021-07-04T10:07:50Z</time>
      </trkpt>
      <trkpt lat="47.41113" lon="-0.52255">
        <ele>26.8</ele>
        <time>2021-07-04T10:07:51Z</time>
      </trkpt>
      <trkpt lat="47.41109" lon="-0.52261">
        <ele>26.8</ele>
        <time>2021-07-04T10:07:52Z</time>
      </trkpt>
      <trkpt lat="47.41106" lon="-0.52268">
        <ele>27</ele>
        <time>2021-07-04T10:07:53Z</time>
      </trkpt>
      <trkpt lat="47.41101" lon="-0.52281">
        <ele>27</ele>
        <time>2021-07-04T10:07:55Z</time>
      </trkpt>
      <trkpt lat="47.41099" lon="-0.52285">
        <ele>27.2</ele>
        <time>2021-07-04T10:07:56Z</time>
      </trkpt>
      <trkpt lat="47.41097" lon="-0.5229">
        <ele>27.6</ele>
        <time>2021-07-04T10:07:57Z</time>
      </trkpt>
      <trkpt lat="47.41093" lon="-0.523">
        <ele>28</ele>
        <time>2021-07-04T10:07:59Z</time>
      </trkpt>
      <trkpt lat="47.41092" lon="-0.52303">
        <ele>28</ele>
        <time>2021-07-04T10:08:00Z</time>
      </trkpt>
      <trkpt lat="47.41091" lon="-0.52309">
        <ele>27.8</ele>
        <time>2021-07-04T10:08:01Z</time>
      </trkpt>
      <trkpt lat="47.41088" lon="-0.52321">
        <ele>27.6</ele>
        <time>2021-07-04T10:08:03Z</time>
      </trkpt>
      <trkpt lat="47.41084" lon="-0.52334">
        <ele>27.4</ele>
        <time>2021-07-04T10:08:05Z</time>
      </trkpt>
      <trkpt lat="47.41079" lon="-0.52347">
        <ele>26.8</ele>
        <time>2021-07-04T10:08:07Z</time>
      </trkpt>
      <trkpt lat="47.41076" lon="-0.52355">
        <ele>26.6</ele>
        <time>2021-07-04T10:08:08Z</time>
      </trkpt>
      <trkpt lat="47.41072" lon="-0.52362">
        <ele>26.6</ele>
        <time>2021-07-04T10:08:09Z</time>
      </trkpt>
      <trkpt lat="47.41068" lon="-0.52371">
        <ele>26.6</ele>
        <time>2021-07-04T10:08:10Z</time>
      </trkpt>
      <trkpt lat="47.41065" lon="-0.52377">
        <ele>26.4</ele>
        <time>2021-07-04T10:08:11Z</time>
      </trkpt>
      <trkpt lat="47.41054" lon="-0.52393">
        <ele>26.4</ele>
        <time>2021-07-04T10:08:13Z</time>
      </trkpt>
      <trkpt lat="47.41049" lon="-0.52406">
        <ele>26.6</ele>
        <time>2021-07-04T10:08:15Z</time>
      </trkpt>
      <trkpt lat="47.41047" lon="-0.52412">
        <ele>27</ele>
        <time>2021-07-04T10:08:16Z</time>
      </trkpt>
      <trkpt lat="47.41044" lon="-0.52417">
        <ele>27.6</ele>
        <time>2021-07-04T10:08:17Z</time>
      </trkpt>
      <trkpt lat="47.41043" lon="-0.52419">
        <ele>28</ele>
        <time>2021-07-04T10:08:18Z</time>
      </trkpt>
      <trkpt lat="47.41043" lon="-0.52418">
        <ele>28.2</ele>
        <time>2021-07-04T10:08:19Z</time>
      </trkpt>
      <trkpt lat="47.41044" lon="-0.52428">
        <ele>30</ele>
        <time>2021-07-04T10:08:30Z</time>
      </trkpt>
      <trkpt lat="47.4105" lon="-0.52426">
        <ele>29.8</ele>
        <time>2021-07-04T10:08:32Z</time>
      </trkpt>
      <trkpt lat="47.41057" lon="-0.52425">
        <ele>29.4</ele>
        <time>2021-07-04T10:08:34Z</time>
      </trkpt>
      <trkpt lat="47.41061" lon="-0.52424">
        <ele>29.2</ele>
        <time>2021-07-04T10:08:35Z</time>
      </trkpt>
      <trkpt lat="47.41066" lon="-0.52422">
        <ele>29</ele>
        <time>2021-07-04T10:08:36Z</time>
      </trkpt>
      <trkpt lat="47.41077" lon="-0.52418">
        <ele>28.8</ele>
        <time>2021-07-04T10:08:38Z</time>
      </trkpt>
      <trkpt lat="47.41088" lon="-0.52414">
        <ele>28.8</ele>
        <time>2021-07-04T10:08:40Z</time>
      </trkpt>
      <trkpt lat="47.41101" lon="-0.52409">
        <ele>29</ele>
        <time>2021-07-04T10:08:42Z</time>
      </trkpt>
      <trkpt lat="47.41115" lon="-0.52405">
        <ele>29</ele>
        <time>2021-07-04T10:08:44Z</time>
      </trkpt>
      <trkpt lat="47.41129" lon="-0.524">
        <ele>28.6</ele>
        <time>2021-07-04T10:08:46Z</time>
      </trkpt>
      <trkpt lat="47.41143" lon="-0.52396">
        <ele>28.6</ele>
        <time>2021-07-04T10:08:48Z</time>
      </trkpt>
      <trkpt lat="47.41151" lon="-0.52393">
        <ele>28.6</ele>
        <time>2021-07-04T10:08:49Z</time>
      </trkpt>
      <trkpt lat="47.41158" lon="-0.52391">
        <ele>28.8</ele>
        <time>2021-07-04T10:08:50Z</time>
      </trkpt>
      <trkpt lat="47.41173" lon="-0.52386">
        <ele>28.8</ele>
        <time>2021-07-04T10:08:52Z</time>
      </trkpt>
      <trkpt lat="47.41188" lon="-0.52381">
        <ele>28</ele>
        <time>2021-07-04T10:08:54Z</time>
      </trkpt>
      <trkpt lat="47.41203" lon="-0.52377">
        <ele>27.8</ele>
        <time>2021-07-04T10:08:56Z</time>
      </trkpt>
      <trkpt lat="47.41211" lon="-0.52375">
        <ele>27.8</ele>
        <time>2021-07-04T10:08:57Z</time>
      </trkpt>
      <trkpt lat="47.41218" lon="-0.52373">
        <ele>27.8</ele>
        <time>2021-07-04T10:08:58Z</time>
      </trkpt>
      <trkpt lat="47.41233" lon="-0.52369">
        <ele>27.4</ele>
        <time>2021-07-04T10:09:00Z</time>
      </trkpt>
      <trkpt lat="47.41249" lon="-0.52365">
        <ele>27.6</ele>
        <time>2021-07-04T10:09:02Z</time>
      </trkpt>
      <trkpt lat="47.41264" lon="-0.5236">
        <ele>28.2</ele>
        <time>2021-07-04T10:09:04Z</time>
      </trkpt>
      <trkpt lat="47.41279" lon="-0.52356">
        <ele>28</ele>
        <time>2021-07-04T10:09:06Z</time>
      </trkpt>
      <trkpt lat="47.41295" lon="-0.52351">
        <ele>28.2</ele>
        <time>2021-07-04T10:09:08Z</time>
      </trkpt>
      <trkpt lat="47.4131" lon="-0.52347">
        <ele>27.8</ele>
        <time>2021-07-04T10:09:10Z</time>
      </trkpt>
      <trkpt lat="47.41326" lon="-0.52342">
        <ele>28</ele>
        <time>2021-07-04T10:09:12Z</time>
      </trkpt>
      <trkpt lat="47.41333" lon="-0.52341">
        <ele>27.8</ele>
        <time>2021-07-04T10:09:13Z</time>
      </trkpt>
      <trkpt lat="47.4134" lon="-0.52339">
        <ele>27.8</ele>
        <time>2021-07-04T10:09:14Z</time>
      </trkpt>
      <trkpt lat="47.41356" lon="-0.52335">
        <ele>27.6</ele>
        <time>2021-07-04T10:09:16Z</time>
      </trkpt>
      <trkpt lat="47.41371" lon="-0.52331">
        <ele>27.4</ele>
        <time>2021-07-04T10:09:18Z</time>
      </trkpt>
      <trkpt lat="47.41387" lon="-0.52326">
        <ele>27.4</ele>
        <time>2021-07-04T10:09:20Z</time>
      </trkpt>
      <trkpt lat="47.41403" lon="-0.52323">
        <ele>27.2</ele>
        <time>2021-07-04T10:09:22Z</time>
      </trkpt>
      <trkpt lat="47.41411" lon="-0.52322">
        <ele>27</ele>
        <time>2021-07-04T10:09:23Z</time>
      </trkpt>
      <trkpt lat="47.41419" lon="-0.5232">
        <ele>27</ele>
        <time>2021-07-04T10:09:24Z</time>
      </trkpt>
      <trkpt lat="47.41434" lon="-0.52316">
        <ele>27.4</ele>
        <time>2021-07-04T10:09:26Z</time>
      </trkpt>
      <trkpt lat="47.41447" lon="-0.52312">
        <ele>28</ele>
        <time>2021-07-04T10:09:28Z</time>
      </trkpt>
      <trkpt lat="47.41453" lon="-0.52311">
        <ele>28.4</ele>
        <time>2021-07-04T10:09:29Z</time>
      </trkpt>
      <trkpt lat="47.41459" lon="-0.5231">
        <ele>29</ele>
        <time>2021-07-04T10:09:30Z</time>
      </trkpt>
      <trkpt lat="47.41463" lon="-0.52308">
        <ele>29.2</ele>
        <time>2021-07-04T10:09:31Z</time>
      </trkpt>
      <trkpt lat="47.41467" lon="-0.52306">
        <ele>29.6</ele>
        <time>2021-07-04T10:09:32Z</time>
      </trkpt>
      <trkpt lat="47.4147" lon="-0.52303">
        <ele>29.8</ele>
        <time>2021-07-04T10:09:34Z</time>
      </trkpt>
      <trkpt lat="47.41474" lon="-0.52303">
        <ele>30</ele>
        <time>2021-07-04T10:09:35Z</time>
      </trkpt>
      <trkpt lat="47.41477" lon="-0.52303">
        <ele>30</ele>
        <time>2021-07-04T10:09:36Z</time>
      </trkpt>
      <trkpt lat="47.41479" lon="-0.52304">
        <ele>29.8</ele>
        <time>2021-07-04T10:10:04Z</time>
      </trkpt>
      <trkpt lat="47.41482" lon="-0.52304">
        <ele>29.6</ele>
        <time>2021-07-04T10:10:05Z</time>
      </trkpt>
      <trkpt lat="47.41488" lon="-0.52305">
        <ele>29.4</ele>
        <time>2021-07-04T10:10:06Z</time>
      </trkpt>
      <trkpt lat="47.41499" lon="-0.52307">
        <ele>29</ele>
        <time>2021-07-04T10:10:08Z</time>
      </trkpt>
      <trkpt lat="47.41506" lon="-0.52307">
        <ele>28.8</ele>
        <time>2021-07-04T10:10:09Z</time>
      </trkpt>
      <trkpt lat="47.41512" lon="-0.52308">
        <ele>28.8</ele>
        <time>2021-07-04T10:10:10Z</time>
      </trkpt>
      <trkpt lat="47.41525" lon="-0.5231">
        <ele>29</ele>
        <time>2021-07-04T10:10:12Z</time>
      </trkpt>
      <trkpt lat="47.41538" lon="-0.52313">
        <ele>28.8</ele>
        <time>2021-07-04T10:10:14Z</time>
      </trkpt>
      <trkpt lat="47.41545" lon="-0.52314">
        <ele>29</ele>
        <time>2021-07-04T10:10:15Z</time>
      </trkpt>
      <trkpt lat="47.41552" lon="-0.52314">
        <ele>29</ele>
        <time>2021-07-04T10:10:16Z</time>
      </trkpt>
      <trkpt lat="47.41567" lon="-0.52315">
        <ele>29.2</ele>
        <time>2021-07-04T10:10:18Z</time>
      </trkpt>
      <trkpt lat="47.41581" lon="-0.52316">
        <ele>28.6</ele>
        <time>2021-07-04T10:10:20Z</time>
      </trkpt>
      <trkpt lat="47.41589" lon="-0.52317">
        <ele>28.4</ele>
        <time>2021-07-04T10:10:21Z</time>
      </trkpt>
      <trkpt lat="47.41596" lon="-0.52317">
        <ele>28.4</ele>
        <time>2021-07-04T10:10:22Z</time>
      </trkpt>
      <trkpt lat="47.41611" lon="-0.52318">
        <ele>28.4</ele>
        <time>2021-07-04T10:10:24Z</time>
      </trkpt>
      <trkpt lat="47.41626" lon="-0.52319">
        <ele>28.4</ele>
        <time>2021-07-04T10:10:26Z</time>
      </trkpt>
      <trkpt lat="47.41641" lon="-0.5232">
        <ele>28.6</ele>
        <time>2021-07-04T10:10:28Z</time>
      </trkpt>
      <trkpt lat="47.41648" lon="-0.52321">
        <ele>28.4</ele>
        <time>2021-07-04T10:10:29Z</time>
      </trkpt>
      <trkpt lat="47.41656" lon="-0.52321">
        <ele>28.4</ele>
        <time>2021-07-04T10:10:30Z</time>
      </trkpt>
      <trkpt lat="47.41671" lon="-0.52323">
        <ele>27.6</ele>
        <time>2021-07-04T10:10:32Z</time>
      </trkpt>
      <trkpt lat="47.41686" lon="-0.52324">
        <ele>27.8</ele>
        <time>2021-07-04T10:10:34Z</time>
      </trkpt>
      <trkpt lat="47.41701" lon="-0.52324">
        <ele>28.6</ele>
        <time>2021-07-04T10:10:36Z</time>
      </trkpt>
      <trkpt lat="47.41717" lon="-0.52326">
        <ele>28.6</ele>
        <time>2021-07-04T10:10:38Z</time>
      </trkpt>
      <trkpt lat="47.41732" lon="-0.52327">
        <ele>28.4</ele>
        <time>2021-07-04T10:10:40Z</time>
      </trkpt>
      <trkpt lat="47.41748" lon="-0.52328">
        <ele>28.6</ele>
        <time>2021-07-04T10:10:42Z</time>
      </trkpt>
      <trkpt lat="47.41763" lon="-0.52329">
        <ele>29</ele>
        <time>2021-07-04T10:10:44Z</time>
      </trkpt>
      <trkpt lat="47.41779" lon="-0.5233">
        <ele>29</ele>
        <time>2021-07-04T10:10:46Z</time>
      </trkpt>
      <trkpt lat="47.41794" lon="-0.5233">
        <ele>29.2</ele>
        <time>2021-07-04T10:10:48Z</time>
      </trkpt>
      <trkpt lat="47.41802" lon="-0.52331">
        <ele>29.4</ele>
        <time>2021-07-04T10:10:49Z</time>
      </trkpt>
      <trkpt lat="47.41809" lon="-0.52332">
        <ele>29.4</ele>
        <time>2021-07-04T10:10:50Z</time>
      </trkpt>
      <trkpt lat="47.41823" lon="-0.52332">
        <ele>29.8</ele>
        <time>2021-07-04T10:10:52Z</time>
      </trkpt>
      <trkpt lat="47.4183" lon="-0.5233">
        <ele>29.6</ele>
        <time>2021-07-04T10:10:53Z</time>
      </trkpt>
      <trkpt lat="47.41835" lon="-0.52326">
        <ele>29.8</ele>
        <time>2021-07-04T10:10:54Z</time>
      </trkpt>
      <trkpt lat="47.4184" lon="-0.5232">
        <ele>30</ele>
        <time>2021-07-04T10:10:55Z</time>
      </trkpt>
      <trkpt lat="47.41845" lon="-0.52316">
        <ele>30</ele>
        <time>2021-07-04T10:10:56Z</time>
      </trkpt>
      <trkpt lat="47.41856" lon="-0.52321">
        <ele>30.2</ele>
        <time>2021-07-04T10:10:58Z</time>
      </trkpt>
      <trkpt lat="47.41865" lon="-0.52334">
        <ele>30.2</ele>
        <time>2021-07-04T10:11:00Z</time>
      </trkpt>
      <trkpt lat="47.41871" lon="-0.52336">
        <ele>30.2</ele>
        <time>2021-07-04T10:11:01Z</time>
      </trkpt>
      <trkpt lat="47.41878" lon="-0.52337">
        <ele>30.4</ele>
        <time>2021-07-04T10:11:02Z</time>
      </trkpt>
      <trkpt lat="47.41892" lon="-0.52339">
        <ele>30</ele>
        <time>2021-07-04T10:11:04Z</time>
      </trkpt>
      <trkpt lat="47.41905" lon="-0.52341">
        <ele>30</ele>
        <time>2021-07-04T10:11:06Z</time>
      </trkpt>
      <trkpt lat="47.41919" lon="-0.52341">
        <ele>30.4</ele>
        <time>2021-07-04T10:11:08Z</time>
      </trkpt>
      <trkpt lat="47.41933" lon="-0.52342">
        <ele>30.6</ele>
        <time>2021-07-04T10:11:10Z</time>
      </trkpt>
      <trkpt lat="47.4194" lon="-0.52342">
        <ele>30.6</ele>
        <time>2021-07-04T10:11:11Z</time>
      </trkpt>
      <trkpt lat="47.41947" lon="-0.52342">
        <ele>30.8</ele>
        <time>2021-07-04T10:11:12Z</time>
      </trkpt>
      <trkpt lat="47.41961" lon="-0.52343">
        <ele>31</ele>
        <time>2021-07-04T10:11:14Z</time>
      </trkpt>
      <trkpt lat="47.41975" lon="-0.52344">
        <ele>31</ele>
        <time>2021-07-04T10:11:16Z</time>
      </trkpt>
      <trkpt lat="47.4199" lon="-0.52345">
        <ele>31.4</ele>
        <time>2021-07-04T10:11:18Z</time>
      </trkpt>
      <trkpt lat="47.41997" lon="-0.52346">
        <ele>31.4</ele>
        <time>2021-07-04T10:11:19Z</time>
      </trkpt>
      <trkpt lat="47.42004" lon="-0.52346">
        <ele>32</ele>
        <time>2021-07-04T10:11:20Z</time>
      </trkpt>
      <trkpt lat="47.42019" lon="-0.52347">
        <ele>32</ele>
        <time>2021-07-04T10:11:22Z</time>
      </trkpt>
      <trkpt lat="47.42034" lon="-0.52349">
        <ele>31.8</ele>
        <time>2021-07-04T10:11:24Z</time>
      </trkpt>
      <trkpt lat="47.42048" lon="-0.5235">
        <ele>32.4</ele>
        <time>2021-07-04T10:11:26Z</time>
      </trkpt>
      <trkpt lat="47.42063" lon="-0.52351">
        <ele>32.2</ele>
        <time>2021-07-04T10:11:28Z</time>
      </trkpt>
      <trkpt lat="47.42077" lon="-0.52352">
        <ele>32.4</ele>
        <time>2021-07-04T10:11:30Z</time>
      </trkpt>
      <trkpt lat="47.42092" lon="-0.52353">
        <ele>33.2</ele>
        <time>2021-07-04T10:11:32Z</time>
      </trkpt>
      <trkpt lat="47.42106" lon="-0.52354">
        <ele>33.4</ele>
        <time>2021-07-04T10:11:34Z</time>
      </trkpt>
      <trkpt lat="47.4212" lon="-0.52355">
        <ele>33.4</ele>
        <time>2021-07-04T10:11:36Z</time>
      </trkpt>
      <trkpt lat="47.42134" lon="-0.52357">
        <ele>33.4</ele>
        <time>2021-07-04T10:11:38Z</time>
      </trkpt>
      <trkpt lat="47.42149" lon="-0.52358">
        <ele>34</ele>
        <time>2021-07-04T10:11:40Z</time>
      </trkpt>
      <trkpt lat="47.42164" lon="-0.52359">
        <ele>33.6</ele>
        <time>2021-07-04T10:11:42Z</time>
      </trkpt>
      <trkpt lat="47.42179" lon="-0.52359">
        <ele>33.6</ele>
        <time>2021-07-04T10:11:44Z</time>
      </trkpt>
      <trkpt lat="47.42194" lon="-0.52361">
        <ele>33</ele>
        <time>2021-07-04T10:11:46Z</time>
      </trkpt>
      <trkpt lat="47.4221" lon="-0.52362">
        <ele>32.4</ele>
        <time>2021-07-04T10:11:48Z</time>
      </trkpt>
      <trkpt lat="47.42218" lon="-0.52363">
        <ele>32</ele>
        <time>2021-07-04T10:11:49Z</time>
      </trkpt>
      <trkpt lat="47.42225" lon="-0.52363">
        <ele>32</ele>
        <time>2021-07-04T10:11:50Z</time>
      </trkpt>
      <trkpt lat="47.42241" lon="-0.52365">
        <ele>32.2</ele>
        <time>2021-07-04T10:11:52Z</time>
      </trkpt>
      <trkpt lat="47.42257" lon="-0.52366">
        <ele>30.6</ele>
        <time>2021-07-04T10:11:54Z</time>
      </trkpt>
      <trkpt lat="47.42265" lon="-0.52366">
        <ele>29.4</ele>
        <time>2021-07-04T10:11:55Z</time>
      </trkpt>
      <trkpt lat="47.42272" lon="-0.52367">
        <ele>29</ele>
        <time>2021-07-04T10:11:56Z</time>
      </trkpt>
      <trkpt lat="47.42287" lon="-0.52372">
        <ele>30.2</ele>
        <time>2021-07-04T10:11:58Z</time>
      </trkpt>
      <trkpt lat="47.42295" lon="-0.52375">
        <ele>30.6</ele>
        <time>2021-07-04T10:11:59Z</time>
      </trkpt>
      <trkpt lat="47.42302" lon="-0.5238">
        <ele>30</ele>
        <time>2021-07-04T10:12:00Z</time>
      </trkpt>
      <trkpt lat="47.42308" lon="-0.52386">
        <ele>29.2</ele>
        <time>2021-07-04T10:12:01Z</time>
      </trkpt>
      <trkpt lat="47.42315" lon="-0.52391">
        <ele>28.2</ele>
        <time>2021-07-04T10:12:02Z</time>
      </trkpt>
      <trkpt lat="47.42329" lon="-0.524">
        <ele>29.2</ele>
        <time>2021-07-04T10:12:04Z</time>
      </trkpt>
      <trkpt lat="47.42343" lon="-0.5241">
        <ele>29.6</ele>
        <time>2021-07-04T10:12:06Z</time>
      </trkpt>
      <trkpt lat="47.42358" lon="-0.5242">
        <ele>29.8</ele>
        <time>2021-07-04T10:12:08Z</time>
      </trkpt>
      <trkpt lat="47.42372" lon="-0.52431">
        <ele>29.6</ele>
        <time>2021-07-04T10:12:10Z</time>
      </trkpt>
      <trkpt lat="47.42386" lon="-0.52442">
        <ele>28.2</ele>
        <time>2021-07-04T10:12:12Z</time>
      </trkpt>
      <trkpt lat="47.42401" lon="-0.52452">
        <ele>28.8</ele>
        <time>2021-07-04T10:12:14Z</time>
      </trkpt>
      <trkpt lat="47.42409" lon="-0.52458">
        <ele>28.4</ele>
        <time>2021-07-04T10:12:15Z</time>
      </trkpt>
      <trkpt lat="47.42416" lon="-0.52464">
        <ele>27.6</ele>
        <time>2021-07-04T10:12:16Z</time>
      </trkpt>
      <trkpt lat="47.4243" lon="-0.52474">
        <ele>26.6</ele>
        <time>2021-07-04T10:12:18Z</time>
      </trkpt>
      <trkpt lat="47.42444" lon="-0.52485">
        <ele>27.4</ele>
        <time>2021-07-04T10:12:20Z</time>
      </trkpt>
      <trkpt lat="47.42451" lon="-0.52491">
        <ele>27.8</ele>
        <time>2021-07-04T10:12:21Z</time>
      </trkpt>
      <trkpt lat="47.42458" lon="-0.52495">
        <ele>27.4</ele>
        <time>2021-07-04T10:12:22Z</time>
      </trkpt>
      <trkpt lat="47.42465" lon="-0.525">
        <ele>27.2</ele>
        <time>2021-07-04T10:12:23Z</time>
      </trkpt>
      <trkpt lat="47.42473" lon="-0.52504">
        <ele>26.6</ele>
        <time>2021-07-04T10:12:24Z</time>
      </trkpt>
      <trkpt lat="47.42481" lon="-0.52505">
        <ele>26.8</ele>
        <time>2021-07-04T10:12:25Z</time>
      </trkpt>
      <trkpt lat="47.42488" lon="-0.52509">
        <ele>27</ele>
        <time>2021-07-04T10:12:26Z</time>
      </trkpt>
      <trkpt lat="47.42495" lon="-0.52513">
        <ele>27.4</ele>
        <time>2021-07-04T10:12:27Z</time>
      </trkpt>
      <trkpt lat="47.42502" lon="-0.52519">
        <ele>27.8</ele>
        <time>2021-07-04T10:12:28Z</time>
      </trkpt>
      <trkpt lat="47.42509" lon="-0.52524">
        <ele>28</ele>
        <time>2021-07-04T10:12:29Z</time>
      </trkpt>
      <trkpt lat="47.42516" lon="-0.52529">
        <ele>28.4</ele>
        <time>2021-07-04T10:12:30Z</time>
      </trkpt>
      <trkpt lat="47.42529" lon="-0.52539">
        <ele>28.8</ele>
        <time>2021-07-04T10:12:32Z</time>
      </trkpt>
      <trkpt lat="47.42543" lon="-0.52549">
        <ele>29</ele>
        <time>2021-07-04T10:12:34Z</time>
      </trkpt>
      <trkpt lat="47.42557" lon="-0.52557">
        <ele>28.8</ele>
        <time>2021-07-04T10:12:36Z</time>
      </trkpt>
      <trkpt lat="47.42571" lon="-0.52568">
        <ele>29.4</ele>
        <time>2021-07-04T10:12:38Z</time>
      </trkpt>
      <trkpt lat="47.42577" lon="-0.52573">
        <ele>29.8</ele>
        <time>2021-07-04T10:12:39Z</time>
      </trkpt>
      <trkpt lat="47.42584" lon="-0.52577">
        <ele>29.8</ele>
        <time>2021-07-04T10:12:40Z</time>
      </trkpt>
      <trkpt lat="47.42597" lon="-0.52587">
        <ele>30</ele>
        <time>2021-07-04T10:12:42Z</time>
      </trkpt>
      <trkpt lat="47.4261" lon="-0.52596">
        <ele>30.4</ele>
        <time>2021-07-04T10:12:44Z</time>
      </trkpt>
      <trkpt lat="47.42616" lon="-0.52601">
        <ele>31</ele>
        <time>2021-07-04T10:12:45Z</time>
      </trkpt>
      <trkpt lat="47.42623" lon="-0.52607">
        <ele>31.6</ele>
        <time>2021-07-04T10:12:46Z</time>
      </trkpt>
      <trkpt lat="47.42635" lon="-0.52618">
        <ele>31.8</ele>
        <time>2021-07-04T10:12:48Z</time>
      </trkpt>
      <trkpt lat="47.42648" lon="-0.52628">
        <ele>31.8</ele>
        <time>2021-07-04T10:12:50Z</time>
      </trkpt>
      <trkpt lat="47.42661" lon="-0.52636">
        <ele>31.8</ele>
        <time>2021-07-04T10:12:52Z</time>
      </trkpt>
      <trkpt lat="47.42672" lon="-0.52645">
        <ele>31.6</ele>
        <time>2021-07-04T10:12:54Z</time>
      </trkpt>
      <trkpt lat="47.42678" lon="-0.5265">
        <ele>32</ele>
        <time>2021-07-04T10:12:55Z</time>
      </trkpt>
      <trkpt lat="47.42684" lon="-0.52654">
        <ele>32.2</ele>
        <time>2021-07-04T10:12:56Z</time>
      </trkpt>
      <trkpt lat="47.42696" lon="-0.52662">
        <ele>32.8</ele>
        <time>2021-07-04T10:12:58Z</time>
      </trkpt>
      <trkpt lat="47.42709" lon="-0.52671">
        <ele>32.6</ele>
        <time>2021-07-04T10:13:00Z</time>
      </trkpt>
      <trkpt lat="47.42722" lon="-0.5268">
        <ele>31.6</ele>
        <time>2021-07-04T10:13:02Z</time>
      </trkpt>
      <trkpt lat="47.42729" lon="-0.52685">
        <ele>31.4</ele>
        <time>2021-07-04T10:13:03Z</time>
      </trkpt>
      <trkpt lat="47.42735" lon="-0.5269">
        <ele>31.2</ele>
        <time>2021-07-04T10:13:04Z</time>
      </trkpt>
      <trkpt lat="47.42742" lon="-0.52695">
        <ele>30.8</ele>
        <time>2021-07-04T10:13:05Z</time>
      </trkpt>
      <trkpt lat="47.42749" lon="-0.527">
        <ele>29.8</ele>
        <time>2021-07-04T10:13:06Z</time>
      </trkpt>
      <trkpt lat="47.42755" lon="-0.52705">
        <ele>29.2</ele>
        <time>2021-07-04T10:13:07Z</time>
      </trkpt>
      <trkpt lat="47.42762" lon="-0.52709">
        <ele>28.8</ele>
        <time>2021-07-04T10:13:08Z</time>
      </trkpt>
      <trkpt lat="47.42776" lon="-0.52719">
        <ele>29.8</ele>
        <time>2021-07-04T10:13:10Z</time>
      </trkpt>
      <trkpt lat="47.42783" lon="-0.52723">
        <ele>30.4</ele>
        <time>2021-07-04T10:13:11Z</time>
      </trkpt>
      <trkpt lat="47.42791" lon="-0.52728">
        <ele>30.2</ele>
        <time>2021-07-04T10:13:12Z</time>
      </trkpt>
      <trkpt lat="47.42806" lon="-0.52738">
        <ele>28.6</ele>
        <time>2021-07-04T10:13:14Z</time>
      </trkpt>
      <trkpt lat="47.42823" lon="-0.52746">
        <ele>28</ele>
        <time>2021-07-04T10:13:16Z</time>
      </trkpt>
      <trkpt lat="47.42839" lon="-0.52754">
        <ele>27.2</ele>
        <time>2021-07-04T10:13:18Z</time>
      </trkpt>
      <trkpt lat="47.42855" lon="-0.52762">
        <ele>26.6</ele>
        <time>2021-07-04T10:13:20Z</time>
      </trkpt>
      <trkpt lat="47.42869" lon="-0.52768">
        <ele>26.4</ele>
        <time>2021-07-04T10:13:22Z</time>
      </trkpt>
      <trkpt lat="47.42874" lon="-0.52769">
        <ele>27</ele>
        <time>2021-07-04T10:13:23Z</time>
      </trkpt>
      <trkpt lat="47.42878" lon="-0.52769">
        <ele>28</ele>
        <time>2021-07-04T10:13:24Z</time>
      </trkpt>
      <trkpt lat="47.4288" lon="-0.5277">
        <ele>28.8</ele>
        <time>2021-07-04T10:13:25Z</time>
      </trkpt>
      <trkpt lat="47.42883" lon="-0.52771">
        <ele>29.2</ele>
        <time>2021-07-04T10:13:26Z</time>
      </trkpt>
      <trkpt lat="47.4289" lon="-0.52776">
        <ele>29.2</ele>
        <time>2021-07-04T10:13:28Z</time>
      </trkpt>
      <trkpt lat="47.42895" lon="-0.52778">
        <ele>29.2</ele>
        <time>2021-07-04T10:13:29Z</time>
      </trkpt>
      <trkpt lat="47.429" lon="-0.52781">
        <ele>29</ele>
        <time>2021-07-04T10:13:30Z</time>
      </trkpt>
      <trkpt lat="47.42912" lon="-0.52787">
        <ele>28.8</ele>
        <time>2021-07-04T10:13:32Z</time>
      </trkpt>
      <trkpt lat="47.42918" lon="-0.52789">
        <ele>28.6</ele>
        <time>2021-07-04T10:13:33Z</time>
      </trkpt>
      <trkpt lat="47.42924" lon="-0.52791">
        <ele>28.2</ele>
        <time>2021-07-04T10:13:34Z</time>
      </trkpt>
      <trkpt lat="47.42931" lon="-0.52792">
        <ele>28</ele>
        <time>2021-07-04T10:13:35Z</time>
      </trkpt>
      <trkpt lat="47.42939" lon="-0.52792">
        <ele>27.6</ele>
        <time>2021-07-04T10:13:36Z</time>
      </trkpt>
      <trkpt lat="47.42955" lon="-0.52792">
        <ele>27.2</ele>
        <time>2021-07-04T10:13:38Z</time>
      </trkpt>
      <trkpt lat="47.42963" lon="-0.52792">
        <ele>26.8</ele>
        <time>2021-07-04T10:13:39Z</time>
      </trkpt>
      <trkpt lat="47.42972" lon="-0.52791">
        <ele>27.2</ele>
        <time>2021-07-04T10:13:40Z</time>
      </trkpt>
      <trkpt lat="47.42988" lon="-0.52793">
        <ele>28.2</ele>
        <time>2021-07-04T10:13:42Z</time>
      </trkpt>
      <trkpt lat="47.43004" lon="-0.52799">
        <ele>27.6</ele>
        <time>2021-07-04T10:13:44Z</time>
      </trkpt>
      <trkpt lat="47.43011" lon="-0.52802">
        <ele>27.2</ele>
        <time>2021-07-04T10:13:45Z</time>
      </trkpt>
      <trkpt lat="47.43019" lon="-0.52804">
        <ele>27.2</ele>
        <time>2021-07-04T10:13:46Z</time>
      </trkpt>
      <trkpt lat="47.43032" lon="-0.52809">
        <ele>28.2</ele>
        <time>2021-07-04T10:13:48Z</time>
      </trkpt>
      <trkpt lat="47.43045" lon="-0.52812">
        <ele>28.8</ele>
        <time>2021-07-04T10:13:50Z</time>
      </trkpt>
      <trkpt lat="47.43052" lon="-0.52813">
        <ele>29</ele>
        <time>2021-07-04T10:13:51Z</time>
      </trkpt>
      <trkpt lat="47.43058" lon="-0.52815">
        <ele>28.8</ele>
        <time>2021-07-04T10:13:52Z</time>
      </trkpt>
      <trkpt lat="47.43068" lon="-0.52818">
        <ele>29.2</ele>
        <time>2021-07-04T10:13:54Z</time>
      </trkpt>
      <trkpt lat="47.43072" lon="-0.5282">
        <ele>30.2</ele>
        <time>2021-07-04T10:13:55Z</time>
      </trkpt>
      <trkpt lat="47.43076" lon="-0.52821">
        <ele>30.6</ele>
        <time>2021-07-04T10:13:56Z</time>
      </trkpt>
      <trkpt lat="47.43082" lon="-0.52823">
        <ele>30.8</ele>
        <time>2021-07-04T10:13:58Z</time>
      </trkpt>
      <trkpt lat="47.43085" lon="-0.52826">
        <ele>30.8</ele>
        <time>2021-07-04T10:14:00Z</time>
      </trkpt>
      <trkpt lat="47.43086" lon="-0.52831">
        <ele>30.6</ele>
        <time>2021-07-04T10:14:20Z</time>
      </trkpt>
      <trkpt lat="47.43086" lon="-0.52835">
        <ele>30.4</ele>
        <time>2021-07-04T10:14:21Z</time>
      </trkpt>
      <trkpt lat="47.43084" lon="-0.52839">
        <ele>30.2</ele>
        <time>2021-07-04T10:14:22Z</time>
      </trkpt>
      <trkpt lat="47.43083" lon="-0.52844">
        <ele>30.2</ele>
        <time>2021-07-04T10:14:23Z</time>
      </trkpt>
      <trkpt lat="47.4308" lon="-0.52855">
        <ele>30.2</ele>
        <time>2021-07-04T10:14:25Z</time>
      </trkpt>
      <trkpt lat="47.43078" lon="-0.52866">
        <ele>30</ele>
        <time>2021-07-04T10:14:27Z</time>
      </trkpt>
      <trkpt lat="47.43076" lon="-0.52877">
        <ele>30</ele>
        <time>2021-07-04T10:14:29Z</time>
      </trkpt>
      <trkpt lat="47.43076" lon="-0.52889">
        <ele>29.8</ele>
        <time>2021-07-04T10:14:31Z</time>
      </trkpt>
      <trkpt lat="47.43075" lon="-0.52895">
        <ele>29.6</ele>
        <time>2021-07-04T10:14:32Z</time>
      </trkpt>
      <trkpt lat="47.43075" lon="-0.52901">
        <ele>29.6</ele>
        <time>2021-07-04T10:14:33Z</time>
      </trkpt>
      <trkpt lat="47.43075" lon="-0.52915">
        <ele>29.6</ele>
        <time>2021-07-04T10:14:35Z</time>
      </trkpt>
      <trkpt lat="47.43074" lon="-0.52928">
        <ele>29.4</ele>
        <time>2021-07-04T10:14:37Z</time>
      </trkpt>
      <trkpt lat="47.43073" lon="-0.52935">
        <ele>29.2</ele>
        <time>2021-07-04T10:14:38Z</time>
      </trkpt>
      <trkpt lat="47.43072" lon="-0.52941">
        <ele>29.2</ele>
        <time>2021-07-04T10:14:39Z</time>
      </trkpt>
      <trkpt lat="47.43072" lon="-0.52953">
        <ele>29.4</ele>
        <time>2021-07-04T10:14:41Z</time>
      </trkpt>
      <trkpt lat="47.43071" lon="-0.52964">
        <ele>29.8</ele>
        <time>2021-07-04T10:14:43Z</time>
      </trkpt>
      <trkpt lat="47.4307" lon="-0.52974">
        <ele>29.4</ele>
        <time>2021-07-04T10:14:45Z</time>
      </trkpt>
      <trkpt lat="47.4307" lon="-0.52978">
        <ele>29.6</ele>
        <time>2021-07-04T10:14:46Z</time>
      </trkpt>
      <trkpt lat="47.43069" lon="-0.52984">
        <ele>29.6</ele>
        <time>2021-07-04T10:14:47Z</time>
      </trkpt>
      <trkpt lat="47.43069" lon="-0.52995">
        <ele>29.6</ele>
        <time>2021-07-04T10:14:49Z</time>
      </trkpt>
      <trkpt lat="47.43068" lon="-0.53012">
        <ele>29</ele>
        <time>2021-07-04T10:14:51Z</time>
      </trkpt>
      <trkpt lat="47.43069" lon="-0.53031">
        <ele>28.2</ele>
        <time>2021-07-04T10:14:53Z</time>
      </trkpt>
      <trkpt lat="47.43068" lon="-0.53041">
        <ele>27.6</ele>
        <time>2021-07-04T10:14:54Z</time>
      </trkpt>
      <trkpt lat="47.43067" lon="-0.5305">
        <ele>27.6</ele>
        <time>2021-07-04T10:14:55Z</time>
      </trkpt>
      <trkpt lat="47.43065" lon="-0.53059">
        <ele>27.6</ele>
        <time>2021-07-04T10:14:56Z</time>
      </trkpt>
      <trkpt lat="47.43062" lon="-0.53067">
        <ele>27.6</ele>
        <time>2021-07-04T10:14:57Z</time>
      </trkpt>
      <trkpt lat="47.43058" lon="-0.53085">
        <ele>27.6</ele>
        <time>2021-07-04T10:14:59Z</time>
      </trkpt>
      <trkpt lat="47.43053" lon="-0.53102">
        <ele>27.8</ele>
        <time>2021-07-04T10:15:01Z</time>
      </trkpt>
      <trkpt lat="47.43049" lon="-0.53119">
        <ele>27.6</ele>
        <time>2021-07-04T10:15:03Z</time>
      </trkpt>
      <trkpt lat="47.43044" lon="-0.53135">
        <ele>27</ele>
        <time>2021-07-04T10:15:05Z</time>
      </trkpt>
      <trkpt lat="47.43038" lon="-0.53152">
        <ele>27</ele>
        <time>2021-07-04T10:15:07Z</time>
      </trkpt>
      <trkpt lat="47.43034" lon="-0.53169">
        <ele>27.6</ele>
        <time>2021-07-04T10:15:09Z</time>
      </trkpt>
      <trkpt lat="47.43028" lon="-0.53189">
        <ele>27.4</ele>
        <time>2021-07-04T10:15:11Z</time>
      </trkpt>
      <trkpt lat="47.43026" lon="-0.53198">
        <ele>27.2</ele>
        <time>2021-07-04T10:15:12Z</time>
      </trkpt>
      <trkpt lat="47.43022" lon="-0.53208">
        <ele>27.2</ele>
        <time>2021-07-04T10:15:13Z</time>
      </trkpt>
      <trkpt lat="47.43016" lon="-0.53227">
        <ele>26.4</ele>
        <time>2021-07-04T10:15:15Z</time>
      </trkpt>
      <trkpt lat="47.4301" lon="-0.53247">
        <ele>26.6</ele>
        <time>2021-07-04T10:15:17Z</time>
      </trkpt>
      <trkpt lat="47.43005" lon="-0.53267">
        <ele>26.6</ele>
        <time>2021-07-04T10:15:19Z</time>
      </trkpt>
      <trkpt lat="47.43002" lon="-0.53276">
        <ele>26.6</ele>
        <time>2021-07-04T10:15:20Z</time>
      </trkpt>
      <trkpt lat="47.43" lon="-0.53286">
        <ele>26.8</ele>
        <time>2021-07-04T10:15:21Z</time>
      </trkpt>
      <trkpt lat="47.42994" lon="-0.53305">
        <ele>26.8</ele>
        <time>2021-07-04T10:15:23Z</time>
      </trkpt>
      <trkpt lat="47.42988" lon="-0.53324">
        <ele>26</ele>
        <time>2021-07-04T10:15:25Z</time>
      </trkpt>
      <trkpt lat="47.42982" lon="-0.53343">
        <ele>25.8</ele>
        <time>2021-07-04T10:15:27Z</time>
      </trkpt>
      <trkpt lat="47.4298" lon="-0.53353">
        <ele>26.2</ele>
        <time>2021-07-04T10:15:28Z</time>
      </trkpt>
      <trkpt lat="47.42977" lon="-0.53363">
        <ele>26.4</ele>
        <time>2021-07-04T10:15:29Z</time>
      </trkpt>
      <trkpt lat="47.42972" lon="-0.53382">
        <ele>26.6</ele>
        <time>2021-07-04T10:15:31Z</time>
      </trkpt>
      <trkpt lat="47.42967" lon="-0.53401">
        <ele>26</ele>
        <time>2021-07-04T10:15:33Z</time>
      </trkpt>
      <trkpt lat="47.42961" lon="-0.53421">
        <ele>26.2</ele>
        <time>2021-07-04T10:15:35Z</time>
      </trkpt>
      <trkpt lat="47.42956" lon="-0.5344">
        <ele>26.6</ele>
        <time>2021-07-04T10:15:37Z</time>
      </trkpt>
      <trkpt lat="47.4295" lon="-0.5346">
        <ele>26.6</ele>
        <time>2021-07-04T10:15:39Z</time>
      </trkpt>
      <trkpt lat="47.42944" lon="-0.5348">
        <ele>26</ele>
        <time>2021-07-04T10:15:41Z</time>
      </trkpt>
      <trkpt lat="47.42941" lon="-0.53489">
        <ele>26.2</ele>
        <time>2021-07-04T10:15:42Z</time>
      </trkpt>
      <trkpt lat="47.42938" lon="-0.53498">
        <ele>26.2</ele>
        <time>2021-07-04T10:15:43Z</time>
      </trkpt>
      <trkpt lat="47.42932" lon="-0.53516">
        <ele>27</ele>
        <time>2021-07-04T10:15:45Z</time>
      </trkpt>
      <trkpt lat="47.42926" lon="-0.53535">
        <ele>26.6</ele>
        <time>2021-07-04T10:15:47Z</time>
      </trkpt>
      <trkpt lat="47.42924" lon="-0.53544">
        <ele>26.2</ele>
        <time>2021-07-04T10:15:48Z</time>
      </trkpt>
      <trkpt lat="47.42922" lon="-0.53553">
        <ele>26.4</ele>
        <time>2021-07-04T10:15:49Z</time>
      </trkpt>
      <trkpt lat="47.42917" lon="-0.53571">
        <ele>26.8</ele>
        <time>2021-07-04T10:15:51Z</time>
      </trkpt>
      <trkpt lat="47.42911" lon="-0.5359">
        <ele>26.8</ele>
        <time>2021-07-04T10:15:53Z</time>
      </trkpt>
      <trkpt lat="47.42906" lon="-0.53608">
        <ele>27.2</ele>
        <time>2021-07-04T10:15:55Z</time>
      </trkpt>
      <trkpt lat="47.42904" lon="-0.53618">
        <ele>27.6</ele>
        <time>2021-07-04T10:15:56Z</time>
      </trkpt>
      <trkpt lat="47.42901" lon="-0.53628">
        <ele>27.4</ele>
        <time>2021-07-04T10:15:57Z</time>
      </trkpt>
      <trkpt lat="47.42895" lon="-0.53648">
        <ele>27</ele>
        <time>2021-07-04T10:15:59Z</time>
      </trkpt>
      <trkpt lat="47.42889" lon="-0.53667">
        <ele>26.8</ele>
        <time>2021-07-04T10:16:01Z</time>
      </trkpt>
      <trkpt lat="47.42886" lon="-0.53676">
        <ele>26.6</ele>
        <time>2021-07-04T10:16:02Z</time>
      </trkpt>
      <trkpt lat="47.42883" lon="-0.53684">
        <ele>26.6</ele>
        <time>2021-07-04T10:16:03Z</time>
      </trkpt>
      <trkpt lat="47.42879" lon="-0.53692">
        <ele>26.4</ele>
        <time>2021-07-04T10:16:04Z</time>
      </trkpt>
      <trkpt lat="47.42875" lon="-0.537">
        <ele>26.8</ele>
        <time>2021-07-04T10:16:05Z</time>
      </trkpt>
      <trkpt lat="47.42868" lon="-0.53717">
        <ele>27</ele>
        <time>2021-07-04T10:16:07Z</time>
      </trkpt>
      <trkpt lat="47.42862" lon="-0.53736">
        <ele>27.4</ele>
        <time>2021-07-04T10:16:09Z</time>
      </trkpt>
      <trkpt lat="47.42859" lon="-0.53745">
        <ele>27.2</ele>
        <time>2021-07-04T10:16:10Z</time>
      </trkpt>
      <trkpt lat="47.42856" lon="-0.53755">
        <ele>27.2</ele>
        <time>2021-07-04T10:16:11Z</time>
      </trkpt>
      <trkpt lat="47.42851" lon="-0.53773">
        <ele>26.6</ele>
        <time>2021-07-04T10:16:13Z</time>
      </trkpt>
      <trkpt lat="47.42846" lon="-0.53792">
        <ele>26</ele>
        <time>2021-07-04T10:16:15Z</time>
      </trkpt>
      <trkpt lat="47.42841" lon="-0.5381">
        <ele>25.8</ele>
        <time>2021-07-04T10:16:17Z</time>
      </trkpt>
      <trkpt lat="47.42835" lon="-0.5383">
        <ele>26.6</ele>
        <time>2021-07-04T10:16:19Z</time>
      </trkpt>
      <trkpt lat="47.42829" lon="-0.53849">
        <ele>26.2</ele>
        <time>2021-07-04T10:16:21Z</time>
      </trkpt>
      <trkpt lat="47.42824" lon="-0.53868">
        <ele>26.6</ele>
        <time>2021-07-04T10:16:23Z</time>
      </trkpt>
      <trkpt lat="47.42818" lon="-0.53887">
        <ele>26.6</ele>
        <time>2021-07-04T10:16:25Z</time>
      </trkpt>
      <trkpt lat="47.42813" lon="-0.53906">
        <ele>26.8</ele>
        <time>2021-07-04T10:16:27Z</time>
      </trkpt>
      <trkpt lat="47.42808" lon="-0.53925">
        <ele>26.6</ele>
        <time>2021-07-04T10:16:29Z</time>
      </trkpt>
      <trkpt lat="47.42802" lon="-0.53944">
        <ele>26.2</ele>
        <time>2021-07-04T10:16:31Z</time>
      </trkpt>
      <trkpt lat="47.428" lon="-0.53952">
        <ele>26.2</ele>
        <time>2021-07-04T10:16:32Z</time>
      </trkpt>
      <trkpt lat="47.42797" lon="-0.53962">
        <ele>26.4</ele>
        <time>2021-07-04T10:16:33Z</time>
      </trkpt>
      <trkpt lat="47.42792" lon="-0.5398">
        <ele>26.4</ele>
        <time>2021-07-04T10:16:35Z</time>
      </trkpt>
      <trkpt lat="47.42787" lon="-0.53998">
        <ele>26.4</ele>
        <time>2021-07-04T10:16:37Z</time>
      </trkpt>
      <trkpt lat="47.42782" lon="-0.54017">
        <ele>25.6</ele>
        <time>2021-07-04T10:16:39Z</time>
      </trkpt>
      <trkpt lat="47.42779" lon="-0.54027">
        <ele>25.2</ele>
        <time>2021-07-04T10:16:40Z</time>
      </trkpt>
      <trkpt lat="47.42776" lon="-0.54036">
        <ele>25.2</ele>
        <time>2021-07-04T10:16:41Z</time>
      </trkpt>
      <trkpt lat="47.42771" lon="-0.54056">
        <ele>25.4</ele>
        <time>2021-07-04T10:16:43Z</time>
      </trkpt>
      <trkpt lat="47.42766" lon="-0.54075">
        <ele>25.6</ele>
        <time>2021-07-04T10:16:45Z</time>
      </trkpt>
      <trkpt lat="47.4276" lon="-0.54094">
        <ele>25.6</ele>
        <time>2021-07-04T10:16:47Z</time>
      </trkpt>
      <trkpt lat="47.42755" lon="-0.54113">
        <ele>25.8</ele>
        <time>2021-07-04T10:16:49Z</time>
      </trkpt>
      <trkpt lat="47.42749" lon="-0.54132">
        <ele>26</ele>
        <time>2021-07-04T10:16:51Z</time>
      </trkpt>
      <trkpt lat="47.42744" lon="-0.54151">
        <ele>26.4</ele>
        <time>2021-07-04T10:16:53Z</time>
      </trkpt>
      <trkpt lat="47.42738" lon="-0.5417">
        <ele>26.2</ele>
        <time>2021-07-04T10:16:55Z</time>
      </trkpt>
      <trkpt lat="47.42733" lon="-0.54189">
        <ele>26</ele>
        <time>2021-07-04T10:16:57Z</time>
      </trkpt>
      <trkpt lat="47.42728" lon="-0.54208">
        <ele>25.6</ele>
        <time>2021-07-04T10:16:59Z</time>
      </trkpt>
      <trkpt lat="47.42722" lon="-0.54228">
        <ele>25.8</ele>
        <time>2021-07-04T10:17:01Z</time>
      </trkpt>
      <trkpt lat="47.42716" lon="-0.54248">
        <ele>26.2</ele>
        <time>2021-07-04T10:17:03Z</time>
      </trkpt>
      <trkpt lat="47.4271" lon="-0.54267">
        <ele>26.6</ele>
        <time>2021-07-04T10:17:05Z</time>
      </trkpt>
      <trkpt lat="47.42705" lon="-0.54287">
        <ele>26.6</ele>
        <time>2021-07-04T10:17:07Z</time>
      </trkpt>
      <trkpt lat="47.42699" lon="-0.54306">
        <ele>26.4</ele>
        <time>2021-07-04T10:17:09Z</time>
      </trkpt>
      <trkpt lat="47.42694" lon="-0.54325">
        <ele>26.2</ele>
        <time>2021-07-04T10:17:11Z</time>
      </trkpt>
      <trkpt lat="47.42688" lon="-0.54344">
        <ele>26.4</ele>
        <time>2021-07-04T10:17:13Z</time>
      </trkpt>
      <trkpt lat="47.42686" lon="-0.54354">
        <ele>26.6</ele>
        <time>2021-07-04T10:17:14Z</time>
      </trkpt>
      <trkpt lat="47.42683" lon="-0.54364">
        <ele>26.6</ele>
        <time>2021-07-04T10:17:15Z</time>
      </trkpt>
      <trkpt lat="47.42678" lon="-0.54383">
        <ele>26.8</ele>
        <time>2021-07-04T10:17:17Z</time>
      </trkpt>
      <trkpt lat="47.42672" lon="-0.54402">
        <ele>27.2</ele>
        <time>2021-07-04T10:17:19Z</time>
      </trkpt>
      <trkpt lat="47.42667" lon="-0.54421">
        <ele>27</ele>
        <time>2021-07-04T10:17:21Z</time>
      </trkpt>
      <trkpt lat="47.42661" lon="-0.5444">
        <ele>26.8</ele>
        <time>2021-07-04T10:17:23Z</time>
      </trkpt>
      <trkpt lat="47.42656" lon="-0.5446">
        <ele>26.6</ele>
        <time>2021-07-04T10:17:25Z</time>
      </trkpt>
      <trkpt lat="47.42651" lon="-0.54479">
        <ele>26.8</ele>
        <time>2021-07-04T10:17:27Z</time>
      </trkpt>
      <trkpt lat="47.42645" lon="-0.54498">
        <ele>27.2</ele>
        <time>2021-07-04T10:17:29Z</time>
      </trkpt>
      <trkpt lat="47.4264" lon="-0.54517">
        <ele>27</ele>
        <time>2021-07-04T10:17:31Z</time>
      </trkpt>
      <trkpt lat="47.42635" lon="-0.54535">
        <ele>27.2</ele>
        <time>2021-07-04T10:17:33Z</time>
      </trkpt>
      <trkpt lat="47.42629" lon="-0.54555">
        <ele>27</ele>
        <time>2021-07-04T10:17:35Z</time>
      </trkpt>
      <trkpt lat="47.42624" lon="-0.54574">
        <ele>26.8</ele>
        <time>2021-07-04T10:17:37Z</time>
      </trkpt>
      <trkpt lat="47.42618" lon="-0.54593">
        <ele>26.6</ele>
        <time>2021-07-04T10:17:39Z</time>
      </trkpt>
      <trkpt lat="47.42615" lon="-0.54603">
        <ele>26.6</ele>
        <time>2021-07-04T10:17:40Z</time>
      </trkpt>
      <trkpt lat="47.42612" lon="-0.54613">
        <ele>26.4</ele>
        <time>2021-07-04T10:17:41Z</time>
      </trkpt>
      <trkpt lat="47.42607" lon="-0.54632">
        <ele>26.8</ele>
        <time>2021-07-04T10:17:43Z</time>
      </trkpt>
      <trkpt lat="47.42602" lon="-0.54651">
        <ele>26.8</ele>
        <time>2021-07-04T10:17:45Z</time>
      </trkpt>
      <trkpt lat="47.42596" lon="-0.5467">
        <ele>26.6</ele>
        <time>2021-07-04T10:17:47Z</time>
      </trkpt>
      <trkpt lat="47.42591" lon="-0.54688">
        <ele>26.6</ele>
        <time>2021-07-04T10:17:49Z</time>
      </trkpt>
      <trkpt lat="47.42585" lon="-0.54707">
        <ele>26.4</ele>
        <time>2021-07-04T10:17:51Z</time>
      </trkpt>
      <trkpt lat="47.4258" lon="-0.54725">
        <ele>26</ele>
        <time>2021-07-04T10:17:53Z</time>
      </trkpt>
      <trkpt lat="47.42575" lon="-0.54743">
        <ele>25.8</ele>
        <time>2021-07-04T10:17:55Z</time>
      </trkpt>
      <trkpt lat="47.42573" lon="-0.54752">
        <ele>25.8</ele>
        <time>2021-07-04T10:17:56Z</time>
      </trkpt>
      <trkpt lat="47.4257" lon="-0.54761">
        <ele>25.8</ele>
        <time>2021-07-04T10:17:57Z</time>
      </trkpt>
      <trkpt lat="47.42564" lon="-0.54779">
        <ele>25.8</ele>
        <time>2021-07-04T10:17:59Z</time>
      </trkpt>
      <trkpt lat="47.42559" lon="-0.54797">
        <ele>26.2</ele>
        <time>2021-07-04T10:18:01Z</time>
      </trkpt>
      <trkpt lat="47.42553" lon="-0.54815">
        <ele>26.6</ele>
        <time>2021-07-04T10:18:03Z</time>
      </trkpt>
      <trkpt lat="47.42547" lon="-0.54834">
        <ele>26.2</ele>
        <time>2021-07-04T10:18:05Z</time>
      </trkpt>
      <trkpt lat="47.42545" lon="-0.54844">
        <ele>26.6</ele>
        <time>2021-07-04T10:18:06Z</time>
      </trkpt>
      <trkpt lat="47.42541" lon="-0.54853">
        <ele>26.6</ele>
        <time>2021-07-04T10:18:07Z</time>
      </trkpt>
      <trkpt lat="47.42534" lon="-0.5487">
        <ele>26.4</ele>
        <time>2021-07-04T10:18:09Z</time>
      </trkpt>
      <trkpt lat="47.42525" lon="-0.54887">
        <ele>26.6</ele>
        <time>2021-07-04T10:18:11Z</time>
      </trkpt>
      <trkpt lat="47.42519" lon="-0.54894">
        <ele>26.8</ele>
        <time>2021-07-04T10:18:12Z</time>
      </trkpt>
      <trkpt lat="47.42513" lon="-0.54901">
        <ele>26.4</ele>
        <time>2021-07-04T10:18:13Z</time>
      </trkpt>
      <trkpt lat="47.42502" lon="-0.54914">
        <ele>25.8</ele>
        <time>2021-07-04T10:18:15Z</time>
      </trkpt>
      <trkpt lat="47.42496" lon="-0.54919">
        <ele>25.8</ele>
        <time>2021-07-04T10:18:16Z</time>
      </trkpt>
      <trkpt lat="47.4249" lon="-0.54925">
        <ele>25.6</ele>
        <time>2021-07-04T10:18:17Z</time>
      </trkpt>
      <trkpt lat="47.42478" lon="-0.54936">
        <ele>25.4</ele>
        <time>2021-07-04T10:18:19Z</time>
      </trkpt>
      <trkpt lat="47.42468" lon="-0.54947">
        <ele>25.8</ele>
        <time>2021-07-04T10:18:21Z</time>
      </trkpt>
      <trkpt lat="47.42456" lon="-0.54958">
        <ele>26.2</ele>
        <time>2021-07-04T10:18:23Z</time>
      </trkpt>
      <trkpt lat="47.42446" lon="-0.5497">
        <ele>26.2</ele>
        <time>2021-07-04T10:18:25Z</time>
      </trkpt>
      <trkpt lat="47.42435" lon="-0.54982">
        <ele>26.2</ele>
        <time>2021-07-04T10:18:27Z</time>
      </trkpt>
      <trkpt lat="47.42425" lon="-0.54993">
        <ele>27</ele>
        <time>2021-07-04T10:18:29Z</time>
      </trkpt>
      <trkpt lat="47.42421" lon="-0.54998">
        <ele>27.2</ele>
        <time>2021-07-04T10:18:30Z</time>
      </trkpt>
      <trkpt lat="47.42416" lon="-0.55002">
        <ele>27.2</ele>
        <time>2021-07-04T10:18:31Z</time>
      </trkpt>
      <trkpt lat="47.42406" lon="-0.55012">
        <ele>27.2</ele>
        <time>2021-07-04T10:18:33Z</time>
      </trkpt>
      <trkpt lat="47.42398" lon="-0.5502">
        <ele>27.6</ele>
        <time>2021-07-04T10:18:35Z</time>
      </trkpt>
      <trkpt lat="47.42395" lon="-0.55025">
        <ele>28</ele>
        <time>2021-07-04T10:18:36Z</time>
      </trkpt>
      <trkpt lat="47.42393" lon="-0.55032">
        <ele>28.4</ele>
        <time>2021-07-04T10:18:37Z</time>
      </trkpt>
      <trkpt lat="47.42386" lon="-0.55041">
        <ele>28.6</ele>
        <time>2021-07-04T10:18:39Z</time>
      </trkpt>
      <trkpt lat="47.42381" lon="-0.55046">
        <ele>28.4</ele>
        <time>2021-07-04T10:18:40Z</time>
      </trkpt>
      <trkpt lat="47.42377" lon="-0.55049">
        <ele>28.2</ele>
        <time>2021-07-04T10:18:41Z</time>
      </trkpt>
      <trkpt lat="47.42368" lon="-0.55058">
        <ele>28.2</ele>
        <time>2021-07-04T10:18:43Z</time>
      </trkpt>
      <trkpt lat="47.42359" lon="-0.55066">
        <ele>28</ele>
        <time>2021-07-04T10:18:45Z</time>
      </trkpt>
      <trkpt lat="47.42353" lon="-0.55073">
        <ele>28</ele>
        <time>2021-07-04T10:18:47Z</time>
      </trkpt>
      <trkpt lat="47.4235" lon="-0.55081">
        <ele>28.2</ele>
        <time>2021-07-04T10:18:49Z</time>
      </trkpt>
      <trkpt lat="47.42348" lon="-0.55092">
        <ele>28.2</ele>
        <time>2021-07-04T10:18:51Z</time>
      </trkpt>
      <trkpt lat="47.42349" lon="-0.55104">
        <ele>28</ele>
        <time>2021-07-04T10:18:53Z</time>
      </trkpt>
      <trkpt lat="47.42351" lon="-0.55119">
        <ele>28.2</ele>
        <time>2021-07-04T10:18:55Z</time>
      </trkpt>
      <trkpt lat="47.42353" lon="-0.55132">
        <ele>27.8</ele>
        <time>2021-07-04T10:18:57Z</time>
      </trkpt>
      <trkpt lat="47.42356" lon="-0.55147">
        <ele>27</ele>
        <time>2021-07-04T10:18:59Z</time>
      </trkpt>
      <trkpt lat="47.42357" lon="-0.55155">
        <ele>26.8</ele>
        <time>2021-07-04T10:19:00Z</time>
      </trkpt>
      <trkpt lat="47.42358" lon="-0.55164">
        <ele>27</ele>
        <time>2021-07-04T10:19:01Z</time>
      </trkpt>
      <trkpt lat="47.42359" lon="-0.55182">
        <ele>28</ele>
        <time>2021-07-04T10:19:03Z</time>
      </trkpt>
      <trkpt lat="47.42361" lon="-0.552">
        <ele>28</ele>
        <time>2021-07-04T10:19:05Z</time>
      </trkpt>
      <trkpt lat="47.42362" lon="-0.55218">
        <ele>28</ele>
        <time>2021-07-04T10:19:07Z</time>
      </trkpt>
      <trkpt lat="47.42363" lon="-0.55236">
        <ele>27.8</ele>
        <time>2021-07-04T10:19:09Z</time>
      </trkpt>
      <trkpt lat="47.42364" lon="-0.55254">
        <ele>27.6</ele>
        <time>2021-07-04T10:19:11Z</time>
      </trkpt>
      <trkpt lat="47.42364" lon="-0.55271">
        <ele>27.4</ele>
        <time>2021-07-04T10:19:13Z</time>
      </trkpt>
      <trkpt lat="47.42365" lon="-0.55287">
        <ele>27.6</ele>
        <time>2021-07-04T10:19:15Z</time>
      </trkpt>
      <trkpt lat="47.42366" lon="-0.55302">
        <ele>28.2</ele>
        <time>2021-07-04T10:19:17Z</time>
      </trkpt>
      <trkpt lat="47.42367" lon="-0.5531">
        <ele>29.2</ele>
        <time>2021-07-04T10:19:18Z</time>
      </trkpt>
      <trkpt lat="47.42367" lon="-0.55318">
        <ele>29.4</ele>
        <time>2021-07-04T10:19:19Z</time>
      </trkpt>
      <trkpt lat="47.42368" lon="-0.55332">
        <ele>29</ele>
        <time>2021-07-04T10:19:21Z</time>
      </trkpt>
      <trkpt lat="47.42368" lon="-0.55347">
        <ele>29.4</ele>
        <time>2021-07-04T10:19:23Z</time>
      </trkpt>
      <trkpt lat="47.42368" lon="-0.55355">
        <ele>30</ele>
        <time>2021-07-04T10:19:24Z</time>
      </trkpt>
      <trkpt lat="47.42368" lon="-0.55362">
        <ele>30.8</ele>
        <time>2021-07-04T10:19:25Z</time>
      </trkpt>
      <trkpt lat="47.4237" lon="-0.55376">
        <ele>32</ele>
        <time>2021-07-04T10:19:27Z</time>
      </trkpt>
      <trkpt lat="47.4237" lon="-0.55388">
        <ele>32.8</ele>
        <time>2021-07-04T10:19:29Z</time>
      </trkpt>
      <trkpt lat="47.42368" lon="-0.55394">
        <ele>32.8</ele>
        <time>2021-07-04T10:19:30Z</time>
      </trkpt>
      <trkpt lat="47.42365" lon="-0.554">
        <ele>32.8</ele>
        <time>2021-07-04T10:19:31Z</time>
      </trkpt>
      <trkpt lat="47.42358" lon="-0.55411">
        <ele>32.6</ele>
        <time>2021-07-04T10:19:33Z</time>
      </trkpt>
      <trkpt lat="47.42356" lon="-0.55419">
        <ele>32.4</ele>
        <time>2021-07-04T10:19:34Z</time>
      </trkpt>
      <trkpt lat="47.42355" lon="-0.55426">
        <ele>32.6</ele>
        <time>2021-07-04T10:19:35Z</time>
      </trkpt>
      <trkpt lat="47.42352" lon="-0.55441">
        <ele>33</ele>
        <time>2021-07-04T10:19:37Z</time>
      </trkpt>
      <trkpt lat="47.42349" lon="-0.55457">
        <ele>33</ele>
        <time>2021-07-04T10:19:39Z</time>
      </trkpt>
      <trkpt lat="47.42346" lon="-0.55472">
        <ele>32.8</ele>
        <time>2021-07-04T10:19:41Z</time>
      </trkpt>
      <trkpt lat="47.42344" lon="-0.5548">
        <ele>32.6</ele>
        <time>2021-07-04T10:19:42Z</time>
      </trkpt>
      <trkpt lat="47.42341" lon="-0.55487">
        <ele>32.6</ele>
        <time>2021-07-04T10:19:43Z</time>
      </trkpt>
      <trkpt lat="47.42336" lon="-0.55503">
        <ele>32</ele>
        <time>2021-07-04T10:19:45Z</time>
      </trkpt>
      <trkpt lat="47.42329" lon="-0.55518">
        <ele>32</ele>
        <time>2021-07-04T10:19:47Z</time>
      </trkpt>
      <trkpt lat="47.42323" lon="-0.55532">
        <ele>32</ele>
        <time>2021-07-04T10:19:49Z</time>
      </trkpt>
      <trkpt lat="47.42319" lon="-0.5554">
        <ele>32.2</ele>
        <time>2021-07-04T10:19:50Z</time>
      </trkpt>
      <trkpt lat="47.42316" lon="-0.55548">
        <ele>32</ele>
        <time>2021-07-04T10:19:51Z</time>
      </trkpt>
      <trkpt lat="47.42308" lon="-0.55563">
        <ele>31.2</ele>
        <time>2021-07-04T10:19:53Z</time>
      </trkpt>
      <trkpt lat="47.42301" lon="-0.55579">
        <ele>31.4</ele>
        <time>2021-07-04T10:19:55Z</time>
      </trkpt>
      <trkpt lat="47.42293" lon="-0.55594">
        <ele>31.6</ele>
        <time>2021-07-04T10:19:57Z</time>
      </trkpt>
      <trkpt lat="47.42287" lon="-0.5561">
        <ele>31.2</ele>
        <time>2021-07-04T10:19:59Z</time>
      </trkpt>
      <trkpt lat="47.42284" lon="-0.55619">
        <ele>31.2</ele>
        <time>2021-07-04T10:20:00Z</time>
      </trkpt>
      <trkpt lat="47.42283" lon="-0.55628">
        <ele>30.8</ele>
        <time>2021-07-04T10:20:01Z</time>
      </trkpt>
      <trkpt lat="47.42283" lon="-0.55637">
        <ele>30.8</ele>
        <time>2021-07-04T10:20:02Z</time>
      </trkpt>
      <trkpt lat="47.42284" lon="-0.55646">
        <ele>31.2</ele>
        <time>2021-07-04T10:20:03Z</time>
      </trkpt>
      <trkpt lat="47.42285" lon="-0.55654">
        <ele>32</ele>
        <time>2021-07-04T10:20:04Z</time>
      </trkpt>
      <trkpt lat="47.42287" lon="-0.55663">
        <ele>32.6</ele>
        <time>2021-07-04T10:20:05Z</time>
      </trkpt>
      <trkpt lat="47.42288" lon="-0.55671">
        <ele>33.2</ele>
        <time>2021-07-04T10:20:06Z</time>
      </trkpt>
      <trkpt lat="47.42289" lon="-0.55679">
        <ele>33.6</ele>
        <time>2021-07-04T10:20:07Z</time>
      </trkpt>
      <trkpt lat="47.42291" lon="-0.55694">
        <ele>34</ele>
        <time>2021-07-04T10:20:09Z</time>
      </trkpt>
      <trkpt lat="47.42293" lon="-0.55711">
        <ele>34.6</ele>
        <time>2021-07-04T10:20:11Z</time>
      </trkpt>
      <trkpt lat="47.42296" lon="-0.55727">
        <ele>35.6</ele>
        <time>2021-07-04T10:20:13Z</time>
      </trkpt>
      <trkpt lat="47.42298" lon="-0.55742">
        <ele>36.2</ele>
        <time>2021-07-04T10:20:15Z</time>
      </trkpt>
      <trkpt lat="47.42301" lon="-0.55758">
        <ele>36</ele>
        <time>2021-07-04T10:20:17Z</time>
      </trkpt>
      <trkpt lat="47.42304" lon="-0.55774">
        <ele>35.8</ele>
        <time>2021-07-04T10:20:19Z</time>
      </trkpt>
      <trkpt lat="47.42306" lon="-0.55789">
        <ele>37</ele>
        <time>2021-07-04T10:20:21Z</time>
      </trkpt>
      <trkpt lat="47.42309" lon="-0.55805">
        <ele>37.2</ele>
        <time>2021-07-04T10:20:23Z</time>
      </trkpt>
      <trkpt lat="47.42311" lon="-0.55821">
        <ele>37.4</ele>
        <time>2021-07-04T10:20:25Z</time>
      </trkpt>
      <trkpt lat="47.42314" lon="-0.55837">
        <ele>38</ele>
        <time>2021-07-04T10:20:27Z</time>
      </trkpt>
      <trkpt lat="47.42315" lon="-0.55844">
        <ele>38.2</ele>
        <time>2021-07-04T10:20:28Z</time>
      </trkpt>
      <trkpt lat="47.42316" lon="-0.55852">
        <ele>38.4</ele>
        <time>2021-07-04T10:20:29Z</time>
      </trkpt>
      <trkpt lat="47.42318" lon="-0.55866">
        <ele>39.4</ele>
        <time>2021-07-04T10:20:31Z</time>
      </trkpt>
      <trkpt lat="47.4232" lon="-0.5588">
        <ele>39.6</ele>
        <time>2021-07-04T10:20:33Z</time>
      </trkpt>
      <trkpt lat="47.42322" lon="-0.55895">
        <ele>39.8</ele>
        <time>2021-07-04T10:20:35Z</time>
      </trkpt>
      <trkpt lat="47.42322" lon="-0.55911">
        <ele>40.2</ele>
        <time>2021-07-04T10:20:37Z</time>
      </trkpt>
      <trkpt lat="47.42323" lon="-0.55926">
        <ele>40.2</ele>
        <time>2021-07-04T10:20:39Z</time>
      </trkpt>
      <trkpt lat="47.42324" lon="-0.55943">
        <ele>40.2</ele>
        <time>2021-07-04T10:20:41Z</time>
      </trkpt>
      <trkpt lat="47.42324" lon="-0.5596">
        <ele>40</ele>
        <time>2021-07-04T10:20:43Z</time>
      </trkpt>
      <trkpt lat="47.42323" lon="-0.55978">
        <ele>39.4</ele>
        <time>2021-07-04T10:20:45Z</time>
      </trkpt>
      <trkpt lat="47.42321" lon="-0.55995">
        <ele>38.8</ele>
        <time>2021-07-04T10:20:47Z</time>
      </trkpt>
      <trkpt lat="47.42317" lon="-0.56012">
        <ele>38.6</ele>
        <time>2021-07-04T10:20:49Z</time>
      </trkpt>
      <trkpt lat="47.42314" lon="-0.5602">
        <ele>38.4</ele>
        <time>2021-07-04T10:20:50Z</time>
      </trkpt>
      <trkpt lat="47.42312" lon="-0.56027">
        <ele>38.2</ele>
        <time>2021-07-04T10:20:51Z</time>
      </trkpt>
      <trkpt lat="47.4231" lon="-0.56035">
        <ele>38</ele>
        <time>2021-07-04T10:20:52Z</time>
      </trkpt>
      <trkpt lat="47.42308" lon="-0.56043">
        <ele>38.2</ele>
        <time>2021-07-04T10:20:53Z</time>
      </trkpt>
      <trkpt lat="47.42303" lon="-0.56058">
        <ele>39.2</ele>
        <time>2021-07-04T10:20:55Z</time>
      </trkpt>
      <trkpt lat="47.42297" lon="-0.56074">
        <ele>39</ele>
        <time>2021-07-04T10:20:57Z</time>
      </trkpt>
      <trkpt lat="47.42292" lon="-0.56089">
        <ele>38.4</ele>
        <time>2021-07-04T10:20:59Z</time>
      </trkpt>
      <trkpt lat="47.42289" lon="-0.56097">
        <ele>38.4</ele>
        <time>2021-07-04T10:21:00Z</time>
      </trkpt>
      <trkpt lat="47.42287" lon="-0.56104">
        <ele>38.8</ele>
        <time>2021-07-04T10:21:01Z</time>
      </trkpt>
      <trkpt lat="47.42283" lon="-0.56119">
        <ele>39.6</ele>
        <time>2021-07-04T10:21:03Z</time>
      </trkpt>
      <trkpt lat="47.42284" lon="-0.56135">
        <ele>40.8</ele>
        <time>2021-07-04T10:21:05Z</time>
      </trkpt>
      <trkpt lat="47.42291" lon="-0.56144">
        <ele>41.4</ele>
        <time>2021-07-04T10:21:07Z</time>
      </trkpt>
      <trkpt lat="47.42296" lon="-0.56148">
        <ele>41.2</ele>
        <time>2021-07-04T10:21:08Z</time>
      </trkpt>
      <trkpt lat="47.42301" lon="-0.56152">
        <ele>41</ele>
        <time>2021-07-04T10:21:09Z</time>
      </trkpt>
      <trkpt lat="47.42311" lon="-0.5616">
        <ele>41.4</ele>
        <time>2021-07-04T10:21:11Z</time>
      </trkpt>
      <trkpt lat="47.42316" lon="-0.56164">
        <ele>41.8</ele>
        <time>2021-07-04T10:21:12Z</time>
      </trkpt>
      <trkpt lat="47.4232" lon="-0.56168">
        <ele>42</ele>
        <time>2021-07-04T10:21:13Z</time>
      </trkpt>
      <trkpt lat="47.42329" lon="-0.56178">
        <ele>42</ele>
        <time>2021-07-04T10:21:15Z</time>
      </trkpt>
      <trkpt lat="47.42334" lon="-0.56184">
        <ele>41.8</ele>
        <time>2021-07-04T10:21:16Z</time>
      </trkpt>
      <trkpt lat="47.42338" lon="-0.56189">
        <ele>41.6</ele>
        <time>2021-07-04T10:21:17Z</time>
      </trkpt>
      <trkpt lat="47.42347" lon="-0.56201">
        <ele>41.2</ele>
        <time>2021-07-04T10:21:19Z</time>
      </trkpt>
      <trkpt lat="47.42355" lon="-0.56214">
        <ele>41</ele>
        <time>2021-07-04T10:21:21Z</time>
      </trkpt>
      <trkpt lat="47.4236" lon="-0.56221">
        <ele>40.6</ele>
        <time>2021-07-04T10:21:22Z</time>
      </trkpt>
      <trkpt lat="47.42365" lon="-0.56228">
        <ele>40.6</ele>
        <time>2021-07-04T10:21:23Z</time>
      </trkpt>
      <trkpt lat="47.42374" lon="-0.56242">
        <ele>41</ele>
        <time>2021-07-04T10:21:25Z</time>
      </trkpt>
      <trkpt lat="47.42384" lon="-0.56256">
        <ele>40.8</ele>
        <time>2021-07-04T10:21:27Z</time>
      </trkpt>
      <trkpt lat="47.42389" lon="-0.56263">
        <ele>40.4</ele>
        <time>2021-07-04T10:21:28Z</time>
      </trkpt>
      <trkpt lat="47.42394" lon="-0.56269">
        <ele>40.2</ele>
        <time>2021-07-04T10:21:29Z</time>
      </trkpt>
      <trkpt lat="47.42403" lon="-0.56283">
        <ele>39.6</ele>
        <time>2021-07-04T10:21:31Z</time>
      </trkpt>
      <trkpt lat="47.42414" lon="-0.56297">
        <ele>39.2</ele>
        <time>2021-07-04T10:21:33Z</time>
      </trkpt>
      <trkpt lat="47.42424" lon="-0.56312">
        <ele>39.6</ele>
        <time>2021-07-04T10:21:35Z</time>
      </trkpt>
      <trkpt lat="47.42435" lon="-0.56326">
        <ele>39.6</ele>
        <time>2021-07-04T10:21:37Z</time>
      </trkpt>
      <trkpt lat="47.42446" lon="-0.56341">
        <ele>38.6</ele>
        <time>2021-07-04T10:21:39Z</time>
      </trkpt>
      <trkpt lat="47.42457" lon="-0.56353">
        <ele>38</ele>
        <time>2021-07-04T10:21:41Z</time>
      </trkpt>
      <trkpt lat="47.42469" lon="-0.56365">
        <ele>37.8</ele>
        <time>2021-07-04T10:21:43Z</time>
      </trkpt>
      <trkpt lat="47.42481" lon="-0.56378">
        <ele>37.6</ele>
        <time>2021-07-04T10:21:45Z</time>
      </trkpt>
      <trkpt lat="47.42487" lon="-0.56384">
        <ele>37.6</ele>
        <time>2021-07-04T10:21:46Z</time>
      </trkpt>
      <trkpt lat="47.42493" lon="-0.56391">
        <ele>37.2</ele>
        <time>2021-07-04T10:21:47Z</time>
      </trkpt>
      <trkpt lat="47.42505" lon="-0.56403">
        <ele>36.8</ele>
        <time>2021-07-04T10:21:49Z</time>
      </trkpt>
      <trkpt lat="47.42517" lon="-0.56415">
        <ele>36.6</ele>
        <time>2021-07-04T10:21:51Z</time>
      </trkpt>
      <trkpt lat="47.42529" lon="-0.56427">
        <ele>36.8</ele>
        <time>2021-07-04T10:21:53Z</time>
      </trkpt>
      <trkpt lat="47.42541" lon="-0.56437">
        <ele>36.4</ele>
        <time>2021-07-04T10:21:55Z</time>
      </trkpt>
      <trkpt lat="47.42547" lon="-0.5644">
        <ele>36.2</ele>
        <time>2021-07-04T10:21:56Z</time>
      </trkpt>
      <trkpt lat="47.42554" lon="-0.56443">
        <ele>36.4</ele>
        <time>2021-07-04T10:21:57Z</time>
      </trkpt>
      <trkpt lat="47.42568" lon="-0.56444">
        <ele>36.4</ele>
        <time>2021-07-04T10:21:59Z</time>
      </trkpt>
      <trkpt lat="47.42575" lon="-0.56443">
        <ele>36.6</ele>
        <time>2021-07-04T10:22:00Z</time>
      </trkpt>
      <trkpt lat="47.42582" lon="-0.56443">
        <ele>37</ele>
        <time>2021-07-04T10:22:01Z</time>
      </trkpt>
      <trkpt lat="47.42595" lon="-0.56449">
        <ele>37.2</ele>
        <time>2021-07-04T10:22:03Z</time>
      </trkpt>
      <trkpt lat="47.42609" lon="-0.56461">
        <ele>36.6</ele>
        <time>2021-07-04T10:22:05Z</time>
      </trkpt>
      <trkpt lat="47.42624" lon="-0.56468">
        <ele>36.6</ele>
        <time>2021-07-04T10:22:07Z</time>
      </trkpt>
      <trkpt lat="47.42632" lon="-0.5647">
        <ele>36.8</ele>
        <time>2021-07-04T10:22:08Z</time>
      </trkpt>
      <trkpt lat="47.4264" lon="-0.56472">
        <ele>36.6</ele>
        <time>2021-07-04T10:22:09Z</time>
      </trkpt>
      <trkpt lat="47.42656" lon="-0.56477">
        <ele>35.6</ele>
        <time>2021-07-04T10:22:11Z</time>
      </trkpt>
      <trkpt lat="47.42664" lon="-0.5648">
        <ele>35.2</ele>
        <time>2021-07-04T10:22:12Z</time>
      </trkpt>
      <trkpt lat="47.42672" lon="-0.56483">
        <ele>35</ele>
        <time>2021-07-04T10:22:13Z</time>
      </trkpt>
      <trkpt lat="47.4268" lon="-0.56485">
        <ele>34.8</ele>
        <time>2021-07-04T10:22:14Z</time>
      </trkpt>
      <trkpt lat="47.42688" lon="-0.56488">
        <ele>34.6</ele>
        <time>2021-07-04T10:22:15Z</time>
      </trkpt>
      <trkpt lat="47.42704" lon="-0.56498">
        <ele>33.8</ele>
        <time>2021-07-04T10:22:17Z</time>
      </trkpt>
      <trkpt lat="47.42712" lon="-0.56502">
        <ele>33.4</ele>
        <time>2021-07-04T10:22:18Z</time>
      </trkpt>
      <trkpt lat="47.4272" lon="-0.56505">
        <ele>33.4</ele>
        <time>2021-07-04T10:22:19Z</time>
      </trkpt>
      <trkpt lat="47.42736" lon="-0.56509">
        <ele>34.4</ele>
        <time>2021-07-04T10:22:21Z</time>
      </trkpt>
      <trkpt lat="47.42752" lon="-0.56513">
        <ele>34.4</ele>
        <time>2021-07-04T10:22:23Z</time>
      </trkpt>
      <trkpt lat="47.42768" lon="-0.56516">
        <ele>34.6</ele>
        <time>2021-07-04T10:22:25Z</time>
      </trkpt>
      <trkpt lat="47.42784" lon="-0.56518">
        <ele>34.8</ele>
        <time>2021-07-04T10:22:27Z</time>
      </trkpt>
      <trkpt lat="47.42799" lon="-0.56522">
        <ele>34.6</ele>
        <time>2021-07-04T10:22:29Z</time>
      </trkpt>
      <trkpt lat="47.42814" lon="-0.56526">
        <ele>34</ele>
        <time>2021-07-04T10:22:31Z</time>
      </trkpt>
      <trkpt lat="47.42828" lon="-0.56531">
        <ele>34.4</ele>
        <time>2021-07-04T10:22:33Z</time>
      </trkpt>
      <trkpt lat="47.42842" lon="-0.56535">
        <ele>34.8</ele>
        <time>2021-07-04T10:22:35Z</time>
      </trkpt>
      <trkpt lat="47.4285" lon="-0.56538">
        <ele>34.8</ele>
        <time>2021-07-04T10:22:36Z</time>
      </trkpt>
      <trkpt lat="47.42857" lon="-0.5654">
        <ele>34.8</ele>
        <time>2021-07-04T10:22:37Z</time>
      </trkpt>
      <trkpt lat="47.42872" lon="-0.56546">
        <ele>35</ele>
        <time>2021-07-04T10:22:39Z</time>
      </trkpt>
      <trkpt lat="47.42886" lon="-0.56553">
        <ele>35</ele>
        <time>2021-07-04T10:22:41Z</time>
      </trkpt>
      <trkpt lat="47.42901" lon="-0.56559">
        <ele>34.8</ele>
        <time>2021-07-04T10:22:43Z</time>
      </trkpt>
      <trkpt lat="47.42908" lon="-0.56563">
        <ele>34.8</ele>
        <time>2021-07-04T10:22:44Z</time>
      </trkpt>
      <trkpt lat="47.42915" lon="-0.56567">
        <ele>34.6</ele>
        <time>2021-07-04T10:22:45Z</time>
      </trkpt>
      <trkpt lat="47.4293" lon="-0.56576">
        <ele>35.2</ele>
        <time>2021-07-04T10:22:47Z</time>
      </trkpt>
      <trkpt lat="47.42944" lon="-0.56585">
        <ele>34.6</ele>
        <time>2021-07-04T10:22:49Z</time>
      </trkpt>
      <trkpt lat="47.42951" lon="-0.5659">
        <ele>34.6</ele>
        <time>2021-07-04T10:22:50Z</time>
      </trkpt>
      <trkpt lat="47.42958" lon="-0.56596">
        <ele>34.8</ele>
        <time>2021-07-04T10:22:51Z</time>
      </trkpt>
      <trkpt lat="47.42971" lon="-0.56608">
        <ele>35</ele>
        <time>2021-07-04T10:22:53Z</time>
      </trkpt>
      <trkpt lat="47.42984" lon="-0.56621">
        <ele>34.2</ele>
        <time>2021-07-04T10:22:55Z</time>
      </trkpt>
      <trkpt lat="47.42991" lon="-0.56627">
        <ele>34.4</ele>
        <time>2021-07-04T10:22:56Z</time>
      </trkpt>
      <trkpt lat="47.42997" lon="-0.56632">
        <ele>35.2</ele>
        <time>2021-07-04T10:22:57Z</time>
      </trkpt>
      <trkpt lat="47.43011" lon="-0.56643">
        <ele>35.8</ele>
        <time>2021-07-04T10:22:59Z</time>
      </trkpt>
      <trkpt lat="47.43024" lon="-0.56655">
        <ele>35.2</ele>
        <time>2021-07-04T10:23:01Z</time>
      </trkpt>
      <trkpt lat="47.43037" lon="-0.56666">
        <ele>35.6</ele>
        <time>2021-07-04T10:23:03Z</time>
      </trkpt>
      <trkpt lat="47.43049" lon="-0.56678">
        <ele>36</ele>
        <time>2021-07-04T10:23:05Z</time>
      </trkpt>
      <trkpt lat="47.43062" lon="-0.56691">
        <ele>35.8</ele>
        <time>2021-07-04T10:23:07Z</time>
      </trkpt>
      <trkpt lat="47.43074" lon="-0.56704">
        <ele>35.6</ele>
        <time>2021-07-04T10:23:09Z</time>
      </trkpt>
      <trkpt lat="47.4308" lon="-0.5671">
        <ele>35.4</ele>
        <time>2021-07-04T10:23:10Z</time>
      </trkpt>
      <trkpt lat="47.43086" lon="-0.56716">
        <ele>35.2</ele>
        <time>2021-07-04T10:23:11Z</time>
      </trkpt>
      <trkpt lat="47.43098" lon="-0.56728">
        <ele>35.6</ele>
        <time>2021-07-04T10:23:13Z</time>
      </trkpt>
      <trkpt lat="47.43109" lon="-0.5674">
        <ele>36</ele>
        <time>2021-07-04T10:23:15Z</time>
      </trkpt>
      <trkpt lat="47.43121" lon="-0.56752">
        <ele>36.2</ele>
        <time>2021-07-04T10:23:17Z</time>
      </trkpt>
      <trkpt lat="47.43127" lon="-0.56757">
        <ele>36.4</ele>
        <time>2021-07-04T10:23:18Z</time>
      </trkpt>
      <trkpt lat="47.43133" lon="-0.56763">
        <ele>36.4</ele>
        <time>2021-07-04T10:23:19Z</time>
      </trkpt>
      <trkpt lat="47.43144" lon="-0.56774">
        <ele>36.6</ele>
        <time>2021-07-04T10:23:21Z</time>
      </trkpt>
      <trkpt lat="47.43154" lon="-0.56786">
        <ele>37.2</ele>
        <time>2021-07-04T10:23:23Z</time>
      </trkpt>
      <trkpt lat="47.43165" lon="-0.56797">
        <ele>37.8</ele>
        <time>2021-07-04T10:23:25Z</time>
      </trkpt>
      <trkpt lat="47.43175" lon="-0.56808">
        <ele>38.2</ele>
        <time>2021-07-04T10:23:27Z</time>
      </trkpt>
      <trkpt lat="47.43186" lon="-0.5682">
        <ele>38.2</ele>
        <time>2021-07-04T10:23:29Z</time>
      </trkpt>
      <trkpt lat="47.43197" lon="-0.5683">
        <ele>38.4</ele>
        <time>2021-07-04T10:23:31Z</time>
      </trkpt>
      <trkpt lat="47.43208" lon="-0.56841">
        <ele>38.8</ele>
        <time>2021-07-04T10:23:33Z</time>
      </trkpt>
      <trkpt lat="47.43213" lon="-0.56847">
        <ele>38.6</ele>
        <time>2021-07-04T10:23:34Z</time>
      </trkpt>
      <trkpt lat="47.43218" lon="-0.56852">
        <ele>38.4</ele>
        <time>2021-07-04T10:23:35Z</time>
      </trkpt>
      <trkpt lat="47.43228" lon="-0.56863">
        <ele>38.2</ele>
        <time>2021-07-04T10:23:37Z</time>
      </trkpt>
      <trkpt lat="47.43237" lon="-0.56873">
        <ele>38.6</ele>
        <time>2021-07-04T10:23:39Z</time>
      </trkpt>
      <trkpt lat="47.43245" lon="-0.5688">
        <ele>39.4</ele>
        <time>2021-07-04T10:23:41Z</time>
      </trkpt>
      <trkpt lat="47.43253" lon="-0.56886">
        <ele>40.2</ele>
        <time>2021-07-04T10:23:43Z</time>
      </trkpt>
      <trkpt lat="47.43262" lon="-0.56891">
        <ele>40.2</ele>
        <time>2021-07-04T10:23:45Z</time>
      </trkpt>
      <trkpt lat="47.43267" lon="-0.56894">
        <ele>40</ele>
        <time>2021-07-04T10:23:46Z</time>
      </trkpt>
      <trkpt lat="47.43272" lon="-0.56899">
        <ele>40</ele>
        <time>2021-07-04T10:23:47Z</time>
      </trkpt>
      <trkpt lat="47.43276" lon="-0.56904">
        <ele>39.8</ele>
        <time>2021-07-04T10:23:48Z</time>
      </trkpt>
      <trkpt lat="47.43281" lon="-0.5691">
        <ele>39.6</ele>
        <time>2021-07-04T10:23:49Z</time>
      </trkpt>
      <trkpt lat="47.43291" lon="-0.56921">
        <ele>39.6</ele>
        <time>2021-07-04T10:23:51Z</time>
      </trkpt>
      <trkpt lat="47.43301" lon="-0.56931">
        <ele>40.2</ele>
        <time>2021-07-04T10:23:53Z</time>
      </trkpt>
      <trkpt lat="47.43312" lon="-0.56942">
        <ele>40.2</ele>
        <time>2021-07-04T10:23:55Z</time>
      </trkpt>
      <trkpt lat="47.43323" lon="-0.56953">
        <ele>40.2</ele>
        <time>2021-07-04T10:23:57Z</time>
      </trkpt>
      <trkpt lat="47.43328" lon="-0.56959">
        <ele>40.4</ele>
        <time>2021-07-04T10:23:58Z</time>
      </trkpt>
      <trkpt lat="47.43334" lon="-0.56964">
        <ele>40.4</ele>
        <time>2021-07-04T10:23:59Z</time>
      </trkpt>
      <trkpt lat="47.43344" lon="-0.56976">
        <ele>40.4</ele>
        <time>2021-07-04T10:24:01Z</time>
      </trkpt>
      <trkpt lat="47.43355" lon="-0.56987">
        <ele>40.8</ele>
        <time>2021-07-04T10:24:03Z</time>
      </trkpt>
      <trkpt lat="47.43366" lon="-0.56999">
        <ele>40.6</ele>
        <time>2021-07-04T10:24:05Z</time>
      </trkpt>
      <trkpt lat="47.43377" lon="-0.5701">
        <ele>39.8</ele>
        <time>2021-07-04T10:24:07Z</time>
      </trkpt>
      <trkpt lat="47.43388" lon="-0.57022">
        <ele>39.8</ele>
        <time>2021-07-04T10:24:09Z</time>
      </trkpt>
      <trkpt lat="47.434" lon="-0.57033">
        <ele>40.2</ele>
        <time>2021-07-04T10:24:11Z</time>
      </trkpt>
      <trkpt lat="47.43412" lon="-0.57044">
        <ele>40.2</ele>
        <time>2021-07-04T10:24:13Z</time>
      </trkpt>
      <trkpt lat="47.43424" lon="-0.57054">
        <ele>40</ele>
        <time>2021-07-04T10:24:15Z</time>
      </trkpt>
      <trkpt lat="47.43435" lon="-0.57065">
        <ele>40.6</ele>
        <time>2021-07-04T10:24:17Z</time>
      </trkpt>
      <trkpt lat="47.43447" lon="-0.57075">
        <ele>40.8</ele>
        <time>2021-07-04T10:24:19Z</time>
      </trkpt>
      <trkpt lat="47.43459" lon="-0.57084">
        <ele>40.2</ele>
        <time>2021-07-04T10:24:21Z</time>
      </trkpt>
      <trkpt lat="47.43471" lon="-0.57094">
        <ele>40.6</ele>
        <time>2021-07-04T10:24:23Z</time>
      </trkpt>
      <trkpt lat="47.43483" lon="-0.57104">
        <ele>40.6</ele>
        <time>2021-07-04T10:24:25Z</time>
      </trkpt>
      <trkpt lat="47.43495" lon="-0.57114">
        <ele>40.6</ele>
        <time>2021-07-04T10:24:27Z</time>
      </trkpt>
      <trkpt lat="47.43501" lon="-0.57119">
        <ele>40.8</ele>
        <time>2021-07-04T10:24:28Z</time>
      </trkpt>
      <trkpt lat="47.43507" lon="-0.57124">
        <ele>41</ele>
        <time>2021-07-04T10:24:29Z</time>
      </trkpt>
      <trkpt lat="47.43519" lon="-0.57133">
        <ele>41</ele>
        <time>2021-07-04T10:24:31Z</time>
      </trkpt>
      <trkpt lat="47.43525" lon="-0.57138">
        <ele>41.4</ele>
        <time>2021-07-04T10:24:32Z</time>
      </trkpt>
      <trkpt lat="47.43531" lon="-0.57142">
        <ele>41.6</ele>
        <time>2021-07-04T10:24:33Z</time>
      </trkpt>
      <trkpt lat="47.43544" lon="-0.57151">
        <ele>41.2</ele>
        <time>2021-07-04T10:24:35Z</time>
      </trkpt>
      <trkpt lat="47.43556" lon="-0.57159">
        <ele>41.4</ele>
        <time>2021-07-04T10:24:37Z</time>
      </trkpt>
      <trkpt lat="47.43569" lon="-0.57166">
        <ele>42.4</ele>
        <time>2021-07-04T10:24:39Z</time>
      </trkpt>
      <trkpt lat="47.43575" lon="-0.57169">
        <ele>42.8</ele>
        <time>2021-07-04T10:24:40Z</time>
      </trkpt>
      <trkpt lat="47.43582" lon="-0.57171">
        <ele>42.8</ele>
        <time>2021-07-04T10:24:41Z</time>
      </trkpt>
      <trkpt lat="47.43595" lon="-0.57175">
        <ele>42.4</ele>
        <time>2021-07-04T10:24:43Z</time>
      </trkpt>
      <trkpt lat="47.43608" lon="-0.57179">
        <ele>42.6</ele>
        <time>2021-07-04T10:24:45Z</time>
      </trkpt>
      <trkpt lat="47.43622" lon="-0.57182">
        <ele>43.2</ele>
        <time>2021-07-04T10:24:47Z</time>
      </trkpt>
      <trkpt lat="47.43635" lon="-0.57186">
        <ele>43.6</ele>
        <time>2021-07-04T10:24:49Z</time>
      </trkpt>
      <trkpt lat="47.43642" lon="-0.57187">
        <ele>44.2</ele>
        <time>2021-07-04T10:24:50Z</time>
      </trkpt>
      <trkpt lat="47.43648" lon="-0.57189">
        <ele>44.8</ele>
        <time>2021-07-04T10:24:51Z</time>
      </trkpt>
      <trkpt lat="47.43662" lon="-0.57193">
        <ele>45</ele>
        <time>2021-07-04T10:24:53Z</time>
      </trkpt>
      <trkpt lat="47.43676" lon="-0.57195">
        <ele>45</ele>
        <time>2021-07-04T10:24:55Z</time>
      </trkpt>
      <trkpt lat="47.43683" lon="-0.57197">
        <ele>45.2</ele>
        <time>2021-07-04T10:24:56Z</time>
      </trkpt>
      <trkpt lat="47.43689" lon="-0.57199">
        <ele>45.2</ele>
        <time>2021-07-04T10:24:57Z</time>
      </trkpt>
      <trkpt lat="47.43696" lon="-0.57201">
        <ele>44.6</ele>
        <time>2021-07-04T10:24:58Z</time>
      </trkpt>
      <trkpt lat="47.43703" lon="-0.57203">
        <ele>44.2</ele>
        <time>2021-07-04T10:24:59Z</time>
      </trkpt>
      <trkpt lat="47.43717" lon="-0.57206">
        <ele>43.8</ele>
        <time>2021-07-04T10:25:01Z</time>
      </trkpt>
      <trkpt lat="47.43731" lon="-0.57209">
        <ele>43.2</ele>
        <time>2021-07-04T10:25:03Z</time>
      </trkpt>
      <trkpt lat="47.43745" lon="-0.57212">
        <ele>43.4</ele>
        <time>2021-07-04T10:25:05Z</time>
      </trkpt>
      <trkpt lat="47.43759" lon="-0.57215">
        <ele>43</ele>
        <time>2021-07-04T10:25:07Z</time>
      </trkpt>
      <trkpt lat="47.43773" lon="-0.57217">
        <ele>44</ele>
        <time>2021-07-04T10:25:09Z</time>
      </trkpt>
      <trkpt lat="47.43781" lon="-0.57217">
        <ele>44.2</ele>
        <time>2021-07-04T10:25:10Z</time>
      </trkpt>
      <trkpt lat="47.43788" lon="-0.57217">
        <ele>44.6</ele>
        <time>2021-07-04T10:25:11Z</time>
      </trkpt>
      <trkpt lat="47.43795" lon="-0.57216">
        <ele>44.8</ele>
        <time>2021-07-04T10:25:12Z</time>
      </trkpt>
      <trkpt lat="47.43802" lon="-0.57215">
        <ele>45</ele>
        <time>2021-07-04T10:25:13Z</time>
      </trkpt>
      <trkpt lat="47.43817" lon="-0.57213">
        <ele>45.4</ele>
        <time>2021-07-04T10:25:15Z</time>
      </trkpt>
      <trkpt lat="47.43832" lon="-0.5721">
        <ele>45.4</ele>
        <time>2021-07-04T10:25:17Z</time>
      </trkpt>
      <trkpt lat="47.43846" lon="-0.57207">
        <ele>45.4</ele>
        <time>2021-07-04T10:25:19Z</time>
      </trkpt>
      <trkpt lat="47.43861" lon="-0.57204">
        <ele>45.2</ele>
        <time>2021-07-04T10:25:21Z</time>
      </trkpt>
      <trkpt lat="47.43876" lon="-0.57202">
        <ele>45.2</ele>
        <time>2021-07-04T10:25:23Z</time>
      </trkpt>
      <trkpt lat="47.43891" lon="-0.57199">
        <ele>45</ele>
        <time>2021-07-04T10:25:25Z</time>
      </trkpt>
      <trkpt lat="47.43898" lon="-0.57198">
        <ele>45</ele>
        <time>2021-07-04T10:25:26Z</time>
      </trkpt>
      <trkpt lat="47.43906" lon="-0.57197">
        <ele>45.2</ele>
        <time>2021-07-04T10:25:27Z</time>
      </trkpt>
      <trkpt lat="47.43921" lon="-0.57195">
        <ele>45.6</ele>
        <time>2021-07-04T10:25:29Z</time>
      </trkpt>
      <trkpt lat="47.43937" lon="-0.57194">
        <ele>45.6</ele>
        <time>2021-07-04T10:25:31Z</time>
      </trkpt>
      <trkpt lat="47.43945" lon="-0.57193">
        <ele>45.4</ele>
        <time>2021-07-04T10:25:32Z</time>
      </trkpt>
      <trkpt lat="47.43952" lon="-0.57193">
        <ele>45</ele>
        <time>2021-07-04T10:25:33Z</time>
      </trkpt>
      <trkpt lat="47.43967" lon="-0.57191">
        <ele>44.6</ele>
        <time>2021-07-04T10:25:35Z</time>
      </trkpt>
      <trkpt lat="47.43982" lon="-0.57187">
        <ele>45.4</ele>
        <time>2021-07-04T10:25:37Z</time>
      </trkpt>
      <trkpt lat="47.43996" lon="-0.57182">
        <ele>46.2</ele>
        <time>2021-07-04T10:25:39Z</time>
      </trkpt>
      <trkpt lat="47.4401" lon="-0.57176">
        <ele>46.4</ele>
        <time>2021-07-04T10:25:41Z</time>
      </trkpt>
      <trkpt lat="47.44017" lon="-0.57173">
        <ele>46.8</ele>
        <time>2021-07-04T10:25:42Z</time>
      </trkpt>
      <trkpt lat="47.44024" lon="-0.5717">
        <ele>47</ele>
        <time>2021-07-04T10:25:43Z</time>
      </trkpt>
      <trkpt lat="47.44037" lon="-0.57163">
        <ele>47.2</ele>
        <time>2021-07-04T10:25:45Z</time>
      </trkpt>
      <trkpt lat="47.44051" lon="-0.57157">
        <ele>47.6</ele>
        <time>2021-07-04T10:25:47Z</time>
      </trkpt>
      <trkpt lat="47.44057" lon="-0.57153">
        <ele>47.8</ele>
        <time>2021-07-04T10:25:48Z</time>
      </trkpt>
      <trkpt lat="47.44064" lon="-0.5715">
        <ele>47.6</ele>
        <time>2021-07-04T10:25:49Z</time>
      </trkpt>
      <trkpt lat="47.44076" lon="-0.57143">
        <ele>48.2</ele>
        <time>2021-07-04T10:25:51Z</time>
      </trkpt>
      <trkpt lat="47.44087" lon="-0.57136">
        <ele>49.2</ele>
        <time>2021-07-04T10:25:53Z</time>
      </trkpt>
      <trkpt lat="47.44093" lon="-0.57132">
        <ele>49.6</ele>
        <time>2021-07-04T10:25:54Z</time>
      </trkpt>
      <trkpt lat="47.44098" lon="-0.5713">
        <ele>50</ele>
        <time>2021-07-04T10:25:55Z</time>
      </trkpt>
      <trkpt lat="47.44103" lon="-0.57129">
        <ele>50.4</ele>
        <time>2021-07-04T10:25:56Z</time>
      </trkpt>
      <trkpt lat="47.44108" lon="-0.5713">
        <ele>50.8</ele>
        <time>2021-07-04T10:25:57Z</time>
      </trkpt>
      <trkpt lat="47.44118" lon="-0.57136">
        <ele>51</ele>
        <time>2021-07-04T10:25:59Z</time>
      </trkpt>
      <trkpt lat="47.44127" lon="-0.57148">
        <ele>51</ele>
        <time>2021-07-04T10:26:01Z</time>
      </trkpt>
      <trkpt lat="47.44131" lon="-0.57154">
        <ele>51</ele>
        <time>2021-07-04T10:26:02Z</time>
      </trkpt>
      <trkpt lat="47.44136" lon="-0.5716">
        <ele>50.6</ele>
        <time>2021-07-04T10:26:03Z</time>
      </trkpt>
      <trkpt lat="47.44145" lon="-0.57169">
        <ele>50.2</ele>
        <time>2021-07-04T10:26:05Z</time>
      </trkpt>
      <trkpt lat="47.44151" lon="-0.57171">
        <ele>50.4</ele>
        <time>2021-07-04T10:26:06Z</time>
      </trkpt>
      <trkpt lat="47.44158" lon="-0.57171">
        <ele>50.2</ele>
        <time>2021-07-04T10:26:07Z</time>
      </trkpt>
      <trkpt lat="47.4417" lon="-0.57173">
        <ele>50</ele>
        <time>2021-07-04T10:26:09Z</time>
      </trkpt>
      <trkpt lat="47.44183" lon="-0.57174">
        <ele>50.2</ele>
        <time>2021-07-04T10:26:11Z</time>
      </trkpt>
      <trkpt lat="47.44189" lon="-0.57174">
        <ele>50.6</ele>
        <time>2021-07-04T10:26:12Z</time>
      </trkpt>
      <trkpt lat="47.44196" lon="-0.57175">
        <ele>50.6</ele>
        <time>2021-07-04T10:26:13Z</time>
      </trkpt>
      <trkpt lat="47.44209" lon="-0.57176">
        <ele>50.6</ele>
        <time>2021-07-04T10:26:15Z</time>
      </trkpt>
      <trkpt lat="47.44221" lon="-0.57173">
        <ele>50.8</ele>
        <time>2021-07-04T10:26:17Z</time>
      </trkpt>
      <trkpt lat="47.44233" lon="-0.57163">
        <ele>51.4</ele>
        <time>2021-07-04T10:26:19Z</time>
      </trkpt>
      <trkpt lat="47.44243" lon="-0.57151">
        <ele>51.4</ele>
        <time>2021-07-04T10:26:21Z</time>
      </trkpt>
      <trkpt lat="47.44255" lon="-0.57139">
        <ele>50.6</ele>
        <time>2021-07-04T10:26:23Z</time>
      </trkpt>
      <trkpt lat="47.44261" lon="-0.57134">
        <ele>50</ele>
        <time>2021-07-04T10:26:24Z</time>
      </trkpt>
      <trkpt lat="47.44268" lon="-0.57129">
        <ele>49.6</ele>
        <time>2021-07-04T10:26:25Z</time>
      </trkpt>
      <trkpt lat="47.44276" lon="-0.57125">
        <ele>49.2</ele>
        <time>2021-07-04T10:26:26Z</time>
      </trkpt>
      <trkpt lat="47.44283" lon="-0.5712">
        <ele>48.8</ele>
        <time>2021-07-04T10:26:27Z</time>
      </trkpt>
      <trkpt lat="47.443" lon="-0.57112">
        <ele>47</ele>
        <time>2021-07-04T10:26:29Z</time>
      </trkpt>
      <trkpt lat="47.44308" lon="-0.57108">
        <ele>45.4</ele>
        <time>2021-07-04T10:26:30Z</time>
      </trkpt>
      <trkpt lat="47.44317" lon="-0.57104">
        <ele>44.6</ele>
        <time>2021-07-04T10:26:31Z</time>
      </trkpt>
      <trkpt lat="47.44326" lon="-0.571">
        <ele>43.8</ele>
        <time>2021-07-04T10:26:32Z</time>
      </trkpt>
      <trkpt lat="47.44335" lon="-0.57096">
        <ele>43</ele>
        <time>2021-07-04T10:26:33Z</time>
      </trkpt>
      <trkpt lat="47.44345" lon="-0.57093">
        <ele>42.6</ele>
        <time>2021-07-04T10:26:34Z</time>
      </trkpt>
      <trkpt lat="47.44354" lon="-0.57089">
        <ele>42.4</ele>
        <time>2021-07-04T10:26:35Z</time>
      </trkpt>
      <trkpt lat="47.44373" lon="-0.57082">
        <ele>41.6</ele>
        <time>2021-07-04T10:26:37Z</time>
      </trkpt>
      <trkpt lat="47.44391" lon="-0.57075">
        <ele>41.2</ele>
        <time>2021-07-04T10:26:39Z</time>
      </trkpt>
      <trkpt lat="47.444" lon="-0.57071">
        <ele>41</ele>
        <time>2021-07-04T10:26:40Z</time>
      </trkpt>
      <trkpt lat="47.44409" lon="-0.57067">
        <ele>40.8</ele>
        <time>2021-07-04T10:26:41Z</time>
      </trkpt>
      <trkpt lat="47.44427" lon="-0.57059">
        <ele>40.2</ele>
        <time>2021-07-04T10:26:43Z</time>
      </trkpt>
      <trkpt lat="47.44445" lon="-0.57052">
        <ele>39.6</ele>
        <time>2021-07-04T10:26:45Z</time>
      </trkpt>
      <trkpt lat="47.44453" lon="-0.57048">
        <ele>39.6</ele>
        <time>2021-07-04T10:26:46Z</time>
      </trkpt>
      <trkpt lat="47.44462" lon="-0.57044">
        <ele>39.4</ele>
        <time>2021-07-04T10:26:47Z</time>
      </trkpt>
      <trkpt lat="47.4448" lon="-0.57037">
        <ele>39.6</ele>
        <time>2021-07-04T10:26:49Z</time>
      </trkpt>
      <trkpt lat="47.44498" lon="-0.57031">
        <ele>39.6</ele>
        <time>2021-07-04T10:26:51Z</time>
      </trkpt>
      <trkpt lat="47.44514" lon="-0.57023">
        <ele>39.4</ele>
        <time>2021-07-04T10:26:53Z</time>
      </trkpt>
      <trkpt lat="47.4453" lon="-0.57017">
        <ele>39.2</ele>
        <time>2021-07-04T10:26:55Z</time>
      </trkpt>
      <trkpt lat="47.44546" lon="-0.57012">
        <ele>39.6</ele>
        <time>2021-07-04T10:26:57Z</time>
      </trkpt>
      <trkpt lat="47.4456" lon="-0.57007">
        <ele>40.4</ele>
        <time>2021-07-04T10:26:59Z</time>
      </trkpt>
      <trkpt lat="47.44565" lon="-0.57002">
        <ele>41</ele>
        <time>2021-07-04T10:27:00Z</time>
      </trkpt>
      <trkpt lat="47.44568" lon="-0.56995">
        <ele>41.4</ele>
        <time>2021-07-04T10:27:01Z</time>
      </trkpt>
      <trkpt lat="47.44566" lon="-0.5698">
        <ele>41.2</ele>
        <time>2021-07-04T10:27:03Z</time>
      </trkpt>
      <trkpt lat="47.44564" lon="-0.56972">
        <ele>40.8</ele>
        <time>2021-07-04T10:27:04Z</time>
      </trkpt>
      <trkpt lat="47.44562" lon="-0.56964">
        <ele>40.6</ele>
        <time>2021-07-04T10:27:05Z</time>
      </trkpt>
      <trkpt lat="47.44559" lon="-0.56946">
        <ele>40.4</ele>
        <time>2021-07-04T10:27:07Z</time>
      </trkpt>
      <trkpt lat="47.44555" lon="-0.56929">
        <ele>40.8</ele>
        <time>2021-07-04T10:27:09Z</time>
      </trkpt>
      <trkpt lat="47.44553" lon="-0.5692">
        <ele>41.2</ele>
        <time>2021-07-04T10:27:10Z</time>
      </trkpt>
      <trkpt lat="47.44551" lon="-0.56911">
        <ele>40.8</ele>
        <time>2021-07-04T10:27:11Z</time>
      </trkpt>
      <trkpt lat="47.44546" lon="-0.56894">
        <ele>40.4</ele>
        <time>2021-07-04T10:27:13Z</time>
      </trkpt>
      <trkpt lat="47.44542" lon="-0.56878">
        <ele>40.6</ele>
        <time>2021-07-04T10:27:15Z</time>
      </trkpt>
      <trkpt lat="47.4454" lon="-0.56871">
        <ele>40.8</ele>
        <time>2021-07-04T10:27:16Z</time>
      </trkpt>
      <trkpt lat="47.44536" lon="-0.56865">
        <ele>40.8</ele>
        <time>2021-07-04T10:27:17Z</time>
      </trkpt>
      <trkpt lat="47.44527" lon="-0.56858">
        <ele>40.2</ele>
        <time>2021-07-04T10:27:19Z</time>
      </trkpt>
      <trkpt lat="47.44524" lon="-0.56857">
        <ele>39.6</ele>
        <time>2021-07-04T10:27:20Z</time>
      </trkpt>
      <trkpt lat="47.4452" lon="-0.56858">
        <ele>39.2</ele>
        <time>2021-07-04T10:27:21Z</time>
      </trkpt>
      <trkpt lat="47.44513" lon="-0.56865">
        <ele>39.2</ele>
        <time>2021-07-04T10:27:23Z</time>
      </trkpt>
      <trkpt lat="47.44506" lon="-0.56874">
        <ele>39.6</ele>
        <time>2021-07-04T10:27:25Z</time>
      </trkpt>
      <trkpt lat="47.44502" lon="-0.56878">
        <ele>40.2</ele>
        <time>2021-07-04T10:27:26Z</time>
      </trkpt>
    </trkseg>
  </trk>
</gpx>